<?xml version="1.0" encoding="UTF-8" standalone="no" ?>
<gpx xmlns="http://www.topografix.com/GPX/1/1" xmlns:xsi="http://www.w3.org/2001/XMLSchema-instance" xsi:schemaLocation="http://www.topografix.com/GPX/1/1 http://www.topografix.com/GPX/1/1/gpx.xsd" version="1.1" creator="VisuGPX - https://www.visugpx.com">
  <metadata>
    <name>Rando VTT St Benoît 2024</name>
    <desc><![CDATA[Bonne rando..... ]]></desc>
  </metadata>
  <trk>
    <name><![CDATA[Rando VTT St Benoît 2024_1]]></name>
    <trkseg>
      <trkpt lat="46.55821" lon="0.34331">
        <ele>120.2</ele>
        <time>2024-01-14T07:40:37Z</time>
      </trkpt>
      <trkpt lat="46.55821" lon="0.34317">
        <ele>120.2</ele>
        <time>2024-01-14T07:40:46Z</time>
      </trkpt>
      <trkpt lat="46.55822" lon="0.34302">
        <ele>119.8</ele>
        <time>2024-01-14T07:40:52Z</time>
      </trkpt>
      <trkpt lat="46.55825" lon="0.34288">
        <ele>120</ele>
        <time>2024-01-14T07:41:00Z</time>
      </trkpt>
      <trkpt lat="46.55825" lon="0.34283">
        <ele>120</ele>
        <time>2024-01-14T07:41:07Z</time>
      </trkpt>
      <trkpt lat="46.55822" lon="0.34282">
        <ele>120.2</ele>
        <time>2024-01-14T07:41:17Z</time>
      </trkpt>
      <trkpt lat="46.55821" lon="0.34293">
        <ele>120</ele>
        <time>2024-01-14T07:41:23Z</time>
      </trkpt>
      <trkpt lat="46.5582" lon="0.34301">
        <ele>119.8</ele>
        <time>2024-01-14T07:41:27Z</time>
      </trkpt>
      <trkpt lat="46.55821" lon="0.34305">
        <ele>120</ele>
        <time>2024-01-14T07:41:29Z</time>
      </trkpt>
      <trkpt lat="46.5582" lon="0.34319">
        <ele>120.2</ele>
        <time>2024-01-14T07:41:35Z</time>
      </trkpt>
      <trkpt lat="46.55818" lon="0.34335">
        <ele>120</ele>
        <time>2024-01-14T07:41:43Z</time>
      </trkpt>
      <trkpt lat="46.55814" lon="0.34349">
        <ele>120</ele>
        <time>2024-01-14T07:41:50Z</time>
      </trkpt>
      <trkpt lat="46.55813" lon="0.34351">
        <ele>120</ele>
        <time>2024-01-14T07:41:51Z</time>
      </trkpt>
      <trkpt lat="46.55813" lon="0.34363">
        <ele>119.8</ele>
        <time>2024-01-14T07:41:55Z</time>
      </trkpt>
      <trkpt lat="46.55811" lon="0.34385">
        <ele>120</ele>
        <time>2024-01-14T07:42:03Z</time>
      </trkpt>
      <trkpt lat="46.55811" lon="0.34387">
        <ele>120</ele>
        <time>2024-01-14T07:42:04Z</time>
      </trkpt>
      <trkpt lat="46.55809" lon="0.34398">
        <ele>120</ele>
        <time>2024-01-14T07:42:07Z</time>
      </trkpt>
      <trkpt lat="46.55809" lon="0.34411">
        <ele>120.2</ele>
        <time>2024-01-14T07:42:10Z</time>
      </trkpt>
      <trkpt lat="46.55807" lon="0.34414">
        <ele>120.2</ele>
        <time>2024-01-14T07:42:11Z</time>
      </trkpt>
      <trkpt lat="46.55796" lon="0.34422">
        <ele>120.4</ele>
        <time>2024-01-14T07:42:16Z</time>
      </trkpt>
      <trkpt lat="46.55783" lon="0.34422">
        <ele>120.4</ele>
        <time>2024-01-14T07:42:21Z</time>
      </trkpt>
      <trkpt lat="46.55761" lon="0.34424">
        <ele>120.6</ele>
        <time>2024-01-14T07:42:27Z</time>
      </trkpt>
      <trkpt lat="46.55734" lon="0.34428">
        <ele>120.4</ele>
        <time>2024-01-14T07:42:34Z</time>
      </trkpt>
      <trkpt lat="46.55714" lon="0.34432">
        <ele>120.2</ele>
        <time>2024-01-14T07:42:40Z</time>
      </trkpt>
      <trkpt lat="46.55693" lon="0.34433">
        <ele>120</ele>
        <time>2024-01-14T07:42:47Z</time>
      </trkpt>
      <trkpt lat="46.55673" lon="0.34437">
        <ele>119.4</ele>
        <time>2024-01-14T07:42:53Z</time>
      </trkpt>
      <trkpt lat="46.5567" lon="0.34437">
        <ele>119.4</ele>
        <time>2024-01-14T07:42:54Z</time>
      </trkpt>
      <trkpt lat="46.55659" lon="0.34438">
        <ele>119.2</ele>
        <time>2024-01-14T07:42:57Z</time>
      </trkpt>
      <trkpt lat="46.55649" lon="0.34438">
        <ele>118.8</ele>
        <time>2024-01-14T07:43:00Z</time>
      </trkpt>
      <trkpt lat="46.55643" lon="0.34443">
        <ele>118.8</ele>
        <time>2024-01-14T07:43:03Z</time>
      </trkpt>
      <trkpt lat="46.55642" lon="0.34447">
        <ele>118.8</ele>
        <time>2024-01-14T07:43:04Z</time>
      </trkpt>
      <trkpt lat="46.55642" lon="0.34472">
        <ele>118.6</ele>
        <time>2024-01-14T07:43:09Z</time>
      </trkpt>
      <trkpt lat="46.55643" lon="0.34514">
        <ele>118.2</ele>
        <time>2024-01-14T07:43:17Z</time>
      </trkpt>
      <trkpt lat="46.55644" lon="0.34559">
        <ele>118</ele>
        <time>2024-01-14T07:43:25Z</time>
      </trkpt>
      <trkpt lat="46.55649" lon="0.34594">
        <ele>117.8</ele>
        <time>2024-01-14T07:43:32Z</time>
      </trkpt>
      <trkpt lat="46.55659" lon="0.34635">
        <ele>117.8</ele>
        <time>2024-01-14T07:43:40Z</time>
      </trkpt>
      <trkpt lat="46.5567" lon="0.34672">
        <ele>117.6</ele>
        <time>2024-01-14T07:43:48Z</time>
      </trkpt>
      <trkpt lat="46.55683" lon="0.34713">
        <ele>117.8</ele>
        <time>2024-01-14T07:43:56Z</time>
      </trkpt>
      <trkpt lat="46.55699" lon="0.34761">
        <ele>117.8</ele>
        <time>2024-01-14T07:44:05Z</time>
      </trkpt>
      <trkpt lat="46.55713" lon="0.348">
        <ele>117.6</ele>
        <time>2024-01-14T07:44:13Z</time>
      </trkpt>
      <trkpt lat="46.55729" lon="0.34844">
        <ele>117.4</ele>
        <time>2024-01-14T07:44:20Z</time>
      </trkpt>
      <trkpt lat="46.55736" lon="0.34864">
        <ele>117</ele>
        <time>2024-01-14T07:44:23Z</time>
      </trkpt>
      <trkpt lat="46.55744" lon="0.34892">
        <ele>116.4</ele>
        <time>2024-01-14T07:44:27Z</time>
      </trkpt>
      <trkpt lat="46.55752" lon="0.34914">
        <ele>116</ele>
        <time>2024-01-14T07:44:30Z</time>
      </trkpt>
      <trkpt lat="46.55759" lon="0.34935">
        <ele>115.2</ele>
        <time>2024-01-14T07:44:33Z</time>
      </trkpt>
      <trkpt lat="46.55763" lon="0.34947">
        <ele>114.8</ele>
        <time>2024-01-14T07:44:35Z</time>
      </trkpt>
      <trkpt lat="46.55766" lon="0.34957">
        <ele>114.6</ele>
        <time>2024-01-14T07:44:37Z</time>
      </trkpt>
      <trkpt lat="46.55766" lon="0.34966">
        <ele>113.8</ele>
        <time>2024-01-14T07:44:39Z</time>
      </trkpt>
      <trkpt lat="46.55756" lon="0.34978">
        <ele>112.8</ele>
        <time>2024-01-14T07:44:43Z</time>
      </trkpt>
      <trkpt lat="46.5574" lon="0.34979">
        <ele>111.8</ele>
        <time>2024-01-14T07:44:47Z</time>
      </trkpt>
      <trkpt lat="46.55736" lon="0.34979">
        <ele>111.8</ele>
        <time>2024-01-14T07:44:48Z</time>
      </trkpt>
      <trkpt lat="46.55726" lon="0.34977">
        <ele>111.6</ele>
        <time>2024-01-14T07:44:50Z</time>
      </trkpt>
      <trkpt lat="46.55717" lon="0.34972">
        <ele>111.6</ele>
        <time>2024-01-14T07:44:52Z</time>
      </trkpt>
      <trkpt lat="46.55712" lon="0.3497">
        <ele>111.6</ele>
        <time>2024-01-14T07:44:53Z</time>
      </trkpt>
      <trkpt lat="46.55703" lon="0.34962">
        <ele>111.8</ele>
        <time>2024-01-14T07:44:55Z</time>
      </trkpt>
      <trkpt lat="46.55696" lon="0.34952">
        <ele>111.8</ele>
        <time>2024-01-14T07:44:57Z</time>
      </trkpt>
      <trkpt lat="46.55693" lon="0.34946">
        <ele>112</ele>
        <time>2024-01-14T07:44:58Z</time>
      </trkpt>
      <trkpt lat="46.55676" lon="0.34902">
        <ele>112.6</ele>
        <time>2024-01-14T07:45:05Z</time>
      </trkpt>
      <trkpt lat="46.55672" lon="0.3489">
        <ele>112.8</ele>
        <time>2024-01-14T07:45:09Z</time>
      </trkpt>
      <trkpt lat="46.55669" lon="0.34888">
        <ele>112.6</ele>
        <time>2024-01-14T07:45:13Z</time>
      </trkpt>
      <trkpt lat="46.55667" lon="0.34888">
        <ele>112.6</ele>
        <time>2024-01-14T07:45:14Z</time>
      </trkpt>
      <trkpt lat="46.55655" lon="0.34896">
        <ele>111.6</ele>
        <time>2024-01-14T07:45:18Z</time>
      </trkpt>
      <trkpt lat="46.5564" lon="0.34905">
        <ele>110.4</ele>
        <time>2024-01-14T07:45:23Z</time>
      </trkpt>
      <trkpt lat="46.55636" lon="0.34905">
        <ele>109.6</ele>
        <time>2024-01-14T07:45:25Z</time>
      </trkpt>
      <trkpt lat="46.55635" lon="0.34903">
        <ele>109.2</ele>
        <time>2024-01-14T07:45:26Z</time>
      </trkpt>
      <trkpt lat="46.55634" lon="0.34901">
        <ele>108.8</ele>
        <time>2024-01-14T07:45:27Z</time>
      </trkpt>
      <trkpt lat="46.5563" lon="0.3489">
        <ele>108.6</ele>
        <time>2024-01-14T07:45:30Z</time>
      </trkpt>
      <trkpt lat="46.55629" lon="0.34887">
        <ele>108.4</ele>
        <time>2024-01-14T07:45:31Z</time>
      </trkpt>
      <trkpt lat="46.55626" lon="0.34885">
        <ele>108.2</ele>
        <time>2024-01-14T07:45:32Z</time>
      </trkpt>
      <trkpt lat="46.5562" lon="0.34884">
        <ele>107.6</ele>
        <time>2024-01-14T07:45:34Z</time>
      </trkpt>
      <trkpt lat="46.55618" lon="0.34884">
        <ele>106.8</ele>
        <time>2024-01-14T07:45:35Z</time>
      </trkpt>
      <trkpt lat="46.55612" lon="0.34879">
        <ele>105.6</ele>
        <time>2024-01-14T07:45:37Z</time>
      </trkpt>
      <trkpt lat="46.55606" lon="0.34874">
        <ele>104.8</ele>
        <time>2024-01-14T07:45:39Z</time>
      </trkpt>
      <trkpt lat="46.55602" lon="0.34872">
        <ele>104.6</ele>
        <time>2024-01-14T07:45:40Z</time>
      </trkpt>
      <trkpt lat="46.55594" lon="0.34868">
        <ele>103.2</ele>
        <time>2024-01-14T07:45:42Z</time>
      </trkpt>
      <trkpt lat="46.55589" lon="0.34865">
        <ele>101.6</ele>
        <time>2024-01-14T07:45:43Z</time>
      </trkpt>
      <trkpt lat="46.55585" lon="0.34863">
        <ele>100.8</ele>
        <time>2024-01-14T07:45:44Z</time>
      </trkpt>
      <trkpt lat="46.55581" lon="0.3486">
        <ele>99.4</ele>
        <time>2024-01-14T07:45:45Z</time>
      </trkpt>
      <trkpt lat="46.55568" lon="0.3485">
        <ele>98.4</ele>
        <time>2024-01-14T07:45:48Z</time>
      </trkpt>
      <trkpt lat="46.55563" lon="0.34846">
        <ele>98.2</ele>
        <time>2024-01-14T07:45:49Z</time>
      </trkpt>
      <trkpt lat="46.55558" lon="0.34842">
        <ele>97.8</ele>
        <time>2024-01-14T07:45:50Z</time>
      </trkpt>
      <trkpt lat="46.55552" lon="0.3484">
        <ele>97.2</ele>
        <time>2024-01-14T07:45:51Z</time>
      </trkpt>
      <trkpt lat="46.55546" lon="0.34837">
        <ele>97</ele>
        <time>2024-01-14T07:45:52Z</time>
      </trkpt>
      <trkpt lat="46.5554" lon="0.34833">
        <ele>96.8</ele>
        <time>2024-01-14T07:45:53Z</time>
      </trkpt>
      <trkpt lat="46.55534" lon="0.34833">
        <ele>96.2</ele>
        <time>2024-01-14T07:45:54Z</time>
      </trkpt>
      <trkpt lat="46.55527" lon="0.34832">
        <ele>95.4</ele>
        <time>2024-01-14T07:45:55Z</time>
      </trkpt>
      <trkpt lat="46.55515" lon="0.34829">
        <ele>94.4</ele>
        <time>2024-01-14T07:45:57Z</time>
      </trkpt>
      <trkpt lat="46.55511" lon="0.34827">
        <ele>93.6</ele>
        <time>2024-01-14T07:45:58Z</time>
      </trkpt>
      <trkpt lat="46.55507" lon="0.34825">
        <ele>92.8</ele>
        <time>2024-01-14T07:45:59Z</time>
      </trkpt>
      <trkpt lat="46.55505" lon="0.34822">
        <ele>92</ele>
        <time>2024-01-14T07:46:00Z</time>
      </trkpt>
      <trkpt lat="46.55502" lon="0.34819">
        <ele>91</ele>
        <time>2024-01-14T07:46:01Z</time>
      </trkpt>
      <trkpt lat="46.55494" lon="0.34811">
        <ele>89.4</ele>
        <time>2024-01-14T07:46:03Z</time>
      </trkpt>
      <trkpt lat="46.55481" lon="0.34792">
        <ele>88.4</ele>
        <time>2024-01-14T07:46:06Z</time>
      </trkpt>
      <trkpt lat="46.55467" lon="0.34773">
        <ele>87</ele>
        <time>2024-01-14T07:46:09Z</time>
      </trkpt>
      <trkpt lat="46.5546" lon="0.34758">
        <ele>85.8</ele>
        <time>2024-01-14T07:46:11Z</time>
      </trkpt>
      <trkpt lat="46.55452" lon="0.34746">
        <ele>84.6</ele>
        <time>2024-01-14T07:46:13Z</time>
      </trkpt>
      <trkpt lat="46.55445" lon="0.34741">
        <ele>84</ele>
        <time>2024-01-14T07:46:15Z</time>
      </trkpt>
      <trkpt lat="46.55441" lon="0.34739">
        <ele>83.8</ele>
        <time>2024-01-14T07:46:16Z</time>
      </trkpt>
      <trkpt lat="46.55436" lon="0.34735">
        <ele>83</ele>
        <time>2024-01-14T07:46:17Z</time>
      </trkpt>
      <trkpt lat="46.55432" lon="0.34732">
        <ele>81.6</ele>
        <time>2024-01-14T07:46:18Z</time>
      </trkpt>
      <trkpt lat="46.55424" lon="0.34723">
        <ele>79.8</ele>
        <time>2024-01-14T07:46:20Z</time>
      </trkpt>
      <trkpt lat="46.55419" lon="0.3472">
        <ele>79</ele>
        <time>2024-01-14T07:46:21Z</time>
      </trkpt>
      <trkpt lat="46.55414" lon="0.34717">
        <ele>78.2</ele>
        <time>2024-01-14T07:46:22Z</time>
      </trkpt>
      <trkpt lat="46.5541" lon="0.34715">
        <ele>77</ele>
        <time>2024-01-14T07:46:23Z</time>
      </trkpt>
      <trkpt lat="46.55405" lon="0.34714">
        <ele>76</ele>
        <time>2024-01-14T07:46:24Z</time>
      </trkpt>
      <trkpt lat="46.55403" lon="0.34716">
        <ele>75.6</ele>
        <time>2024-01-14T07:46:25Z</time>
      </trkpt>
      <trkpt lat="46.55399" lon="0.34723">
        <ele>74.8</ele>
        <time>2024-01-14T07:46:27Z</time>
      </trkpt>
      <trkpt lat="46.55394" lon="0.34732">
        <ele>74.4</ele>
        <time>2024-01-14T07:46:29Z</time>
      </trkpt>
      <trkpt lat="46.55388" lon="0.34744">
        <ele>74.4</ele>
        <time>2024-01-14T07:46:31Z</time>
      </trkpt>
      <trkpt lat="46.55382" lon="0.34758">
        <ele>74.6</ele>
        <time>2024-01-14T07:46:33Z</time>
      </trkpt>
      <trkpt lat="46.55364" lon="0.34802">
        <ele>74.4</ele>
        <time>2024-01-14T07:46:39Z</time>
      </trkpt>
      <trkpt lat="46.55356" lon="0.34851">
        <ele>74.4</ele>
        <time>2024-01-14T07:46:45Z</time>
      </trkpt>
      <trkpt lat="46.55355" lon="0.34859">
        <ele>74.4</ele>
        <time>2024-01-14T07:46:46Z</time>
      </trkpt>
      <trkpt lat="46.55357" lon="0.349">
        <ele>74.4</ele>
        <time>2024-01-14T07:46:51Z</time>
      </trkpt>
      <trkpt lat="46.55359" lon="0.34909">
        <ele>74.4</ele>
        <time>2024-01-14T07:46:52Z</time>
      </trkpt>
      <trkpt lat="46.55362" lon="0.34925">
        <ele>74.4</ele>
        <time>2024-01-14T07:46:54Z</time>
      </trkpt>
      <trkpt lat="46.55366" lon="0.34939">
        <ele>74.4</ele>
        <time>2024-01-14T07:46:56Z</time>
      </trkpt>
      <trkpt lat="46.55383" lon="0.3498">
        <ele>74.2</ele>
        <time>2024-01-14T07:47:02Z</time>
      </trkpt>
      <trkpt lat="46.55387" lon="0.34985">
        <ele>74.4</ele>
        <time>2024-01-14T07:47:03Z</time>
      </trkpt>
      <trkpt lat="46.55396" lon="0.34993">
        <ele>75.2</ele>
        <time>2024-01-14T07:47:05Z</time>
      </trkpt>
      <trkpt lat="46.55401" lon="0.34996">
        <ele>75.2</ele>
        <time>2024-01-14T07:47:06Z</time>
      </trkpt>
      <trkpt lat="46.55418" lon="0.35009">
        <ele>75.8</ele>
        <time>2024-01-14T07:47:10Z</time>
      </trkpt>
      <trkpt lat="46.55421" lon="0.35013">
        <ele>76</ele>
        <time>2024-01-14T07:47:11Z</time>
      </trkpt>
      <trkpt lat="46.55428" lon="0.35031">
        <ele>77</ele>
        <time>2024-01-14T07:47:15Z</time>
      </trkpt>
      <trkpt lat="46.5544" lon="0.3506">
        <ele>76.4</ele>
        <time>2024-01-14T07:47:19Z</time>
      </trkpt>
      <trkpt lat="46.55458" lon="0.35112">
        <ele>75.6</ele>
        <time>2024-01-14T07:47:25Z</time>
      </trkpt>
      <trkpt lat="46.5547" lon="0.35154">
        <ele>75</ele>
        <time>2024-01-14T07:47:30Z</time>
      </trkpt>
      <trkpt lat="46.55482" lon="0.35191">
        <ele>75.4</ele>
        <time>2024-01-14T07:47:35Z</time>
      </trkpt>
      <trkpt lat="46.55494" lon="0.35227">
        <ele>76</ele>
        <time>2024-01-14T07:47:40Z</time>
      </trkpt>
      <trkpt lat="46.55497" lon="0.35234">
        <ele>76.2</ele>
        <time>2024-01-14T07:47:41Z</time>
      </trkpt>
      <trkpt lat="46.55498" lon="0.35242">
        <ele>76.2</ele>
        <time>2024-01-14T07:47:42Z</time>
      </trkpt>
      <trkpt lat="46.55498" lon="0.35261">
        <ele>76.4</ele>
        <time>2024-01-14T07:47:44Z</time>
      </trkpt>
      <trkpt lat="46.55495" lon="0.35277">
        <ele>76.4</ele>
        <time>2024-01-14T07:47:46Z</time>
      </trkpt>
      <trkpt lat="46.55489" lon="0.35293">
        <ele>76.2</ele>
        <time>2024-01-14T07:47:48Z</time>
      </trkpt>
      <trkpt lat="46.55454" lon="0.35366">
        <ele>75.6</ele>
        <time>2024-01-14T07:47:57Z</time>
      </trkpt>
      <trkpt lat="46.5545" lon="0.35373">
        <ele>75.6</ele>
        <time>2024-01-14T07:47:58Z</time>
      </trkpt>
      <trkpt lat="46.55434" lon="0.35388">
        <ele>75.6</ele>
        <time>2024-01-14T07:48:01Z</time>
      </trkpt>
      <trkpt lat="46.554" lon="0.35413">
        <ele>76.2</ele>
        <time>2024-01-14T07:48:08Z</time>
      </trkpt>
      <trkpt lat="46.55392" lon="0.35417">
        <ele>76</ele>
        <time>2024-01-14T07:48:12Z</time>
      </trkpt>
      <trkpt lat="46.55392" lon="0.35419">
        <ele>76</ele>
        <time>2024-01-14T07:48:13Z</time>
      </trkpt>
      <trkpt lat="46.55396" lon="0.35424">
        <ele>76.6</ele>
        <time>2024-01-14T07:48:17Z</time>
      </trkpt>
      <trkpt lat="46.55398" lon="0.35423">
        <ele>77.2</ele>
        <time>2024-01-14T07:48:18Z</time>
      </trkpt>
      <trkpt lat="46.55406" lon="0.35422">
        <ele>78.6</ele>
        <time>2024-01-14T07:48:22Z</time>
      </trkpt>
      <trkpt lat="46.55413" lon="0.35423">
        <ele>79.8</ele>
        <time>2024-01-14T07:48:25Z</time>
      </trkpt>
      <trkpt lat="46.55418" lon="0.35423">
        <ele>81.4</ele>
        <time>2024-01-14T07:48:28Z</time>
      </trkpt>
      <trkpt lat="46.55419" lon="0.35422">
        <ele>81.8</ele>
        <time>2024-01-14T07:48:29Z</time>
      </trkpt>
      <trkpt lat="46.55426" lon="0.35422">
        <ele>82.4</ele>
        <time>2024-01-14T07:48:32Z</time>
      </trkpt>
      <trkpt lat="46.55436" lon="0.35422">
        <ele>83.6</ele>
        <time>2024-01-14T07:48:36Z</time>
      </trkpt>
      <trkpt lat="46.55438" lon="0.35422">
        <ele>84</ele>
        <time>2024-01-14T07:48:37Z</time>
      </trkpt>
      <trkpt lat="46.55446" lon="0.35421">
        <ele>84.8</ele>
        <time>2024-01-14T07:48:41Z</time>
      </trkpt>
      <trkpt lat="46.5545" lon="0.35422">
        <ele>86</ele>
        <time>2024-01-14T07:48:44Z</time>
      </trkpt>
      <trkpt lat="46.55455" lon="0.35422">
        <ele>87.2</ele>
        <time>2024-01-14T07:48:48Z</time>
      </trkpt>
      <trkpt lat="46.55459" lon="0.35422">
        <ele>88.6</ele>
        <time>2024-01-14T07:48:51Z</time>
      </trkpt>
      <trkpt lat="46.55461" lon="0.35423">
        <ele>89.2</ele>
        <time>2024-01-14T07:48:52Z</time>
      </trkpt>
      <trkpt lat="46.55462" lon="0.35423">
        <ele>89.6</ele>
        <time>2024-01-14T07:48:53Z</time>
      </trkpt>
      <trkpt lat="46.55468" lon="0.35425">
        <ele>90.4</ele>
        <time>2024-01-14T07:48:57Z</time>
      </trkpt>
      <trkpt lat="46.55469" lon="0.35425">
        <ele>90.8</ele>
        <time>2024-01-14T07:48:58Z</time>
      </trkpt>
      <trkpt lat="46.5547" lon="0.35425">
        <ele>91</ele>
        <time>2024-01-14T07:48:59Z</time>
      </trkpt>
      <trkpt lat="46.5547" lon="0.35425">
        <ele>92</ele>
        <time>2024-01-14T07:49:02Z</time>
      </trkpt>
      <trkpt lat="46.55479" lon="0.3542">
        <ele>93.2</ele>
        <time>2024-01-14T07:49:07Z</time>
      </trkpt>
      <trkpt lat="46.55482" lon="0.35419">
        <ele>93.6</ele>
        <time>2024-01-14T07:49:09Z</time>
      </trkpt>
      <trkpt lat="46.55485" lon="0.35418">
        <ele>94.6</ele>
        <time>2024-01-14T07:49:11Z</time>
      </trkpt>
      <trkpt lat="46.5549" lon="0.35416">
        <ele>96</ele>
        <time>2024-01-14T07:49:15Z</time>
      </trkpt>
      <trkpt lat="46.55491" lon="0.35416">
        <ele>96.2</ele>
        <time>2024-01-14T07:49:16Z</time>
      </trkpt>
      <trkpt lat="46.55493" lon="0.35415">
        <ele>97.2</ele>
        <time>2024-01-14T07:49:19Z</time>
      </trkpt>
      <trkpt lat="46.55494" lon="0.35415">
        <ele>97.4</ele>
        <time>2024-01-14T07:49:20Z</time>
      </trkpt>
      <trkpt lat="46.55498" lon="0.35415">
        <ele>98.2</ele>
        <time>2024-01-14T07:49:23Z</time>
      </trkpt>
      <trkpt lat="46.55501" lon="0.35416">
        <ele>98.8</ele>
        <time>2024-01-14T07:49:25Z</time>
      </trkpt>
      <trkpt lat="46.55504" lon="0.35418">
        <ele>99.4</ele>
        <time>2024-01-14T07:49:28Z</time>
      </trkpt>
      <trkpt lat="46.55506" lon="0.35419">
        <ele>99.8</ele>
        <time>2024-01-14T07:49:30Z</time>
      </trkpt>
      <trkpt lat="46.55509" lon="0.35421">
        <ele>100.6</ele>
        <time>2024-01-14T07:49:33Z</time>
      </trkpt>
      <trkpt lat="46.55512" lon="0.35423">
        <ele>101</ele>
        <time>2024-01-14T07:49:35Z</time>
      </trkpt>
      <trkpt lat="46.55516" lon="0.35426">
        <ele>102</ele>
        <time>2024-01-14T07:49:39Z</time>
      </trkpt>
      <trkpt lat="46.55522" lon="0.3543">
        <ele>103</ele>
        <time>2024-01-14T07:49:44Z</time>
      </trkpt>
      <trkpt lat="46.55524" lon="0.35433">
        <ele>104.2</ele>
        <time>2024-01-14T07:49:47Z</time>
      </trkpt>
      <trkpt lat="46.55525" lon="0.35438">
        <ele>105.4</ele>
        <time>2024-01-14T07:49:50Z</time>
      </trkpt>
      <trkpt lat="46.55527" lon="0.35446">
        <ele>106.4</ele>
        <time>2024-01-14T07:49:55Z</time>
      </trkpt>
      <trkpt lat="46.55528" lon="0.35452">
        <ele>106.8</ele>
        <time>2024-01-14T07:49:58Z</time>
      </trkpt>
      <trkpt lat="46.55528" lon="0.35457">
        <ele>107.4</ele>
        <time>2024-01-14T07:50:00Z</time>
      </trkpt>
      <trkpt lat="46.55529" lon="0.35468">
        <ele>108.4</ele>
        <time>2024-01-14T07:50:05Z</time>
      </trkpt>
      <trkpt lat="46.55529" lon="0.3547">
        <ele>108.6</ele>
        <time>2024-01-14T07:50:06Z</time>
      </trkpt>
      <trkpt lat="46.5553" lon="0.35484">
        <ele>109.6</ele>
        <time>2024-01-14T07:50:12Z</time>
      </trkpt>
      <trkpt lat="46.5553" lon="0.35486">
        <ele>109.8</ele>
        <time>2024-01-14T07:50:13Z</time>
      </trkpt>
      <trkpt lat="46.55531" lon="0.35498">
        <ele>110.8</ele>
        <time>2024-01-14T07:50:18Z</time>
      </trkpt>
      <trkpt lat="46.55531" lon="0.35507">
        <ele>111.2</ele>
        <time>2024-01-14T07:50:21Z</time>
      </trkpt>
      <trkpt lat="46.55532" lon="0.35519">
        <ele>111.8</ele>
        <time>2024-01-14T07:50:25Z</time>
      </trkpt>
      <trkpt lat="46.55533" lon="0.35533">
        <ele>112.4</ele>
        <time>2024-01-14T07:50:30Z</time>
      </trkpt>
      <trkpt lat="46.55533" lon="0.35542">
        <ele>112.8</ele>
        <time>2024-01-14T07:50:33Z</time>
      </trkpt>
      <trkpt lat="46.55533" lon="0.35553">
        <ele>113.6</ele>
        <time>2024-01-14T07:50:37Z</time>
      </trkpt>
      <trkpt lat="46.55533" lon="0.35559">
        <ele>114</ele>
        <time>2024-01-14T07:50:39Z</time>
      </trkpt>
      <trkpt lat="46.55535" lon="0.35575">
        <ele>114.6</ele>
        <time>2024-01-14T07:50:44Z</time>
      </trkpt>
      <trkpt lat="46.55535" lon="0.35584">
        <ele>115</ele>
        <time>2024-01-14T07:50:47Z</time>
      </trkpt>
      <trkpt lat="46.55536" lon="0.35594">
        <ele>115.6</ele>
        <time>2024-01-14T07:50:50Z</time>
      </trkpt>
      <trkpt lat="46.55538" lon="0.35616">
        <ele>116.2</ele>
        <time>2024-01-14T07:50:56Z</time>
      </trkpt>
      <trkpt lat="46.55538" lon="0.35619">
        <ele>116.6</ele>
        <time>2024-01-14T07:50:57Z</time>
      </trkpt>
      <trkpt lat="46.5554" lon="0.35628">
        <ele>117.2</ele>
        <time>2024-01-14T07:51:00Z</time>
      </trkpt>
      <trkpt lat="46.55538" lon="0.35638">
        <ele>117.8</ele>
        <time>2024-01-14T07:51:03Z</time>
      </trkpt>
      <trkpt lat="46.55529" lon="0.3565">
        <ele>118.2</ele>
        <time>2024-01-14T07:51:07Z</time>
      </trkpt>
      <trkpt lat="46.55525" lon="0.35652">
        <ele>118.2</ele>
        <time>2024-01-14T07:51:08Z</time>
      </trkpt>
      <trkpt lat="46.55521" lon="0.35655">
        <ele>118.4</ele>
        <time>2024-01-14T07:51:09Z</time>
      </trkpt>
      <trkpt lat="46.55505" lon="0.35661">
        <ele>119.2</ele>
        <time>2024-01-14T07:51:14Z</time>
      </trkpt>
      <trkpt lat="46.55502" lon="0.35662">
        <ele>119.4</ele>
        <time>2024-01-14T07:51:15Z</time>
      </trkpt>
      <trkpt lat="46.55482" lon="0.35662">
        <ele>120.4</ele>
        <time>2024-01-14T07:51:21Z</time>
      </trkpt>
      <trkpt lat="46.5546" lon="0.35661">
        <ele>121.2</ele>
        <time>2024-01-14T07:51:28Z</time>
      </trkpt>
      <trkpt lat="46.5545" lon="0.35661">
        <ele>121.4</ele>
        <time>2024-01-14T07:51:31Z</time>
      </trkpt>
      <trkpt lat="46.55434" lon="0.35657">
        <ele>121.8</ele>
        <time>2024-01-14T07:51:35Z</time>
      </trkpt>
      <trkpt lat="46.55396" lon="0.3565">
        <ele>121.4</ele>
        <time>2024-01-14T07:51:43Z</time>
      </trkpt>
      <trkpt lat="46.55356" lon="0.35642">
        <ele>120.4</ele>
        <time>2024-01-14T07:51:50Z</time>
      </trkpt>
      <trkpt lat="46.5535" lon="0.35641">
        <ele>120.4</ele>
        <time>2024-01-14T07:51:51Z</time>
      </trkpt>
      <trkpt lat="46.55322" lon="0.35637">
        <ele>119.2</ele>
        <time>2024-01-14T07:51:55Z</time>
      </trkpt>
      <trkpt lat="46.55315" lon="0.35636">
        <ele>118.6</ele>
        <time>2024-01-14T07:51:56Z</time>
      </trkpt>
      <trkpt lat="46.55301" lon="0.35635">
        <ele>118</ele>
        <time>2024-01-14T07:51:58Z</time>
      </trkpt>
      <trkpt lat="46.55279" lon="0.35633">
        <ele>116.8</ele>
        <time>2024-01-14T07:52:01Z</time>
      </trkpt>
      <trkpt lat="46.55255" lon="0.35637">
        <ele>115.4</ele>
        <time>2024-01-14T07:52:04Z</time>
      </trkpt>
      <trkpt lat="46.5524" lon="0.35641">
        <ele>114.4</ele>
        <time>2024-01-14T07:52:06Z</time>
      </trkpt>
      <trkpt lat="46.55233" lon="0.35645">
        <ele>113.8</ele>
        <time>2024-01-14T07:52:07Z</time>
      </trkpt>
      <trkpt lat="46.55221" lon="0.35655">
        <ele>112.8</ele>
        <time>2024-01-14T07:52:09Z</time>
      </trkpt>
      <trkpt lat="46.55215" lon="0.35662">
        <ele>112.2</ele>
        <time>2024-01-14T07:52:10Z</time>
      </trkpt>
      <trkpt lat="46.55209" lon="0.35669">
        <ele>111.4</ele>
        <time>2024-01-14T07:52:11Z</time>
      </trkpt>
      <trkpt lat="46.55197" lon="0.35683">
        <ele>110</ele>
        <time>2024-01-14T07:52:13Z</time>
      </trkpt>
      <trkpt lat="46.55197" lon="0.35683">
        <ele>108.6</ele>
        <time>2024-01-14T07:52:14Z</time>
      </trkpt>
      <trkpt lat="46.55184" lon="0.35689">
        <ele>108.6</ele>
        <time>2024-01-14T07:52:15Z</time>
      </trkpt>
      <trkpt lat="46.55178" lon="0.3569">
        <ele>108</ele>
        <time>2024-01-14T07:52:16Z</time>
      </trkpt>
      <trkpt lat="46.55172" lon="0.35689">
        <ele>107.6</ele>
        <time>2024-01-14T07:52:17Z</time>
      </trkpt>
      <trkpt lat="46.55167" lon="0.35687">
        <ele>107.4</ele>
        <time>2024-01-14T07:52:18Z</time>
      </trkpt>
      <trkpt lat="46.55158" lon="0.35684">
        <ele>107</ele>
        <time>2024-01-14T07:52:20Z</time>
      </trkpt>
      <trkpt lat="46.55153" lon="0.35684">
        <ele>106.8</ele>
        <time>2024-01-14T07:52:21Z</time>
      </trkpt>
      <trkpt lat="46.55145" lon="0.35689">
        <ele>106.8</ele>
        <time>2024-01-14T07:52:23Z</time>
      </trkpt>
      <trkpt lat="46.55141" lon="0.35697">
        <ele>107</ele>
        <time>2024-01-14T07:52:25Z</time>
      </trkpt>
      <trkpt lat="46.55139" lon="0.35707">
        <ele>107.4</ele>
        <time>2024-01-14T07:52:27Z</time>
      </trkpt>
      <trkpt lat="46.55138" lon="0.35728">
        <ele>108.8</ele>
        <time>2024-01-14T07:52:31Z</time>
      </trkpt>
      <trkpt lat="46.55137" lon="0.35733">
        <ele>109.2</ele>
        <time>2024-01-14T07:52:32Z</time>
      </trkpt>
      <trkpt lat="46.55136" lon="0.35745">
        <ele>110.2</ele>
        <time>2024-01-14T07:52:34Z</time>
      </trkpt>
      <trkpt lat="46.55134" lon="0.35758">
        <ele>111</ele>
        <time>2024-01-14T07:52:36Z</time>
      </trkpt>
      <trkpt lat="46.55132" lon="0.35764">
        <ele>111.4</ele>
        <time>2024-01-14T07:52:37Z</time>
      </trkpt>
      <trkpt lat="46.55122" lon="0.35794">
        <ele>111.8</ele>
        <time>2024-01-14T07:52:42Z</time>
      </trkpt>
      <trkpt lat="46.55121" lon="0.35801">
        <ele>111.8</ele>
        <time>2024-01-14T07:52:43Z</time>
      </trkpt>
      <trkpt lat="46.5512" lon="0.35807">
        <ele>112</ele>
        <time>2024-01-14T07:52:44Z</time>
      </trkpt>
      <trkpt lat="46.55119" lon="0.3583">
        <ele>112.4</ele>
        <time>2024-01-14T07:52:47Z</time>
      </trkpt>
      <trkpt lat="46.5512" lon="0.35838">
        <ele>112.4</ele>
        <time>2024-01-14T07:52:48Z</time>
      </trkpt>
      <trkpt lat="46.55123" lon="0.35892">
        <ele>112.2</ele>
        <time>2024-01-14T07:52:55Z</time>
      </trkpt>
      <trkpt lat="46.55127" lon="0.35915">
        <ele>112</ele>
        <time>2024-01-14T07:52:58Z</time>
      </trkpt>
      <trkpt lat="46.5513" lon="0.35939">
        <ele>111.6</ele>
        <time>2024-01-14T07:53:01Z</time>
      </trkpt>
      <trkpt lat="46.55134" lon="0.35956">
        <ele>111.2</ele>
        <time>2024-01-14T07:53:03Z</time>
      </trkpt>
      <trkpt lat="46.55141" lon="0.35983">
        <ele>110.2</ele>
        <time>2024-01-14T07:53:06Z</time>
      </trkpt>
      <trkpt lat="46.55144" lon="0.35991">
        <ele>110</ele>
        <time>2024-01-14T07:53:07Z</time>
      </trkpt>
      <trkpt lat="46.55147" lon="0.35998">
        <ele>109.6</ele>
        <time>2024-01-14T07:53:08Z</time>
      </trkpt>
      <trkpt lat="46.55164" lon="0.36022">
        <ele>109.4</ele>
        <time>2024-01-14T07:53:12Z</time>
      </trkpt>
      <trkpt lat="46.55173" lon="0.36033">
        <ele>109.4</ele>
        <time>2024-01-14T07:53:14Z</time>
      </trkpt>
      <trkpt lat="46.55186" lon="0.36047">
        <ele>109.6</ele>
        <time>2024-01-14T07:53:17Z</time>
      </trkpt>
      <trkpt lat="46.55207" lon="0.36073">
        <ele>109.6</ele>
        <time>2024-01-14T07:53:22Z</time>
      </trkpt>
      <trkpt lat="46.5521" lon="0.36079">
        <ele>109.4</ele>
        <time>2024-01-14T07:53:23Z</time>
      </trkpt>
      <trkpt lat="46.55217" lon="0.36094">
        <ele>109.2</ele>
        <time>2024-01-14T07:53:25Z</time>
      </trkpt>
      <trkpt lat="46.55229" lon="0.36123">
        <ele>109.6</ele>
        <time>2024-01-14T07:53:29Z</time>
      </trkpt>
      <trkpt lat="46.55246" lon="0.3617">
        <ele>110</ele>
        <time>2024-01-14T07:53:36Z</time>
      </trkpt>
      <trkpt lat="46.55258" lon="0.36209">
        <ele>110.4</ele>
        <time>2024-01-14T07:53:42Z</time>
      </trkpt>
      <trkpt lat="46.55265" lon="0.36246">
        <ele>111</ele>
        <time>2024-01-14T07:53:47Z</time>
      </trkpt>
      <trkpt lat="46.55267" lon="0.36252">
        <ele>111</ele>
        <time>2024-01-14T07:53:48Z</time>
      </trkpt>
      <trkpt lat="46.5527" lon="0.36269">
        <ele>111.2</ele>
        <time>2024-01-14T07:53:51Z</time>
      </trkpt>
      <trkpt lat="46.55272" lon="0.36283">
        <ele>111.2</ele>
        <time>2024-01-14T07:53:54Z</time>
      </trkpt>
      <trkpt lat="46.55275" lon="0.36292">
        <ele>111.4</ele>
        <time>2024-01-14T07:53:58Z</time>
      </trkpt>
      <trkpt lat="46.55275" lon="0.36293">
        <ele>111.4</ele>
        <time>2024-01-14T07:53:59Z</time>
      </trkpt>
      <trkpt lat="46.55274" lon="0.36295">
        <ele>111.4</ele>
        <time>2024-01-14T07:54:00Z</time>
      </trkpt>
      <trkpt lat="46.5527" lon="0.36298">
        <ele>111.6</ele>
        <time>2024-01-14T07:54:03Z</time>
      </trkpt>
      <trkpt lat="46.55267" lon="0.36298">
        <ele>111</ele>
        <time>2024-01-14T07:54:06Z</time>
      </trkpt>
      <trkpt lat="46.55265" lon="0.36301">
        <ele>110.2</ele>
        <time>2024-01-14T07:54:08Z</time>
      </trkpt>
      <trkpt lat="46.55264" lon="0.36304">
        <ele>109.6</ele>
        <time>2024-01-14T07:54:09Z</time>
      </trkpt>
      <trkpt lat="46.55262" lon="0.36313">
        <ele>108.2</ele>
        <time>2024-01-14T07:54:12Z</time>
      </trkpt>
      <trkpt lat="46.5526" lon="0.36324">
        <ele>106.6</ele>
        <time>2024-01-14T07:54:15Z</time>
      </trkpt>
      <trkpt lat="46.55258" lon="0.36331">
        <ele>105.2</ele>
        <time>2024-01-14T07:54:17Z</time>
      </trkpt>
      <trkpt lat="46.55256" lon="0.36339">
        <ele>103.8</ele>
        <time>2024-01-14T07:54:19Z</time>
      </trkpt>
      <trkpt lat="46.5525" lon="0.36354">
        <ele>102.4</ele>
        <time>2024-01-14T07:54:22Z</time>
      </trkpt>
      <trkpt lat="46.55245" lon="0.36365">
        <ele>100.4</ele>
        <time>2024-01-14T07:54:24Z</time>
      </trkpt>
      <trkpt lat="46.55239" lon="0.36377">
        <ele>99</ele>
        <time>2024-01-14T07:54:26Z</time>
      </trkpt>
      <trkpt lat="46.55235" lon="0.36382">
        <ele>98.4</ele>
        <time>2024-01-14T07:54:27Z</time>
      </trkpt>
      <trkpt lat="46.55231" lon="0.36388">
        <ele>97.8</ele>
        <time>2024-01-14T07:54:28Z</time>
      </trkpt>
      <trkpt lat="46.55225" lon="0.36395">
        <ele>96.4</ele>
        <time>2024-01-14T07:54:30Z</time>
      </trkpt>
      <trkpt lat="46.55222" lon="0.36398">
        <ele>96</ele>
        <time>2024-01-14T07:54:31Z</time>
      </trkpt>
      <trkpt lat="46.55217" lon="0.36403">
        <ele>94.8</ele>
        <time>2024-01-14T07:54:33Z</time>
      </trkpt>
      <trkpt lat="46.55207" lon="0.3641">
        <ele>93.8</ele>
        <time>2024-01-14T07:54:36Z</time>
      </trkpt>
      <trkpt lat="46.55203" lon="0.36411">
        <ele>93</ele>
        <time>2024-01-14T07:54:37Z</time>
      </trkpt>
      <trkpt lat="46.55199" lon="0.36412">
        <ele>91.8</ele>
        <time>2024-01-14T07:54:38Z</time>
      </trkpt>
      <trkpt lat="46.55191" lon="0.36413">
        <ele>89.8</ele>
        <time>2024-01-14T07:54:40Z</time>
      </trkpt>
      <trkpt lat="46.55187" lon="0.36413">
        <ele>88.8</ele>
        <time>2024-01-14T07:54:41Z</time>
      </trkpt>
      <trkpt lat="46.55181" lon="0.36412">
        <ele>88.2</ele>
        <time>2024-01-14T07:54:42Z</time>
      </trkpt>
      <trkpt lat="46.55174" lon="0.36413">
        <ele>86.4</ele>
        <time>2024-01-14T07:54:43Z</time>
      </trkpt>
      <trkpt lat="46.55167" lon="0.36412">
        <ele>85.2</ele>
        <time>2024-01-14T07:54:44Z</time>
      </trkpt>
      <trkpt lat="46.5516" lon="0.36411">
        <ele>84</ele>
        <time>2024-01-14T07:54:45Z</time>
      </trkpt>
      <trkpt lat="46.55143" lon="0.36408">
        <ele>82.8</ele>
        <time>2024-01-14T07:54:47Z</time>
      </trkpt>
      <trkpt lat="46.55129" lon="0.36405">
        <ele>81.8</ele>
        <time>2024-01-14T07:54:49Z</time>
      </trkpt>
      <trkpt lat="46.55104" lon="0.36403">
        <ele>80.6</ele>
        <time>2024-01-14T07:54:53Z</time>
      </trkpt>
      <trkpt lat="46.55091" lon="0.36401">
        <ele>79.6</ele>
        <time>2024-01-14T07:54:55Z</time>
      </trkpt>
      <trkpt lat="46.55086" lon="0.364">
        <ele>79.2</ele>
        <time>2024-01-14T07:54:56Z</time>
      </trkpt>
      <trkpt lat="46.55062" lon="0.36399">
        <ele>79</ele>
        <time>2024-01-14T07:55:00Z</time>
      </trkpt>
      <trkpt lat="46.55058" lon="0.36401">
        <ele>79</ele>
        <time>2024-01-14T07:55:01Z</time>
      </trkpt>
      <trkpt lat="46.55051" lon="0.36407">
        <ele>79.4</ele>
        <time>2024-01-14T07:55:03Z</time>
      </trkpt>
      <trkpt lat="46.55048" lon="0.36409">
        <ele>79.6</ele>
        <time>2024-01-14T07:55:04Z</time>
      </trkpt>
      <trkpt lat="46.55045" lon="0.36422">
        <ele>80.4</ele>
        <time>2024-01-14T07:55:07Z</time>
      </trkpt>
      <trkpt lat="46.55045" lon="0.36427">
        <ele>80.8</ele>
        <time>2024-01-14T07:55:08Z</time>
      </trkpt>
      <trkpt lat="46.55045" lon="0.36432">
        <ele>81.2</ele>
        <time>2024-01-14T07:55:09Z</time>
      </trkpt>
      <trkpt lat="46.55045" lon="0.36437">
        <ele>81.4</ele>
        <time>2024-01-14T07:55:10Z</time>
      </trkpt>
      <trkpt lat="46.55044" lon="0.3645">
        <ele>82.6</ele>
        <time>2024-01-14T07:55:13Z</time>
      </trkpt>
      <trkpt lat="46.55044" lon="0.36455">
        <ele>83</ele>
        <time>2024-01-14T07:55:14Z</time>
      </trkpt>
      <trkpt lat="46.55046" lon="0.36467">
        <ele>83.8</ele>
        <time>2024-01-14T07:55:17Z</time>
      </trkpt>
      <trkpt lat="46.5505" lon="0.36479">
        <ele>84.6</ele>
        <time>2024-01-14T07:55:20Z</time>
      </trkpt>
      <trkpt lat="46.55051" lon="0.36481">
        <ele>84.8</ele>
        <time>2024-01-14T07:55:21Z</time>
      </trkpt>
      <trkpt lat="46.55056" lon="0.36494">
        <ele>85.6</ele>
        <time>2024-01-14T07:55:25Z</time>
      </trkpt>
      <trkpt lat="46.5506" lon="0.365">
        <ele>86.2</ele>
        <time>2024-01-14T07:55:27Z</time>
      </trkpt>
      <trkpt lat="46.5507" lon="0.36514">
        <ele>87.4</ele>
        <time>2024-01-14T07:55:32Z</time>
      </trkpt>
      <trkpt lat="46.5508" lon="0.36525">
        <ele>88.4</ele>
        <time>2024-01-14T07:55:36Z</time>
      </trkpt>
      <trkpt lat="46.55085" lon="0.36531">
        <ele>88.8</ele>
        <time>2024-01-14T07:55:38Z</time>
      </trkpt>
      <trkpt lat="46.55097" lon="0.36546">
        <ele>89.6</ele>
        <time>2024-01-14T07:55:43Z</time>
      </trkpt>
      <trkpt lat="46.55099" lon="0.36549">
        <ele>89.8</ele>
        <time>2024-01-14T07:55:44Z</time>
      </trkpt>
      <trkpt lat="46.55104" lon="0.36559">
        <ele>90.6</ele>
        <time>2024-01-14T07:55:47Z</time>
      </trkpt>
      <trkpt lat="46.55109" lon="0.36573">
        <ele>91.2</ele>
        <time>2024-01-14T07:55:51Z</time>
      </trkpt>
      <trkpt lat="46.55115" lon="0.36591">
        <ele>91.6</ele>
        <time>2024-01-14T07:55:56Z</time>
      </trkpt>
      <trkpt lat="46.55116" lon="0.36605">
        <ele>92.6</ele>
        <time>2024-01-14T07:56:02Z</time>
      </trkpt>
      <trkpt lat="46.55115" lon="0.36608">
        <ele>93.2</ele>
        <time>2024-01-14T07:56:05Z</time>
      </trkpt>
      <trkpt lat="46.55114" lon="0.36611">
        <ele>93.4</ele>
        <time>2024-01-14T07:56:08Z</time>
      </trkpt>
      <trkpt lat="46.55112" lon="0.36613">
        <ele>93.4</ele>
        <time>2024-01-14T07:56:09Z</time>
      </trkpt>
      <trkpt lat="46.55102" lon="0.36614">
        <ele>93.6</ele>
        <time>2024-01-14T07:56:15Z</time>
      </trkpt>
      <trkpt lat="46.55099" lon="0.36614">
        <ele>93.8</ele>
        <time>2024-01-14T07:56:17Z</time>
      </trkpt>
      <trkpt lat="46.55094" lon="0.36616">
        <ele>94</ele>
        <time>2024-01-14T07:56:20Z</time>
      </trkpt>
      <trkpt lat="46.55092" lon="0.36618">
        <ele>94.2</ele>
        <time>2024-01-14T07:56:22Z</time>
      </trkpt>
      <trkpt lat="46.55091" lon="0.36622">
        <ele>94.6</ele>
        <time>2024-01-14T07:56:24Z</time>
      </trkpt>
      <trkpt lat="46.55091" lon="0.36624">
        <ele>94.8</ele>
        <time>2024-01-14T07:56:25Z</time>
      </trkpt>
      <trkpt lat="46.5509" lon="0.36625">
        <ele>95.2</ele>
        <time>2024-01-14T07:56:26Z</time>
      </trkpt>
      <trkpt lat="46.55088" lon="0.36627">
        <ele>96</ele>
        <time>2024-01-14T07:56:28Z</time>
      </trkpt>
      <trkpt lat="46.55086" lon="0.36629">
        <ele>96.6</ele>
        <time>2024-01-14T07:56:30Z</time>
      </trkpt>
      <trkpt lat="46.55085" lon="0.3663">
        <ele>97</ele>
        <time>2024-01-14T07:56:31Z</time>
      </trkpt>
      <trkpt lat="46.55085" lon="0.36632">
        <ele>97.6</ele>
        <time>2024-01-14T07:56:32Z</time>
      </trkpt>
      <trkpt lat="46.55083" lon="0.36634">
        <ele>98.2</ele>
        <time>2024-01-14T07:56:34Z</time>
      </trkpt>
      <trkpt lat="46.55081" lon="0.36639">
        <ele>99.4</ele>
        <time>2024-01-14T07:56:37Z</time>
      </trkpt>
      <trkpt lat="46.55079" lon="0.36643">
        <ele>100.2</ele>
        <time>2024-01-14T07:56:41Z</time>
      </trkpt>
      <trkpt lat="46.55078" lon="0.36644">
        <ele>100.6</ele>
        <time>2024-01-14T07:56:42Z</time>
      </trkpt>
      <trkpt lat="46.55078" lon="0.36646">
        <ele>101</ele>
        <time>2024-01-14T07:56:43Z</time>
      </trkpt>
      <trkpt lat="46.55075" lon="0.36651">
        <ele>101.6</ele>
        <time>2024-01-14T07:56:47Z</time>
      </trkpt>
      <trkpt lat="46.55074" lon="0.36653">
        <ele>102</ele>
        <time>2024-01-14T07:56:49Z</time>
      </trkpt>
      <trkpt lat="46.55072" lon="0.36656">
        <ele>102.8</ele>
        <time>2024-01-14T07:56:51Z</time>
      </trkpt>
      <trkpt lat="46.55072" lon="0.36657">
        <ele>103</ele>
        <time>2024-01-14T07:56:52Z</time>
      </trkpt>
      <trkpt lat="46.55069" lon="0.36664">
        <ele>104</ele>
        <time>2024-01-14T07:56:56Z</time>
      </trkpt>
      <trkpt lat="46.55068" lon="0.36666">
        <ele>104.2</ele>
        <time>2024-01-14T07:56:57Z</time>
      </trkpt>
      <trkpt lat="46.55064" lon="0.36676">
        <ele>105.6</ele>
        <time>2024-01-14T07:57:02Z</time>
      </trkpt>
      <trkpt lat="46.55059" lon="0.36687">
        <ele>106.6</ele>
        <time>2024-01-14T07:57:08Z</time>
      </trkpt>
      <trkpt lat="46.5505" lon="0.36696">
        <ele>107.8</ele>
        <time>2024-01-14T07:57:15Z</time>
      </trkpt>
      <trkpt lat="46.55048" lon="0.36698">
        <ele>108</ele>
        <time>2024-01-14T07:57:16Z</time>
      </trkpt>
      <trkpt lat="46.55037" lon="0.36698">
        <ele>108.8</ele>
        <time>2024-01-14T07:57:22Z</time>
      </trkpt>
      <trkpt lat="46.55035" lon="0.36698">
        <ele>109</ele>
        <time>2024-01-14T07:57:23Z</time>
      </trkpt>
      <trkpt lat="46.55026" lon="0.36707">
        <ele>109.8</ele>
        <time>2024-01-14T07:57:28Z</time>
      </trkpt>
      <trkpt lat="46.55025" lon="0.36711">
        <ele>109.8</ele>
        <time>2024-01-14T07:57:29Z</time>
      </trkpt>
      <trkpt lat="46.55018" lon="0.36734">
        <ele>110.6</ele>
        <time>2024-01-14T07:57:35Z</time>
      </trkpt>
      <trkpt lat="46.55016" lon="0.36741">
        <ele>111</ele>
        <time>2024-01-14T07:57:37Z</time>
      </trkpt>
      <trkpt lat="46.5501" lon="0.36764">
        <ele>111.4</ele>
        <time>2024-01-14T07:57:42Z</time>
      </trkpt>
      <trkpt lat="46.55003" lon="0.36781">
        <ele>111.6</ele>
        <time>2024-01-14T07:57:46Z</time>
      </trkpt>
      <trkpt lat="46.55" lon="0.36785">
        <ele>112</ele>
        <time>2024-01-14T07:57:47Z</time>
      </trkpt>
      <trkpt lat="46.54997" lon="0.36786">
        <ele>112</ele>
        <time>2024-01-14T07:57:48Z</time>
      </trkpt>
      <trkpt lat="46.54987" lon="0.36784">
        <ele>112.4</ele>
        <time>2024-01-14T07:57:51Z</time>
      </trkpt>
      <trkpt lat="46.54978" lon="0.36779">
        <ele>113</ele>
        <time>2024-01-14T07:57:54Z</time>
      </trkpt>
      <trkpt lat="46.54969" lon="0.36771">
        <ele>114</ele>
        <time>2024-01-14T07:57:58Z</time>
      </trkpt>
      <trkpt lat="46.54956" lon="0.36763">
        <ele>115</ele>
        <time>2024-01-14T07:58:04Z</time>
      </trkpt>
      <trkpt lat="46.54951" lon="0.36758">
        <ele>115.2</ele>
        <time>2024-01-14T07:58:06Z</time>
      </trkpt>
      <trkpt lat="46.54937" lon="0.36748">
        <ele>116</ele>
        <time>2024-01-14T07:58:11Z</time>
      </trkpt>
      <trkpt lat="46.54928" lon="0.36739">
        <ele>116.6</ele>
        <time>2024-01-14T07:58:14Z</time>
      </trkpt>
      <trkpt lat="46.54916" lon="0.36727">
        <ele>117.4</ele>
        <time>2024-01-14T07:58:18Z</time>
      </trkpt>
      <trkpt lat="46.54909" lon="0.36718">
        <ele>117.6</ele>
        <time>2024-01-14T07:58:21Z</time>
      </trkpt>
      <trkpt lat="46.54899" lon="0.36707">
        <ele>118.6</ele>
        <time>2024-01-14T07:58:25Z</time>
      </trkpt>
      <trkpt lat="46.54894" lon="0.36701">
        <ele>118.8</ele>
        <time>2024-01-14T07:58:27Z</time>
      </trkpt>
      <trkpt lat="46.54882" lon="0.36686">
        <ele>119.4</ele>
        <time>2024-01-14T07:58:32Z</time>
      </trkpt>
      <trkpt lat="46.5487" lon="0.36673">
        <ele>119.8</ele>
        <time>2024-01-14T07:58:36Z</time>
      </trkpt>
      <trkpt lat="46.54863" lon="0.36666">
        <ele>120.2</ele>
        <time>2024-01-14T07:58:38Z</time>
      </trkpt>
      <trkpt lat="46.5484" lon="0.3665">
        <ele>120.8</ele>
        <time>2024-01-14T07:58:44Z</time>
      </trkpt>
      <trkpt lat="46.54836" lon="0.36648">
        <ele>121</ele>
        <time>2024-01-14T07:58:45Z</time>
      </trkpt>
      <trkpt lat="46.54826" lon="0.3664">
        <ele>121.2</ele>
        <time>2024-01-14T07:58:48Z</time>
      </trkpt>
      <trkpt lat="46.54819" lon="0.36633">
        <ele>121.4</ele>
        <time>2024-01-14T07:58:50Z</time>
      </trkpt>
      <trkpt lat="46.54811" lon="0.36622">
        <ele>121.4</ele>
        <time>2024-01-14T07:58:53Z</time>
      </trkpt>
      <trkpt lat="46.54805" lon="0.3661">
        <ele>121.6</ele>
        <time>2024-01-14T07:58:55Z</time>
      </trkpt>
      <trkpt lat="46.548" lon="0.36603">
        <ele>121.6</ele>
        <time>2024-01-14T07:58:56Z</time>
      </trkpt>
      <trkpt lat="46.54791" lon="0.36592">
        <ele>121.6</ele>
        <time>2024-01-14T07:58:58Z</time>
      </trkpt>
      <trkpt lat="46.54782" lon="0.36587">
        <ele>121.6</ele>
        <time>2024-01-14T07:59:00Z</time>
      </trkpt>
      <trkpt lat="46.54773" lon="0.36589">
        <ele>121.4</ele>
        <time>2024-01-14T07:59:02Z</time>
      </trkpt>
      <trkpt lat="46.54768" lon="0.36593">
        <ele>121.4</ele>
        <time>2024-01-14T07:59:03Z</time>
      </trkpt>
      <trkpt lat="46.54761" lon="0.36604">
        <ele>121.4</ele>
        <time>2024-01-14T07:59:05Z</time>
      </trkpt>
      <trkpt lat="46.54745" lon="0.36626">
        <ele>121.4</ele>
        <time>2024-01-14T07:59:09Z</time>
      </trkpt>
      <trkpt lat="46.5473" lon="0.36651">
        <ele>121</ele>
        <time>2024-01-14T07:59:13Z</time>
      </trkpt>
      <trkpt lat="46.54723" lon="0.36665">
        <ele>120.8</ele>
        <time>2024-01-14T07:59:15Z</time>
      </trkpt>
      <trkpt lat="46.54712" lon="0.36696">
        <ele>119.8</ele>
        <time>2024-01-14T07:59:19Z</time>
      </trkpt>
      <trkpt lat="46.54706" lon="0.36719">
        <ele>119.4</ele>
        <time>2024-01-14T07:59:22Z</time>
      </trkpt>
      <trkpt lat="46.54702" lon="0.36734">
        <ele>118.8</ele>
        <time>2024-01-14T07:59:24Z</time>
      </trkpt>
      <trkpt lat="46.54697" lon="0.36748">
        <ele>118.4</ele>
        <time>2024-01-14T07:59:26Z</time>
      </trkpt>
      <trkpt lat="46.5469" lon="0.3676">
        <ele>117.8</ele>
        <time>2024-01-14T07:59:28Z</time>
      </trkpt>
      <trkpt lat="46.54685" lon="0.36766">
        <ele>117.6</ele>
        <time>2024-01-14T07:59:29Z</time>
      </trkpt>
      <trkpt lat="46.54679" lon="0.36772">
        <ele>117.2</ele>
        <time>2024-01-14T07:59:30Z</time>
      </trkpt>
      <trkpt lat="46.54658" lon="0.36784">
        <ele>116.8</ele>
        <time>2024-01-14T07:59:33Z</time>
      </trkpt>
      <trkpt lat="46.54611" lon="0.36804">
        <ele>116.8</ele>
        <time>2024-01-14T07:59:40Z</time>
      </trkpt>
      <trkpt lat="46.54572" lon="0.36822">
        <ele>116.8</ele>
        <time>2024-01-14T07:59:47Z</time>
      </trkpt>
      <trkpt lat="46.54538" lon="0.36836">
        <ele>118.8</ele>
        <time>2024-01-14T07:59:54Z</time>
      </trkpt>
      <trkpt lat="46.54521" lon="0.36843">
        <ele>120</ele>
        <time>2024-01-14T07:59:58Z</time>
      </trkpt>
      <trkpt lat="46.54499" lon="0.36852">
        <ele>120.4</ele>
        <time>2024-01-14T08:00:03Z</time>
      </trkpt>
      <trkpt lat="46.54488" lon="0.36857">
        <ele>121.2</ele>
        <time>2024-01-14T08:00:06Z</time>
      </trkpt>
      <trkpt lat="46.54473" lon="0.36864">
        <ele>121.4</ele>
        <time>2024-01-14T08:00:10Z</time>
      </trkpt>
      <trkpt lat="46.5444" lon="0.36878">
        <ele>122.2</ele>
        <time>2024-01-14T08:00:18Z</time>
      </trkpt>
      <trkpt lat="46.54431" lon="0.36882">
        <ele>122.4</ele>
        <time>2024-01-14T08:00:20Z</time>
      </trkpt>
      <trkpt lat="46.54413" lon="0.3689">
        <ele>122.2</ele>
        <time>2024-01-14T08:00:24Z</time>
      </trkpt>
      <trkpt lat="46.54398" lon="0.36896">
        <ele>121.8</ele>
        <time>2024-01-14T08:00:27Z</time>
      </trkpt>
      <trkpt lat="46.54382" lon="0.36896">
        <ele>121.4</ele>
        <time>2024-01-14T08:00:30Z</time>
      </trkpt>
      <trkpt lat="46.54349" lon="0.36895">
        <ele>121.2</ele>
        <time>2024-01-14T08:00:37Z</time>
      </trkpt>
      <trkpt lat="46.54328" lon="0.36892">
        <ele>121.2</ele>
        <time>2024-01-14T08:00:41Z</time>
      </trkpt>
      <trkpt lat="46.54317" lon="0.3689">
        <ele>121</ele>
        <time>2024-01-14T08:00:43Z</time>
      </trkpt>
      <trkpt lat="46.54279" lon="0.36886">
        <ele>120.2</ele>
        <time>2024-01-14T08:00:49Z</time>
      </trkpt>
      <trkpt lat="46.54249" lon="0.36881">
        <ele>119</ele>
        <time>2024-01-14T08:00:54Z</time>
      </trkpt>
      <trkpt lat="46.54241" lon="0.36887">
        <ele>118.6</ele>
        <time>2024-01-14T08:00:56Z</time>
      </trkpt>
      <trkpt lat="46.54238" lon="0.36898">
        <ele>118.4</ele>
        <time>2024-01-14T08:00:58Z</time>
      </trkpt>
      <trkpt lat="46.54239" lon="0.36904">
        <ele>118.4</ele>
        <time>2024-01-14T08:00:59Z</time>
      </trkpt>
      <trkpt lat="46.54241" lon="0.36909">
        <ele>118.4</ele>
        <time>2024-01-14T08:01:00Z</time>
      </trkpt>
      <trkpt lat="46.5425" lon="0.36924">
        <ele>118.4</ele>
        <time>2024-01-14T08:01:03Z</time>
      </trkpt>
      <trkpt lat="46.54269" lon="0.36964">
        <ele>118.6</ele>
        <time>2024-01-14T08:01:09Z</time>
      </trkpt>
      <trkpt lat="46.54276" lon="0.36977">
        <ele>118.8</ele>
        <time>2024-01-14T08:01:11Z</time>
      </trkpt>
      <trkpt lat="46.54286" lon="0.36996">
        <ele>118.4</ele>
        <time>2024-01-14T08:01:14Z</time>
      </trkpt>
      <trkpt lat="46.54294" lon="0.37016">
        <ele>118.2</ele>
        <time>2024-01-14T08:01:17Z</time>
      </trkpt>
      <trkpt lat="46.54298" lon="0.37029">
        <ele>118</ele>
        <time>2024-01-14T08:01:19Z</time>
      </trkpt>
      <trkpt lat="46.543" lon="0.37035">
        <ele>118</ele>
        <time>2024-01-14T08:01:20Z</time>
      </trkpt>
      <trkpt lat="46.54305" lon="0.37046">
        <ele>118</ele>
        <time>2024-01-14T08:01:22Z</time>
      </trkpt>
      <trkpt lat="46.54308" lon="0.37052">
        <ele>118</ele>
        <time>2024-01-14T08:01:23Z</time>
      </trkpt>
      <trkpt lat="46.54326" lon="0.37088">
        <ele>117.6</ele>
        <time>2024-01-14T08:01:30Z</time>
      </trkpt>
      <trkpt lat="46.54333" lon="0.37096">
        <ele>117.6</ele>
        <time>2024-01-14T08:01:34Z</time>
      </trkpt>
      <trkpt lat="46.54328" lon="0.37103">
        <ele>117.8</ele>
        <time>2024-01-14T08:01:38Z</time>
      </trkpt>
      <trkpt lat="46.54315" lon="0.37113">
        <ele>117.2</ele>
        <time>2024-01-14T08:01:43Z</time>
      </trkpt>
      <trkpt lat="46.54307" lon="0.37118">
        <ele>116.8</ele>
        <time>2024-01-14T08:01:45Z</time>
      </trkpt>
      <trkpt lat="46.54299" lon="0.37122">
        <ele>116.4</ele>
        <time>2024-01-14T08:01:47Z</time>
      </trkpt>
      <trkpt lat="46.54296" lon="0.37122">
        <ele>115.6</ele>
        <time>2024-01-14T08:01:48Z</time>
      </trkpt>
      <trkpt lat="46.54293" lon="0.37122">
        <ele>114.6</ele>
        <time>2024-01-14T08:01:49Z</time>
      </trkpt>
      <trkpt lat="46.54286" lon="0.37125">
        <ele>113.2</ele>
        <time>2024-01-14T08:01:51Z</time>
      </trkpt>
      <trkpt lat="46.54282" lon="0.37127">
        <ele>112.8</ele>
        <time>2024-01-14T08:01:52Z</time>
      </trkpt>
      <trkpt lat="46.54275" lon="0.37128">
        <ele>111</ele>
        <time>2024-01-14T08:01:54Z</time>
      </trkpt>
      <trkpt lat="46.54271" lon="0.3713">
        <ele>109.4</ele>
        <time>2024-01-14T08:01:56Z</time>
      </trkpt>
      <trkpt lat="46.54268" lon="0.37132">
        <ele>108</ele>
        <time>2024-01-14T08:01:58Z</time>
      </trkpt>
      <trkpt lat="46.54265" lon="0.37135">
        <ele>106.8</ele>
        <time>2024-01-14T08:02:00Z</time>
      </trkpt>
      <trkpt lat="46.54261" lon="0.3714">
        <ele>104.8</ele>
        <time>2024-01-14T08:02:02Z</time>
      </trkpt>
      <trkpt lat="46.5426" lon="0.37144">
        <ele>104.2</ele>
        <time>2024-01-14T08:02:03Z</time>
      </trkpt>
      <trkpt lat="46.54259" lon="0.37148">
        <ele>103.8</ele>
        <time>2024-01-14T08:02:04Z</time>
      </trkpt>
      <trkpt lat="46.54258" lon="0.37152">
        <ele>103.6</ele>
        <time>2024-01-14T08:02:05Z</time>
      </trkpt>
      <trkpt lat="46.54256" lon="0.37156">
        <ele>103.4</ele>
        <time>2024-01-14T08:02:06Z</time>
      </trkpt>
      <trkpt lat="46.54256" lon="0.37156">
        <ele>102.8</ele>
        <time>2024-01-14T08:02:07Z</time>
      </trkpt>
      <trkpt lat="46.54241" lon="0.37174">
        <ele>102.4</ele>
        <time>2024-01-14T08:02:11Z</time>
      </trkpt>
      <trkpt lat="46.54237" lon="0.37177">
        <ele>102.8</ele>
        <time>2024-01-14T08:02:13Z</time>
      </trkpt>
      <trkpt lat="46.54233" lon="0.37182">
        <ele>103.2</ele>
        <time>2024-01-14T08:02:15Z</time>
      </trkpt>
      <trkpt lat="46.54231" lon="0.37184">
        <ele>103.8</ele>
        <time>2024-01-14T08:02:16Z</time>
      </trkpt>
      <trkpt lat="46.54228" lon="0.37187">
        <ele>104.8</ele>
        <time>2024-01-14T08:02:18Z</time>
      </trkpt>
      <trkpt lat="46.54226" lon="0.37188">
        <ele>105.2</ele>
        <time>2024-01-14T08:02:19Z</time>
      </trkpt>
      <trkpt lat="46.54221" lon="0.37194">
        <ele>106.6</ele>
        <time>2024-01-14T08:02:22Z</time>
      </trkpt>
      <trkpt lat="46.54218" lon="0.37198">
        <ele>107.2</ele>
        <time>2024-01-14T08:02:24Z</time>
      </trkpt>
      <trkpt lat="46.54217" lon="0.37199">
        <ele>107.6</ele>
        <time>2024-01-14T08:02:25Z</time>
      </trkpt>
      <trkpt lat="46.54211" lon="0.37204">
        <ele>108.8</ele>
        <time>2024-01-14T08:02:29Z</time>
      </trkpt>
      <trkpt lat="46.54204" lon="0.3721">
        <ele>110.2</ele>
        <time>2024-01-14T08:02:33Z</time>
      </trkpt>
      <trkpt lat="46.54199" lon="0.37215">
        <ele>111.4</ele>
        <time>2024-01-14T08:02:36Z</time>
      </trkpt>
      <trkpt lat="46.54191" lon="0.37224">
        <ele>112.4</ele>
        <time>2024-01-14T08:02:41Z</time>
      </trkpt>
      <trkpt lat="46.54187" lon="0.37227">
        <ele>112.8</ele>
        <time>2024-01-14T08:02:43Z</time>
      </trkpt>
      <trkpt lat="46.54182" lon="0.37233">
        <ele>113.4</ele>
        <time>2024-01-14T08:02:46Z</time>
      </trkpt>
      <trkpt lat="46.54177" lon="0.37239">
        <ele>114</ele>
        <time>2024-01-14T08:02:49Z</time>
      </trkpt>
      <trkpt lat="46.54168" lon="0.37247">
        <ele>114.6</ele>
        <time>2024-01-14T08:02:54Z</time>
      </trkpt>
      <trkpt lat="46.54166" lon="0.37249">
        <ele>114.8</ele>
        <time>2024-01-14T08:02:55Z</time>
      </trkpt>
      <trkpt lat="46.54154" lon="0.3726">
        <ele>115.6</ele>
        <time>2024-01-14T08:03:01Z</time>
      </trkpt>
      <trkpt lat="46.5415" lon="0.37263">
        <ele>115.8</ele>
        <time>2024-01-14T08:03:03Z</time>
      </trkpt>
      <trkpt lat="46.54141" lon="0.37273">
        <ele>116.6</ele>
        <time>2024-01-14T08:03:07Z</time>
      </trkpt>
      <trkpt lat="46.54131" lon="0.37282">
        <ele>117.2</ele>
        <time>2024-01-14T08:03:11Z</time>
      </trkpt>
      <trkpt lat="46.54118" lon="0.37291">
        <ele>117.6</ele>
        <time>2024-01-14T08:03:16Z</time>
      </trkpt>
      <trkpt lat="46.54116" lon="0.37294">
        <ele>117.8</ele>
        <time>2024-01-14T08:03:17Z</time>
      </trkpt>
      <trkpt lat="46.5411" lon="0.37301">
        <ele>117.8</ele>
        <time>2024-01-14T08:03:19Z</time>
      </trkpt>
      <trkpt lat="46.54103" lon="0.37301">
        <ele>118</ele>
        <time>2024-01-14T08:03:21Z</time>
      </trkpt>
      <trkpt lat="46.54097" lon="0.37288">
        <ele>117.8</ele>
        <time>2024-01-14T08:03:25Z</time>
      </trkpt>
      <trkpt lat="46.54089" lon="0.37279">
        <ele>117.6</ele>
        <time>2024-01-14T08:03:28Z</time>
      </trkpt>
      <trkpt lat="46.54077" lon="0.37284">
        <ele>117.4</ele>
        <time>2024-01-14T08:03:31Z</time>
      </trkpt>
      <trkpt lat="46.54057" lon="0.37309">
        <ele>117.8</ele>
        <time>2024-01-14T08:03:37Z</time>
      </trkpt>
      <trkpt lat="46.5403" lon="0.37343">
        <ele>118.4</ele>
        <time>2024-01-14T08:03:45Z</time>
      </trkpt>
      <trkpt lat="46.54027" lon="0.37346">
        <ele>118.8</ele>
        <time>2024-01-14T08:03:46Z</time>
      </trkpt>
      <trkpt lat="46.54011" lon="0.37368">
        <ele>119.6</ele>
        <time>2024-01-14T08:03:52Z</time>
      </trkpt>
      <trkpt lat="46.54009" lon="0.37372">
        <ele>120</ele>
        <time>2024-01-14T08:03:53Z</time>
      </trkpt>
      <trkpt lat="46.53995" lon="0.37399">
        <ele>121</ele>
        <time>2024-01-14T08:03:59Z</time>
      </trkpt>
      <trkpt lat="46.53992" lon="0.37404">
        <ele>121.2</ele>
        <time>2024-01-14T08:04:00Z</time>
      </trkpt>
      <trkpt lat="46.53984" lon="0.37426">
        <ele>122.2</ele>
        <time>2024-01-14T08:04:04Z</time>
      </trkpt>
      <trkpt lat="46.53975" lon="0.37449">
        <ele>122.8</ele>
        <time>2024-01-14T08:04:08Z</time>
      </trkpt>
      <trkpt lat="46.53968" lon="0.37465">
        <ele>123.2</ele>
        <time>2024-01-14T08:04:11Z</time>
      </trkpt>
      <trkpt lat="46.53957" lon="0.37485">
        <ele>123.4</ele>
        <time>2024-01-14T08:04:15Z</time>
      </trkpt>
      <trkpt lat="46.53929" lon="0.37524">
        <ele>123.8</ele>
        <time>2024-01-14T08:04:23Z</time>
      </trkpt>
      <trkpt lat="46.53923" lon="0.37535">
        <ele>124</ele>
        <time>2024-01-14T08:04:25Z</time>
      </trkpt>
      <trkpt lat="46.53914" lon="0.37556">
        <ele>124</ele>
        <time>2024-01-14T08:04:28Z</time>
      </trkpt>
      <trkpt lat="46.5389" lon="0.37621">
        <ele>123.2</ele>
        <time>2024-01-14T08:04:37Z</time>
      </trkpt>
      <trkpt lat="46.53881" lon="0.37633">
        <ele>123.2</ele>
        <time>2024-01-14T08:04:39Z</time>
      </trkpt>
      <trkpt lat="46.53867" lon="0.3765">
        <ele>123</ele>
        <time>2024-01-14T08:04:42Z</time>
      </trkpt>
      <trkpt lat="46.53839" lon="0.37695">
        <ele>122.2</ele>
        <time>2024-01-14T08:04:49Z</time>
      </trkpt>
      <trkpt lat="46.53836" lon="0.37703">
        <ele>122</ele>
        <time>2024-01-14T08:04:50Z</time>
      </trkpt>
      <trkpt lat="46.53823" lon="0.37745">
        <ele>121.6</ele>
        <time>2024-01-14T08:04:55Z</time>
      </trkpt>
      <trkpt lat="46.53816" lon="0.3777">
        <ele>121</ele>
        <time>2024-01-14T08:04:58Z</time>
      </trkpt>
      <trkpt lat="46.53809" lon="0.37794">
        <ele>120.6</ele>
        <time>2024-01-14T08:05:01Z</time>
      </trkpt>
      <trkpt lat="46.53796" lon="0.37847">
        <ele>119.8</ele>
        <time>2024-01-14T08:05:07Z</time>
      </trkpt>
      <trkpt lat="46.53794" lon="0.37856">
        <ele>118.6</ele>
        <time>2024-01-14T08:05:08Z</time>
      </trkpt>
      <trkpt lat="46.53791" lon="0.37864">
        <ele>117.8</ele>
        <time>2024-01-14T08:05:09Z</time>
      </trkpt>
      <trkpt lat="46.53789" lon="0.37872">
        <ele>117.2</ele>
        <time>2024-01-14T08:05:10Z</time>
      </trkpt>
      <trkpt lat="46.53781" lon="0.37894">
        <ele>116</ele>
        <time>2024-01-14T08:05:13Z</time>
      </trkpt>
      <trkpt lat="46.53777" lon="0.37901">
        <ele>115.6</ele>
        <time>2024-01-14T08:05:14Z</time>
      </trkpt>
      <trkpt lat="46.53774" lon="0.37907">
        <ele>114.8</ele>
        <time>2024-01-14T08:05:15Z</time>
      </trkpt>
      <trkpt lat="46.53765" lon="0.37918">
        <ele>113.6</ele>
        <time>2024-01-14T08:05:17Z</time>
      </trkpt>
      <trkpt lat="46.53755" lon="0.37926">
        <ele>112.6</ele>
        <time>2024-01-14T08:05:19Z</time>
      </trkpt>
      <trkpt lat="46.53749" lon="0.37932">
        <ele>112.4</ele>
        <time>2024-01-14T08:05:20Z</time>
      </trkpt>
      <trkpt lat="46.53733" lon="0.3794">
        <ele>111.2</ele>
        <time>2024-01-14T08:05:23Z</time>
      </trkpt>
      <trkpt lat="46.53727" lon="0.37942">
        <ele>110.6</ele>
        <time>2024-01-14T08:05:24Z</time>
      </trkpt>
      <trkpt lat="46.53721" lon="0.37944">
        <ele>109.8</ele>
        <time>2024-01-14T08:05:25Z</time>
      </trkpt>
      <trkpt lat="46.53708" lon="0.37945">
        <ele>108.4</ele>
        <time>2024-01-14T08:05:27Z</time>
      </trkpt>
      <trkpt lat="46.53701" lon="0.37944">
        <ele>108</ele>
        <time>2024-01-14T08:05:28Z</time>
      </trkpt>
      <trkpt lat="46.53686" lon="0.37944">
        <ele>107</ele>
        <time>2024-01-14T08:05:30Z</time>
      </trkpt>
      <trkpt lat="46.53664" lon="0.37946">
        <ele>106</ele>
        <time>2024-01-14T08:05:33Z</time>
      </trkpt>
      <trkpt lat="46.53656" lon="0.37945">
        <ele>105.4</ele>
        <time>2024-01-14T08:05:34Z</time>
      </trkpt>
      <trkpt lat="46.53649" lon="0.37943">
        <ele>105</ele>
        <time>2024-01-14T08:05:35Z</time>
      </trkpt>
      <trkpt lat="46.53643" lon="0.37939">
        <ele>104.6</ele>
        <time>2024-01-14T08:05:36Z</time>
      </trkpt>
      <trkpt lat="46.53625" lon="0.37923">
        <ele>105</ele>
        <time>2024-01-14T08:05:40Z</time>
      </trkpt>
      <trkpt lat="46.53612" lon="0.37909">
        <ele>106.2</ele>
        <time>2024-01-14T08:05:44Z</time>
      </trkpt>
      <trkpt lat="46.53606" lon="0.37904">
        <ele>107.2</ele>
        <time>2024-01-14T08:05:46Z</time>
      </trkpt>
      <trkpt lat="46.53603" lon="0.37902">
        <ele>107.4</ele>
        <time>2024-01-14T08:05:47Z</time>
      </trkpt>
      <trkpt lat="46.53599" lon="0.379">
        <ele>108.2</ele>
        <time>2024-01-14T08:05:48Z</time>
      </trkpt>
      <trkpt lat="46.53595" lon="0.37897">
        <ele>108.6</ele>
        <time>2024-01-14T08:05:49Z</time>
      </trkpt>
      <trkpt lat="46.53584" lon="0.37889">
        <ele>109.4</ele>
        <time>2024-01-14T08:05:52Z</time>
      </trkpt>
      <trkpt lat="46.53581" lon="0.37888">
        <ele>109.8</ele>
        <time>2024-01-14T08:05:53Z</time>
      </trkpt>
      <trkpt lat="46.53571" lon="0.37883">
        <ele>111</ele>
        <time>2024-01-14T08:05:56Z</time>
      </trkpt>
      <trkpt lat="46.53562" lon="0.37879">
        <ele>111.6</ele>
        <time>2024-01-14T08:05:59Z</time>
      </trkpt>
      <trkpt lat="46.53555" lon="0.37875">
        <ele>112.2</ele>
        <time>2024-01-14T08:06:01Z</time>
      </trkpt>
      <trkpt lat="46.5354" lon="0.37865">
        <ele>113.4</ele>
        <time>2024-01-14T08:06:05Z</time>
      </trkpt>
      <trkpt lat="46.53537" lon="0.37864">
        <ele>113.6</ele>
        <time>2024-01-14T08:06:06Z</time>
      </trkpt>
      <trkpt lat="46.53531" lon="0.37861">
        <ele>114.6</ele>
        <time>2024-01-14T08:06:08Z</time>
      </trkpt>
      <trkpt lat="46.53522" lon="0.37855">
        <ele>115.6</ele>
        <time>2024-01-14T08:06:11Z</time>
      </trkpt>
      <trkpt lat="46.53516" lon="0.37852">
        <ele>116.2</ele>
        <time>2024-01-14T08:06:13Z</time>
      </trkpt>
      <trkpt lat="46.5351" lon="0.37848">
        <ele>116.8</ele>
        <time>2024-01-14T08:06:15Z</time>
      </trkpt>
      <trkpt lat="46.535" lon="0.3784">
        <ele>117.6</ele>
        <time>2024-01-14T08:06:18Z</time>
      </trkpt>
      <trkpt lat="46.53497" lon="0.37837">
        <ele>117.8</ele>
        <time>2024-01-14T08:06:19Z</time>
      </trkpt>
      <trkpt lat="46.53485" lon="0.37823">
        <ele>118.2</ele>
        <time>2024-01-14T08:06:24Z</time>
      </trkpt>
      <trkpt lat="46.53471" lon="0.37798">
        <ele>118.8</ele>
        <time>2024-01-14T08:06:30Z</time>
      </trkpt>
      <trkpt lat="46.53454" lon="0.37767">
        <ele>118.8</ele>
        <time>2024-01-14T08:06:36Z</time>
      </trkpt>
      <trkpt lat="46.53452" lon="0.37761">
        <ele>119</ele>
        <time>2024-01-14T08:06:37Z</time>
      </trkpt>
      <trkpt lat="46.53438" lon="0.37735">
        <ele>119.6</ele>
        <time>2024-01-14T08:06:42Z</time>
      </trkpt>
      <trkpt lat="46.53435" lon="0.3773">
        <ele>119.8</ele>
        <time>2024-01-14T08:06:43Z</time>
      </trkpt>
      <trkpt lat="46.5342" lon="0.37697">
        <ele>121</ele>
        <time>2024-01-14T08:06:49Z</time>
      </trkpt>
      <trkpt lat="46.53418" lon="0.37693">
        <ele>121.4</ele>
        <time>2024-01-14T08:06:50Z</time>
      </trkpt>
      <trkpt lat="46.53411" lon="0.37678">
        <ele>122.2</ele>
        <time>2024-01-14T08:06:53Z</time>
      </trkpt>
      <trkpt lat="46.534" lon="0.37652">
        <ele>123</ele>
        <time>2024-01-14T08:06:58Z</time>
      </trkpt>
      <trkpt lat="46.53398" lon="0.37647">
        <ele>123.4</ele>
        <time>2024-01-14T08:06:59Z</time>
      </trkpt>
      <trkpt lat="46.53388" lon="0.37619">
        <ele>124.2</ele>
        <time>2024-01-14T08:07:05Z</time>
      </trkpt>
      <trkpt lat="46.53386" lon="0.37614">
        <ele>124.4</ele>
        <time>2024-01-14T08:07:06Z</time>
      </trkpt>
      <trkpt lat="46.53373" lon="0.37582">
        <ele>125</ele>
        <time>2024-01-14T08:07:12Z</time>
      </trkpt>
      <trkpt lat="46.53355" lon="0.37541">
        <ele>124.4</ele>
        <time>2024-01-14T08:07:19Z</time>
      </trkpt>
      <trkpt lat="46.53348" lon="0.3753">
        <ele>124.2</ele>
        <time>2024-01-14T08:07:21Z</time>
      </trkpt>
      <trkpt lat="46.5334" lon="0.37528">
        <ele>124.2</ele>
        <time>2024-01-14T08:07:23Z</time>
      </trkpt>
      <trkpt lat="46.5333" lon="0.37543">
        <ele>124.4</ele>
        <time>2024-01-14T08:07:27Z</time>
      </trkpt>
      <trkpt lat="46.53314" lon="0.37585">
        <ele>125</ele>
        <time>2024-01-14T08:07:34Z</time>
      </trkpt>
      <trkpt lat="46.53306" lon="0.3761">
        <ele>125.4</ele>
        <time>2024-01-14T08:07:38Z</time>
      </trkpt>
      <trkpt lat="46.533" lon="0.37631">
        <ele>125.4</ele>
        <time>2024-01-14T08:07:41Z</time>
      </trkpt>
      <trkpt lat="46.53283" lon="0.37683">
        <ele>125.8</ele>
        <time>2024-01-14T08:07:49Z</time>
      </trkpt>
      <trkpt lat="46.53264" lon="0.3774">
        <ele>125.8</ele>
        <time>2024-01-14T08:07:58Z</time>
      </trkpt>
      <trkpt lat="46.53259" lon="0.37773">
        <ele>126</ele>
        <time>2024-01-14T08:08:03Z</time>
      </trkpt>
      <trkpt lat="46.53259" lon="0.37785">
        <ele>125.8</ele>
        <time>2024-01-14T08:08:05Z</time>
      </trkpt>
      <trkpt lat="46.53257" lon="0.37811">
        <ele>125.8</ele>
        <time>2024-01-14T08:08:09Z</time>
      </trkpt>
      <trkpt lat="46.53254" lon="0.37858">
        <ele>125.4</ele>
        <time>2024-01-14T08:08:16Z</time>
      </trkpt>
      <trkpt lat="46.53246" lon="0.37908">
        <ele>125.4</ele>
        <time>2024-01-14T08:08:23Z</time>
      </trkpt>
      <trkpt lat="46.53243" lon="0.37931">
        <ele>125.6</ele>
        <time>2024-01-14T08:08:26Z</time>
      </trkpt>
      <trkpt lat="46.53243" lon="0.37946">
        <ele>125.6</ele>
        <time>2024-01-14T08:08:28Z</time>
      </trkpt>
      <trkpt lat="46.5325" lon="0.37979">
        <ele>124.2</ele>
        <time>2024-01-14T08:08:32Z</time>
      </trkpt>
      <trkpt lat="46.53251" lon="0.37988">
        <ele>124.2</ele>
        <time>2024-01-14T08:08:33Z</time>
      </trkpt>
      <trkpt lat="46.53256" lon="0.38023">
        <ele>123</ele>
        <time>2024-01-14T08:08:37Z</time>
      </trkpt>
      <trkpt lat="46.53259" lon="0.38051">
        <ele>122.6</ele>
        <time>2024-01-14T08:08:40Z</time>
      </trkpt>
      <trkpt lat="46.53263" lon="0.38094">
        <ele>121.8</ele>
        <time>2024-01-14T08:08:45Z</time>
      </trkpt>
      <trkpt lat="46.53265" lon="0.38103">
        <ele>121.4</ele>
        <time>2024-01-14T08:08:46Z</time>
      </trkpt>
      <trkpt lat="46.5327" lon="0.38142">
        <ele>121</ele>
        <time>2024-01-14T08:08:51Z</time>
      </trkpt>
      <trkpt lat="46.5327" lon="0.3815">
        <ele>120.6</ele>
        <time>2024-01-14T08:08:52Z</time>
      </trkpt>
      <trkpt lat="46.5327" lon="0.38158">
        <ele>120.4</ele>
        <time>2024-01-14T08:08:53Z</time>
      </trkpt>
      <trkpt lat="46.53266" lon="0.3818">
        <ele>119.6</ele>
        <time>2024-01-14T08:08:56Z</time>
      </trkpt>
      <trkpt lat="46.53265" lon="0.38187">
        <ele>119.4</ele>
        <time>2024-01-14T08:08:57Z</time>
      </trkpt>
      <trkpt lat="46.53256" lon="0.38217">
        <ele>118</ele>
        <time>2024-01-14T08:09:01Z</time>
      </trkpt>
      <trkpt lat="46.53252" lon="0.38225">
        <ele>117.8</ele>
        <time>2024-01-14T08:09:02Z</time>
      </trkpt>
      <trkpt lat="46.53239" lon="0.38248">
        <ele>117</ele>
        <time>2024-01-14T08:09:05Z</time>
      </trkpt>
      <trkpt lat="46.53229" lon="0.38272">
        <ele>116.4</ele>
        <time>2024-01-14T08:09:08Z</time>
      </trkpt>
      <trkpt lat="46.53208" lon="0.38321">
        <ele>116.4</ele>
        <time>2024-01-14T08:09:15Z</time>
      </trkpt>
      <trkpt lat="46.53206" lon="0.38328">
        <ele>116.4</ele>
        <time>2024-01-14T08:09:16Z</time>
      </trkpt>
      <trkpt lat="46.532" lon="0.38347">
        <ele>116.6</ele>
        <time>2024-01-14T08:09:19Z</time>
      </trkpt>
      <trkpt lat="46.53195" lon="0.38357">
        <ele>116.8</ele>
        <time>2024-01-14T08:09:21Z</time>
      </trkpt>
      <trkpt lat="46.5319" lon="0.38367">
        <ele>117</ele>
        <time>2024-01-14T08:09:23Z</time>
      </trkpt>
      <trkpt lat="46.53187" lon="0.38376">
        <ele>117</ele>
        <time>2024-01-14T08:09:25Z</time>
      </trkpt>
      <trkpt lat="46.53186" lon="0.38381">
        <ele>117.2</ele>
        <time>2024-01-14T08:09:26Z</time>
      </trkpt>
      <trkpt lat="46.5319" lon="0.38406">
        <ele>117.8</ele>
        <time>2024-01-14T08:09:31Z</time>
      </trkpt>
      <trkpt lat="46.53198" lon="0.38415">
        <ele>118</ele>
        <time>2024-01-14T08:09:35Z</time>
      </trkpt>
      <trkpt lat="46.532" lon="0.38416">
        <ele>118.2</ele>
        <time>2024-01-14T08:09:36Z</time>
      </trkpt>
      <trkpt lat="46.5321" lon="0.38424">
        <ele>119.2</ele>
        <time>2024-01-14T08:09:42Z</time>
      </trkpt>
      <trkpt lat="46.53216" lon="0.3843">
        <ele>120.4</ele>
        <time>2024-01-14T08:09:45Z</time>
      </trkpt>
      <trkpt lat="46.53222" lon="0.38436">
        <ele>121.6</ele>
        <time>2024-01-14T08:09:48Z</time>
      </trkpt>
      <trkpt lat="46.53224" lon="0.38438">
        <ele>122</ele>
        <time>2024-01-14T08:09:49Z</time>
      </trkpt>
      <trkpt lat="46.53228" lon="0.38443">
        <ele>122.6</ele>
        <time>2024-01-14T08:09:51Z</time>
      </trkpt>
      <trkpt lat="46.53238" lon="0.38457">
        <ele>123.2</ele>
        <time>2024-01-14T08:09:57Z</time>
      </trkpt>
      <trkpt lat="46.53243" lon="0.38465">
        <ele>123.8</ele>
        <time>2024-01-14T08:10:00Z</time>
      </trkpt>
      <trkpt lat="46.5325" lon="0.38475">
        <ele>125</ele>
        <time>2024-01-14T08:10:04Z</time>
      </trkpt>
      <trkpt lat="46.53265" lon="0.38495">
        <ele>125.8</ele>
        <time>2024-01-14T08:10:10Z</time>
      </trkpt>
      <trkpt lat="46.53272" lon="0.3851">
        <ele>126</ele>
        <time>2024-01-14T08:10:13Z</time>
      </trkpt>
      <trkpt lat="46.53278" lon="0.38527">
        <ele>126.4</ele>
        <time>2024-01-14T08:10:16Z</time>
      </trkpt>
      <trkpt lat="46.53287" lon="0.38556">
        <ele>127.2</ele>
        <time>2024-01-14T08:10:21Z</time>
      </trkpt>
      <trkpt lat="46.53294" lon="0.38579">
        <ele>127.6</ele>
        <time>2024-01-14T08:10:25Z</time>
      </trkpt>
      <trkpt lat="46.53297" lon="0.38615">
        <ele>128.2</ele>
        <time>2024-01-14T08:10:31Z</time>
      </trkpt>
      <trkpt lat="46.53298" lon="0.38622">
        <ele>128.2</ele>
        <time>2024-01-14T08:10:32Z</time>
      </trkpt>
      <trkpt lat="46.53303" lon="0.38667">
        <ele>128.6</ele>
        <time>2024-01-14T08:10:39Z</time>
      </trkpt>
      <trkpt lat="46.53308" lon="0.38692">
        <ele>127.8</ele>
        <time>2024-01-14T08:10:43Z</time>
      </trkpt>
      <trkpt lat="46.53311" lon="0.38705">
        <ele>127.6</ele>
        <time>2024-01-14T08:10:45Z</time>
      </trkpt>
      <trkpt lat="46.53322" lon="0.38742">
        <ele>129.2</ele>
        <time>2024-01-14T08:10:51Z</time>
      </trkpt>
      <trkpt lat="46.53323" lon="0.38754">
        <ele>129.4</ele>
        <time>2024-01-14T08:10:53Z</time>
      </trkpt>
      <trkpt lat="46.53327" lon="0.38777">
        <ele>129</ele>
        <time>2024-01-14T08:10:57Z</time>
      </trkpt>
      <trkpt lat="46.53328" lon="0.38788">
        <ele>128.8</ele>
        <time>2024-01-14T08:10:59Z</time>
      </trkpt>
      <trkpt lat="46.53331" lon="0.38805">
        <ele>129.2</ele>
        <time>2024-01-14T08:11:02Z</time>
      </trkpt>
      <trkpt lat="46.5333" lon="0.38816">
        <ele>129.4</ele>
        <time>2024-01-14T08:11:04Z</time>
      </trkpt>
      <trkpt lat="46.53325" lon="0.38823">
        <ele>129.6</ele>
        <time>2024-01-14T08:11:06Z</time>
      </trkpt>
      <trkpt lat="46.53306" lon="0.38833">
        <ele>130</ele>
        <time>2024-01-14T08:11:11Z</time>
      </trkpt>
      <trkpt lat="46.5329" lon="0.38839">
        <ele>130.4</ele>
        <time>2024-01-14T08:11:15Z</time>
      </trkpt>
      <trkpt lat="46.53279" lon="0.38843">
        <ele>131.4</ele>
        <time>2024-01-14T08:11:18Z</time>
      </trkpt>
      <trkpt lat="46.53275" lon="0.38844">
        <ele>131.6</ele>
        <time>2024-01-14T08:11:19Z</time>
      </trkpt>
      <trkpt lat="46.53254" lon="0.38854">
        <ele>131.8</ele>
        <time>2024-01-14T08:11:25Z</time>
      </trkpt>
      <trkpt lat="46.53224" lon="0.38859">
        <ele>131.8</ele>
        <time>2024-01-14T08:11:33Z</time>
      </trkpt>
      <trkpt lat="46.53193" lon="0.38867">
        <ele>132.2</ele>
        <time>2024-01-14T08:11:40Z</time>
      </trkpt>
      <trkpt lat="46.5316" lon="0.38875">
        <ele>131.8</ele>
        <time>2024-01-14T08:11:47Z</time>
      </trkpt>
      <trkpt lat="46.53151" lon="0.38878">
        <ele>132</ele>
        <time>2024-01-14T08:11:49Z</time>
      </trkpt>
      <trkpt lat="46.53127" lon="0.38886">
        <ele>131.8</ele>
        <time>2024-01-14T08:11:54Z</time>
      </trkpt>
      <trkpt lat="46.53098" lon="0.38894">
        <ele>131.6</ele>
        <time>2024-01-14T08:12:00Z</time>
      </trkpt>
      <trkpt lat="46.53093" lon="0.38896">
        <ele>131.6</ele>
        <time>2024-01-14T08:12:01Z</time>
      </trkpt>
      <trkpt lat="46.53086" lon="0.389">
        <ele>131.6</ele>
        <time>2024-01-14T08:12:03Z</time>
      </trkpt>
      <trkpt lat="46.53082" lon="0.38901">
        <ele>131.6</ele>
        <time>2024-01-14T08:12:04Z</time>
      </trkpt>
      <trkpt lat="46.53066" lon="0.38909">
        <ele>131.2</ele>
        <time>2024-01-14T08:12:08Z</time>
      </trkpt>
      <trkpt lat="46.53058" lon="0.38913">
        <ele>131.2</ele>
        <time>2024-01-14T08:12:10Z</time>
      </trkpt>
      <trkpt lat="46.5303" lon="0.38933">
        <ele>131.2</ele>
        <time>2024-01-14T08:12:16Z</time>
      </trkpt>
      <trkpt lat="46.52991" lon="0.38957">
        <ele>130.8</ele>
        <time>2024-01-14T08:12:24Z</time>
      </trkpt>
      <trkpt lat="46.52973" lon="0.38968">
        <ele>130.6</ele>
        <time>2024-01-14T08:12:28Z</time>
      </trkpt>
      <trkpt lat="46.52968" lon="0.3897">
        <ele>130.4</ele>
        <time>2024-01-14T08:12:29Z</time>
      </trkpt>
      <trkpt lat="46.52958" lon="0.38972">
        <ele>131</ele>
        <time>2024-01-14T08:12:31Z</time>
      </trkpt>
      <trkpt lat="46.52919" lon="0.38981">
        <ele>131</ele>
        <time>2024-01-14T08:12:39Z</time>
      </trkpt>
      <trkpt lat="46.52892" lon="0.38988">
        <ele>131.8</ele>
        <time>2024-01-14T08:12:45Z</time>
      </trkpt>
      <trkpt lat="46.52884" lon="0.38991">
        <ele>132.2</ele>
        <time>2024-01-14T08:12:47Z</time>
      </trkpt>
      <trkpt lat="46.52872" lon="0.38994">
        <ele>132.4</ele>
        <time>2024-01-14T08:12:50Z</time>
      </trkpt>
      <trkpt lat="46.52861" lon="0.38998">
        <ele>132.8</ele>
        <time>2024-01-14T08:12:53Z</time>
      </trkpt>
      <trkpt lat="46.52842" lon="0.39002">
        <ele>134.2</ele>
        <time>2024-01-14T08:12:58Z</time>
      </trkpt>
      <trkpt lat="46.52831" lon="0.39004">
        <ele>134.6</ele>
        <time>2024-01-14T08:13:01Z</time>
      </trkpt>
      <trkpt lat="46.52809" lon="0.3901">
        <ele>135.2</ele>
        <time>2024-01-14T08:13:07Z</time>
      </trkpt>
      <trkpt lat="46.52803" lon="0.39012">
        <ele>135.8</ele>
        <time>2024-01-14T08:13:09Z</time>
      </trkpt>
      <trkpt lat="46.5279" lon="0.39016">
        <ele>136.4</ele>
        <time>2024-01-14T08:13:13Z</time>
      </trkpt>
      <trkpt lat="46.52779" lon="0.39019">
        <ele>137</ele>
        <time>2024-01-14T08:13:16Z</time>
      </trkpt>
      <trkpt lat="46.52772" lon="0.39022">
        <ele>137.4</ele>
        <time>2024-01-14T08:13:18Z</time>
      </trkpt>
      <trkpt lat="46.52748" lon="0.39028">
        <ele>137.6</ele>
        <time>2024-01-14T08:13:24Z</time>
      </trkpt>
      <trkpt lat="46.52728" lon="0.39034">
        <ele>138.2</ele>
        <time>2024-01-14T08:13:29Z</time>
      </trkpt>
      <trkpt lat="46.52721" lon="0.39037">
        <ele>138.2</ele>
        <time>2024-01-14T08:13:31Z</time>
      </trkpt>
      <trkpt lat="46.52695" lon="0.39046">
        <ele>137.6</ele>
        <time>2024-01-14T08:13:39Z</time>
      </trkpt>
      <trkpt lat="46.5267" lon="0.39043">
        <ele>138</ele>
        <time>2024-01-14T08:13:45Z</time>
      </trkpt>
      <trkpt lat="46.52639" lon="0.39048">
        <ele>137.6</ele>
        <time>2024-01-14T08:13:51Z</time>
      </trkpt>
      <trkpt lat="46.52599" lon="0.39061">
        <ele>136.8</ele>
        <time>2024-01-14T08:13:59Z</time>
      </trkpt>
      <trkpt lat="46.52583" lon="0.39064">
        <ele>136.4</ele>
        <time>2024-01-14T08:14:02Z</time>
      </trkpt>
      <trkpt lat="46.52572" lon="0.39068">
        <ele>136</ele>
        <time>2024-01-14T08:14:04Z</time>
      </trkpt>
      <trkpt lat="46.52566" lon="0.39071">
        <ele>136</ele>
        <time>2024-01-14T08:14:05Z</time>
      </trkpt>
      <trkpt lat="46.52542" lon="0.39085">
        <ele>135.4</ele>
        <time>2024-01-14T08:14:09Z</time>
      </trkpt>
      <trkpt lat="46.5253" lon="0.3909">
        <ele>134.6</ele>
        <time>2024-01-14T08:14:11Z</time>
      </trkpt>
      <trkpt lat="46.52517" lon="0.39094">
        <ele>134.2</ele>
        <time>2024-01-14T08:14:13Z</time>
      </trkpt>
      <trkpt lat="46.52482" lon="0.39104">
        <ele>133.4</ele>
        <time>2024-01-14T08:14:18Z</time>
      </trkpt>
      <trkpt lat="46.52475" lon="0.39105">
        <ele>133</ele>
        <time>2024-01-14T08:14:19Z</time>
      </trkpt>
      <trkpt lat="46.52454" lon="0.39112">
        <ele>131.8</ele>
        <time>2024-01-14T08:14:22Z</time>
      </trkpt>
      <trkpt lat="46.52449" lon="0.39116">
        <ele>131.8</ele>
        <time>2024-01-14T08:14:23Z</time>
      </trkpt>
      <trkpt lat="46.52444" lon="0.39121">
        <ele>131.6</ele>
        <time>2024-01-14T08:14:24Z</time>
      </trkpt>
      <trkpt lat="46.52423" lon="0.39141">
        <ele>130.8</ele>
        <time>2024-01-14T08:14:28Z</time>
      </trkpt>
      <trkpt lat="46.52404" lon="0.39166">
        <ele>129.4</ele>
        <time>2024-01-14T08:14:32Z</time>
      </trkpt>
      <trkpt lat="46.52395" lon="0.3918">
        <ele>128.8</ele>
        <time>2024-01-14T08:14:34Z</time>
      </trkpt>
      <trkpt lat="46.52387" lon="0.39197">
        <ele>128.2</ele>
        <time>2024-01-14T08:14:36Z</time>
      </trkpt>
      <trkpt lat="46.52375" lon="0.3922">
        <ele>127.2</ele>
        <time>2024-01-14T08:14:39Z</time>
      </trkpt>
      <trkpt lat="46.52364" lon="0.39233">
        <ele>126</ele>
        <time>2024-01-14T08:14:41Z</time>
      </trkpt>
      <trkpt lat="46.52353" lon="0.39246">
        <ele>124.8</ele>
        <time>2024-01-14T08:14:43Z</time>
      </trkpt>
      <trkpt lat="46.52347" lon="0.39253">
        <ele>124.6</ele>
        <time>2024-01-14T08:14:44Z</time>
      </trkpt>
      <trkpt lat="46.52324" lon="0.39282">
        <ele>123.4</ele>
        <time>2024-01-14T08:14:48Z</time>
      </trkpt>
      <trkpt lat="46.523" lon="0.39311">
        <ele>122.4</ele>
        <time>2024-01-14T08:14:52Z</time>
      </trkpt>
      <trkpt lat="46.52295" lon="0.39319">
        <ele>121.8</ele>
        <time>2024-01-14T08:14:53Z</time>
      </trkpt>
      <trkpt lat="46.52274" lon="0.39348">
        <ele>120.6</ele>
        <time>2024-01-14T08:14:57Z</time>
      </trkpt>
      <trkpt lat="46.52258" lon="0.39369">
        <ele>120.2</ele>
        <time>2024-01-14T08:15:00Z</time>
      </trkpt>
      <trkpt lat="46.52237" lon="0.39397">
        <ele>119.4</ele>
        <time>2024-01-14T08:15:04Z</time>
      </trkpt>
      <trkpt lat="46.52223" lon="0.3942">
        <ele>118.8</ele>
        <time>2024-01-14T08:15:07Z</time>
      </trkpt>
      <trkpt lat="46.52215" lon="0.39436">
        <ele>118.4</ele>
        <time>2024-01-14T08:15:09Z</time>
      </trkpt>
      <trkpt lat="46.52183" lon="0.39493">
        <ele>117</ele>
        <time>2024-01-14T08:15:16Z</time>
      </trkpt>
      <trkpt lat="46.52179" lon="0.395">
        <ele>116.8</ele>
        <time>2024-01-14T08:15:17Z</time>
      </trkpt>
      <trkpt lat="46.5217" lon="0.39525">
        <ele>116.4</ele>
        <time>2024-01-14T08:15:20Z</time>
      </trkpt>
      <trkpt lat="46.52168" lon="0.39533">
        <ele>115.8</ele>
        <time>2024-01-14T08:15:21Z</time>
      </trkpt>
      <trkpt lat="46.52155" lon="0.39582">
        <ele>115.4</ele>
        <time>2024-01-14T08:15:27Z</time>
      </trkpt>
      <trkpt lat="46.52138" lon="0.39645">
        <ele>115.6</ele>
        <time>2024-01-14T08:15:35Z</time>
      </trkpt>
      <trkpt lat="46.52122" lon="0.39694">
        <ele>116</ele>
        <time>2024-01-14T08:15:42Z</time>
      </trkpt>
      <trkpt lat="46.52113" lon="0.39719">
        <ele>117</ele>
        <time>2024-01-14T08:15:47Z</time>
      </trkpt>
      <trkpt lat="46.52112" lon="0.39722">
        <ele>117.2</ele>
        <time>2024-01-14T08:15:48Z</time>
      </trkpt>
      <trkpt lat="46.52109" lon="0.3973">
        <ele>118.2</ele>
        <time>2024-01-14T08:15:50Z</time>
      </trkpt>
      <trkpt lat="46.52101" lon="0.39744">
        <ele>119</ele>
        <time>2024-01-14T08:15:54Z</time>
      </trkpt>
      <trkpt lat="46.52098" lon="0.39748">
        <ele>119.2</ele>
        <time>2024-01-14T08:15:55Z</time>
      </trkpt>
      <trkpt lat="46.52094" lon="0.39758">
        <ele>120.2</ele>
        <time>2024-01-14T08:15:57Z</time>
      </trkpt>
      <trkpt lat="46.52084" lon="0.39774">
        <ele>121.2</ele>
        <time>2024-01-14T08:16:01Z</time>
      </trkpt>
      <trkpt lat="46.52082" lon="0.39777">
        <ele>121.4</ele>
        <time>2024-01-14T08:16:02Z</time>
      </trkpt>
      <trkpt lat="46.52072" lon="0.39793">
        <ele>122.4</ele>
        <time>2024-01-14T08:16:06Z</time>
      </trkpt>
      <trkpt lat="46.52063" lon="0.39809">
        <ele>122.4</ele>
        <time>2024-01-14T08:16:10Z</time>
      </trkpt>
      <trkpt lat="46.52057" lon="0.39821">
        <ele>123.4</ele>
        <time>2024-01-14T08:16:13Z</time>
      </trkpt>
      <trkpt lat="46.52049" lon="0.39836">
        <ele>124</ele>
        <time>2024-01-14T08:16:17Z</time>
      </trkpt>
      <trkpt lat="46.52039" lon="0.39854">
        <ele>124.6</ele>
        <time>2024-01-14T08:16:22Z</time>
      </trkpt>
      <trkpt lat="46.52036" lon="0.39857">
        <ele>124.6</ele>
        <time>2024-01-14T08:16:23Z</time>
      </trkpt>
      <trkpt lat="46.52031" lon="0.39865">
        <ele>125.6</ele>
        <time>2024-01-14T08:16:26Z</time>
      </trkpt>
      <trkpt lat="46.52026" lon="0.39878">
        <ele>126.4</ele>
        <time>2024-01-14T08:16:29Z</time>
      </trkpt>
      <trkpt lat="46.52023" lon="0.39887">
        <ele>126.6</ele>
        <time>2024-01-14T08:16:31Z</time>
      </trkpt>
      <trkpt lat="46.52016" lon="0.39905">
        <ele>127.4</ele>
        <time>2024-01-14T08:16:35Z</time>
      </trkpt>
      <trkpt lat="46.52007" lon="0.39927">
        <ele>127.8</ele>
        <time>2024-01-14T08:16:40Z</time>
      </trkpt>
      <trkpt lat="46.52002" lon="0.39933">
        <ele>127.8</ele>
        <time>2024-01-14T08:16:42Z</time>
      </trkpt>
      <trkpt lat="46.51986" lon="0.39954">
        <ele>128</ele>
        <time>2024-01-14T08:16:47Z</time>
      </trkpt>
      <trkpt lat="46.51963" lon="0.39988">
        <ele>128.2</ele>
        <time>2024-01-14T08:16:54Z</time>
      </trkpt>
      <trkpt lat="46.51954" lon="0.40001">
        <ele>128.2</ele>
        <time>2024-01-14T08:16:57Z</time>
      </trkpt>
      <trkpt lat="46.5194" lon="0.40028">
        <ele>128.6</ele>
        <time>2024-01-14T08:17:02Z</time>
      </trkpt>
      <trkpt lat="46.51932" lon="0.40051">
        <ele>128.8</ele>
        <time>2024-01-14T08:17:05Z</time>
      </trkpt>
      <trkpt lat="46.51928" lon="0.40067">
        <ele>128.8</ele>
        <time>2024-01-14T08:17:07Z</time>
      </trkpt>
      <trkpt lat="46.51915" lon="0.40117">
        <ele>128.8</ele>
        <time>2024-01-14T08:17:13Z</time>
      </trkpt>
      <trkpt lat="46.51912" lon="0.40125">
        <ele>129</ele>
        <time>2024-01-14T08:17:14Z</time>
      </trkpt>
      <trkpt lat="46.51906" lon="0.40138">
        <ele>129</ele>
        <time>2024-01-14T08:17:16Z</time>
      </trkpt>
      <trkpt lat="46.51902" lon="0.40144">
        <ele>128.8</ele>
        <time>2024-01-14T08:17:17Z</time>
      </trkpt>
      <trkpt lat="46.51898" lon="0.4015">
        <ele>128.8</ele>
        <time>2024-01-14T08:17:18Z</time>
      </trkpt>
      <trkpt lat="46.51883" lon="0.4016">
        <ele>128.6</ele>
        <time>2024-01-14T08:17:21Z</time>
      </trkpt>
      <trkpt lat="46.51842" lon="0.40186">
        <ele>127.8</ele>
        <time>2024-01-14T08:17:28Z</time>
      </trkpt>
      <trkpt lat="46.51836" lon="0.4019">
        <ele>127.6</ele>
        <time>2024-01-14T08:17:29Z</time>
      </trkpt>
      <trkpt lat="46.51783" lon="0.40224">
        <ele>127.8</ele>
        <time>2024-01-14T08:17:38Z</time>
      </trkpt>
      <trkpt lat="46.5175" lon="0.40242">
        <ele>128.6</ele>
        <time>2024-01-14T08:17:44Z</time>
      </trkpt>
      <trkpt lat="46.5175" lon="0.40242">
        <ele>129.2</ele>
        <time>2024-01-14T08:17:45Z</time>
      </trkpt>
      <trkpt lat="46.51701" lon="0.40259">
        <ele>129.2</ele>
        <time>2024-01-14T08:17:53Z</time>
      </trkpt>
      <trkpt lat="46.51655" lon="0.40268">
        <ele>128.6</ele>
        <time>2024-01-14T08:18:01Z</time>
      </trkpt>
      <trkpt lat="46.51611" lon="0.40267">
        <ele>128</ele>
        <time>2024-01-14T08:18:08Z</time>
      </trkpt>
      <trkpt lat="46.51598" lon="0.40266">
        <ele>127.8</ele>
        <time>2024-01-14T08:18:10Z</time>
      </trkpt>
      <trkpt lat="46.51549" lon="0.40266">
        <ele>127</ele>
        <time>2024-01-14T08:18:18Z</time>
      </trkpt>
      <trkpt lat="46.51501" lon="0.40272">
        <ele>126.4</ele>
        <time>2024-01-14T08:18:26Z</time>
      </trkpt>
      <trkpt lat="46.5149" lon="0.40273">
        <ele>126</ele>
        <time>2024-01-14T08:18:28Z</time>
      </trkpt>
      <trkpt lat="46.51485" lon="0.40276">
        <ele>126</ele>
        <time>2024-01-14T08:18:29Z</time>
      </trkpt>
      <trkpt lat="46.51482" lon="0.4028">
        <ele>125.8</ele>
        <time>2024-01-14T08:18:30Z</time>
      </trkpt>
      <trkpt lat="46.51477" lon="0.40292">
        <ele>125.8</ele>
        <time>2024-01-14T08:18:32Z</time>
      </trkpt>
      <trkpt lat="46.51475" lon="0.40298">
        <ele>126</ele>
        <time>2024-01-14T08:18:33Z</time>
      </trkpt>
      <trkpt lat="46.51469" lon="0.4033">
        <ele>126.2</ele>
        <time>2024-01-14T08:18:37Z</time>
      </trkpt>
      <trkpt lat="46.51468" lon="0.40338">
        <ele>126.2</ele>
        <time>2024-01-14T08:18:38Z</time>
      </trkpt>
      <trkpt lat="46.51467" lon="0.40384">
        <ele>125.8</ele>
        <time>2024-01-14T08:18:43Z</time>
      </trkpt>
      <trkpt lat="46.51467" lon="0.40421">
        <ele>125.2</ele>
        <time>2024-01-14T08:18:47Z</time>
      </trkpt>
      <trkpt lat="46.51465" lon="0.4044">
        <ele>125</ele>
        <time>2024-01-14T08:18:49Z</time>
      </trkpt>
      <trkpt lat="46.51461" lon="0.40487">
        <ele>123.6</ele>
        <time>2024-01-14T08:18:54Z</time>
      </trkpt>
      <trkpt lat="46.51458" lon="0.40514">
        <ele>122.8</ele>
        <time>2024-01-14T08:18:57Z</time>
      </trkpt>
      <trkpt lat="46.51456" lon="0.40524">
        <ele>122.6</ele>
        <time>2024-01-14T08:18:58Z</time>
      </trkpt>
      <trkpt lat="46.51451" lon="0.40561">
        <ele>121.4</ele>
        <time>2024-01-14T08:19:02Z</time>
      </trkpt>
      <trkpt lat="46.5145" lon="0.40566">
        <ele>121</ele>
        <time>2024-01-14T08:19:03Z</time>
      </trkpt>
      <trkpt lat="46.51447" lon="0.40573">
        <ele>120.2</ele>
        <time>2024-01-14T08:19:05Z</time>
      </trkpt>
      <trkpt lat="46.51444" lon="0.40578">
        <ele>119.8</ele>
        <time>2024-01-14T08:19:07Z</time>
      </trkpt>
      <trkpt lat="46.51442" lon="0.40589">
        <ele>119</ele>
        <time>2024-01-14T08:19:10Z</time>
      </trkpt>
      <trkpt lat="46.51441" lon="0.40593">
        <ele>118.8</ele>
        <time>2024-01-14T08:19:11Z</time>
      </trkpt>
      <trkpt lat="46.51438" lon="0.40597">
        <ele>118.4</ele>
        <time>2024-01-14T08:19:12Z</time>
      </trkpt>
      <trkpt lat="46.51431" lon="0.40602">
        <ele>117.8</ele>
        <time>2024-01-14T08:19:14Z</time>
      </trkpt>
      <trkpt lat="46.5142" lon="0.40607">
        <ele>117</ele>
        <time>2024-01-14T08:19:17Z</time>
      </trkpt>
      <trkpt lat="46.51415" lon="0.40608">
        <ele>116.4</ele>
        <time>2024-01-14T08:19:18Z</time>
      </trkpt>
      <trkpt lat="46.51408" lon="0.40612">
        <ele>115.4</ele>
        <time>2024-01-14T08:19:20Z</time>
      </trkpt>
      <trkpt lat="46.514" lon="0.40616">
        <ele>113.6</ele>
        <time>2024-01-14T08:19:22Z</time>
      </trkpt>
      <trkpt lat="46.51397" lon="0.4062">
        <ele>112</ele>
        <time>2024-01-14T08:19:23Z</time>
      </trkpt>
      <trkpt lat="46.51394" lon="0.40626">
        <ele>111</ele>
        <time>2024-01-14T08:19:24Z</time>
      </trkpt>
      <trkpt lat="46.51387" lon="0.40638">
        <ele>110</ele>
        <time>2024-01-14T08:19:26Z</time>
      </trkpt>
      <trkpt lat="46.51371" lon="0.40658">
        <ele>109.4</ele>
        <time>2024-01-14T08:19:30Z</time>
      </trkpt>
      <trkpt lat="46.51368" lon="0.40663">
        <ele>109.6</ele>
        <time>2024-01-14T08:19:31Z</time>
      </trkpt>
      <trkpt lat="46.51356" lon="0.40689">
        <ele>110.8</ele>
        <time>2024-01-14T08:19:38Z</time>
      </trkpt>
      <trkpt lat="46.51355" lon="0.40692">
        <ele>111.2</ele>
        <time>2024-01-14T08:19:39Z</time>
      </trkpt>
      <trkpt lat="46.51351" lon="0.40701">
        <ele>112.2</ele>
        <time>2024-01-14T08:19:42Z</time>
      </trkpt>
      <trkpt lat="46.51348" lon="0.40707">
        <ele>112.8</ele>
        <time>2024-01-14T08:19:44Z</time>
      </trkpt>
      <trkpt lat="46.51345" lon="0.40714">
        <ele>113.2</ele>
        <time>2024-01-14T08:19:46Z</time>
      </trkpt>
      <trkpt lat="46.5134" lon="0.40722">
        <ele>114.6</ele>
        <time>2024-01-14T08:19:49Z</time>
      </trkpt>
      <trkpt lat="46.51339" lon="0.40725">
        <ele>115.2</ele>
        <time>2024-01-14T08:19:50Z</time>
      </trkpt>
      <trkpt lat="46.51334" lon="0.40734">
        <ele>115.8</ele>
        <time>2024-01-14T08:19:53Z</time>
      </trkpt>
      <trkpt lat="46.51332" lon="0.40738">
        <ele>116.4</ele>
        <time>2024-01-14T08:19:55Z</time>
      </trkpt>
      <trkpt lat="46.5133" lon="0.40743">
        <ele>117</ele>
        <time>2024-01-14T08:19:57Z</time>
      </trkpt>
      <trkpt lat="46.51324" lon="0.40755">
        <ele>117.8</ele>
        <time>2024-01-14T08:20:01Z</time>
      </trkpt>
      <trkpt lat="46.51322" lon="0.4076">
        <ele>118.4</ele>
        <time>2024-01-14T08:20:02Z</time>
      </trkpt>
      <trkpt lat="46.51315" lon="0.40774">
        <ele>119.4</ele>
        <time>2024-01-14T08:20:06Z</time>
      </trkpt>
      <trkpt lat="46.51311" lon="0.40786">
        <ele>120.2</ele>
        <time>2024-01-14T08:20:09Z</time>
      </trkpt>
      <trkpt lat="46.5131" lon="0.40789">
        <ele>120.4</ele>
        <time>2024-01-14T08:20:10Z</time>
      </trkpt>
      <trkpt lat="46.51304" lon="0.40806">
        <ele>120.8</ele>
        <time>2024-01-14T08:20:15Z</time>
      </trkpt>
      <trkpt lat="46.51298" lon="0.40824">
        <ele>121.4</ele>
        <time>2024-01-14T08:20:21Z</time>
      </trkpt>
      <trkpt lat="46.51296" lon="0.4083">
        <ele>121.6</ele>
        <time>2024-01-14T08:20:23Z</time>
      </trkpt>
      <trkpt lat="46.51292" lon="0.40842">
        <ele>122.6</ele>
        <time>2024-01-14T08:20:27Z</time>
      </trkpt>
      <trkpt lat="46.51291" lon="0.40846">
        <ele>122.8</ele>
        <time>2024-01-14T08:20:28Z</time>
      </trkpt>
      <trkpt lat="46.51283" lon="0.40866">
        <ele>123.2</ele>
        <time>2024-01-14T08:20:34Z</time>
      </trkpt>
      <trkpt lat="46.51277" lon="0.40876">
        <ele>123.8</ele>
        <time>2024-01-14T08:20:37Z</time>
      </trkpt>
      <trkpt lat="46.51274" lon="0.40878">
        <ele>123.8</ele>
        <time>2024-01-14T08:20:38Z</time>
      </trkpt>
      <trkpt lat="46.51272" lon="0.40879">
        <ele>123.8</ele>
        <time>2024-01-14T08:20:39Z</time>
      </trkpt>
      <trkpt lat="46.51261" lon="0.4088">
        <ele>124</ele>
        <time>2024-01-14T08:20:44Z</time>
      </trkpt>
      <trkpt lat="46.51246" lon="0.40875">
        <ele>124.2</ele>
        <time>2024-01-14T08:20:49Z</time>
      </trkpt>
      <trkpt lat="46.51223" lon="0.40864">
        <ele>124.4</ele>
        <time>2024-01-14T08:20:56Z</time>
      </trkpt>
      <trkpt lat="46.5122" lon="0.40861">
        <ele>124.2</ele>
        <time>2024-01-14T08:20:57Z</time>
      </trkpt>
      <trkpt lat="46.51205" lon="0.40852">
        <ele>124.2</ele>
        <time>2024-01-14T08:21:01Z</time>
      </trkpt>
      <trkpt lat="46.51201" lon="0.4085">
        <ele>124.2</ele>
        <time>2024-01-14T08:21:02Z</time>
      </trkpt>
      <trkpt lat="46.51195" lon="0.40845">
        <ele>124.2</ele>
        <time>2024-01-14T08:21:04Z</time>
      </trkpt>
      <trkpt lat="46.51184" lon="0.40836">
        <ele>124.2</ele>
        <time>2024-01-14T08:21:07Z</time>
      </trkpt>
      <trkpt lat="46.51175" lon="0.40829">
        <ele>124</ele>
        <time>2024-01-14T08:21:09Z</time>
      </trkpt>
      <trkpt lat="46.51163" lon="0.40819">
        <ele>124</ele>
        <time>2024-01-14T08:21:12Z</time>
      </trkpt>
      <trkpt lat="46.5116" lon="0.40813">
        <ele>124</ele>
        <time>2024-01-14T08:21:14Z</time>
      </trkpt>
      <trkpt lat="46.51159" lon="0.40808">
        <ele>124</ele>
        <time>2024-01-14T08:21:16Z</time>
      </trkpt>
      <trkpt lat="46.51159" lon="0.408">
        <ele>124</ele>
        <time>2024-01-14T08:21:18Z</time>
      </trkpt>
      <trkpt lat="46.51164" lon="0.40794">
        <ele>123.6</ele>
        <time>2024-01-14T08:21:21Z</time>
      </trkpt>
      <trkpt lat="46.51171" lon="0.40788">
        <ele>123.6</ele>
        <time>2024-01-14T08:21:24Z</time>
      </trkpt>
      <trkpt lat="46.51176" lon="0.40783">
        <ele>123.6</ele>
        <time>2024-01-14T08:21:26Z</time>
      </trkpt>
      <trkpt lat="46.51177" lon="0.40781">
        <ele>123.6</ele>
        <time>2024-01-14T08:21:27Z</time>
      </trkpt>
      <trkpt lat="46.51184" lon="0.40757">
        <ele>122.8</ele>
        <time>2024-01-14T08:21:34Z</time>
      </trkpt>
      <trkpt lat="46.51186" lon="0.40753">
        <ele>122.8</ele>
        <time>2024-01-14T08:21:35Z</time>
      </trkpt>
      <trkpt lat="46.51187" lon="0.40749">
        <ele>122.6</ele>
        <time>2024-01-14T08:21:36Z</time>
      </trkpt>
      <trkpt lat="46.51196" lon="0.40733">
        <ele>122.2</ele>
        <time>2024-01-14T08:21:40Z</time>
      </trkpt>
      <trkpt lat="46.51197" lon="0.40729">
        <ele>121.4</ele>
        <time>2024-01-14T08:21:41Z</time>
      </trkpt>
      <trkpt lat="46.512" lon="0.40714">
        <ele>120.8</ele>
        <time>2024-01-14T08:21:44Z</time>
      </trkpt>
      <trkpt lat="46.51199" lon="0.40708">
        <ele>120.8</ele>
        <time>2024-01-14T08:21:45Z</time>
      </trkpt>
      <trkpt lat="46.51198" lon="0.40705">
        <ele>120.6</ele>
        <time>2024-01-14T08:21:46Z</time>
      </trkpt>
      <trkpt lat="46.51198" lon="0.40702">
        <ele>120.4</ele>
        <time>2024-01-14T08:21:47Z</time>
      </trkpt>
      <trkpt lat="46.51197" lon="0.40699">
        <ele>120.4</ele>
        <time>2024-01-14T08:21:48Z</time>
      </trkpt>
      <trkpt lat="46.51197" lon="0.40697">
        <ele>120.2</ele>
        <time>2024-01-14T08:21:49Z</time>
      </trkpt>
      <trkpt lat="46.51196" lon="0.40693">
        <ele>119.8</ele>
        <time>2024-01-14T08:21:51Z</time>
      </trkpt>
      <trkpt lat="46.51194" lon="0.40686">
        <ele>119.6</ele>
        <time>2024-01-14T08:21:53Z</time>
      </trkpt>
      <trkpt lat="46.51192" lon="0.40686">
        <ele>119.6</ele>
        <time>2024-01-14T08:21:54Z</time>
      </trkpt>
      <trkpt lat="46.51187" lon="0.40679">
        <ele>119.4</ele>
        <time>2024-01-14T08:21:57Z</time>
      </trkpt>
      <trkpt lat="46.51185" lon="0.40674">
        <ele>119.6</ele>
        <time>2024-01-14T08:21:59Z</time>
      </trkpt>
      <trkpt lat="46.51181" lon="0.40669">
        <ele>119.6</ele>
        <time>2024-01-14T08:22:01Z</time>
      </trkpt>
      <trkpt lat="46.51175" lon="0.40664">
        <ele>119.6</ele>
        <time>2024-01-14T08:22:04Z</time>
      </trkpt>
      <trkpt lat="46.51169" lon="0.40659">
        <ele>119.4</ele>
        <time>2024-01-14T08:22:06Z</time>
      </trkpt>
      <trkpt lat="46.51164" lon="0.40654">
        <ele>119.2</ele>
        <time>2024-01-14T08:22:09Z</time>
      </trkpt>
      <trkpt lat="46.51163" lon="0.40651">
        <ele>119.2</ele>
        <time>2024-01-14T08:22:10Z</time>
      </trkpt>
      <trkpt lat="46.51161" lon="0.40645">
        <ele>119</ele>
        <time>2024-01-14T08:22:12Z</time>
      </trkpt>
      <trkpt lat="46.5116" lon="0.40642">
        <ele>118.8</ele>
        <time>2024-01-14T08:22:13Z</time>
      </trkpt>
      <trkpt lat="46.51159" lon="0.40636">
        <ele>118.2</ele>
        <time>2024-01-14T08:22:15Z</time>
      </trkpt>
      <trkpt lat="46.51159" lon="0.40634">
        <ele>118</ele>
        <time>2024-01-14T08:22:16Z</time>
      </trkpt>
      <trkpt lat="46.51162" lon="0.40624">
        <ele>117.6</ele>
        <time>2024-01-14T08:22:19Z</time>
      </trkpt>
      <trkpt lat="46.51163" lon="0.4062">
        <ele>117</ele>
        <time>2024-01-14T08:22:20Z</time>
      </trkpt>
      <trkpt lat="46.51167" lon="0.40607">
        <ele>116.2</ele>
        <time>2024-01-14T08:22:23Z</time>
      </trkpt>
      <trkpt lat="46.5117" lon="0.40605">
        <ele>115.6</ele>
        <time>2024-01-14T08:22:24Z</time>
      </trkpt>
      <trkpt lat="46.51176" lon="0.40592">
        <ele>114.6</ele>
        <time>2024-01-14T08:22:28Z</time>
      </trkpt>
      <trkpt lat="46.51178" lon="0.4059">
        <ele>114.4</ele>
        <time>2024-01-14T08:22:29Z</time>
      </trkpt>
      <trkpt lat="46.51181" lon="0.40584">
        <ele>114.2</ele>
        <time>2024-01-14T08:22:31Z</time>
      </trkpt>
      <trkpt lat="46.51186" lon="0.40578">
        <ele>114</ele>
        <time>2024-01-14T08:22:33Z</time>
      </trkpt>
      <trkpt lat="46.51188" lon="0.40575">
        <ele>113.8</ele>
        <time>2024-01-14T08:22:34Z</time>
      </trkpt>
      <trkpt lat="46.51194" lon="0.40567">
        <ele>113.4</ele>
        <time>2024-01-14T08:22:37Z</time>
      </trkpt>
      <trkpt lat="46.51196" lon="0.40563">
        <ele>112.6</ele>
        <time>2024-01-14T08:22:38Z</time>
      </trkpt>
      <trkpt lat="46.51199" lon="0.40559">
        <ele>111.8</ele>
        <time>2024-01-14T08:22:39Z</time>
      </trkpt>
      <trkpt lat="46.512" lon="0.40554">
        <ele>111.4</ele>
        <time>2024-01-14T08:22:40Z</time>
      </trkpt>
      <trkpt lat="46.51205" lon="0.40544">
        <ele>110</ele>
        <time>2024-01-14T08:22:42Z</time>
      </trkpt>
      <trkpt lat="46.51207" lon="0.40538">
        <ele>109.4</ele>
        <time>2024-01-14T08:22:43Z</time>
      </trkpt>
      <trkpt lat="46.51209" lon="0.40533">
        <ele>108.4</ele>
        <time>2024-01-14T08:22:44Z</time>
      </trkpt>
      <trkpt lat="46.51212" lon="0.40528">
        <ele>107.6</ele>
        <time>2024-01-14T08:22:45Z</time>
      </trkpt>
      <trkpt lat="46.51213" lon="0.40524">
        <ele>106.8</ele>
        <time>2024-01-14T08:22:46Z</time>
      </trkpt>
      <trkpt lat="46.51214" lon="0.40521">
        <ele>106.2</ele>
        <time>2024-01-14T08:22:47Z</time>
      </trkpt>
      <trkpt lat="46.51212" lon="0.40518">
        <ele>105.6</ele>
        <time>2024-01-14T08:22:48Z</time>
      </trkpt>
      <trkpt lat="46.51211" lon="0.40514">
        <ele>105.4</ele>
        <time>2024-01-14T08:22:49Z</time>
      </trkpt>
      <trkpt lat="46.51208" lon="0.40506">
        <ele>105</ele>
        <time>2024-01-14T08:22:51Z</time>
      </trkpt>
      <trkpt lat="46.51202" lon="0.40498">
        <ele>104.6</ele>
        <time>2024-01-14T08:22:53Z</time>
      </trkpt>
      <trkpt lat="46.51199" lon="0.40496">
        <ele>104.6</ele>
        <time>2024-01-14T08:22:54Z</time>
      </trkpt>
      <trkpt lat="46.51195" lon="0.40492">
        <ele>104.8</ele>
        <time>2024-01-14T08:22:55Z</time>
      </trkpt>
      <trkpt lat="46.51181" lon="0.40483">
        <ele>104.8</ele>
        <time>2024-01-14T08:22:58Z</time>
      </trkpt>
      <trkpt lat="46.51171" lon="0.40482">
        <ele>105</ele>
        <time>2024-01-14T08:23:00Z</time>
      </trkpt>
      <trkpt lat="46.51141" lon="0.40488">
        <ele>104.4</ele>
        <time>2024-01-14T08:23:06Z</time>
      </trkpt>
      <trkpt lat="46.51111" lon="0.40496">
        <ele>103.6</ele>
        <time>2024-01-14T08:23:12Z</time>
      </trkpt>
      <trkpt lat="46.51106" lon="0.40495">
        <ele>103.4</ele>
        <time>2024-01-14T08:23:13Z</time>
      </trkpt>
      <trkpt lat="46.51089" lon="0.40492">
        <ele>102.4</ele>
        <time>2024-01-14T08:23:17Z</time>
      </trkpt>
      <trkpt lat="46.51085" lon="0.4049">
        <ele>102.4</ele>
        <time>2024-01-14T08:23:18Z</time>
      </trkpt>
      <trkpt lat="46.51081" lon="0.40489">
        <ele>102.4</ele>
        <time>2024-01-14T08:23:19Z</time>
      </trkpt>
      <trkpt lat="46.51071" lon="0.4049">
        <ele>102.4</ele>
        <time>2024-01-14T08:23:23Z</time>
      </trkpt>
      <trkpt lat="46.51068" lon="0.40496">
        <ele>103.4</ele>
        <time>2024-01-14T08:23:28Z</time>
      </trkpt>
      <trkpt lat="46.51067" lon="0.40497">
        <ele>104</ele>
        <time>2024-01-14T08:23:29Z</time>
      </trkpt>
      <trkpt lat="46.51066" lon="0.40499">
        <ele>104.4</ele>
        <time>2024-01-14T08:23:30Z</time>
      </trkpt>
      <trkpt lat="46.51065" lon="0.405">
        <ele>105.6</ele>
        <time>2024-01-14T08:23:32Z</time>
      </trkpt>
      <trkpt lat="46.51064" lon="0.40501">
        <ele>106.2</ele>
        <time>2024-01-14T08:23:34Z</time>
      </trkpt>
      <trkpt lat="46.51062" lon="0.40503">
        <ele>106.6</ele>
        <time>2024-01-14T08:23:36Z</time>
      </trkpt>
      <trkpt lat="46.5106" lon="0.40504">
        <ele>107.6</ele>
        <time>2024-01-14T08:23:38Z</time>
      </trkpt>
      <trkpt lat="46.51058" lon="0.40507">
        <ele>107.6</ele>
        <time>2024-01-14T08:23:43Z</time>
      </trkpt>
      <trkpt lat="46.51054" lon="0.40516">
        <ele>107.6</ele>
        <time>2024-01-14T08:23:54Z</time>
      </trkpt>
      <trkpt lat="46.51054" lon="0.40526">
        <ele>108.8</ele>
        <time>2024-01-14T08:24:01Z</time>
      </trkpt>
      <trkpt lat="46.51053" lon="0.40533">
        <ele>109.8</ele>
        <time>2024-01-14T08:24:05Z</time>
      </trkpt>
      <trkpt lat="46.51052" lon="0.40537">
        <ele>110.2</ele>
        <time>2024-01-14T08:24:07Z</time>
      </trkpt>
      <trkpt lat="46.51051" lon="0.40541">
        <ele>111</ele>
        <time>2024-01-14T08:24:09Z</time>
      </trkpt>
      <trkpt lat="46.51049" lon="0.40553">
        <ele>112.2</ele>
        <time>2024-01-14T08:24:14Z</time>
      </trkpt>
      <trkpt lat="46.51047" lon="0.40564">
        <ele>113</ele>
        <time>2024-01-14T08:24:18Z</time>
      </trkpt>
      <trkpt lat="46.51047" lon="0.40566">
        <ele>113.4</ele>
        <time>2024-01-14T08:24:19Z</time>
      </trkpt>
      <trkpt lat="46.51044" lon="0.40572">
        <ele>114</ele>
        <time>2024-01-14T08:24:22Z</time>
      </trkpt>
      <trkpt lat="46.51042" lon="0.40573">
        <ele>114.2</ele>
        <time>2024-01-14T08:24:24Z</time>
      </trkpt>
      <trkpt lat="46.51041" lon="0.40574">
        <ele>114.4</ele>
        <time>2024-01-14T08:24:25Z</time>
      </trkpt>
      <trkpt lat="46.5104" lon="0.40574">
        <ele>114.4</ele>
        <time>2024-01-14T08:24:26Z</time>
      </trkpt>
      <trkpt lat="46.51029" lon="0.40575">
        <ele>114</ele>
        <time>2024-01-14T08:24:31Z</time>
      </trkpt>
      <trkpt lat="46.51016" lon="0.40569">
        <ele>113.8</ele>
        <time>2024-01-14T08:24:36Z</time>
      </trkpt>
      <trkpt lat="46.51007" lon="0.40563">
        <ele>113.2</ele>
        <time>2024-01-14T08:24:39Z</time>
      </trkpt>
      <trkpt lat="46.51001" lon="0.4056">
        <ele>113.2</ele>
        <time>2024-01-14T08:24:41Z</time>
      </trkpt>
      <trkpt lat="46.50994" lon="0.40556">
        <ele>113.2</ele>
        <time>2024-01-14T08:24:43Z</time>
      </trkpt>
      <trkpt lat="46.50985" lon="0.40547">
        <ele>112.8</ele>
        <time>2024-01-14T08:24:46Z</time>
      </trkpt>
      <trkpt lat="46.50977" lon="0.4054">
        <ele>112</ele>
        <time>2024-01-14T08:24:48Z</time>
      </trkpt>
      <trkpt lat="46.50964" lon="0.40525">
        <ele>110.8</ele>
        <time>2024-01-14T08:24:51Z</time>
      </trkpt>
      <trkpt lat="46.50951" lon="0.40508">
        <ele>109.8</ele>
        <time>2024-01-14T08:24:54Z</time>
      </trkpt>
      <trkpt lat="46.50943" lon="0.40501">
        <ele>109.2</ele>
        <time>2024-01-14T08:24:56Z</time>
      </trkpt>
      <trkpt lat="46.50939" lon="0.405">
        <ele>108.8</ele>
        <time>2024-01-14T08:24:58Z</time>
      </trkpt>
      <trkpt lat="46.50938" lon="0.405">
        <ele>108.6</ele>
        <time>2024-01-14T08:24:59Z</time>
      </trkpt>
      <trkpt lat="46.50928" lon="0.40507">
        <ele>110</ele>
        <time>2024-01-14T08:25:05Z</time>
      </trkpt>
      <trkpt lat="46.50926" lon="0.40508">
        <ele>110.2</ele>
        <time>2024-01-14T08:25:06Z</time>
      </trkpt>
      <trkpt lat="46.50918" lon="0.40515">
        <ele>111.2</ele>
        <time>2024-01-14T08:25:10Z</time>
      </trkpt>
      <trkpt lat="46.50916" lon="0.4052">
        <ele>111.6</ele>
        <time>2024-01-14T08:25:12Z</time>
      </trkpt>
      <trkpt lat="46.50913" lon="0.40527">
        <ele>112.2</ele>
        <time>2024-01-14T08:25:15Z</time>
      </trkpt>
      <trkpt lat="46.50912" lon="0.40529">
        <ele>112.4</ele>
        <time>2024-01-14T08:25:16Z</time>
      </trkpt>
      <trkpt lat="46.50908" lon="0.40534">
        <ele>112.6</ele>
        <time>2024-01-14T08:25:18Z</time>
      </trkpt>
      <trkpt lat="46.509" lon="0.40541">
        <ele>113.4</ele>
        <time>2024-01-14T08:25:21Z</time>
      </trkpt>
      <trkpt lat="46.50894" lon="0.40545">
        <ele>113.4</ele>
        <time>2024-01-14T08:25:23Z</time>
      </trkpt>
      <trkpt lat="46.5089" lon="0.4055">
        <ele>113.6</ele>
        <time>2024-01-14T08:25:25Z</time>
      </trkpt>
      <trkpt lat="46.50886" lon="0.40557">
        <ele>113.6</ele>
        <time>2024-01-14T08:25:28Z</time>
      </trkpt>
      <trkpt lat="46.50875" lon="0.40566">
        <ele>113.6</ele>
        <time>2024-01-14T08:25:32Z</time>
      </trkpt>
      <trkpt lat="46.50872" lon="0.4057">
        <ele>113.2</ele>
        <time>2024-01-14T08:25:34Z</time>
      </trkpt>
      <trkpt lat="46.50871" lon="0.40575">
        <ele>112.6</ele>
        <time>2024-01-14T08:25:36Z</time>
      </trkpt>
      <trkpt lat="46.50871" lon="0.40579">
        <ele>112</ele>
        <time>2024-01-14T08:25:37Z</time>
      </trkpt>
      <trkpt lat="46.5087" lon="0.40585">
        <ele>111.2</ele>
        <time>2024-01-14T08:25:40Z</time>
      </trkpt>
      <trkpt lat="46.50869" lon="0.40587">
        <ele>111</ele>
        <time>2024-01-14T08:25:41Z</time>
      </trkpt>
      <trkpt lat="46.50864" lon="0.40597">
        <ele>110.6</ele>
        <time>2024-01-14T08:25:45Z</time>
      </trkpt>
      <trkpt lat="46.50861" lon="0.40602">
        <ele>110.4</ele>
        <time>2024-01-14T08:25:47Z</time>
      </trkpt>
      <trkpt lat="46.50859" lon="0.40605">
        <ele>110.4</ele>
        <time>2024-01-14T08:25:48Z</time>
      </trkpt>
      <trkpt lat="46.50857" lon="0.40611">
        <ele>110.4</ele>
        <time>2024-01-14T08:25:51Z</time>
      </trkpt>
      <trkpt lat="46.50853" lon="0.40618">
        <ele>111</ele>
        <time>2024-01-14T08:25:54Z</time>
      </trkpt>
      <trkpt lat="46.50846" lon="0.40626">
        <ele>110.6</ele>
        <time>2024-01-14T08:25:58Z</time>
      </trkpt>
      <trkpt lat="46.50838" lon="0.40638">
        <ele>109.8</ele>
        <time>2024-01-14T08:26:02Z</time>
      </trkpt>
      <trkpt lat="46.50836" lon="0.40642">
        <ele>109.6</ele>
        <time>2024-01-14T08:26:04Z</time>
      </trkpt>
      <trkpt lat="46.50828" lon="0.40655">
        <ele>109</ele>
        <time>2024-01-14T08:26:10Z</time>
      </trkpt>
      <trkpt lat="46.50827" lon="0.40656">
        <ele>108.2</ele>
        <time>2024-01-14T08:26:11Z</time>
      </trkpt>
      <trkpt lat="46.50826" lon="0.40657">
        <ele>107.4</ele>
        <time>2024-01-14T08:26:12Z</time>
      </trkpt>
      <trkpt lat="46.50824" lon="0.40657">
        <ele>106.8</ele>
        <time>2024-01-14T08:26:13Z</time>
      </trkpt>
      <trkpt lat="46.50822" lon="0.40658">
        <ele>106.2</ele>
        <time>2024-01-14T08:26:14Z</time>
      </trkpt>
      <trkpt lat="46.50821" lon="0.40658">
        <ele>105.8</ele>
        <time>2024-01-14T08:26:15Z</time>
      </trkpt>
      <trkpt lat="46.5082" lon="0.40658">
        <ele>105.2</ele>
        <time>2024-01-14T08:26:16Z</time>
      </trkpt>
      <trkpt lat="46.50817" lon="0.40659">
        <ele>104.4</ele>
        <time>2024-01-14T08:26:17Z</time>
      </trkpt>
      <trkpt lat="46.50817" lon="0.40659">
        <ele>103.4</ele>
        <time>2024-01-14T08:26:18Z</time>
      </trkpt>
      <trkpt lat="46.50813" lon="0.40661">
        <ele>103.4</ele>
        <time>2024-01-14T08:26:19Z</time>
      </trkpt>
      <trkpt lat="46.50809" lon="0.4066">
        <ele>102.2</ele>
        <time>2024-01-14T08:26:21Z</time>
      </trkpt>
      <trkpt lat="46.50806" lon="0.40658">
        <ele>101.8</ele>
        <time>2024-01-14T08:26:22Z</time>
      </trkpt>
      <trkpt lat="46.50806" lon="0.40654">
        <ele>101</ele>
        <time>2024-01-14T08:26:23Z</time>
      </trkpt>
      <trkpt lat="46.50806" lon="0.4065">
        <ele>100</ele>
        <time>2024-01-14T08:26:24Z</time>
      </trkpt>
      <trkpt lat="46.50808" lon="0.40647">
        <ele>98.6</ele>
        <time>2024-01-14T08:26:25Z</time>
      </trkpt>
      <trkpt lat="46.50812" lon="0.40642">
        <ele>97.6</ele>
        <time>2024-01-14T08:26:27Z</time>
      </trkpt>
      <trkpt lat="46.50821" lon="0.40628">
        <ele>97.2</ele>
        <time>2024-01-14T08:26:31Z</time>
      </trkpt>
      <trkpt lat="46.50831" lon="0.40602">
        <ele>97</ele>
        <time>2024-01-14T08:26:37Z</time>
      </trkpt>
      <trkpt lat="46.50843" lon="0.4057">
        <ele>96.8</ele>
        <time>2024-01-14T08:26:44Z</time>
      </trkpt>
      <trkpt lat="46.50852" lon="0.40545">
        <ele>97</ele>
        <time>2024-01-14T08:26:49Z</time>
      </trkpt>
      <trkpt lat="46.50856" lon="0.40528">
        <ele>96.8</ele>
        <time>2024-01-14T08:26:52Z</time>
      </trkpt>
      <trkpt lat="46.5086" lon="0.40509">
        <ele>97</ele>
        <time>2024-01-14T08:26:55Z</time>
      </trkpt>
      <trkpt lat="46.50861" lon="0.40491">
        <ele>97.2</ele>
        <time>2024-01-14T08:26:58Z</time>
      </trkpt>
      <trkpt lat="46.50863" lon="0.4048">
        <ele>97.2</ele>
        <time>2024-01-14T08:27:00Z</time>
      </trkpt>
      <trkpt lat="46.50864" lon="0.40474">
        <ele>97.2</ele>
        <time>2024-01-14T08:27:01Z</time>
      </trkpt>
      <trkpt lat="46.50868" lon="0.40447">
        <ele>97</ele>
        <time>2024-01-14T08:27:07Z</time>
      </trkpt>
      <trkpt lat="46.50868" lon="0.40428">
        <ele>96.4</ele>
        <time>2024-01-14T08:27:11Z</time>
      </trkpt>
      <trkpt lat="46.50866" lon="0.40413">
        <ele>96.2</ele>
        <time>2024-01-14T08:27:14Z</time>
      </trkpt>
      <trkpt lat="46.50861" lon="0.40388">
        <ele>96</ele>
        <time>2024-01-14T08:27:20Z</time>
      </trkpt>
      <trkpt lat="46.5086" lon="0.40385">
        <ele>96.2</ele>
        <time>2024-01-14T08:27:21Z</time>
      </trkpt>
      <trkpt lat="46.50855" lon="0.40383">
        <ele>96.4</ele>
        <time>2024-01-14T08:27:24Z</time>
      </trkpt>
      <trkpt lat="46.50842" lon="0.40379">
        <ele>96.4</ele>
        <time>2024-01-14T08:27:30Z</time>
      </trkpt>
      <trkpt lat="46.50835" lon="0.40368">
        <ele>97.4</ele>
        <time>2024-01-14T08:27:35Z</time>
      </trkpt>
      <trkpt lat="46.50834" lon="0.40365">
        <ele>97.6</ele>
        <time>2024-01-14T08:27:36Z</time>
      </trkpt>
      <trkpt lat="46.50828" lon="0.40355">
        <ele>98</ele>
        <time>2024-01-14T08:27:41Z</time>
      </trkpt>
      <trkpt lat="46.50821" lon="0.40337">
        <ele>98</ele>
        <time>2024-01-14T08:27:46Z</time>
      </trkpt>
      <trkpt lat="46.50805" lon="0.40321">
        <ele>98.4</ele>
        <time>2024-01-14T08:27:51Z</time>
      </trkpt>
      <trkpt lat="46.50801" lon="0.40318">
        <ele>98.6</ele>
        <time>2024-01-14T08:27:52Z</time>
      </trkpt>
      <trkpt lat="46.50784" lon="0.40306">
        <ele>99.2</ele>
        <time>2024-01-14T08:27:57Z</time>
      </trkpt>
      <trkpt lat="46.50775" lon="0.40305">
        <ele>99.8</ele>
        <time>2024-01-14T08:28:00Z</time>
      </trkpt>
      <trkpt lat="46.50769" lon="0.40305">
        <ele>100</ele>
        <time>2024-01-14T08:28:02Z</time>
      </trkpt>
      <trkpt lat="46.50756" lon="0.40308">
        <ele>101</ele>
        <time>2024-01-14T08:28:07Z</time>
      </trkpt>
      <trkpt lat="46.50752" lon="0.40309">
        <ele>101.4</ele>
        <time>2024-01-14T08:28:09Z</time>
      </trkpt>
      <trkpt lat="46.50749" lon="0.40309">
        <ele>102</ele>
        <time>2024-01-14T08:28:11Z</time>
      </trkpt>
      <trkpt lat="46.50745" lon="0.40308">
        <ele>103.4</ele>
        <time>2024-01-14T08:28:14Z</time>
      </trkpt>
      <trkpt lat="46.50744" lon="0.40308">
        <ele>104</ele>
        <time>2024-01-14T08:28:15Z</time>
      </trkpt>
      <trkpt lat="46.50743" lon="0.40309">
        <ele>104.6</ele>
        <time>2024-01-14T08:28:16Z</time>
      </trkpt>
      <trkpt lat="46.50738" lon="0.40308">
        <ele>105.6</ele>
        <time>2024-01-14T08:28:19Z</time>
      </trkpt>
      <trkpt lat="46.50734" lon="0.40308">
        <ele>106.8</ele>
        <time>2024-01-14T08:28:22Z</time>
      </trkpt>
      <trkpt lat="46.50732" lon="0.40308">
        <ele>107</ele>
        <time>2024-01-14T08:28:23Z</time>
      </trkpt>
      <trkpt lat="46.50729" lon="0.40309">
        <ele>107.8</ele>
        <time>2024-01-14T08:28:26Z</time>
      </trkpt>
      <trkpt lat="46.50728" lon="0.40308">
        <ele>108.2</ele>
        <time>2024-01-14T08:28:27Z</time>
      </trkpt>
      <trkpt lat="46.50726" lon="0.40307">
        <ele>109</ele>
        <time>2024-01-14T08:28:29Z</time>
      </trkpt>
      <trkpt lat="46.50725" lon="0.40307">
        <ele>109.4</ele>
        <time>2024-01-14T08:28:30Z</time>
      </trkpt>
      <trkpt lat="46.50723" lon="0.40307">
        <ele>110</ele>
        <time>2024-01-14T08:28:32Z</time>
      </trkpt>
      <trkpt lat="46.50723" lon="0.40307">
        <ele>110.2</ele>
        <time>2024-01-14T08:28:33Z</time>
      </trkpt>
      <trkpt lat="46.5072" lon="0.40307">
        <ele>111.2</ele>
        <time>2024-01-14T08:28:36Z</time>
      </trkpt>
      <trkpt lat="46.50719" lon="0.40307">
        <ele>111.2</ele>
        <time>2024-01-14T08:28:37Z</time>
      </trkpt>
      <trkpt lat="46.50714" lon="0.40304">
        <ele>112.2</ele>
        <time>2024-01-14T08:28:41Z</time>
      </trkpt>
      <trkpt lat="46.50709" lon="0.403">
        <ele>113.2</ele>
        <time>2024-01-14T08:28:46Z</time>
      </trkpt>
      <trkpt lat="46.50704" lon="0.40294">
        <ele>114.2</ele>
        <time>2024-01-14T08:28:51Z</time>
      </trkpt>
      <trkpt lat="46.50703" lon="0.40292">
        <ele>114.4</ele>
        <time>2024-01-14T08:28:52Z</time>
      </trkpt>
      <trkpt lat="46.507" lon="0.40283">
        <ele>114.8</ele>
        <time>2024-01-14T08:28:57Z</time>
      </trkpt>
      <trkpt lat="46.507" lon="0.40267">
        <ele>115.4</ele>
        <time>2024-01-14T08:29:04Z</time>
      </trkpt>
      <trkpt lat="46.507" lon="0.40264">
        <ele>115.4</ele>
        <time>2024-01-14T08:29:05Z</time>
      </trkpt>
      <trkpt lat="46.50698" lon="0.40246">
        <ele>115.6</ele>
        <time>2024-01-14T08:29:11Z</time>
      </trkpt>
      <trkpt lat="46.50698" lon="0.40229">
        <ele>115.6</ele>
        <time>2024-01-14T08:29:16Z</time>
      </trkpt>
      <trkpt lat="46.50697" lon="0.40206">
        <ele>116</ele>
        <time>2024-01-14T08:29:22Z</time>
      </trkpt>
      <trkpt lat="46.50701" lon="0.40176">
        <ele>116</ele>
        <time>2024-01-14T08:29:28Z</time>
      </trkpt>
      <trkpt lat="46.50707" lon="0.40125">
        <ele>115.2</ele>
        <time>2024-01-14T08:29:36Z</time>
      </trkpt>
      <trkpt lat="46.50717" lon="0.4008">
        <ele>114.4</ele>
        <time>2024-01-14T08:29:42Z</time>
      </trkpt>
      <trkpt lat="46.50719" lon="0.40072">
        <ele>114.4</ele>
        <time>2024-01-14T08:29:43Z</time>
      </trkpt>
      <trkpt lat="46.50727" lon="0.4004">
        <ele>113.2</ele>
        <time>2024-01-14T08:29:47Z</time>
      </trkpt>
      <trkpt lat="46.50728" lon="0.40032">
        <ele>112.8</ele>
        <time>2024-01-14T08:29:48Z</time>
      </trkpt>
      <trkpt lat="46.50734" lon="0.40008">
        <ele>112</ele>
        <time>2024-01-14T08:29:51Z</time>
      </trkpt>
      <trkpt lat="46.50738" lon="0.39991">
        <ele>110.8</ele>
        <time>2024-01-14T08:29:53Z</time>
      </trkpt>
      <trkpt lat="46.50742" lon="0.39975">
        <ele>110.2</ele>
        <time>2024-01-14T08:29:55Z</time>
      </trkpt>
      <trkpt lat="46.50748" lon="0.39959">
        <ele>109.8</ele>
        <time>2024-01-14T08:29:57Z</time>
      </trkpt>
      <trkpt lat="46.50758" lon="0.39921">
        <ele>108.8</ele>
        <time>2024-01-14T08:30:02Z</time>
      </trkpt>
      <trkpt lat="46.50772" lon="0.39878">
        <ele>107.6</ele>
        <time>2024-01-14T08:30:08Z</time>
      </trkpt>
      <trkpt lat="46.50773" lon="0.39871">
        <ele>107.4</ele>
        <time>2024-01-14T08:30:09Z</time>
      </trkpt>
      <trkpt lat="46.50781" lon="0.39831">
        <ele>106.6</ele>
        <time>2024-01-14T08:30:14Z</time>
      </trkpt>
      <trkpt lat="46.50786" lon="0.39815">
        <ele>106</ele>
        <time>2024-01-14T08:30:16Z</time>
      </trkpt>
      <trkpt lat="46.50792" lon="0.39799">
        <ele>105.4</ele>
        <time>2024-01-14T08:30:18Z</time>
      </trkpt>
      <trkpt lat="46.50801" lon="0.39784">
        <ele>105</ele>
        <time>2024-01-14T08:30:20Z</time>
      </trkpt>
      <trkpt lat="46.50805" lon="0.39778">
        <ele>104</ele>
        <time>2024-01-14T08:30:21Z</time>
      </trkpt>
      <trkpt lat="46.5081" lon="0.39773">
        <ele>103.4</ele>
        <time>2024-01-14T08:30:22Z</time>
      </trkpt>
      <trkpt lat="46.50819" lon="0.39764">
        <ele>101.8</ele>
        <time>2024-01-14T08:30:24Z</time>
      </trkpt>
      <trkpt lat="46.5083" lon="0.39758">
        <ele>100.2</ele>
        <time>2024-01-14T08:30:26Z</time>
      </trkpt>
      <trkpt lat="46.50842" lon="0.39756">
        <ele>98.8</ele>
        <time>2024-01-14T08:30:28Z</time>
      </trkpt>
      <trkpt lat="46.50866" lon="0.39756">
        <ele>97.6</ele>
        <time>2024-01-14T08:30:32Z</time>
      </trkpt>
      <trkpt lat="46.50877" lon="0.39758">
        <ele>97</ele>
        <time>2024-01-14T08:30:34Z</time>
      </trkpt>
      <trkpt lat="46.50881" lon="0.39759">
        <ele>96.8</ele>
        <time>2024-01-14T08:30:35Z</time>
      </trkpt>
      <trkpt lat="46.50891" lon="0.39757">
        <ele>96.6</ele>
        <time>2024-01-14T08:30:37Z</time>
      </trkpt>
      <trkpt lat="46.50898" lon="0.39755">
        <ele>96.6</ele>
        <time>2024-01-14T08:30:38Z</time>
      </trkpt>
      <trkpt lat="46.50906" lon="0.39752">
        <ele>96.6</ele>
        <time>2024-01-14T08:30:39Z</time>
      </trkpt>
      <trkpt lat="46.50926" lon="0.39741">
        <ele>96.2</ele>
        <time>2024-01-14T08:30:42Z</time>
      </trkpt>
      <trkpt lat="46.50946" lon="0.39723">
        <ele>95.6</ele>
        <time>2024-01-14T08:30:46Z</time>
      </trkpt>
      <trkpt lat="46.50951" lon="0.39719">
        <ele>95.6</ele>
        <time>2024-01-14T08:30:47Z</time>
      </trkpt>
      <trkpt lat="46.50985" lon="0.39694">
        <ele>96</ele>
        <time>2024-01-14T08:30:54Z</time>
      </trkpt>
      <trkpt lat="46.5099" lon="0.39692">
        <ele>96.6</ele>
        <time>2024-01-14T08:30:55Z</time>
      </trkpt>
      <trkpt lat="46.50994" lon="0.39691">
        <ele>97</ele>
        <time>2024-01-14T08:30:56Z</time>
      </trkpt>
      <trkpt lat="46.51002" lon="0.39688">
        <ele>97.6</ele>
        <time>2024-01-14T08:30:58Z</time>
      </trkpt>
      <trkpt lat="46.51008" lon="0.39687">
        <ele>97.8</ele>
        <time>2024-01-14T08:31:00Z</time>
      </trkpt>
      <trkpt lat="46.51012" lon="0.39686">
        <ele>98.2</ele>
        <time>2024-01-14T08:31:01Z</time>
      </trkpt>
      <trkpt lat="46.51028" lon="0.39689">
        <ele>99.2</ele>
        <time>2024-01-14T08:31:06Z</time>
      </trkpt>
      <trkpt lat="46.51031" lon="0.3969">
        <ele>99.4</ele>
        <time>2024-01-14T08:31:07Z</time>
      </trkpt>
      <trkpt lat="46.51046" lon="0.39691">
        <ele>100.6</ele>
        <time>2024-01-14T08:31:11Z</time>
      </trkpt>
      <trkpt lat="46.51049" lon="0.39692">
        <ele>101</ele>
        <time>2024-01-14T08:31:12Z</time>
      </trkpt>
      <trkpt lat="46.51051" lon="0.39691">
        <ele>101.6</ele>
        <time>2024-01-14T08:31:13Z</time>
      </trkpt>
      <trkpt lat="46.5106" lon="0.39691">
        <ele>103</ele>
        <time>2024-01-14T08:31:16Z</time>
      </trkpt>
      <trkpt lat="46.51067" lon="0.3969">
        <ele>103.8</ele>
        <time>2024-01-14T08:31:19Z</time>
      </trkpt>
      <trkpt lat="46.51069" lon="0.3969">
        <ele>104</ele>
        <time>2024-01-14T08:31:20Z</time>
      </trkpt>
      <trkpt lat="46.51081" lon="0.39692">
        <ele>105</ele>
        <time>2024-01-14T08:31:26Z</time>
      </trkpt>
      <trkpt lat="46.51084" lon="0.39693">
        <ele>105</ele>
        <time>2024-01-14T08:31:27Z</time>
      </trkpt>
      <trkpt lat="46.51099" lon="0.39693">
        <ele>105.4</ele>
        <time>2024-01-14T08:31:32Z</time>
      </trkpt>
      <trkpt lat="46.51121" lon="0.39693">
        <ele>106</ele>
        <time>2024-01-14T08:31:39Z</time>
      </trkpt>
      <trkpt lat="46.51125" lon="0.39694">
        <ele>106.2</ele>
        <time>2024-01-14T08:31:40Z</time>
      </trkpt>
      <trkpt lat="46.5114" lon="0.39694">
        <ele>106.8</ele>
        <time>2024-01-14T08:31:46Z</time>
      </trkpt>
      <trkpt lat="46.51145" lon="0.39695">
        <ele>107</ele>
        <time>2024-01-14T08:31:48Z</time>
      </trkpt>
      <trkpt lat="46.51157" lon="0.39698">
        <ele>107.4</ele>
        <time>2024-01-14T08:31:52Z</time>
      </trkpt>
      <trkpt lat="46.51163" lon="0.397">
        <ele>108.4</ele>
        <time>2024-01-14T08:31:54Z</time>
      </trkpt>
      <trkpt lat="46.51178" lon="0.39705">
        <ele>108.8</ele>
        <time>2024-01-14T08:31:58Z</time>
      </trkpt>
      <trkpt lat="46.51192" lon="0.39711">
        <ele>109.6</ele>
        <time>2024-01-14T08:32:03Z</time>
      </trkpt>
      <trkpt lat="46.512" lon="0.39714">
        <ele>110</ele>
        <time>2024-01-14T08:32:06Z</time>
      </trkpt>
      <trkpt lat="46.51206" lon="0.39716">
        <ele>110.6</ele>
        <time>2024-01-14T08:32:08Z</time>
      </trkpt>
      <trkpt lat="46.51219" lon="0.39719">
        <ele>111.2</ele>
        <time>2024-01-14T08:32:13Z</time>
      </trkpt>
      <trkpt lat="46.51232" lon="0.39722">
        <ele>111.6</ele>
        <time>2024-01-14T08:32:18Z</time>
      </trkpt>
      <trkpt lat="46.51237" lon="0.39724">
        <ele>112</ele>
        <time>2024-01-14T08:32:20Z</time>
      </trkpt>
      <trkpt lat="46.51251" lon="0.39723">
        <ele>112.6</ele>
        <time>2024-01-14T08:32:26Z</time>
      </trkpt>
      <trkpt lat="46.51252" lon="0.39722">
        <ele>113</ele>
        <time>2024-01-14T08:32:27Z</time>
      </trkpt>
      <trkpt lat="46.51258" lon="0.39707">
        <ele>114</ele>
        <time>2024-01-14T08:32:32Z</time>
      </trkpt>
      <trkpt lat="46.51264" lon="0.39681">
        <ele>114.8</ele>
        <time>2024-01-14T08:32:40Z</time>
      </trkpt>
      <trkpt lat="46.51265" lon="0.39672">
        <ele>115</ele>
        <time>2024-01-14T08:32:42Z</time>
      </trkpt>
      <trkpt lat="46.51267" lon="0.39647">
        <ele>115.6</ele>
        <time>2024-01-14T08:32:48Z</time>
      </trkpt>
      <trkpt lat="46.5127" lon="0.39633">
        <ele>116.2</ele>
        <time>2024-01-14T08:32:52Z</time>
      </trkpt>
      <trkpt lat="46.51273" lon="0.39628">
        <ele>116.2</ele>
        <time>2024-01-14T08:32:54Z</time>
      </trkpt>
      <trkpt lat="46.51285" lon="0.39624">
        <ele>117</ele>
        <time>2024-01-14T08:32:59Z</time>
      </trkpt>
      <trkpt lat="46.51302" lon="0.39619">
        <ele>117.2</ele>
        <time>2024-01-14T08:33:04Z</time>
      </trkpt>
      <trkpt lat="46.51307" lon="0.39617">
        <ele>117.4</ele>
        <time>2024-01-14T08:33:06Z</time>
      </trkpt>
      <trkpt lat="46.51321" lon="0.39612">
        <ele>117.6</ele>
        <time>2024-01-14T08:33:11Z</time>
      </trkpt>
      <trkpt lat="46.51346" lon="0.39603">
        <ele>118</ele>
        <time>2024-01-14T08:33:17Z</time>
      </trkpt>
      <trkpt lat="46.51381" lon="0.39594">
        <ele>117.6</ele>
        <time>2024-01-14T08:33:25Z</time>
      </trkpt>
      <trkpt lat="46.51405" lon="0.39595">
        <ele>117.2</ele>
        <time>2024-01-14T08:33:31Z</time>
      </trkpt>
      <trkpt lat="46.51425" lon="0.396">
        <ele>116.6</ele>
        <time>2024-01-14T08:33:37Z</time>
      </trkpt>
      <trkpt lat="46.51427" lon="0.39601">
        <ele>116.2</ele>
        <time>2024-01-14T08:33:40Z</time>
      </trkpt>
      <trkpt lat="46.51427" lon="0.39601">
        <ele>116</ele>
        <time>2024-01-14T08:33:43Z</time>
      </trkpt>
      <trkpt lat="46.51427" lon="0.39601">
        <ele>116</ele>
        <time>2024-01-14T08:33:58Z</time>
      </trkpt>
      <trkpt lat="46.51428" lon="0.39601">
        <ele>115.8</ele>
        <time>2024-01-14T08:34:16Z</time>
      </trkpt>
      <trkpt lat="46.51428" lon="0.39601">
        <ele>115.8</ele>
        <time>2024-01-14T08:34:31Z</time>
      </trkpt>
      <trkpt lat="46.51429" lon="0.39605">
        <ele>115.8</ele>
        <time>2024-01-14T08:34:52Z</time>
      </trkpt>
      <trkpt lat="46.51429" lon="0.39605">
        <ele>115.8</ele>
        <time>2024-01-14T08:35:11Z</time>
      </trkpt>
      <trkpt lat="46.51429" lon="0.39605">
        <ele>115.8</ele>
        <time>2024-01-14T08:35:33Z</time>
      </trkpt>
      <trkpt lat="46.51429" lon="0.39605">
        <ele>115.4</ele>
        <time>2024-01-14T08:35:50Z</time>
      </trkpt>
      <trkpt lat="46.51429" lon="0.39605">
        <ele>115.4</ele>
        <time>2024-01-14T08:36:21Z</time>
      </trkpt>
      <trkpt lat="46.5143" lon="0.39604">
        <ele>115.4</ele>
        <time>2024-01-14T08:36:57Z</time>
      </trkpt>
      <trkpt lat="46.51431" lon="0.39604">
        <ele>115.4</ele>
        <time>2024-01-14T08:37:14Z</time>
      </trkpt>
      <trkpt lat="46.51431" lon="0.39604">
        <ele>115.4</ele>
        <time>2024-01-14T08:37:48Z</time>
      </trkpt>
      <trkpt lat="46.51431" lon="0.39604">
        <ele>115.4</ele>
        <time>2024-01-14T08:38:33Z</time>
      </trkpt>
      <trkpt lat="46.51431" lon="0.39604">
        <ele>115.4</ele>
        <time>2024-01-14T08:39:10Z</time>
      </trkpt>
      <trkpt lat="46.51437" lon="0.39607">
        <ele>115.4</ele>
        <time>2024-01-14T08:39:43Z</time>
      </trkpt>
      <trkpt lat="46.51447" lon="0.39619">
        <ele>114.8</ele>
        <time>2024-01-14T08:39:47Z</time>
      </trkpt>
      <trkpt lat="46.51469" lon="0.39637">
        <ele>113.8</ele>
        <time>2024-01-14T08:39:52Z</time>
      </trkpt>
      <trkpt lat="46.51474" lon="0.39639">
        <ele>113.6</ele>
        <time>2024-01-14T08:39:53Z</time>
      </trkpt>
      <trkpt lat="46.51479" lon="0.3964">
        <ele>113.4</ele>
        <time>2024-01-14T08:39:54Z</time>
      </trkpt>
      <trkpt lat="46.51496" lon="0.39641">
        <ele>112.6</ele>
        <time>2024-01-14T08:39:57Z</time>
      </trkpt>
      <trkpt lat="46.51523" lon="0.3964">
        <ele>111.4</ele>
        <time>2024-01-14T08:40:01Z</time>
      </trkpt>
      <trkpt lat="46.51535" lon="0.3964">
        <ele>110.8</ele>
        <time>2024-01-14T08:40:03Z</time>
      </trkpt>
      <trkpt lat="46.51539" lon="0.39638">
        <ele>110.2</ele>
        <time>2024-01-14T08:40:04Z</time>
      </trkpt>
      <trkpt lat="46.51543" lon="0.39636">
        <ele>109.6</ele>
        <time>2024-01-14T08:40:05Z</time>
      </trkpt>
      <trkpt lat="46.51548" lon="0.39632">
        <ele>109.2</ele>
        <time>2024-01-14T08:40:06Z</time>
      </trkpt>
      <trkpt lat="46.5155" lon="0.39629">
        <ele>109</ele>
        <time>2024-01-14T08:40:07Z</time>
      </trkpt>
      <trkpt lat="46.51554" lon="0.39618">
        <ele>108.8</ele>
        <time>2024-01-14T08:40:10Z</time>
      </trkpt>
      <trkpt lat="46.51559" lon="0.39597">
        <ele>109.6</ele>
        <time>2024-01-14T08:40:14Z</time>
      </trkpt>
      <trkpt lat="46.51563" lon="0.3958">
        <ele>110.2</ele>
        <time>2024-01-14T08:40:18Z</time>
      </trkpt>
      <trkpt lat="46.51566" lon="0.39566">
        <ele>109.6</ele>
        <time>2024-01-14T08:40:21Z</time>
      </trkpt>
      <trkpt lat="46.51566" lon="0.39559">
        <ele>109.6</ele>
        <time>2024-01-14T08:40:22Z</time>
      </trkpt>
      <trkpt lat="46.51567" lon="0.39543">
        <ele>109.6</ele>
        <time>2024-01-14T08:40:24Z</time>
      </trkpt>
      <trkpt lat="46.5157" lon="0.39505">
        <ele>110</ele>
        <time>2024-01-14T08:40:29Z</time>
      </trkpt>
      <trkpt lat="46.51572" lon="0.39477">
        <ele>108.4</ele>
        <time>2024-01-14T08:40:32Z</time>
      </trkpt>
      <trkpt lat="46.51574" lon="0.39467">
        <ele>108</ele>
        <time>2024-01-14T08:40:33Z</time>
      </trkpt>
      <trkpt lat="46.51576" lon="0.39458">
        <ele>107.8</ele>
        <time>2024-01-14T08:40:34Z</time>
      </trkpt>
      <trkpt lat="46.51581" lon="0.39438">
        <ele>107</ele>
        <time>2024-01-14T08:40:36Z</time>
      </trkpt>
      <trkpt lat="46.51584" lon="0.39407">
        <ele>105</ele>
        <time>2024-01-14T08:40:39Z</time>
      </trkpt>
      <trkpt lat="46.51585" lon="0.39389">
        <ele>103.2</ele>
        <time>2024-01-14T08:40:41Z</time>
      </trkpt>
      <trkpt lat="46.51582" lon="0.3937">
        <ele>102.6</ele>
        <time>2024-01-14T08:40:43Z</time>
      </trkpt>
      <trkpt lat="46.51582" lon="0.39361">
        <ele>102</ele>
        <time>2024-01-14T08:40:44Z</time>
      </trkpt>
      <trkpt lat="46.51583" lon="0.39346">
        <ele>100.4</ele>
        <time>2024-01-14T08:40:46Z</time>
      </trkpt>
      <trkpt lat="46.51585" lon="0.39337">
        <ele>99.2</ele>
        <time>2024-01-14T08:40:47Z</time>
      </trkpt>
      <trkpt lat="46.51588" lon="0.39331">
        <ele>98.6</ele>
        <time>2024-01-14T08:40:48Z</time>
      </trkpt>
      <trkpt lat="46.51591" lon="0.39322">
        <ele>97.6</ele>
        <time>2024-01-14T08:40:49Z</time>
      </trkpt>
      <trkpt lat="46.51596" lon="0.39313">
        <ele>97</ele>
        <time>2024-01-14T08:40:50Z</time>
      </trkpt>
      <trkpt lat="46.516" lon="0.39308">
        <ele>96.6</ele>
        <time>2024-01-14T08:40:51Z</time>
      </trkpt>
      <trkpt lat="46.51603" lon="0.39303">
        <ele>96.4</ele>
        <time>2024-01-14T08:40:52Z</time>
      </trkpt>
      <trkpt lat="46.51607" lon="0.393">
        <ele>96.2</ele>
        <time>2024-01-14T08:40:53Z</time>
      </trkpt>
      <trkpt lat="46.51613" lon="0.39299">
        <ele>96</ele>
        <time>2024-01-14T08:40:55Z</time>
      </trkpt>
      <trkpt lat="46.51623" lon="0.39301">
        <ele>96.2</ele>
        <time>2024-01-14T08:40:58Z</time>
      </trkpt>
      <trkpt lat="46.51626" lon="0.39299">
        <ele>96.4</ele>
        <time>2024-01-14T08:40:59Z</time>
      </trkpt>
      <trkpt lat="46.51629" lon="0.39297">
        <ele>96.6</ele>
        <time>2024-01-14T08:41:00Z</time>
      </trkpt>
      <trkpt lat="46.51638" lon="0.39286">
        <ele>97.6</ele>
        <time>2024-01-14T08:41:03Z</time>
      </trkpt>
      <trkpt lat="46.51646" lon="0.3927">
        <ele>98.8</ele>
        <time>2024-01-14T08:41:07Z</time>
      </trkpt>
      <trkpt lat="46.5165" lon="0.39262">
        <ele>99.4</ele>
        <time>2024-01-14T08:41:09Z</time>
      </trkpt>
      <trkpt lat="46.51652" lon="0.39256">
        <ele>100</ele>
        <time>2024-01-14T08:41:11Z</time>
      </trkpt>
      <trkpt lat="46.51656" lon="0.3925">
        <ele>101</ele>
        <time>2024-01-14T08:41:14Z</time>
      </trkpt>
      <trkpt lat="46.51656" lon="0.39247">
        <ele>101.2</ele>
        <time>2024-01-14T08:41:15Z</time>
      </trkpt>
      <trkpt lat="46.51663" lon="0.39235">
        <ele>102.4</ele>
        <time>2024-01-14T08:41:20Z</time>
      </trkpt>
      <trkpt lat="46.51665" lon="0.39233">
        <ele>102.8</ele>
        <time>2024-01-14T08:41:21Z</time>
      </trkpt>
      <trkpt lat="46.51671" lon="0.39221">
        <ele>103.6</ele>
        <time>2024-01-14T08:41:25Z</time>
      </trkpt>
      <trkpt lat="46.51677" lon="0.39209">
        <ele>104.6</ele>
        <time>2024-01-14T08:41:29Z</time>
      </trkpt>
      <trkpt lat="46.51682" lon="0.39198">
        <ele>105.6</ele>
        <time>2024-01-14T08:41:33Z</time>
      </trkpt>
      <trkpt lat="46.51687" lon="0.39188">
        <ele>106.8</ele>
        <time>2024-01-14T08:41:37Z</time>
      </trkpt>
      <trkpt lat="46.51694" lon="0.39176">
        <ele>107.8</ele>
        <time>2024-01-14T08:41:41Z</time>
      </trkpt>
      <trkpt lat="46.51698" lon="0.39166">
        <ele>108.4</ele>
        <time>2024-01-14T08:41:44Z</time>
      </trkpt>
      <trkpt lat="46.51702" lon="0.39157">
        <ele>109.2</ele>
        <time>2024-01-14T08:41:47Z</time>
      </trkpt>
      <trkpt lat="46.5171" lon="0.39135">
        <ele>110</ele>
        <time>2024-01-14T08:41:53Z</time>
      </trkpt>
      <trkpt lat="46.51713" lon="0.39129">
        <ele>110.4</ele>
        <time>2024-01-14T08:41:55Z</time>
      </trkpt>
      <trkpt lat="46.51716" lon="0.39122">
        <ele>110.8</ele>
        <time>2024-01-14T08:41:58Z</time>
      </trkpt>
      <trkpt lat="46.51724" lon="0.39109">
        <ele>111.6</ele>
        <time>2024-01-14T08:42:02Z</time>
      </trkpt>
      <trkpt lat="46.51726" lon="0.39106">
        <ele>111.8</ele>
        <time>2024-01-14T08:42:03Z</time>
      </trkpt>
      <trkpt lat="46.51744" lon="0.39077">
        <ele>112.4</ele>
        <time>2024-01-14T08:42:10Z</time>
      </trkpt>
      <trkpt lat="46.51753" lon="0.39062">
        <ele>112.6</ele>
        <time>2024-01-14T08:42:13Z</time>
      </trkpt>
      <trkpt lat="46.51765" lon="0.39041">
        <ele>112.8</ele>
        <time>2024-01-14T08:42:17Z</time>
      </trkpt>
      <trkpt lat="46.51783" lon="0.39007">
        <ele>113</ele>
        <time>2024-01-14T08:42:23Z</time>
      </trkpt>
      <trkpt lat="46.51796" lon="0.38983">
        <ele>113.8</ele>
        <time>2024-01-14T08:42:28Z</time>
      </trkpt>
      <trkpt lat="46.51799" lon="0.38975">
        <ele>114</ele>
        <time>2024-01-14T08:42:30Z</time>
      </trkpt>
      <trkpt lat="46.51807" lon="0.38955">
        <ele>114.8</ele>
        <time>2024-01-14T08:42:35Z</time>
      </trkpt>
      <trkpt lat="46.51813" lon="0.38938">
        <ele>115.8</ele>
        <time>2024-01-14T08:42:39Z</time>
      </trkpt>
      <trkpt lat="46.51814" lon="0.38934">
        <ele>115.8</ele>
        <time>2024-01-14T08:42:40Z</time>
      </trkpt>
      <trkpt lat="46.51821" lon="0.38913">
        <ele>117</ele>
        <time>2024-01-14T08:42:45Z</time>
      </trkpt>
      <trkpt lat="46.51823" lon="0.38908">
        <ele>117</ele>
        <time>2024-01-14T08:42:46Z</time>
      </trkpt>
      <trkpt lat="46.5183" lon="0.38881">
        <ele>117.2</ele>
        <time>2024-01-14T08:42:52Z</time>
      </trkpt>
      <trkpt lat="46.51836" lon="0.38857">
        <ele>118</ele>
        <time>2024-01-14T08:42:57Z</time>
      </trkpt>
      <trkpt lat="46.51841" lon="0.38834">
        <ele>118.8</ele>
        <time>2024-01-14T08:43:02Z</time>
      </trkpt>
      <trkpt lat="46.51845" lon="0.38821">
        <ele>119.2</ele>
        <time>2024-01-14T08:43:05Z</time>
      </trkpt>
      <trkpt lat="46.51848" lon="0.38811">
        <ele>119.6</ele>
        <time>2024-01-14T08:43:07Z</time>
      </trkpt>
      <trkpt lat="46.51853" lon="0.38796">
        <ele>120.2</ele>
        <time>2024-01-14T08:43:10Z</time>
      </trkpt>
      <trkpt lat="46.51863" lon="0.38766">
        <ele>121.2</ele>
        <time>2024-01-14T08:43:16Z</time>
      </trkpt>
      <trkpt lat="46.51876" lon="0.38739">
        <ele>121.6</ele>
        <time>2024-01-14T08:43:22Z</time>
      </trkpt>
      <trkpt lat="46.51878" lon="0.38734">
        <ele>121.4</ele>
        <time>2024-01-14T08:43:23Z</time>
      </trkpt>
      <trkpt lat="46.51891" lon="0.38709">
        <ele>120.4</ele>
        <time>2024-01-14T08:43:29Z</time>
      </trkpt>
      <trkpt lat="46.51903" lon="0.38694">
        <ele>120</ele>
        <time>2024-01-14T08:43:33Z</time>
      </trkpt>
      <trkpt lat="46.51907" lon="0.3869">
        <ele>120</ele>
        <time>2024-01-14T08:43:34Z</time>
      </trkpt>
      <trkpt lat="46.51911" lon="0.38685">
        <ele>120</ele>
        <time>2024-01-14T08:43:35Z</time>
      </trkpt>
      <trkpt lat="46.51917" lon="0.38676">
        <ele>119.8</ele>
        <time>2024-01-14T08:43:37Z</time>
      </trkpt>
      <trkpt lat="46.51923" lon="0.38666">
        <ele>119.4</ele>
        <time>2024-01-14T08:43:39Z</time>
      </trkpt>
      <trkpt lat="46.51926" lon="0.38661">
        <ele>119.4</ele>
        <time>2024-01-14T08:43:40Z</time>
      </trkpt>
      <trkpt lat="46.51929" lon="0.38656">
        <ele>119.4</ele>
        <time>2024-01-14T08:43:41Z</time>
      </trkpt>
      <trkpt lat="46.51929" lon="0.38647">
        <ele>119.4</ele>
        <time>2024-01-14T08:43:43Z</time>
      </trkpt>
      <trkpt lat="46.51918" lon="0.38622">
        <ele>119.2</ele>
        <time>2024-01-14T08:43:48Z</time>
      </trkpt>
      <trkpt lat="46.51915" lon="0.38615">
        <ele>118.8</ele>
        <time>2024-01-14T08:43:49Z</time>
      </trkpt>
      <trkpt lat="46.51905" lon="0.38588">
        <ele>117.2</ele>
        <time>2024-01-14T08:43:52Z</time>
      </trkpt>
      <trkpt lat="46.51899" lon="0.38566">
        <ele>116</ele>
        <time>2024-01-14T08:43:54Z</time>
      </trkpt>
      <trkpt lat="46.51886" lon="0.38532">
        <ele>114</ele>
        <time>2024-01-14T08:43:57Z</time>
      </trkpt>
      <trkpt lat="46.51876" lon="0.38496">
        <ele>113</ele>
        <time>2024-01-14T08:44:00Z</time>
      </trkpt>
      <trkpt lat="46.51872" lon="0.38471">
        <ele>111.2</ele>
        <time>2024-01-14T08:44:02Z</time>
      </trkpt>
      <trkpt lat="46.51869" lon="0.3846">
        <ele>110.8</ele>
        <time>2024-01-14T08:44:03Z</time>
      </trkpt>
      <trkpt lat="46.51865" lon="0.38448">
        <ele>110</ele>
        <time>2024-01-14T08:44:04Z</time>
      </trkpt>
      <trkpt lat="46.51858" lon="0.38426">
        <ele>109</ele>
        <time>2024-01-14T08:44:06Z</time>
      </trkpt>
      <trkpt lat="46.51854" lon="0.38415">
        <ele>108.4</ele>
        <time>2024-01-14T08:44:07Z</time>
      </trkpt>
      <trkpt lat="46.51847" lon="0.38397">
        <ele>106.6</ele>
        <time>2024-01-14T08:44:09Z</time>
      </trkpt>
      <trkpt lat="46.51844" lon="0.3839">
        <ele>102.8</ele>
        <time>2024-01-14T08:44:10Z</time>
      </trkpt>
      <trkpt lat="46.51842" lon="0.38382">
        <ele>102.8</ele>
        <time>2024-01-14T08:44:11Z</time>
      </trkpt>
      <trkpt lat="46.51842" lon="0.38375">
        <ele>100.8</ele>
        <time>2024-01-14T08:44:12Z</time>
      </trkpt>
      <trkpt lat="46.51843" lon="0.38369">
        <ele>99.6</ele>
        <time>2024-01-14T08:44:13Z</time>
      </trkpt>
      <trkpt lat="46.51847" lon="0.38355">
        <ele>98</ele>
        <time>2024-01-14T08:44:15Z</time>
      </trkpt>
      <trkpt lat="46.5185" lon="0.38347">
        <ele>97.2</ele>
        <time>2024-01-14T08:44:16Z</time>
      </trkpt>
      <trkpt lat="46.51853" lon="0.38341">
        <ele>96.2</ele>
        <time>2024-01-14T08:44:17Z</time>
      </trkpt>
      <trkpt lat="46.51858" lon="0.38335">
        <ele>95</ele>
        <time>2024-01-14T08:44:18Z</time>
      </trkpt>
      <trkpt lat="46.51861" lon="0.3833">
        <ele>94</ele>
        <time>2024-01-14T08:44:19Z</time>
      </trkpt>
      <trkpt lat="46.51866" lon="0.38326">
        <ele>92.8</ele>
        <time>2024-01-14T08:44:20Z</time>
      </trkpt>
      <trkpt lat="46.5187" lon="0.38321">
        <ele>91.8</ele>
        <time>2024-01-14T08:44:21Z</time>
      </trkpt>
      <trkpt lat="46.51874" lon="0.38317">
        <ele>91.4</ele>
        <time>2024-01-14T08:44:22Z</time>
      </trkpt>
      <trkpt lat="46.5188" lon="0.38308">
        <ele>90.8</ele>
        <time>2024-01-14T08:44:24Z</time>
      </trkpt>
      <trkpt lat="46.51887" lon="0.38298">
        <ele>90.4</ele>
        <time>2024-01-14T08:44:26Z</time>
      </trkpt>
      <trkpt lat="46.51893" lon="0.38286">
        <ele>89.8</ele>
        <time>2024-01-14T08:44:28Z</time>
      </trkpt>
      <trkpt lat="46.51902" lon="0.38254">
        <ele>90.2</ele>
        <time>2024-01-14T08:44:32Z</time>
      </trkpt>
      <trkpt lat="46.51903" lon="0.38246">
        <ele>90.6</ele>
        <time>2024-01-14T08:44:33Z</time>
      </trkpt>
      <trkpt lat="46.51908" lon="0.38235">
        <ele>90.6</ele>
        <time>2024-01-14T08:44:35Z</time>
      </trkpt>
      <trkpt lat="46.51913" lon="0.38226">
        <ele>90.2</ele>
        <time>2024-01-14T08:44:37Z</time>
      </trkpt>
      <trkpt lat="46.51922" lon="0.38208">
        <ele>90.4</ele>
        <time>2024-01-14T08:44:41Z</time>
      </trkpt>
      <trkpt lat="46.51925" lon="0.38198">
        <ele>90.8</ele>
        <time>2024-01-14T08:44:43Z</time>
      </trkpt>
      <trkpt lat="46.51941" lon="0.38163">
        <ele>90.8</ele>
        <time>2024-01-14T08:44:50Z</time>
      </trkpt>
      <trkpt lat="46.51944" lon="0.38158">
        <ele>90.8</ele>
        <time>2024-01-14T08:44:51Z</time>
      </trkpt>
      <trkpt lat="46.51954" lon="0.38132">
        <ele>90.4</ele>
        <time>2024-01-14T08:44:56Z</time>
      </trkpt>
      <trkpt lat="46.51967" lon="0.38099">
        <ele>89.8</ele>
        <time>2024-01-14T08:45:03Z</time>
      </trkpt>
      <trkpt lat="46.51969" lon="0.38095">
        <ele>90</ele>
        <time>2024-01-14T08:45:04Z</time>
      </trkpt>
      <trkpt lat="46.51975" lon="0.38076">
        <ele>90.2</ele>
        <time>2024-01-14T08:45:08Z</time>
      </trkpt>
      <trkpt lat="46.51975" lon="0.3806">
        <ele>90.6</ele>
        <time>2024-01-14T08:45:10Z</time>
      </trkpt>
      <trkpt lat="46.51981" lon="0.38027">
        <ele>90.8</ele>
        <time>2024-01-14T08:45:16Z</time>
      </trkpt>
      <trkpt lat="46.51989" lon="0.38002">
        <ele>90.6</ele>
        <time>2024-01-14T08:45:21Z</time>
      </trkpt>
      <trkpt lat="46.51999" lon="0.37999">
        <ele>90</ele>
        <time>2024-01-14T08:45:25Z</time>
      </trkpt>
      <trkpt lat="46.52004" lon="0.37997">
        <ele>91</ele>
        <time>2024-01-14T08:45:28Z</time>
      </trkpt>
      <trkpt lat="46.52007" lon="0.37995">
        <ele>91.8</ele>
        <time>2024-01-14T08:45:30Z</time>
      </trkpt>
      <trkpt lat="46.52009" lon="0.37995">
        <ele>92</ele>
        <time>2024-01-14T08:45:31Z</time>
      </trkpt>
      <trkpt lat="46.52017" lon="0.37998">
        <ele>92.8</ele>
        <time>2024-01-14T08:45:36Z</time>
      </trkpt>
      <trkpt lat="46.52018" lon="0.37999">
        <ele>93.2</ele>
        <time>2024-01-14T08:45:37Z</time>
      </trkpt>
      <trkpt lat="46.52025" lon="0.38001">
        <ele>94</ele>
        <time>2024-01-14T08:45:42Z</time>
      </trkpt>
      <trkpt lat="46.52028" lon="0.38002">
        <ele>94.2</ele>
        <time>2024-01-14T08:45:44Z</time>
      </trkpt>
      <trkpt lat="46.52034" lon="0.38008">
        <ele>95.2</ele>
        <time>2024-01-14T08:45:51Z</time>
      </trkpt>
      <trkpt lat="46.52035" lon="0.38009">
        <ele>95.4</ele>
        <time>2024-01-14T08:45:52Z</time>
      </trkpt>
      <trkpt lat="46.52038" lon="0.38011">
        <ele>96.4</ele>
        <time>2024-01-14T08:45:55Z</time>
      </trkpt>
      <trkpt lat="46.52045" lon="0.38015">
        <ele>97.4</ele>
        <time>2024-01-14T08:46:02Z</time>
      </trkpt>
      <trkpt lat="46.52048" lon="0.38015">
        <ele>97.8</ele>
        <time>2024-01-14T08:46:05Z</time>
      </trkpt>
      <trkpt lat="46.52051" lon="0.38015">
        <ele>98.6</ele>
        <time>2024-01-14T08:46:08Z</time>
      </trkpt>
      <trkpt lat="46.52057" lon="0.38017">
        <ele>99.8</ele>
        <time>2024-01-14T08:46:14Z</time>
      </trkpt>
      <trkpt lat="46.52061" lon="0.38018">
        <ele>100.8</ele>
        <time>2024-01-14T08:46:18Z</time>
      </trkpt>
      <trkpt lat="46.52062" lon="0.38018">
        <ele>101</ele>
        <time>2024-01-14T08:46:19Z</time>
      </trkpt>
      <trkpt lat="46.52067" lon="0.38018">
        <ele>102.2</ele>
        <time>2024-01-14T08:46:26Z</time>
      </trkpt>
      <trkpt lat="46.52068" lon="0.38017">
        <ele>102.8</ele>
        <time>2024-01-14T08:46:30Z</time>
      </trkpt>
      <trkpt lat="46.52069" lon="0.38019">
        <ele>102.8</ele>
        <time>2024-01-14T08:46:47Z</time>
      </trkpt>
      <trkpt lat="46.52069" lon="0.38021">
        <ele>102.4</ele>
        <time>2024-01-14T08:47:00Z</time>
      </trkpt>
      <trkpt lat="46.52069" lon="0.38021">
        <ele>102.4</ele>
        <time>2024-01-14T08:47:14Z</time>
      </trkpt>
      <trkpt lat="46.52069" lon="0.3802">
        <ele>102.8</ele>
        <time>2024-01-14T08:47:32Z</time>
      </trkpt>
      <trkpt lat="46.52071" lon="0.38022">
        <ele>102.8</ele>
        <time>2024-01-14T08:47:46Z</time>
      </trkpt>
      <trkpt lat="46.52072" lon="0.38024">
        <ele>102.8</ele>
        <time>2024-01-14T08:48:01Z</time>
      </trkpt>
      <trkpt lat="46.52073" lon="0.38023">
        <ele>102.8</ele>
        <time>2024-01-14T08:48:17Z</time>
      </trkpt>
      <trkpt lat="46.52077" lon="0.38023">
        <ele>102.8</ele>
        <time>2024-01-14T08:48:27Z</time>
      </trkpt>
      <trkpt lat="46.52079" lon="0.38024">
        <ele>102.8</ele>
        <time>2024-01-14T08:48:29Z</time>
      </trkpt>
      <trkpt lat="46.52081" lon="0.38023">
        <ele>102.8</ele>
        <time>2024-01-14T08:48:32Z</time>
      </trkpt>
      <trkpt lat="46.52082" lon="0.38023">
        <ele>103.4</ele>
        <time>2024-01-14T08:48:33Z</time>
      </trkpt>
      <trkpt lat="46.52083" lon="0.38023">
        <ele>103.4</ele>
        <time>2024-01-14T08:48:34Z</time>
      </trkpt>
      <trkpt lat="46.52085" lon="0.38023">
        <ele>105</ele>
        <time>2024-01-14T08:48:37Z</time>
      </trkpt>
      <trkpt lat="46.52088" lon="0.38023">
        <ele>106</ele>
        <time>2024-01-14T08:48:40Z</time>
      </trkpt>
      <trkpt lat="46.5209" lon="0.38023">
        <ele>106.6</ele>
        <time>2024-01-14T08:48:41Z</time>
      </trkpt>
      <trkpt lat="46.52092" lon="0.38023">
        <ele>107</ele>
        <time>2024-01-14T08:48:42Z</time>
      </trkpt>
      <trkpt lat="46.52093" lon="0.38022">
        <ele>107.2</ele>
        <time>2024-01-14T08:48:43Z</time>
      </trkpt>
      <trkpt lat="46.52101" lon="0.38021">
        <ele>108.2</ele>
        <time>2024-01-14T08:48:47Z</time>
      </trkpt>
      <trkpt lat="46.52108" lon="0.38018">
        <ele>109.4</ele>
        <time>2024-01-14T08:48:51Z</time>
      </trkpt>
      <trkpt lat="46.5211" lon="0.38018">
        <ele>109.6</ele>
        <time>2024-01-14T08:48:52Z</time>
      </trkpt>
      <trkpt lat="46.52122" lon="0.38016">
        <ele>110.4</ele>
        <time>2024-01-14T08:48:58Z</time>
      </trkpt>
      <trkpt lat="46.52124" lon="0.38015">
        <ele>110.6</ele>
        <time>2024-01-14T08:48:59Z</time>
      </trkpt>
      <trkpt lat="46.52133" lon="0.38011">
        <ele>111.6</ele>
        <time>2024-01-14T08:49:04Z</time>
      </trkpt>
      <trkpt lat="46.52135" lon="0.3801">
        <ele>111.8</ele>
        <time>2024-01-14T08:49:05Z</time>
      </trkpt>
      <trkpt lat="46.52144" lon="0.38004">
        <ele>112.6</ele>
        <time>2024-01-14T08:49:10Z</time>
      </trkpt>
      <trkpt lat="46.52146" lon="0.38002">
        <ele>112.8</ele>
        <time>2024-01-14T08:49:11Z</time>
      </trkpt>
      <trkpt lat="46.52152" lon="0.37995">
        <ele>113.4</ele>
        <time>2024-01-14T08:49:15Z</time>
      </trkpt>
      <trkpt lat="46.52155" lon="0.37994">
        <ele>113.6</ele>
        <time>2024-01-14T08:49:17Z</time>
      </trkpt>
      <trkpt lat="46.52158" lon="0.37993">
        <ele>113.8</ele>
        <time>2024-01-14T08:49:19Z</time>
      </trkpt>
      <trkpt lat="46.52164" lon="0.37988">
        <ele>114</ele>
        <time>2024-01-14T08:49:23Z</time>
      </trkpt>
      <trkpt lat="46.52167" lon="0.37985">
        <ele>114.2</ele>
        <time>2024-01-14T08:49:25Z</time>
      </trkpt>
      <trkpt lat="46.52172" lon="0.37981">
        <ele>114.2</ele>
        <time>2024-01-14T08:49:28Z</time>
      </trkpt>
      <trkpt lat="46.52185" lon="0.37966">
        <ele>114.6</ele>
        <time>2024-01-14T08:49:35Z</time>
      </trkpt>
      <trkpt lat="46.52191" lon="0.37962">
        <ele>114.8</ele>
        <time>2024-01-14T08:49:37Z</time>
      </trkpt>
      <trkpt lat="46.52199" lon="0.37953">
        <ele>115</ele>
        <time>2024-01-14T08:49:41Z</time>
      </trkpt>
      <trkpt lat="46.5221" lon="0.37933">
        <ele>115</ele>
        <time>2024-01-14T08:49:47Z</time>
      </trkpt>
      <trkpt lat="46.52229" lon="0.37917">
        <ele>114.6</ele>
        <time>2024-01-14T08:49:53Z</time>
      </trkpt>
      <trkpt lat="46.52248" lon="0.37903">
        <ele>114.8</ele>
        <time>2024-01-14T08:49:58Z</time>
      </trkpt>
      <trkpt lat="46.52251" lon="0.37901">
        <ele>114.8</ele>
        <time>2024-01-14T08:49:59Z</time>
      </trkpt>
      <trkpt lat="46.52256" lon="0.37899">
        <ele>114.8</ele>
        <time>2024-01-14T08:50:00Z</time>
      </trkpt>
      <trkpt lat="46.52264" lon="0.379">
        <ele>114.8</ele>
        <time>2024-01-14T08:50:02Z</time>
      </trkpt>
      <trkpt lat="46.52266" lon="0.37901">
        <ele>114.6</ele>
        <time>2024-01-14T08:50:03Z</time>
      </trkpt>
      <trkpt lat="46.5228" lon="0.37915">
        <ele>114.8</ele>
        <time>2024-01-14T08:50:08Z</time>
      </trkpt>
      <trkpt lat="46.52296" lon="0.37931">
        <ele>115.8</ele>
        <time>2024-01-14T08:50:14Z</time>
      </trkpt>
      <trkpt lat="46.52307" lon="0.37942">
        <ele>116.6</ele>
        <time>2024-01-14T08:50:19Z</time>
      </trkpt>
      <trkpt lat="46.52308" lon="0.37942">
        <ele>116.8</ele>
        <time>2024-01-14T08:50:20Z</time>
      </trkpt>
      <trkpt lat="46.5231" lon="0.3793">
        <ele>116.6</ele>
        <time>2024-01-14T08:50:24Z</time>
      </trkpt>
      <trkpt lat="46.52311" lon="0.37904">
        <ele>114.8</ele>
        <time>2024-01-14T08:50:28Z</time>
      </trkpt>
      <trkpt lat="46.52314" lon="0.37886">
        <ele>113.4</ele>
        <time>2024-01-14T08:50:31Z</time>
      </trkpt>
      <trkpt lat="46.52316" lon="0.37885">
        <ele>112.4</ele>
        <time>2024-01-14T08:50:32Z</time>
      </trkpt>
      <trkpt lat="46.52318" lon="0.37883">
        <ele>112</ele>
        <time>2024-01-14T08:50:33Z</time>
      </trkpt>
      <trkpt lat="46.52326" lon="0.37882">
        <ele>111.4</ele>
        <time>2024-01-14T08:50:36Z</time>
      </trkpt>
      <trkpt lat="46.52348" lon="0.37877">
        <ele>110.6</ele>
        <time>2024-01-14T08:50:41Z</time>
      </trkpt>
      <trkpt lat="46.52363" lon="0.37878">
        <ele>109.4</ele>
        <time>2024-01-14T08:50:44Z</time>
      </trkpt>
      <trkpt lat="46.52376" lon="0.37879">
        <ele>109</ele>
        <time>2024-01-14T08:50:46Z</time>
      </trkpt>
      <trkpt lat="46.52402" lon="0.37875">
        <ele>108.4</ele>
        <time>2024-01-14T08:50:50Z</time>
      </trkpt>
      <trkpt lat="46.52406" lon="0.37875">
        <ele>108</ele>
        <time>2024-01-14T08:50:51Z</time>
      </trkpt>
      <trkpt lat="46.52409" lon="0.37875">
        <ele>107.6</ele>
        <time>2024-01-14T08:50:52Z</time>
      </trkpt>
      <trkpt lat="46.52413" lon="0.37876">
        <ele>107.4</ele>
        <time>2024-01-14T08:50:53Z</time>
      </trkpt>
      <trkpt lat="46.52422" lon="0.37883">
        <ele>107.4</ele>
        <time>2024-01-14T08:50:57Z</time>
      </trkpt>
      <trkpt lat="46.52436" lon="0.37893">
        <ele>109.2</ele>
        <time>2024-01-14T08:51:03Z</time>
      </trkpt>
      <trkpt lat="46.52442" lon="0.37896">
        <ele>109.6</ele>
        <time>2024-01-14T08:51:05Z</time>
      </trkpt>
      <trkpt lat="46.52443" lon="0.37897">
        <ele>109.8</ele>
        <time>2024-01-14T08:51:06Z</time>
      </trkpt>
      <trkpt lat="46.52448" lon="0.37903">
        <ele>110.4</ele>
        <time>2024-01-14T08:51:09Z</time>
      </trkpt>
      <trkpt lat="46.5245" lon="0.37905">
        <ele>110.6</ele>
        <time>2024-01-14T08:51:10Z</time>
      </trkpt>
      <trkpt lat="46.52455" lon="0.37909">
        <ele>112</ele>
        <time>2024-01-14T08:51:14Z</time>
      </trkpt>
      <trkpt lat="46.52457" lon="0.3791">
        <ele>112.2</ele>
        <time>2024-01-14T08:51:15Z</time>
      </trkpt>
      <trkpt lat="46.5247" lon="0.37914">
        <ele>113</ele>
        <time>2024-01-14T08:51:19Z</time>
      </trkpt>
      <trkpt lat="46.52475" lon="0.37913">
        <ele>113.4</ele>
        <time>2024-01-14T08:51:22Z</time>
      </trkpt>
      <trkpt lat="46.52482" lon="0.37915">
        <ele>114.6</ele>
        <time>2024-01-14T08:51:26Z</time>
      </trkpt>
      <trkpt lat="46.52489" lon="0.37913">
        <ele>115.4</ele>
        <time>2024-01-14T08:51:30Z</time>
      </trkpt>
      <trkpt lat="46.52491" lon="0.37912">
        <ele>115.6</ele>
        <time>2024-01-14T08:51:31Z</time>
      </trkpt>
      <trkpt lat="46.52502" lon="0.37906">
        <ele>116.8</ele>
        <time>2024-01-14T08:51:36Z</time>
      </trkpt>
      <trkpt lat="46.52516" lon="0.37901">
        <ele>118</ele>
        <time>2024-01-14T08:51:42Z</time>
      </trkpt>
      <trkpt lat="46.5252" lon="0.37899">
        <ele>118.2</ele>
        <time>2024-01-14T08:51:44Z</time>
      </trkpt>
      <trkpt lat="46.5253" lon="0.37895">
        <ele>118.8</ele>
        <time>2024-01-14T08:51:49Z</time>
      </trkpt>
      <trkpt lat="46.52531" lon="0.37893">
        <ele>119</ele>
        <time>2024-01-14T08:51:50Z</time>
      </trkpt>
      <trkpt lat="46.52539" lon="0.37881">
        <ele>120.2</ele>
        <time>2024-01-14T08:51:55Z</time>
      </trkpt>
      <trkpt lat="46.52548" lon="0.37866">
        <ele>121</ele>
        <time>2024-01-14T08:52:01Z</time>
      </trkpt>
      <trkpt lat="46.52549" lon="0.37864">
        <ele>121.2</ele>
        <time>2024-01-14T08:52:02Z</time>
      </trkpt>
      <trkpt lat="46.52561" lon="0.37853">
        <ele>121.6</ele>
        <time>2024-01-14T08:52:07Z</time>
      </trkpt>
      <trkpt lat="46.52578" lon="0.37837">
        <ele>122</ele>
        <time>2024-01-14T08:52:13Z</time>
      </trkpt>
      <trkpt lat="46.52596" lon="0.37817">
        <ele>122.2</ele>
        <time>2024-01-14T08:52:20Z</time>
      </trkpt>
      <trkpt lat="46.52598" lon="0.37814">
        <ele>122.2</ele>
        <time>2024-01-14T08:52:21Z</time>
      </trkpt>
      <trkpt lat="46.52613" lon="0.378">
        <ele>122.2</ele>
        <time>2024-01-14T08:52:26Z</time>
      </trkpt>
      <trkpt lat="46.52624" lon="0.37789">
        <ele>121.6</ele>
        <time>2024-01-14T08:52:32Z</time>
      </trkpt>
      <trkpt lat="46.52634" lon="0.37782">
        <ele>121.6</ele>
        <time>2024-01-14T08:52:36Z</time>
      </trkpt>
      <trkpt lat="46.52645" lon="0.37773">
        <ele>121</ele>
        <time>2024-01-14T08:52:40Z</time>
      </trkpt>
      <trkpt lat="46.52653" lon="0.37765">
        <ele>120.4</ele>
        <time>2024-01-14T08:52:43Z</time>
      </trkpt>
      <trkpt lat="46.5266" lon="0.37763">
        <ele>119.8</ele>
        <time>2024-01-14T08:52:45Z</time>
      </trkpt>
      <trkpt lat="46.52675" lon="0.37753">
        <ele>119.8</ele>
        <time>2024-01-14T08:52:50Z</time>
      </trkpt>
      <trkpt lat="46.52682" lon="0.37751">
        <ele>119</ele>
        <time>2024-01-14T08:52:52Z</time>
      </trkpt>
      <trkpt lat="46.52686" lon="0.3775">
        <ele>118.8</ele>
        <time>2024-01-14T08:52:53Z</time>
      </trkpt>
      <trkpt lat="46.52699" lon="0.37747">
        <ele>118.2</ele>
        <time>2024-01-14T08:52:56Z</time>
      </trkpt>
      <trkpt lat="46.52709" lon="0.37744">
        <ele>117.8</ele>
        <time>2024-01-14T08:52:58Z</time>
      </trkpt>
      <trkpt lat="46.52718" lon="0.37741">
        <ele>117.2</ele>
        <time>2024-01-14T08:53:00Z</time>
      </trkpt>
      <trkpt lat="46.52722" lon="0.3774">
        <ele>117</ele>
        <time>2024-01-14T08:53:01Z</time>
      </trkpt>
      <trkpt lat="46.52728" lon="0.37739">
        <ele>116.8</ele>
        <time>2024-01-14T08:53:02Z</time>
      </trkpt>
      <trkpt lat="46.52733" lon="0.37738">
        <ele>116</ele>
        <time>2024-01-14T08:53:03Z</time>
      </trkpt>
      <trkpt lat="46.5274" lon="0.37735">
        <ele>115.4</ele>
        <time>2024-01-14T08:53:04Z</time>
      </trkpt>
      <trkpt lat="46.52746" lon="0.37733">
        <ele>114.6</ele>
        <time>2024-01-14T08:53:05Z</time>
      </trkpt>
      <trkpt lat="46.52752" lon="0.37731">
        <ele>113.8</ele>
        <time>2024-01-14T08:53:06Z</time>
      </trkpt>
      <trkpt lat="46.52758" lon="0.3773">
        <ele>113.4</ele>
        <time>2024-01-14T08:53:07Z</time>
      </trkpt>
      <trkpt lat="46.52768" lon="0.37724">
        <ele>112.6</ele>
        <time>2024-01-14T08:53:09Z</time>
      </trkpt>
      <trkpt lat="46.52773" lon="0.37721">
        <ele>112</ele>
        <time>2024-01-14T08:53:10Z</time>
      </trkpt>
      <trkpt lat="46.52777" lon="0.37717">
        <ele>111.6</ele>
        <time>2024-01-14T08:53:11Z</time>
      </trkpt>
      <trkpt lat="46.52779" lon="0.37708">
        <ele>110.8</ele>
        <time>2024-01-14T08:53:13Z</time>
      </trkpt>
      <trkpt lat="46.52779" lon="0.37704">
        <ele>110.6</ele>
        <time>2024-01-14T08:53:14Z</time>
      </trkpt>
      <trkpt lat="46.52776" lon="0.37694">
        <ele>109.8</ele>
        <time>2024-01-14T08:53:16Z</time>
      </trkpt>
      <trkpt lat="46.52773" lon="0.37683">
        <ele>109</ele>
        <time>2024-01-14T08:53:18Z</time>
      </trkpt>
      <trkpt lat="46.52772" lon="0.37677">
        <ele>108.4</ele>
        <time>2024-01-14T08:53:19Z</time>
      </trkpt>
      <trkpt lat="46.52766" lon="0.37657">
        <ele>106.8</ele>
        <time>2024-01-14T08:53:22Z</time>
      </trkpt>
      <trkpt lat="46.52764" lon="0.3765">
        <ele>104.8</ele>
        <time>2024-01-14T08:53:23Z</time>
      </trkpt>
      <trkpt lat="46.52759" lon="0.37633">
        <ele>102.2</ele>
        <time>2024-01-14T08:53:25Z</time>
      </trkpt>
      <trkpt lat="46.52755" lon="0.37627">
        <ele>101.2</ele>
        <time>2024-01-14T08:53:26Z</time>
      </trkpt>
      <trkpt lat="46.52749" lon="0.37612">
        <ele>99.6</ele>
        <time>2024-01-14T08:53:28Z</time>
      </trkpt>
      <trkpt lat="46.52743" lon="0.37601">
        <ele>97.2</ele>
        <time>2024-01-14T08:53:30Z</time>
      </trkpt>
      <trkpt lat="46.5274" lon="0.37595">
        <ele>95.8</ele>
        <time>2024-01-14T08:53:31Z</time>
      </trkpt>
      <trkpt lat="46.52736" lon="0.37588">
        <ele>94.6</ele>
        <time>2024-01-14T08:53:32Z</time>
      </trkpt>
      <trkpt lat="46.5273" lon="0.37572">
        <ele>93.4</ele>
        <time>2024-01-14T08:53:34Z</time>
      </trkpt>
      <trkpt lat="46.52727" lon="0.37564">
        <ele>92.2</ele>
        <time>2024-01-14T08:53:35Z</time>
      </trkpt>
      <trkpt lat="46.52726" lon="0.37555">
        <ele>91.6</ele>
        <time>2024-01-14T08:53:36Z</time>
      </trkpt>
      <trkpt lat="46.52725" lon="0.37548">
        <ele>91.2</ele>
        <time>2024-01-14T08:53:37Z</time>
      </trkpt>
      <trkpt lat="46.52725" lon="0.37532">
        <ele>89.6</ele>
        <time>2024-01-14T08:53:39Z</time>
      </trkpt>
      <trkpt lat="46.52725" lon="0.37525">
        <ele>89</ele>
        <time>2024-01-14T08:53:40Z</time>
      </trkpt>
      <trkpt lat="46.52726" lon="0.37512">
        <ele>88.4</ele>
        <time>2024-01-14T08:53:42Z</time>
      </trkpt>
      <trkpt lat="46.52726" lon="0.375">
        <ele>87.4</ele>
        <time>2024-01-14T08:53:44Z</time>
      </trkpt>
      <trkpt lat="46.52726" lon="0.37493">
        <ele>87</ele>
        <time>2024-01-14T08:53:45Z</time>
      </trkpt>
      <trkpt lat="46.52726" lon="0.37486">
        <ele>86.8</ele>
        <time>2024-01-14T08:53:46Z</time>
      </trkpt>
      <trkpt lat="46.52726" lon="0.37472">
        <ele>86</ele>
        <time>2024-01-14T08:53:48Z</time>
      </trkpt>
      <trkpt lat="46.52723" lon="0.37442">
        <ele>84.8</ele>
        <time>2024-01-14T08:53:52Z</time>
      </trkpt>
      <trkpt lat="46.5272" lon="0.37419">
        <ele>84.4</ele>
        <time>2024-01-14T08:53:55Z</time>
      </trkpt>
      <trkpt lat="46.52719" lon="0.37407">
        <ele>83.8</ele>
        <time>2024-01-14T08:53:57Z</time>
      </trkpt>
      <trkpt lat="46.52719" lon="0.37399">
        <ele>83.4</ele>
        <time>2024-01-14T08:53:58Z</time>
      </trkpt>
      <trkpt lat="46.52718" lon="0.37392">
        <ele>83.2</ele>
        <time>2024-01-14T08:53:59Z</time>
      </trkpt>
      <trkpt lat="46.52716" lon="0.3738">
        <ele>82.8</ele>
        <time>2024-01-14T08:54:01Z</time>
      </trkpt>
      <trkpt lat="46.52713" lon="0.37373">
        <ele>82.8</ele>
        <time>2024-01-14T08:54:02Z</time>
      </trkpt>
      <trkpt lat="46.52708" lon="0.37359">
        <ele>82.4</ele>
        <time>2024-01-14T08:54:04Z</time>
      </trkpt>
      <trkpt lat="46.52704" lon="0.37347">
        <ele>82.4</ele>
        <time>2024-01-14T08:54:06Z</time>
      </trkpt>
      <trkpt lat="46.527" lon="0.37331">
        <ele>82.6</ele>
        <time>2024-01-14T08:54:08Z</time>
      </trkpt>
      <trkpt lat="46.52698" lon="0.37313">
        <ele>82</ele>
        <time>2024-01-14T08:54:11Z</time>
      </trkpt>
      <trkpt lat="46.52695" lon="0.37295">
        <ele>81.8</ele>
        <time>2024-01-14T08:54:14Z</time>
      </trkpt>
      <trkpt lat="46.52686" lon="0.37259">
        <ele>81.8</ele>
        <time>2024-01-14T08:54:19Z</time>
      </trkpt>
      <trkpt lat="46.52679" lon="0.37238">
        <ele>82.2</ele>
        <time>2024-01-14T08:54:22Z</time>
      </trkpt>
      <trkpt lat="46.52676" lon="0.37224">
        <ele>82.4</ele>
        <time>2024-01-14T08:54:24Z</time>
      </trkpt>
      <trkpt lat="46.52668" lon="0.37196">
        <ele>83</ele>
        <time>2024-01-14T08:54:28Z</time>
      </trkpt>
      <trkpt lat="46.52664" lon="0.37184">
        <ele>82.8</ele>
        <time>2024-01-14T08:54:30Z</time>
      </trkpt>
      <trkpt lat="46.5266" lon="0.37175">
        <ele>82.8</ele>
        <time>2024-01-14T08:54:32Z</time>
      </trkpt>
      <trkpt lat="46.52655" lon="0.37158">
        <ele>82.8</ele>
        <time>2024-01-14T08:54:36Z</time>
      </trkpt>
      <trkpt lat="46.52652" lon="0.37139">
        <ele>83</ele>
        <time>2024-01-14T08:54:39Z</time>
      </trkpt>
      <trkpt lat="46.52651" lon="0.37125">
        <ele>83.2</ele>
        <time>2024-01-14T08:54:41Z</time>
      </trkpt>
      <trkpt lat="46.52649" lon="0.37072">
        <ele>83.6</ele>
        <time>2024-01-14T08:54:48Z</time>
      </trkpt>
      <trkpt lat="46.5265" lon="0.37064">
        <ele>83.4</ele>
        <time>2024-01-14T08:54:49Z</time>
      </trkpt>
      <trkpt lat="46.52651" lon="0.37029">
        <ele>83.6</ele>
        <time>2024-01-14T08:54:54Z</time>
      </trkpt>
      <trkpt lat="46.52654" lon="0.37">
        <ele>83.6</ele>
        <time>2024-01-14T08:54:58Z</time>
      </trkpt>
      <trkpt lat="46.52655" lon="0.36994">
        <ele>84</ele>
        <time>2024-01-14T08:54:59Z</time>
      </trkpt>
      <trkpt lat="46.52657" lon="0.36976">
        <ele>84.4</ele>
        <time>2024-01-14T08:55:02Z</time>
      </trkpt>
      <trkpt lat="46.52659" lon="0.36961">
        <ele>84.8</ele>
        <time>2024-01-14T08:55:05Z</time>
      </trkpt>
      <trkpt lat="46.52662" lon="0.36949">
        <ele>85</ele>
        <time>2024-01-14T08:55:07Z</time>
      </trkpt>
      <trkpt lat="46.5267" lon="0.36931">
        <ele>85.4</ele>
        <time>2024-01-14T08:55:11Z</time>
      </trkpt>
      <trkpt lat="46.52675" lon="0.36918">
        <ele>86.4</ele>
        <time>2024-01-14T08:55:15Z</time>
      </trkpt>
      <trkpt lat="46.52677" lon="0.36912">
        <ele>86.8</ele>
        <time>2024-01-14T08:55:17Z</time>
      </trkpt>
      <trkpt lat="46.52679" lon="0.36905">
        <ele>87.4</ele>
        <time>2024-01-14T08:55:20Z</time>
      </trkpt>
      <trkpt lat="46.52683" lon="0.36898">
        <ele>86.6</ele>
        <time>2024-01-14T08:55:27Z</time>
      </trkpt>
      <trkpt lat="46.52687" lon="0.36893">
        <ele>86.4</ele>
        <time>2024-01-14T08:55:42Z</time>
      </trkpt>
      <trkpt lat="46.5269" lon="0.36892">
        <ele>86.4</ele>
        <time>2024-01-14T08:55:58Z</time>
      </trkpt>
      <trkpt lat="46.5269" lon="0.36892">
        <ele>86.4</ele>
        <time>2024-01-14T08:55:59Z</time>
      </trkpt>
      <trkpt lat="46.5269" lon="0.3689">
        <ele>86.4</ele>
        <time>2024-01-14T08:56:17Z</time>
      </trkpt>
      <trkpt lat="46.5269" lon="0.36891">
        <ele>86.8</ele>
        <time>2024-01-14T08:56:34Z</time>
      </trkpt>
      <trkpt lat="46.52689" lon="0.36889">
        <ele>86.8</ele>
        <time>2024-01-14T08:56:53Z</time>
      </trkpt>
      <trkpt lat="46.52688" lon="0.36888">
        <ele>86.8</ele>
        <time>2024-01-14T08:57:12Z</time>
      </trkpt>
      <trkpt lat="46.52686" lon="0.36887">
        <ele>86.8</ele>
        <time>2024-01-14T08:57:28Z</time>
      </trkpt>
      <trkpt lat="46.52684" lon="0.36886">
        <ele>86.8</ele>
        <time>2024-01-14T08:57:48Z</time>
      </trkpt>
      <trkpt lat="46.52683" lon="0.36888">
        <ele>86.8</ele>
        <time>2024-01-14T08:58:05Z</time>
      </trkpt>
      <trkpt lat="46.52684" lon="0.36888">
        <ele>86.8</ele>
        <time>2024-01-14T08:58:25Z</time>
      </trkpt>
      <trkpt lat="46.52684" lon="0.36887">
        <ele>86.8</ele>
        <time>2024-01-14T08:58:41Z</time>
      </trkpt>
      <trkpt lat="46.52685" lon="0.36887">
        <ele>86.8</ele>
        <time>2024-01-14T08:58:56Z</time>
      </trkpt>
      <trkpt lat="46.52685" lon="0.36887">
        <ele>86.8</ele>
        <time>2024-01-14T08:59:20Z</time>
      </trkpt>
      <trkpt lat="46.52685" lon="0.36887">
        <ele>86.8</ele>
        <time>2024-01-14T09:00:06Z</time>
      </trkpt>
      <trkpt lat="46.52687" lon="0.36886">
        <ele>86.8</ele>
        <time>2024-01-14T09:00:32Z</time>
      </trkpt>
      <trkpt lat="46.52687" lon="0.36887">
        <ele>86.8</ele>
        <time>2024-01-14T09:01:21Z</time>
      </trkpt>
      <trkpt lat="46.52687" lon="0.36887">
        <ele>86.8</ele>
        <time>2024-01-14T09:01:42Z</time>
      </trkpt>
      <trkpt lat="46.52687" lon="0.36886">
        <ele>86.8</ele>
        <time>2024-01-14T09:02:28Z</time>
      </trkpt>
      <trkpt lat="46.52688" lon="0.36887">
        <ele>86.8</ele>
        <time>2024-01-14T09:03:08Z</time>
      </trkpt>
      <trkpt lat="46.52688" lon="0.36887">
        <ele>86.8</ele>
        <time>2024-01-14T09:03:27Z</time>
      </trkpt>
      <trkpt lat="46.52689" lon="0.36889">
        <ele>86.8</ele>
        <time>2024-01-14T09:04:02Z</time>
      </trkpt>
      <trkpt lat="46.52693" lon="0.3689">
        <ele>86.8</ele>
        <time>2024-01-14T09:04:39Z</time>
      </trkpt>
      <trkpt lat="46.52696" lon="0.36887">
        <ele>86.8</ele>
        <time>2024-01-14T09:04:52Z</time>
      </trkpt>
      <trkpt lat="46.52703" lon="0.36871">
        <ele>92</ele>
        <time>2024-01-14T09:05:04Z</time>
      </trkpt>
      <trkpt lat="46.52709" lon="0.36858">
        <ele>93.2</ele>
        <time>2024-01-14T09:05:11Z</time>
      </trkpt>
      <trkpt lat="46.52714" lon="0.36851">
        <ele>94.4</ele>
        <time>2024-01-14T09:05:15Z</time>
      </trkpt>
      <trkpt lat="46.52715" lon="0.36849">
        <ele>95</ele>
        <time>2024-01-14T09:05:16Z</time>
      </trkpt>
      <trkpt lat="46.52717" lon="0.36846">
        <ele>95.6</ele>
        <time>2024-01-14T09:05:18Z</time>
      </trkpt>
      <trkpt lat="46.52722" lon="0.3684">
        <ele>96.6</ele>
        <time>2024-01-14T09:05:22Z</time>
      </trkpt>
      <trkpt lat="46.52728" lon="0.36834">
        <ele>98</ele>
        <time>2024-01-14T09:05:27Z</time>
      </trkpt>
      <trkpt lat="46.52733" lon="0.36831">
        <ele>98.6</ele>
        <time>2024-01-14T09:05:30Z</time>
      </trkpt>
      <trkpt lat="46.52737" lon="0.36827">
        <ele>99</ele>
        <time>2024-01-14T09:05:33Z</time>
      </trkpt>
      <trkpt lat="46.52746" lon="0.3682">
        <ele>100.4</ele>
        <time>2024-01-14T09:05:39Z</time>
      </trkpt>
      <trkpt lat="46.5275" lon="0.36817">
        <ele>100.8</ele>
        <time>2024-01-14T09:05:42Z</time>
      </trkpt>
      <trkpt lat="46.52758" lon="0.36812">
        <ele>101.4</ele>
        <time>2024-01-14T09:05:46Z</time>
      </trkpt>
      <trkpt lat="46.52767" lon="0.36807">
        <ele>102.6</ele>
        <time>2024-01-14T09:05:51Z</time>
      </trkpt>
      <trkpt lat="46.52768" lon="0.36807">
        <ele>102.6</ele>
        <time>2024-01-14T09:05:52Z</time>
      </trkpt>
      <trkpt lat="46.52779" lon="0.36804">
        <ele>103.8</ele>
        <time>2024-01-14T09:05:59Z</time>
      </trkpt>
      <trkpt lat="46.52787" lon="0.36803">
        <ele>104.8</ele>
        <time>2024-01-14T09:06:03Z</time>
      </trkpt>
      <trkpt lat="46.52789" lon="0.36803">
        <ele>105</ele>
        <time>2024-01-14T09:06:04Z</time>
      </trkpt>
      <trkpt lat="46.52797" lon="0.36802">
        <ele>106.4</ele>
        <time>2024-01-14T09:06:08Z</time>
      </trkpt>
      <trkpt lat="46.52806" lon="0.36803">
        <ele>107</ele>
        <time>2024-01-14T09:06:12Z</time>
      </trkpt>
      <trkpt lat="46.52813" lon="0.36804">
        <ele>107.6</ele>
        <time>2024-01-14T09:06:15Z</time>
      </trkpt>
      <trkpt lat="46.52821" lon="0.36806">
        <ele>108.2</ele>
        <time>2024-01-14T09:06:19Z</time>
      </trkpt>
      <trkpt lat="46.52824" lon="0.36807">
        <ele>108.6</ele>
        <time>2024-01-14T09:06:21Z</time>
      </trkpt>
      <trkpt lat="46.52833" lon="0.36811">
        <ele>109.8</ele>
        <time>2024-01-14T09:06:26Z</time>
      </trkpt>
      <trkpt lat="46.52835" lon="0.36812">
        <ele>109.8</ele>
        <time>2024-01-14T09:06:27Z</time>
      </trkpt>
      <trkpt lat="46.52848" lon="0.36822">
        <ele>110.4</ele>
        <time>2024-01-14T09:06:34Z</time>
      </trkpt>
      <trkpt lat="46.52858" lon="0.3683">
        <ele>110.8</ele>
        <time>2024-01-14T09:06:39Z</time>
      </trkpt>
      <trkpt lat="46.52865" lon="0.36836">
        <ele>111.2</ele>
        <time>2024-01-14T09:06:43Z</time>
      </trkpt>
      <trkpt lat="46.52884" lon="0.36851">
        <ele>111.6</ele>
        <time>2024-01-14T09:06:52Z</time>
      </trkpt>
      <trkpt lat="46.52886" lon="0.36854">
        <ele>111.8</ele>
        <time>2024-01-14T09:06:53Z</time>
      </trkpt>
      <trkpt lat="46.529" lon="0.36872">
        <ele>112</ele>
        <time>2024-01-14T09:06:59Z</time>
      </trkpt>
      <trkpt lat="46.52907" lon="0.36891">
        <ele>112.4</ele>
        <time>2024-01-14T09:07:04Z</time>
      </trkpt>
      <trkpt lat="46.52911" lon="0.36903">
        <ele>113</ele>
        <time>2024-01-14T09:07:08Z</time>
      </trkpt>
      <trkpt lat="46.52914" lon="0.36911">
        <ele>113.8</ele>
        <time>2024-01-14T09:07:11Z</time>
      </trkpt>
      <trkpt lat="46.52918" lon="0.36923">
        <ele>114.2</ele>
        <time>2024-01-14T09:07:16Z</time>
      </trkpt>
      <trkpt lat="46.52918" lon="0.36928">
        <ele>114.2</ele>
        <time>2024-01-14T09:07:18Z</time>
      </trkpt>
      <trkpt lat="46.52924" lon="0.36951">
        <ele>115.2</ele>
        <time>2024-01-14T09:07:26Z</time>
      </trkpt>
      <trkpt lat="46.52933" lon="0.36984">
        <ele>115.6</ele>
        <time>2024-01-14T09:07:34Z</time>
      </trkpt>
      <trkpt lat="46.52937" lon="0.36998">
        <ele>115.2</ele>
        <time>2024-01-14T09:07:37Z</time>
      </trkpt>
      <trkpt lat="46.52941" lon="0.37005">
        <ele>115</ele>
        <time>2024-01-14T09:07:39Z</time>
      </trkpt>
      <trkpt lat="46.52943" lon="0.37008">
        <ele>115</ele>
        <time>2024-01-14T09:07:40Z</time>
      </trkpt>
      <trkpt lat="46.52947" lon="0.3701">
        <ele>114.6</ele>
        <time>2024-01-14T09:07:41Z</time>
      </trkpt>
      <trkpt lat="46.52954" lon="0.37016">
        <ele>114</ele>
        <time>2024-01-14T09:07:43Z</time>
      </trkpt>
      <trkpt lat="46.52959" lon="0.37019">
        <ele>113.8</ele>
        <time>2024-01-14T09:07:44Z</time>
      </trkpt>
      <trkpt lat="46.52977" lon="0.37028">
        <ele>112.4</ele>
        <time>2024-01-14T09:07:47Z</time>
      </trkpt>
      <trkpt lat="46.52983" lon="0.37032">
        <ele>112.2</ele>
        <time>2024-01-14T09:07:48Z</time>
      </trkpt>
      <trkpt lat="46.52989" lon="0.37035">
        <ele>111.4</ele>
        <time>2024-01-14T09:07:49Z</time>
      </trkpt>
      <trkpt lat="46.53003" lon="0.37042">
        <ele>110.2</ele>
        <time>2024-01-14T09:07:51Z</time>
      </trkpt>
      <trkpt lat="46.53017" lon="0.37043">
        <ele>109.4</ele>
        <time>2024-01-14T09:07:53Z</time>
      </trkpt>
      <trkpt lat="46.53024" lon="0.37042">
        <ele>108.6</ele>
        <time>2024-01-14T09:07:54Z</time>
      </trkpt>
      <trkpt lat="46.53038" lon="0.3704">
        <ele>107.2</ele>
        <time>2024-01-14T09:07:56Z</time>
      </trkpt>
      <trkpt lat="46.53061" lon="0.37036">
        <ele>106.2</ele>
        <time>2024-01-14T09:07:59Z</time>
      </trkpt>
      <trkpt lat="46.53087" lon="0.37031">
        <ele>104</ele>
        <time>2024-01-14T09:08:02Z</time>
      </trkpt>
      <trkpt lat="46.53098" lon="0.37029">
        <ele>102.8</ele>
        <time>2024-01-14T09:08:03Z</time>
      </trkpt>
      <trkpt lat="46.53121" lon="0.37024">
        <ele>101.6</ele>
        <time>2024-01-14T09:08:05Z</time>
      </trkpt>
      <trkpt lat="46.53138" lon="0.37017">
        <ele>100.4</ele>
        <time>2024-01-14T09:08:07Z</time>
      </trkpt>
      <trkpt lat="46.53143" lon="0.37012">
        <ele>99.8</ele>
        <time>2024-01-14T09:08:08Z</time>
      </trkpt>
      <trkpt lat="46.53146" lon="0.37006">
        <ele>99.6</ele>
        <time>2024-01-14T09:08:09Z</time>
      </trkpt>
      <trkpt lat="46.53148" lon="0.36993">
        <ele>99.4</ele>
        <time>2024-01-14T09:08:11Z</time>
      </trkpt>
      <trkpt lat="46.53147" lon="0.36987">
        <ele>99.4</ele>
        <time>2024-01-14T09:08:12Z</time>
      </trkpt>
      <trkpt lat="46.53145" lon="0.36981">
        <ele>99.2</ele>
        <time>2024-01-14T09:08:13Z</time>
      </trkpt>
      <trkpt lat="46.53139" lon="0.36962">
        <ele>98.8</ele>
        <time>2024-01-14T09:08:16Z</time>
      </trkpt>
      <trkpt lat="46.53135" lon="0.36949">
        <ele>98</ele>
        <time>2024-01-14T09:08:18Z</time>
      </trkpt>
      <trkpt lat="46.53128" lon="0.36929">
        <ele>97.4</ele>
        <time>2024-01-14T09:08:21Z</time>
      </trkpt>
      <trkpt lat="46.53126" lon="0.36914">
        <ele>97</ele>
        <time>2024-01-14T09:08:23Z</time>
      </trkpt>
      <trkpt lat="46.53111" lon="0.36865">
        <ele>95.6</ele>
        <time>2024-01-14T09:08:29Z</time>
      </trkpt>
      <trkpt lat="46.53098" lon="0.36833">
        <ele>94.4</ele>
        <time>2024-01-14T09:08:33Z</time>
      </trkpt>
      <trkpt lat="46.5309" lon="0.36809">
        <ele>93.8</ele>
        <time>2024-01-14T09:08:36Z</time>
      </trkpt>
      <trkpt lat="46.53086" lon="0.36793">
        <ele>93.2</ele>
        <time>2024-01-14T09:08:38Z</time>
      </trkpt>
      <trkpt lat="46.53082" lon="0.36765">
        <ele>92.4</ele>
        <time>2024-01-14T09:08:41Z</time>
      </trkpt>
      <trkpt lat="46.53081" lon="0.36744">
        <ele>92</ele>
        <time>2024-01-14T09:08:43Z</time>
      </trkpt>
      <trkpt lat="46.53081" lon="0.36734">
        <ele>91.6</ele>
        <time>2024-01-14T09:08:44Z</time>
      </trkpt>
      <trkpt lat="46.53084" lon="0.36715">
        <ele>90.8</ele>
        <time>2024-01-14T09:08:46Z</time>
      </trkpt>
      <trkpt lat="46.53091" lon="0.36692">
        <ele>89.4</ele>
        <time>2024-01-14T09:08:49Z</time>
      </trkpt>
      <trkpt lat="46.53093" lon="0.36686">
        <ele>89</ele>
        <time>2024-01-14T09:08:50Z</time>
      </trkpt>
      <trkpt lat="46.53094" lon="0.36683">
        <ele>88.6</ele>
        <time>2024-01-14T09:08:51Z</time>
      </trkpt>
      <trkpt lat="46.53094" lon="0.3668">
        <ele>88.4</ele>
        <time>2024-01-14T09:08:52Z</time>
      </trkpt>
      <trkpt lat="46.53094" lon="0.3668">
        <ele>88.2</ele>
        <time>2024-01-14T09:08:53Z</time>
      </trkpt>
      <trkpt lat="46.53095" lon="0.36679">
        <ele>88</ele>
        <time>2024-01-14T09:08:55Z</time>
      </trkpt>
      <trkpt lat="46.53099" lon="0.36668">
        <ele>88</ele>
        <time>2024-01-14T09:09:00Z</time>
      </trkpt>
      <trkpt lat="46.53109" lon="0.36645">
        <ele>87.8</ele>
        <time>2024-01-14T09:09:06Z</time>
      </trkpt>
      <trkpt lat="46.53122" lon="0.36613">
        <ele>87.8</ele>
        <time>2024-01-14T09:09:13Z</time>
      </trkpt>
      <trkpt lat="46.53129" lon="0.36597">
        <ele>87.4</ele>
        <time>2024-01-14T09:09:16Z</time>
      </trkpt>
      <trkpt lat="46.53136" lon="0.36581">
        <ele>87</ele>
        <time>2024-01-14T09:09:19Z</time>
      </trkpt>
      <trkpt lat="46.53145" lon="0.36556">
        <ele>86.8</ele>
        <time>2024-01-14T09:09:23Z</time>
      </trkpt>
      <trkpt lat="46.53147" lon="0.36549">
        <ele>86.2</ele>
        <time>2024-01-14T09:09:24Z</time>
      </trkpt>
      <trkpt lat="46.5315" lon="0.36542">
        <ele>85.8</ele>
        <time>2024-01-14T09:09:25Z</time>
      </trkpt>
      <trkpt lat="46.53158" lon="0.36516">
        <ele>84.8</ele>
        <time>2024-01-14T09:09:28Z</time>
      </trkpt>
      <trkpt lat="46.53168" lon="0.36488">
        <ele>83.4</ele>
        <time>2024-01-14T09:09:31Z</time>
      </trkpt>
      <trkpt lat="46.53181" lon="0.36461">
        <ele>82.2</ele>
        <time>2024-01-14T09:09:34Z</time>
      </trkpt>
      <trkpt lat="46.53191" lon="0.36445">
        <ele>82</ele>
        <time>2024-01-14T09:09:36Z</time>
      </trkpt>
      <trkpt lat="46.53224" lon="0.36395">
        <ele>81.4</ele>
        <time>2024-01-14T09:09:43Z</time>
      </trkpt>
      <trkpt lat="46.53238" lon="0.36375">
        <ele>81.6</ele>
        <time>2024-01-14T09:09:47Z</time>
      </trkpt>
      <trkpt lat="46.53243" lon="0.36372">
        <ele>81.6</ele>
        <time>2024-01-14T09:09:48Z</time>
      </trkpt>
      <trkpt lat="46.53268" lon="0.36354">
        <ele>82.2</ele>
        <time>2024-01-14T09:09:53Z</time>
      </trkpt>
      <trkpt lat="46.53273" lon="0.36344">
        <ele>82.4</ele>
        <time>2024-01-14T09:09:55Z</time>
      </trkpt>
      <trkpt lat="46.53277" lon="0.36331">
        <ele>82.8</ele>
        <time>2024-01-14T09:09:57Z</time>
      </trkpt>
      <trkpt lat="46.53278" lon="0.36324">
        <ele>83</ele>
        <time>2024-01-14T09:09:58Z</time>
      </trkpt>
      <trkpt lat="46.53277" lon="0.3631">
        <ele>83.2</ele>
        <time>2024-01-14T09:10:00Z</time>
      </trkpt>
      <trkpt lat="46.53277" lon="0.36303">
        <ele>83.4</ele>
        <time>2024-01-14T09:10:01Z</time>
      </trkpt>
      <trkpt lat="46.5327" lon="0.36271">
        <ele>84.4</ele>
        <time>2024-01-14T09:10:07Z</time>
      </trkpt>
      <trkpt lat="46.53269" lon="0.36267">
        <ele>84.6</ele>
        <time>2024-01-14T09:10:08Z</time>
      </trkpt>
      <trkpt lat="46.53265" lon="0.36252">
        <ele>85.6</ele>
        <time>2024-01-14T09:10:12Z</time>
      </trkpt>
      <trkpt lat="46.53265" lon="0.36249">
        <ele>86</ele>
        <time>2024-01-14T09:10:13Z</time>
      </trkpt>
      <trkpt lat="46.53258" lon="0.36226">
        <ele>86.8</ele>
        <time>2024-01-14T09:10:18Z</time>
      </trkpt>
      <trkpt lat="46.5325" lon="0.3619">
        <ele>87.8</ele>
        <time>2024-01-14T09:10:25Z</time>
      </trkpt>
      <trkpt lat="46.53242" lon="0.36157">
        <ele>88.6</ele>
        <time>2024-01-14T09:10:32Z</time>
      </trkpt>
      <trkpt lat="46.5324" lon="0.36147">
        <ele>88.8</ele>
        <time>2024-01-14T09:10:34Z</time>
      </trkpt>
      <trkpt lat="46.53236" lon="0.3613">
        <ele>89.8</ele>
        <time>2024-01-14T09:10:38Z</time>
      </trkpt>
      <trkpt lat="46.53236" lon="0.36124">
        <ele>90</ele>
        <time>2024-01-14T09:10:39Z</time>
      </trkpt>
      <trkpt lat="46.53239" lon="0.36111">
        <ele>90.4</ele>
        <time>2024-01-14T09:10:42Z</time>
      </trkpt>
      <trkpt lat="46.53254" lon="0.36099">
        <ele>90.8</ele>
        <time>2024-01-14T09:10:47Z</time>
      </trkpt>
      <trkpt lat="46.5326" lon="0.36095">
        <ele>91</ele>
        <time>2024-01-14T09:10:49Z</time>
      </trkpt>
      <trkpt lat="46.5327" lon="0.36086">
        <ele>91.8</ele>
        <time>2024-01-14T09:10:54Z</time>
      </trkpt>
      <trkpt lat="46.5327" lon="0.36086">
        <ele>92.2</ele>
        <time>2024-01-14T09:10:55Z</time>
      </trkpt>
      <trkpt lat="46.53276" lon="0.36078">
        <ele>93.6</ele>
        <time>2024-01-14T09:10:59Z</time>
      </trkpt>
      <trkpt lat="46.53278" lon="0.36076">
        <ele>94</ele>
        <time>2024-01-14T09:11:01Z</time>
      </trkpt>
      <trkpt lat="46.53281" lon="0.36073">
        <ele>95</ele>
        <time>2024-01-14T09:11:04Z</time>
      </trkpt>
      <trkpt lat="46.53286" lon="0.36071">
        <ele>95.6</ele>
        <time>2024-01-14T09:11:07Z</time>
      </trkpt>
      <trkpt lat="46.53288" lon="0.36069">
        <ele>96</ele>
        <time>2024-01-14T09:11:09Z</time>
      </trkpt>
      <trkpt lat="46.53296" lon="0.36065">
        <ele>96.8</ele>
        <time>2024-01-14T09:11:13Z</time>
      </trkpt>
      <trkpt lat="46.53297" lon="0.36065">
        <ele>97.2</ele>
        <time>2024-01-14T09:11:14Z</time>
      </trkpt>
      <trkpt lat="46.53302" lon="0.36063">
        <ele>98.2</ele>
        <time>2024-01-14T09:11:18Z</time>
      </trkpt>
      <trkpt lat="46.53305" lon="0.36062">
        <ele>98.8</ele>
        <time>2024-01-14T09:11:20Z</time>
      </trkpt>
      <trkpt lat="46.53307" lon="0.36062">
        <ele>99.2</ele>
        <time>2024-01-14T09:11:22Z</time>
      </trkpt>
      <trkpt lat="46.5331" lon="0.36061">
        <ele>100</ele>
        <time>2024-01-14T09:11:25Z</time>
      </trkpt>
      <trkpt lat="46.53314" lon="0.3606">
        <ele>100.4</ele>
        <time>2024-01-14T09:11:27Z</time>
      </trkpt>
      <trkpt lat="46.53321" lon="0.36059">
        <ele>101.4</ele>
        <time>2024-01-14T09:11:30Z</time>
      </trkpt>
      <trkpt lat="46.53327" lon="0.36059">
        <ele>102.2</ele>
        <time>2024-01-14T09:11:33Z</time>
      </trkpt>
      <trkpt lat="46.53328" lon="0.36059">
        <ele>102.4</ele>
        <time>2024-01-14T09:11:34Z</time>
      </trkpt>
      <trkpt lat="46.53332" lon="0.3606">
        <ele>102.6</ele>
        <time>2024-01-14T09:11:36Z</time>
      </trkpt>
      <trkpt lat="46.53339" lon="0.36062">
        <ele>103.6</ele>
        <time>2024-01-14T09:11:41Z</time>
      </trkpt>
      <trkpt lat="46.5334" lon="0.36062">
        <ele>103.6</ele>
        <time>2024-01-14T09:11:42Z</time>
      </trkpt>
      <trkpt lat="46.53354" lon="0.36068">
        <ele>104.6</ele>
        <time>2024-01-14T09:11:50Z</time>
      </trkpt>
      <trkpt lat="46.53358" lon="0.36069">
        <ele>105</ele>
        <time>2024-01-14T09:11:51Z</time>
      </trkpt>
      <trkpt lat="46.53363" lon="0.36073">
        <ele>105.8</ele>
        <time>2024-01-14T09:11:55Z</time>
      </trkpt>
      <trkpt lat="46.53377" lon="0.36085">
        <ele>106.8</ele>
        <time>2024-01-14T09:12:02Z</time>
      </trkpt>
      <trkpt lat="46.53389" lon="0.36095">
        <ele>108</ele>
        <time>2024-01-14T09:12:08Z</time>
      </trkpt>
      <trkpt lat="46.53391" lon="0.36098">
        <ele>108.2</ele>
        <time>2024-01-14T09:12:09Z</time>
      </trkpt>
      <trkpt lat="46.53403" lon="0.36106">
        <ele>109</ele>
        <time>2024-01-14T09:12:15Z</time>
      </trkpt>
      <trkpt lat="46.53405" lon="0.36107">
        <ele>109</ele>
        <time>2024-01-14T09:12:16Z</time>
      </trkpt>
      <trkpt lat="46.53418" lon="0.36117">
        <ele>109.4</ele>
        <time>2024-01-14T09:12:21Z</time>
      </trkpt>
      <trkpt lat="46.53439" lon="0.36138">
        <ele>109.6</ele>
        <time>2024-01-14T09:12:27Z</time>
      </trkpt>
      <trkpt lat="46.53451" lon="0.36153">
        <ele>109.6</ele>
        <time>2024-01-14T09:12:30Z</time>
      </trkpt>
      <trkpt lat="46.5346" lon="0.3616">
        <ele>109.8</ele>
        <time>2024-01-14T09:12:32Z</time>
      </trkpt>
      <trkpt lat="46.53464" lon="0.36163">
        <ele>109.8</ele>
        <time>2024-01-14T09:12:33Z</time>
      </trkpt>
      <trkpt lat="46.53473" lon="0.36169">
        <ele>109.8</ele>
        <time>2024-01-14T09:12:35Z</time>
      </trkpt>
      <trkpt lat="46.53488" lon="0.36174">
        <ele>109.8</ele>
        <time>2024-01-14T09:12:38Z</time>
      </trkpt>
      <trkpt lat="46.53505" lon="0.36177">
        <ele>110.4</ele>
        <time>2024-01-14T09:12:41Z</time>
      </trkpt>
      <trkpt lat="46.53522" lon="0.36179">
        <ele>111</ele>
        <time>2024-01-14T09:12:45Z</time>
      </trkpt>
      <trkpt lat="46.5354" lon="0.36185">
        <ele>111.4</ele>
        <time>2024-01-14T09:12:50Z</time>
      </trkpt>
      <trkpt lat="46.53543" lon="0.36186">
        <ele>111.6</ele>
        <time>2024-01-14T09:12:51Z</time>
      </trkpt>
      <trkpt lat="46.5356" lon="0.36197">
        <ele>111</ele>
        <time>2024-01-14T09:12:55Z</time>
      </trkpt>
      <trkpt lat="46.53575" lon="0.36207">
        <ele>110.6</ele>
        <time>2024-01-14T09:12:58Z</time>
      </trkpt>
      <trkpt lat="46.53584" lon="0.36214">
        <ele>110.4</ele>
        <time>2024-01-14T09:13:00Z</time>
      </trkpt>
      <trkpt lat="46.53587" lon="0.36219">
        <ele>110.4</ele>
        <time>2024-01-14T09:13:01Z</time>
      </trkpt>
      <trkpt lat="46.53599" lon="0.3624">
        <ele>109.8</ele>
        <time>2024-01-14T09:13:05Z</time>
      </trkpt>
      <trkpt lat="46.53605" lon="0.36249">
        <ele>109.6</ele>
        <time>2024-01-14T09:13:07Z</time>
      </trkpt>
      <trkpt lat="46.53608" lon="0.36253">
        <ele>109.6</ele>
        <time>2024-01-14T09:13:08Z</time>
      </trkpt>
      <trkpt lat="46.53626" lon="0.36274">
        <ele>109.6</ele>
        <time>2024-01-14T09:13:13Z</time>
      </trkpt>
      <trkpt lat="46.53651" lon="0.363">
        <ele>109</ele>
        <time>2024-01-14T09:13:19Z</time>
      </trkpt>
      <trkpt lat="46.53681" lon="0.36329">
        <ele>108.6</ele>
        <time>2024-01-14T09:13:25Z</time>
      </trkpt>
      <trkpt lat="46.53721" lon="0.36367">
        <ele>108.2</ele>
        <time>2024-01-14T09:13:31Z</time>
      </trkpt>
      <trkpt lat="46.53738" lon="0.3638">
        <ele>108.2</ele>
        <time>2024-01-14T09:13:35Z</time>
      </trkpt>
      <trkpt lat="46.53745" lon="0.36387">
        <ele>108.8</ele>
        <time>2024-01-14T09:13:38Z</time>
      </trkpt>
      <trkpt lat="46.53752" lon="0.36396">
        <ele>109.4</ele>
        <time>2024-01-14T09:13:40Z</time>
      </trkpt>
      <trkpt lat="46.53755" lon="0.36399">
        <ele>109.6</ele>
        <time>2024-01-14T09:13:41Z</time>
      </trkpt>
      <trkpt lat="46.53778" lon="0.36424">
        <ele>109.2</ele>
        <time>2024-01-14T09:13:47Z</time>
      </trkpt>
      <trkpt lat="46.53795" lon="0.36439">
        <ele>109.2</ele>
        <time>2024-01-14T09:13:51Z</time>
      </trkpt>
      <trkpt lat="46.53804" lon="0.36441">
        <ele>108.4</ele>
        <time>2024-01-14T09:13:53Z</time>
      </trkpt>
      <trkpt lat="46.53813" lon="0.3644">
        <ele>108.2</ele>
        <time>2024-01-14T09:13:55Z</time>
      </trkpt>
      <trkpt lat="46.53817" lon="0.36434">
        <ele>108.4</ele>
        <time>2024-01-14T09:13:57Z</time>
      </trkpt>
      <trkpt lat="46.53819" lon="0.36406">
        <ele>109</ele>
        <time>2024-01-14T09:14:02Z</time>
      </trkpt>
      <trkpt lat="46.5382" lon="0.36388">
        <ele>109.6</ele>
        <time>2024-01-14T09:14:05Z</time>
      </trkpt>
      <trkpt lat="46.5382" lon="0.36359">
        <ele>110.6</ele>
        <time>2024-01-14T09:14:10Z</time>
      </trkpt>
      <trkpt lat="46.5382" lon="0.36353">
        <ele>110.8</ele>
        <time>2024-01-14T09:14:11Z</time>
      </trkpt>
      <trkpt lat="46.53818" lon="0.36318">
        <ele>111.6</ele>
        <time>2024-01-14T09:14:17Z</time>
      </trkpt>
      <trkpt lat="46.53818" lon="0.36301">
        <ele>111.8</ele>
        <time>2024-01-14T09:14:20Z</time>
      </trkpt>
      <trkpt lat="46.53821" lon="0.36286">
        <ele>112.4</ele>
        <time>2024-01-14T09:14:23Z</time>
      </trkpt>
      <trkpt lat="46.53824" lon="0.36275">
        <ele>112.6</ele>
        <time>2024-01-14T09:14:25Z</time>
      </trkpt>
      <trkpt lat="46.53826" lon="0.3627">
        <ele>112.8</ele>
        <time>2024-01-14T09:14:26Z</time>
      </trkpt>
      <trkpt lat="46.5383" lon="0.36258">
        <ele>112.8</ele>
        <time>2024-01-14T09:14:28Z</time>
      </trkpt>
      <trkpt lat="46.53843" lon="0.36228">
        <ele>113.4</ele>
        <time>2024-01-14T09:14:33Z</time>
      </trkpt>
      <trkpt lat="46.53866" lon="0.36185">
        <ele>113.4</ele>
        <time>2024-01-14T09:14:40Z</time>
      </trkpt>
      <trkpt lat="46.53898" lon="0.36135">
        <ele>113.2</ele>
        <time>2024-01-14T09:14:48Z</time>
      </trkpt>
      <trkpt lat="46.53902" lon="0.3613">
        <ele>113</ele>
        <time>2024-01-14T09:14:49Z</time>
      </trkpt>
      <trkpt lat="46.5392" lon="0.36104">
        <ele>112.4</ele>
        <time>2024-01-14T09:14:54Z</time>
      </trkpt>
      <trkpt lat="46.53924" lon="0.36099">
        <ele>112.2</ele>
        <time>2024-01-14T09:14:55Z</time>
      </trkpt>
      <trkpt lat="46.53942" lon="0.3608">
        <ele>112.2</ele>
        <time>2024-01-14T09:15:00Z</time>
      </trkpt>
      <trkpt lat="46.53971" lon="0.36051">
        <ele>111.8</ele>
        <time>2024-01-14T09:15:07Z</time>
      </trkpt>
      <trkpt lat="46.53975" lon="0.36045">
        <ele>111.6</ele>
        <time>2024-01-14T09:15:08Z</time>
      </trkpt>
      <trkpt lat="46.53979" lon="0.36038">
        <ele>111.4</ele>
        <time>2024-01-14T09:15:09Z</time>
      </trkpt>
      <trkpt lat="46.53988" lon="0.36015">
        <ele>111.2</ele>
        <time>2024-01-14T09:15:12Z</time>
      </trkpt>
      <trkpt lat="46.53992" lon="0.35996">
        <ele>110.6</ele>
        <time>2024-01-14T09:15:14Z</time>
      </trkpt>
      <trkpt lat="46.53993" lon="0.35986">
        <ele>110.4</ele>
        <time>2024-01-14T09:15:15Z</time>
      </trkpt>
      <trkpt lat="46.53994" lon="0.35975">
        <ele>110.2</ele>
        <time>2024-01-14T09:15:16Z</time>
      </trkpt>
      <trkpt lat="46.53999" lon="0.35898">
        <ele>110</ele>
        <time>2024-01-14T09:15:24Z</time>
      </trkpt>
      <trkpt lat="46.54001" lon="0.35867">
        <ele>111</ele>
        <time>2024-01-14T09:15:29Z</time>
      </trkpt>
      <trkpt lat="46.54002" lon="0.35857">
        <ele>111.4</ele>
        <time>2024-01-14T09:15:31Z</time>
      </trkpt>
      <trkpt lat="46.54004" lon="0.35833">
        <ele>112.2</ele>
        <time>2024-01-14T09:15:36Z</time>
      </trkpt>
      <trkpt lat="46.54006" lon="0.35815">
        <ele>112.6</ele>
        <time>2024-01-14T09:15:39Z</time>
      </trkpt>
      <trkpt lat="46.54008" lon="0.35789">
        <ele>113.2</ele>
        <time>2024-01-14T09:15:43Z</time>
      </trkpt>
      <trkpt lat="46.54011" lon="0.35762">
        <ele>113.6</ele>
        <time>2024-01-14T09:15:47Z</time>
      </trkpt>
      <trkpt lat="46.54013" lon="0.35747">
        <ele>113.6</ele>
        <time>2024-01-14T09:15:49Z</time>
      </trkpt>
      <trkpt lat="46.54024" lon="0.35685">
        <ele>114.4</ele>
        <time>2024-01-14T09:15:57Z</time>
      </trkpt>
      <trkpt lat="46.54026" lon="0.35677">
        <ele>114.6</ele>
        <time>2024-01-14T09:15:58Z</time>
      </trkpt>
      <trkpt lat="46.54028" lon="0.35669">
        <ele>114.6</ele>
        <time>2024-01-14T09:15:59Z</time>
      </trkpt>
      <trkpt lat="46.54039" lon="0.35638">
        <ele>114.6</ele>
        <time>2024-01-14T09:16:03Z</time>
      </trkpt>
      <trkpt lat="46.54062" lon="0.35591">
        <ele>114.8</ele>
        <time>2024-01-14T09:16:10Z</time>
      </trkpt>
      <trkpt lat="46.54084" lon="0.3554">
        <ele>114.4</ele>
        <time>2024-01-14T09:16:18Z</time>
      </trkpt>
      <trkpt lat="46.54093" lon="0.3552">
        <ele>114.4</ele>
        <time>2024-01-14T09:16:21Z</time>
      </trkpt>
      <trkpt lat="46.54102" lon="0.35492">
        <ele>114.2</ele>
        <time>2024-01-14T09:16:25Z</time>
      </trkpt>
      <trkpt lat="46.54102" lon="0.35475">
        <ele>114</ele>
        <time>2024-01-14T09:16:27Z</time>
      </trkpt>
      <trkpt lat="46.54103" lon="0.3546">
        <ele>113.8</ele>
        <time>2024-01-14T09:16:29Z</time>
      </trkpt>
      <trkpt lat="46.54105" lon="0.35453">
        <ele>113.4</ele>
        <time>2024-01-14T09:16:30Z</time>
      </trkpt>
      <trkpt lat="46.54108" lon="0.35447">
        <ele>113.4</ele>
        <time>2024-01-14T09:16:31Z</time>
      </trkpt>
      <trkpt lat="46.54115" lon="0.35436">
        <ele>113.2</ele>
        <time>2024-01-14T09:16:33Z</time>
      </trkpt>
      <trkpt lat="46.54139" lon="0.35395">
        <ele>113.8</ele>
        <time>2024-01-14T09:16:40Z</time>
      </trkpt>
      <trkpt lat="46.54142" lon="0.35389">
        <ele>114</ele>
        <time>2024-01-14T09:16:41Z</time>
      </trkpt>
      <trkpt lat="46.54152" lon="0.35363">
        <ele>114.4</ele>
        <time>2024-01-14T09:16:45Z</time>
      </trkpt>
      <trkpt lat="46.5416" lon="0.35354">
        <ele>114.2</ele>
        <time>2024-01-14T09:16:47Z</time>
      </trkpt>
      <trkpt lat="46.54168" lon="0.35348">
        <ele>113.8</ele>
        <time>2024-01-14T09:16:49Z</time>
      </trkpt>
      <trkpt lat="46.54175" lon="0.3534">
        <ele>113.6</ele>
        <time>2024-01-14T09:16:51Z</time>
      </trkpt>
      <trkpt lat="46.54184" lon="0.35328">
        <ele>113.8</ele>
        <time>2024-01-14T09:16:54Z</time>
      </trkpt>
      <trkpt lat="46.54191" lon="0.35316">
        <ele>114.2</ele>
        <time>2024-01-14T09:16:57Z</time>
      </trkpt>
      <trkpt lat="46.54196" lon="0.35307">
        <ele>114.4</ele>
        <time>2024-01-14T09:16:59Z</time>
      </trkpt>
      <trkpt lat="46.54207" lon="0.35287">
        <ele>114.6</ele>
        <time>2024-01-14T09:17:03Z</time>
      </trkpt>
      <trkpt lat="46.54217" lon="0.35272">
        <ele>114.8</ele>
        <time>2024-01-14T09:17:06Z</time>
      </trkpt>
      <trkpt lat="46.54239" lon="0.35242">
        <ele>114.6</ele>
        <time>2024-01-14T09:17:12Z</time>
      </trkpt>
      <trkpt lat="46.54246" lon="0.35235">
        <ele>114.8</ele>
        <time>2024-01-14T09:17:14Z</time>
      </trkpt>
      <trkpt lat="46.5425" lon="0.35234">
        <ele>114.8</ele>
        <time>2024-01-14T09:17:16Z</time>
      </trkpt>
      <trkpt lat="46.54259" lon="0.35236">
        <ele>114.8</ele>
        <time>2024-01-14T09:17:21Z</time>
      </trkpt>
      <trkpt lat="46.54265" lon="0.35234">
        <ele>115</ele>
        <time>2024-01-14T09:17:23Z</time>
      </trkpt>
      <trkpt lat="46.54272" lon="0.35228">
        <ele>115.2</ele>
        <time>2024-01-14T09:17:26Z</time>
      </trkpt>
      <trkpt lat="46.54291" lon="0.35223">
        <ele>115.2</ele>
        <time>2024-01-14T09:17:32Z</time>
      </trkpt>
      <trkpt lat="46.54299" lon="0.35223">
        <ele>115.2</ele>
        <time>2024-01-14T09:17:35Z</time>
      </trkpt>
      <trkpt lat="46.54305" lon="0.35221">
        <ele>115.2</ele>
        <time>2024-01-14T09:17:37Z</time>
      </trkpt>
      <trkpt lat="46.5431" lon="0.35217">
        <ele>115.4</ele>
        <time>2024-01-14T09:17:39Z</time>
      </trkpt>
      <trkpt lat="46.54321" lon="0.35217">
        <ele>114.8</ele>
        <time>2024-01-14T09:17:42Z</time>
      </trkpt>
      <trkpt lat="46.54335" lon="0.35214">
        <ele>114.6</ele>
        <time>2024-01-14T09:17:45Z</time>
      </trkpt>
      <trkpt lat="46.54341" lon="0.35209">
        <ele>114.4</ele>
        <time>2024-01-14T09:17:47Z</time>
      </trkpt>
      <trkpt lat="46.54355" lon="0.352">
        <ele>114.6</ele>
        <time>2024-01-14T09:17:52Z</time>
      </trkpt>
      <trkpt lat="46.54371" lon="0.35197">
        <ele>114.2</ele>
        <time>2024-01-14T09:17:56Z</time>
      </trkpt>
      <trkpt lat="46.54373" lon="0.35196">
        <ele>114</ele>
        <time>2024-01-14T09:17:57Z</time>
      </trkpt>
      <trkpt lat="46.54376" lon="0.35195">
        <ele>114</ele>
        <time>2024-01-14T09:17:58Z</time>
      </trkpt>
      <trkpt lat="46.54381" lon="0.35194">
        <ele>114</ele>
        <time>2024-01-14T09:18:00Z</time>
      </trkpt>
      <trkpt lat="46.54385" lon="0.35196">
        <ele>114</ele>
        <time>2024-01-14T09:18:01Z</time>
      </trkpt>
      <trkpt lat="46.54402" lon="0.35204">
        <ele>113.8</ele>
        <time>2024-01-14T09:18:06Z</time>
      </trkpt>
      <trkpt lat="46.54409" lon="0.35202">
        <ele>113.8</ele>
        <time>2024-01-14T09:18:08Z</time>
      </trkpt>
      <trkpt lat="46.54414" lon="0.35201">
        <ele>113.4</ele>
        <time>2024-01-14T09:18:09Z</time>
      </trkpt>
      <trkpt lat="46.54419" lon="0.352">
        <ele>113.4</ele>
        <time>2024-01-14T09:18:10Z</time>
      </trkpt>
      <trkpt lat="46.5443" lon="0.35198">
        <ele>113</ele>
        <time>2024-01-14T09:18:13Z</time>
      </trkpt>
      <trkpt lat="46.54436" lon="0.35196">
        <ele>113</ele>
        <time>2024-01-14T09:18:14Z</time>
      </trkpt>
      <trkpt lat="46.54441" lon="0.35195">
        <ele>113</ele>
        <time>2024-01-14T09:18:15Z</time>
      </trkpt>
      <trkpt lat="46.54449" lon="0.35194">
        <ele>113</ele>
        <time>2024-01-14T09:18:17Z</time>
      </trkpt>
      <trkpt lat="46.54457" lon="0.35192">
        <ele>113</ele>
        <time>2024-01-14T09:18:19Z</time>
      </trkpt>
      <trkpt lat="46.54462" lon="0.35192">
        <ele>112.8</ele>
        <time>2024-01-14T09:18:21Z</time>
      </trkpt>
      <trkpt lat="46.54469" lon="0.35188">
        <ele>112.6</ele>
        <time>2024-01-14T09:18:23Z</time>
      </trkpt>
      <trkpt lat="46.54472" lon="0.35187">
        <ele>112.6</ele>
        <time>2024-01-14T09:18:24Z</time>
      </trkpt>
      <trkpt lat="46.54488" lon="0.35183">
        <ele>112.4</ele>
        <time>2024-01-14T09:18:27Z</time>
      </trkpt>
      <trkpt lat="46.54491" lon="0.35182">
        <ele>112.2</ele>
        <time>2024-01-14T09:18:28Z</time>
      </trkpt>
      <trkpt lat="46.54495" lon="0.35182">
        <ele>112.2</ele>
        <time>2024-01-14T09:18:29Z</time>
      </trkpt>
      <trkpt lat="46.54504" lon="0.35179">
        <ele>112</ele>
        <time>2024-01-14T09:18:32Z</time>
      </trkpt>
      <trkpt lat="46.54507" lon="0.3518">
        <ele>111.8</ele>
        <time>2024-01-14T09:18:33Z</time>
      </trkpt>
      <trkpt lat="46.54515" lon="0.35182">
        <ele>111.6</ele>
        <time>2024-01-14T09:18:35Z</time>
      </trkpt>
      <trkpt lat="46.5452" lon="0.35182">
        <ele>111.2</ele>
        <time>2024-01-14T09:18:36Z</time>
      </trkpt>
      <trkpt lat="46.54523" lon="0.35181">
        <ele>111</ele>
        <time>2024-01-14T09:18:37Z</time>
      </trkpt>
      <trkpt lat="46.54526" lon="0.35179">
        <ele>110.8</ele>
        <time>2024-01-14T09:18:38Z</time>
      </trkpt>
      <trkpt lat="46.5454" lon="0.35174">
        <ele>110.6</ele>
        <time>2024-01-14T09:18:41Z</time>
      </trkpt>
      <trkpt lat="46.54554" lon="0.35169">
        <ele>110.4</ele>
        <time>2024-01-14T09:18:44Z</time>
      </trkpt>
      <trkpt lat="46.54559" lon="0.35167">
        <ele>110.2</ele>
        <time>2024-01-14T09:18:45Z</time>
      </trkpt>
      <trkpt lat="46.54564" lon="0.35166">
        <ele>110.2</ele>
        <time>2024-01-14T09:18:47Z</time>
      </trkpt>
      <trkpt lat="46.54567" lon="0.35166">
        <ele>110</ele>
        <time>2024-01-14T09:18:48Z</time>
      </trkpt>
      <trkpt lat="46.5457" lon="0.35164">
        <ele>110</ele>
        <time>2024-01-14T09:18:49Z</time>
      </trkpt>
      <trkpt lat="46.54578" lon="0.35157">
        <ele>109.6</ele>
        <time>2024-01-14T09:18:51Z</time>
      </trkpt>
      <trkpt lat="46.54598" lon="0.3513">
        <ele>109.8</ele>
        <time>2024-01-14T09:18:56Z</time>
      </trkpt>
      <trkpt lat="46.54606" lon="0.35118">
        <ele>110.6</ele>
        <time>2024-01-14T09:18:58Z</time>
      </trkpt>
      <trkpt lat="46.54612" lon="0.35108">
        <ele>111.4</ele>
        <time>2024-01-14T09:19:00Z</time>
      </trkpt>
      <trkpt lat="46.54619" lon="0.35099">
        <ele>112.2</ele>
        <time>2024-01-14T09:19:02Z</time>
      </trkpt>
      <trkpt lat="46.54622" lon="0.35096">
        <ele>112.6</ele>
        <time>2024-01-14T09:19:03Z</time>
      </trkpt>
      <trkpt lat="46.54639" lon="0.35069">
        <ele>113.6</ele>
        <time>2024-01-14T09:19:09Z</time>
      </trkpt>
      <trkpt lat="46.54654" lon="0.3505">
        <ele>114.6</ele>
        <time>2024-01-14T09:19:15Z</time>
      </trkpt>
      <trkpt lat="46.54656" lon="0.35047">
        <ele>114.6</ele>
        <time>2024-01-14T09:19:16Z</time>
      </trkpt>
      <trkpt lat="46.54663" lon="0.35043">
        <ele>115</ele>
        <time>2024-01-14T09:19:19Z</time>
      </trkpt>
      <trkpt lat="46.54679" lon="0.35035">
        <ele>115.2</ele>
        <time>2024-01-14T09:19:24Z</time>
      </trkpt>
      <trkpt lat="46.54696" lon="0.35025">
        <ele>115</ele>
        <time>2024-01-14T09:19:29Z</time>
      </trkpt>
      <trkpt lat="46.54704" lon="0.35021">
        <ele>115</ele>
        <time>2024-01-14T09:19:31Z</time>
      </trkpt>
      <trkpt lat="46.54726" lon="0.35011">
        <ele>115.2</ele>
        <time>2024-01-14T09:19:36Z</time>
      </trkpt>
      <trkpt lat="46.54755" lon="0.34997">
        <ele>115.2</ele>
        <time>2024-01-14T09:19:42Z</time>
      </trkpt>
      <trkpt lat="46.54794" lon="0.34973">
        <ele>115.6</ele>
        <time>2024-01-14T09:19:49Z</time>
      </trkpt>
      <trkpt lat="46.54811" lon="0.34963">
        <ele>115.8</ele>
        <time>2024-01-14T09:19:52Z</time>
      </trkpt>
      <trkpt lat="46.5483" lon="0.3495">
        <ele>116.2</ele>
        <time>2024-01-14T09:19:56Z</time>
      </trkpt>
      <trkpt lat="46.54842" lon="0.34944">
        <ele>116.2</ele>
        <time>2024-01-14T09:19:58Z</time>
      </trkpt>
      <trkpt lat="46.5486" lon="0.34935">
        <ele>116.2</ele>
        <time>2024-01-14T09:20:01Z</time>
      </trkpt>
      <trkpt lat="46.54896" lon="0.34913">
        <ele>116</ele>
        <time>2024-01-14T09:20:07Z</time>
      </trkpt>
      <trkpt lat="46.54937" lon="0.34886">
        <ele>116</ele>
        <time>2024-01-14T09:20:14Z</time>
      </trkpt>
      <trkpt lat="46.54971" lon="0.34863">
        <ele>116.2</ele>
        <time>2024-01-14T09:20:20Z</time>
      </trkpt>
      <trkpt lat="46.54999" lon="0.34849">
        <ele>115.4</ele>
        <time>2024-01-14T09:20:25Z</time>
      </trkpt>
      <trkpt lat="46.5503" lon="0.34828">
        <ele>114.6</ele>
        <time>2024-01-14T09:20:30Z</time>
      </trkpt>
      <trkpt lat="46.55037" lon="0.34823">
        <ele>114.4</ele>
        <time>2024-01-14T09:20:31Z</time>
      </trkpt>
      <trkpt lat="46.55061" lon="0.34799">
        <ele>113.4</ele>
        <time>2024-01-14T09:20:35Z</time>
      </trkpt>
      <trkpt lat="46.55066" lon="0.34794">
        <ele>113.4</ele>
        <time>2024-01-14T09:20:36Z</time>
      </trkpt>
      <trkpt lat="46.5508" lon="0.34778">
        <ele>112.4</ele>
        <time>2024-01-14T09:20:39Z</time>
      </trkpt>
      <trkpt lat="46.55084" lon="0.34773">
        <ele>112.2</ele>
        <time>2024-01-14T09:20:40Z</time>
      </trkpt>
      <trkpt lat="46.55086" lon="0.34767">
        <ele>111.8</ele>
        <time>2024-01-14T09:20:41Z</time>
      </trkpt>
      <trkpt lat="46.55086" lon="0.34763">
        <ele>111.6</ele>
        <time>2024-01-14T09:20:42Z</time>
      </trkpt>
      <trkpt lat="46.55087" lon="0.3476">
        <ele>111.4</ele>
        <time>2024-01-14T09:20:43Z</time>
      </trkpt>
      <trkpt lat="46.55087" lon="0.34754">
        <ele>111</ele>
        <time>2024-01-14T09:20:45Z</time>
      </trkpt>
      <trkpt lat="46.55085" lon="0.34738">
        <ele>110.6</ele>
        <time>2024-01-14T09:20:50Z</time>
      </trkpt>
      <trkpt lat="46.55084" lon="0.34727">
        <ele>110.6</ele>
        <time>2024-01-14T09:20:53Z</time>
      </trkpt>
      <trkpt lat="46.55083" lon="0.34719">
        <ele>110.4</ele>
        <time>2024-01-14T09:20:55Z</time>
      </trkpt>
      <trkpt lat="46.55083" lon="0.34715">
        <ele>110</ele>
        <time>2024-01-14T09:20:56Z</time>
      </trkpt>
      <trkpt lat="46.55083" lon="0.34711">
        <ele>109.8</ele>
        <time>2024-01-14T09:20:57Z</time>
      </trkpt>
      <trkpt lat="46.55085" lon="0.34705">
        <ele>109.4</ele>
        <time>2024-01-14T09:20:58Z</time>
      </trkpt>
      <trkpt lat="46.55088" lon="0.34698">
        <ele>109</ele>
        <time>2024-01-14T09:20:59Z</time>
      </trkpt>
      <trkpt lat="46.55092" lon="0.34681">
        <ele>107.8</ele>
        <time>2024-01-14T09:21:01Z</time>
      </trkpt>
      <trkpt lat="46.55097" lon="0.34665">
        <ele>106.6</ele>
        <time>2024-01-14T09:21:03Z</time>
      </trkpt>
      <trkpt lat="46.551" lon="0.34658">
        <ele>105.8</ele>
        <time>2024-01-14T09:21:04Z</time>
      </trkpt>
      <trkpt lat="46.55103" lon="0.34651">
        <ele>105.2</ele>
        <time>2024-01-14T09:21:05Z</time>
      </trkpt>
      <trkpt lat="46.55107" lon="0.34645">
        <ele>104.8</ele>
        <time>2024-01-14T09:21:06Z</time>
      </trkpt>
      <trkpt lat="46.55108" lon="0.34639">
        <ele>103.8</ele>
        <time>2024-01-14T09:21:07Z</time>
      </trkpt>
      <trkpt lat="46.55109" lon="0.34632">
        <ele>103.4</ele>
        <time>2024-01-14T09:21:08Z</time>
      </trkpt>
      <trkpt lat="46.5511" lon="0.34625">
        <ele>102.4</ele>
        <time>2024-01-14T09:21:09Z</time>
      </trkpt>
      <trkpt lat="46.55108" lon="0.3462">
        <ele>101.6</ele>
        <time>2024-01-14T09:21:10Z</time>
      </trkpt>
      <trkpt lat="46.55106" lon="0.34613">
        <ele>100.4</ele>
        <time>2024-01-14T09:21:11Z</time>
      </trkpt>
      <trkpt lat="46.55101" lon="0.34601">
        <ele>97.8</ele>
        <time>2024-01-14T09:21:13Z</time>
      </trkpt>
      <trkpt lat="46.55096" lon="0.34594">
        <ele>96.2</ele>
        <time>2024-01-14T09:21:14Z</time>
      </trkpt>
      <trkpt lat="46.5509" lon="0.34586">
        <ele>94.4</ele>
        <time>2024-01-14T09:21:15Z</time>
      </trkpt>
      <trkpt lat="46.55084" lon="0.34578">
        <ele>93.2</ele>
        <time>2024-01-14T09:21:16Z</time>
      </trkpt>
      <trkpt lat="46.55077" lon="0.34568">
        <ele>91.8</ele>
        <time>2024-01-14T09:21:17Z</time>
      </trkpt>
      <trkpt lat="46.55068" lon="0.34558">
        <ele>90.2</ele>
        <time>2024-01-14T09:21:18Z</time>
      </trkpt>
      <trkpt lat="46.5506" lon="0.34547">
        <ele>89.4</ele>
        <time>2024-01-14T09:21:19Z</time>
      </trkpt>
      <trkpt lat="46.55052" lon="0.34538">
        <ele>87.4</ele>
        <time>2024-01-14T09:21:20Z</time>
      </trkpt>
      <trkpt lat="46.55044" lon="0.34529">
        <ele>86.2</ele>
        <time>2024-01-14T09:21:21Z</time>
      </trkpt>
      <trkpt lat="46.55035" lon="0.34517">
        <ele>84.4</ele>
        <time>2024-01-14T09:21:23Z</time>
      </trkpt>
      <trkpt lat="46.55029" lon="0.3451">
        <ele>82.6</ele>
        <time>2024-01-14T09:21:25Z</time>
      </trkpt>
      <trkpt lat="46.55025" lon="0.345">
        <ele>81.4</ele>
        <time>2024-01-14T09:21:27Z</time>
      </trkpt>
      <trkpt lat="46.55018" lon="0.34489">
        <ele>80.8</ele>
        <time>2024-01-14T09:21:29Z</time>
      </trkpt>
      <trkpt lat="46.55016" lon="0.3448">
        <ele>80.4</ele>
        <time>2024-01-14T09:21:31Z</time>
      </trkpt>
      <trkpt lat="46.55017" lon="0.34477">
        <ele>79.6</ele>
        <time>2024-01-14T09:21:32Z</time>
      </trkpt>
      <trkpt lat="46.55018" lon="0.34472">
        <ele>78.6</ele>
        <time>2024-01-14T09:21:34Z</time>
      </trkpt>
      <trkpt lat="46.5502" lon="0.3447">
        <ele>78.2</ele>
        <time>2024-01-14T09:21:35Z</time>
      </trkpt>
      <trkpt lat="46.55028" lon="0.34467">
        <ele>77</ele>
        <time>2024-01-14T09:21:37Z</time>
      </trkpt>
      <trkpt lat="46.55032" lon="0.34465">
        <ele>76.6</ele>
        <time>2024-01-14T09:21:38Z</time>
      </trkpt>
      <trkpt lat="46.55038" lon="0.34462">
        <ele>76</ele>
        <time>2024-01-14T09:21:39Z</time>
      </trkpt>
      <trkpt lat="46.55043" lon="0.34457">
        <ele>75.6</ele>
        <time>2024-01-14T09:21:40Z</time>
      </trkpt>
      <trkpt lat="46.55047" lon="0.34452">
        <ele>74.4</ele>
        <time>2024-01-14T09:21:41Z</time>
      </trkpt>
      <trkpt lat="46.55049" lon="0.34444">
        <ele>72.8</ele>
        <time>2024-01-14T09:21:42Z</time>
      </trkpt>
      <trkpt lat="46.55051" lon="0.34436">
        <ele>71.6</ele>
        <time>2024-01-14T09:21:43Z</time>
      </trkpt>
      <trkpt lat="46.55055" lon="0.3442">
        <ele>70</ele>
        <time>2024-01-14T09:21:45Z</time>
      </trkpt>
      <trkpt lat="46.55056" lon="0.34413">
        <ele>69.4</ele>
        <time>2024-01-14T09:21:46Z</time>
      </trkpt>
      <trkpt lat="46.55057" lon="0.34407">
        <ele>69</ele>
        <time>2024-01-14T09:21:47Z</time>
      </trkpt>
      <trkpt lat="46.55056" lon="0.34404">
        <ele>68.8</ele>
        <time>2024-01-14T09:21:48Z</time>
      </trkpt>
      <trkpt lat="46.55054" lon="0.34403">
        <ele>68.6</ele>
        <time>2024-01-14T09:21:49Z</time>
      </trkpt>
      <trkpt lat="46.55051" lon="0.34396">
        <ele>68.4</ele>
        <time>2024-01-14T09:21:53Z</time>
      </trkpt>
      <trkpt lat="46.55051" lon="0.34392">
        <ele>67.8</ele>
        <time>2024-01-14T09:21:56Z</time>
      </trkpt>
      <trkpt lat="46.5505" lon="0.34387">
        <ele>68</ele>
        <time>2024-01-14T09:22:04Z</time>
      </trkpt>
      <trkpt lat="46.5505" lon="0.34377">
        <ele>68.4</ele>
        <time>2024-01-14T09:22:12Z</time>
      </trkpt>
      <trkpt lat="46.55049" lon="0.34374">
        <ele>68.6</ele>
        <time>2024-01-14T09:22:16Z</time>
      </trkpt>
      <trkpt lat="46.5505" lon="0.34368">
        <ele>68.4</ele>
        <time>2024-01-14T09:22:30Z</time>
      </trkpt>
      <trkpt lat="46.55052" lon="0.34366">
        <ele>68.6</ele>
        <time>2024-01-14T09:22:39Z</time>
      </trkpt>
      <trkpt lat="46.55052" lon="0.3436">
        <ele>68.8</ele>
        <time>2024-01-14T09:22:55Z</time>
      </trkpt>
      <trkpt lat="46.55052" lon="0.34358">
        <ele>68.8</ele>
        <time>2024-01-14T09:22:56Z</time>
      </trkpt>
      <trkpt lat="46.55049" lon="0.34355">
        <ele>68.8</ele>
        <time>2024-01-14T09:22:59Z</time>
      </trkpt>
      <trkpt lat="46.55048" lon="0.34354">
        <ele>68.8</ele>
        <time>2024-01-14T09:23:00Z</time>
      </trkpt>
      <trkpt lat="46.55047" lon="0.34349">
        <ele>69.4</ele>
        <time>2024-01-14T09:23:04Z</time>
      </trkpt>
      <trkpt lat="46.55052" lon="0.3435">
        <ele>70</ele>
        <time>2024-01-14T09:23:08Z</time>
      </trkpt>
      <trkpt lat="46.55056" lon="0.34351">
        <ele>70.2</ele>
        <time>2024-01-14T09:23:10Z</time>
      </trkpt>
      <trkpt lat="46.55067" lon="0.34352">
        <ele>71</ele>
        <time>2024-01-14T09:23:16Z</time>
      </trkpt>
      <trkpt lat="46.55069" lon="0.34352">
        <ele>71.2</ele>
        <time>2024-01-14T09:23:17Z</time>
      </trkpt>
      <trkpt lat="46.55078" lon="0.34355">
        <ele>71.6</ele>
        <time>2024-01-14T09:23:23Z</time>
      </trkpt>
      <trkpt lat="46.55087" lon="0.34361">
        <ele>72</ele>
        <time>2024-01-14T09:23:29Z</time>
      </trkpt>
      <trkpt lat="46.55112" lon="0.34374">
        <ele>72</ele>
        <time>2024-01-14T09:23:37Z</time>
      </trkpt>
      <trkpt lat="46.55136" lon="0.34379">
        <ele>72.2</ele>
        <time>2024-01-14T09:23:44Z</time>
      </trkpt>
      <trkpt lat="46.55161" lon="0.34384">
        <ele>72.4</ele>
        <time>2024-01-14T09:23:52Z</time>
      </trkpt>
      <trkpt lat="46.55167" lon="0.34387">
        <ele>72.4</ele>
        <time>2024-01-14T09:23:54Z</time>
      </trkpt>
      <trkpt lat="46.55171" lon="0.34386">
        <ele>72.2</ele>
        <time>2024-01-14T09:23:56Z</time>
      </trkpt>
      <trkpt lat="46.55171" lon="0.34384">
        <ele>72.2</ele>
        <time>2024-01-14T09:23:57Z</time>
      </trkpt>
      <trkpt lat="46.55171" lon="0.34382">
        <ele>72.4</ele>
        <time>2024-01-14T09:23:59Z</time>
      </trkpt>
      <trkpt lat="46.55169" lon="0.3438">
        <ele>72.6</ele>
        <time>2024-01-14T09:24:01Z</time>
      </trkpt>
      <trkpt lat="46.55166" lon="0.34379">
        <ele>73.2</ele>
        <time>2024-01-14T09:24:03Z</time>
      </trkpt>
      <trkpt lat="46.55158" lon="0.34375">
        <ele>73.8</ele>
        <time>2024-01-14T09:24:07Z</time>
      </trkpt>
      <trkpt lat="46.55155" lon="0.34373">
        <ele>74.6</ele>
        <time>2024-01-14T09:24:09Z</time>
      </trkpt>
      <trkpt lat="46.55148" lon="0.34369">
        <ele>75.8</ele>
        <time>2024-01-14T09:24:13Z</time>
      </trkpt>
      <trkpt lat="46.55139" lon="0.34365">
        <ele>77</ele>
        <time>2024-01-14T09:24:17Z</time>
      </trkpt>
      <trkpt lat="46.55132" lon="0.34363">
        <ele>77.6</ele>
        <time>2024-01-14T09:24:20Z</time>
      </trkpt>
      <trkpt lat="46.55123" lon="0.34356">
        <ele>78</ele>
        <time>2024-01-14T09:24:24Z</time>
      </trkpt>
      <trkpt lat="46.55117" lon="0.34351">
        <ele>78.4</ele>
        <time>2024-01-14T09:24:27Z</time>
      </trkpt>
      <trkpt lat="46.55109" lon="0.34346">
        <ele>79.2</ele>
        <time>2024-01-14T09:24:31Z</time>
      </trkpt>
      <trkpt lat="46.55103" lon="0.34342">
        <ele>80</ele>
        <time>2024-01-14T09:24:34Z</time>
      </trkpt>
      <trkpt lat="46.551" lon="0.34338">
        <ele>80.2</ele>
        <time>2024-01-14T09:24:36Z</time>
      </trkpt>
      <trkpt lat="46.55092" lon="0.34329">
        <ele>81.2</ele>
        <time>2024-01-14T09:24:41Z</time>
      </trkpt>
      <trkpt lat="46.55093" lon="0.34328">
        <ele>81.4</ele>
        <time>2024-01-14T09:24:42Z</time>
      </trkpt>
      <trkpt lat="46.55094" lon="0.34325">
        <ele>82.4</ele>
        <time>2024-01-14T09:24:46Z</time>
      </trkpt>
      <trkpt lat="46.55095" lon="0.34324">
        <ele>83.6</ele>
        <time>2024-01-14T09:24:49Z</time>
      </trkpt>
      <trkpt lat="46.55097" lon="0.34323">
        <ele>85</ele>
        <time>2024-01-14T09:24:53Z</time>
      </trkpt>
      <trkpt lat="46.551" lon="0.34322">
        <ele>85.8</ele>
        <time>2024-01-14T09:24:56Z</time>
      </trkpt>
      <trkpt lat="46.55101" lon="0.34321">
        <ele>86.2</ele>
        <time>2024-01-14T09:24:57Z</time>
      </trkpt>
      <trkpt lat="46.55104" lon="0.3432">
        <ele>87.2</ele>
        <time>2024-01-14T09:25:00Z</time>
      </trkpt>
      <trkpt lat="46.55105" lon="0.3432">
        <ele>87.4</ele>
        <time>2024-01-14T09:25:01Z</time>
      </trkpt>
      <trkpt lat="46.55108" lon="0.34319">
        <ele>88.4</ele>
        <time>2024-01-14T09:25:04Z</time>
      </trkpt>
      <trkpt lat="46.55113" lon="0.34315">
        <ele>89.6</ele>
        <time>2024-01-14T09:25:09Z</time>
      </trkpt>
      <trkpt lat="46.5512" lon="0.3431">
        <ele>91</ele>
        <time>2024-01-14T09:25:15Z</time>
      </trkpt>
      <trkpt lat="46.55123" lon="0.34308">
        <ele>92.2</ele>
        <time>2024-01-14T09:25:18Z</time>
      </trkpt>
      <trkpt lat="46.55131" lon="0.34307">
        <ele>93.4</ele>
        <time>2024-01-14T09:25:23Z</time>
      </trkpt>
      <trkpt lat="46.55137" lon="0.3431">
        <ele>93.6</ele>
        <time>2024-01-14T09:25:26Z</time>
      </trkpt>
      <trkpt lat="46.55148" lon="0.3432">
        <ele>93.8</ele>
        <time>2024-01-14T09:25:31Z</time>
      </trkpt>
      <trkpt lat="46.5517" lon="0.34326">
        <ele>94.2</ele>
        <time>2024-01-14T09:25:38Z</time>
      </trkpt>
      <trkpt lat="46.55181" lon="0.34328">
        <ele>94.4</ele>
        <time>2024-01-14T09:25:41Z</time>
      </trkpt>
      <trkpt lat="46.55187" lon="0.3433">
        <ele>94.6</ele>
        <time>2024-01-14T09:25:43Z</time>
      </trkpt>
      <trkpt lat="46.5519" lon="0.34331">
        <ele>94.6</ele>
        <time>2024-01-14T09:25:44Z</time>
      </trkpt>
      <trkpt lat="46.55197" lon="0.34333">
        <ele>94.8</ele>
        <time>2024-01-14T09:25:46Z</time>
      </trkpt>
      <trkpt lat="46.55204" lon="0.34334">
        <ele>95</ele>
        <time>2024-01-14T09:25:48Z</time>
      </trkpt>
      <trkpt lat="46.55214" lon="0.34335">
        <ele>95.4</ele>
        <time>2024-01-14T09:25:51Z</time>
      </trkpt>
      <trkpt lat="46.55231" lon="0.34336">
        <ele>96</ele>
        <time>2024-01-14T09:25:56Z</time>
      </trkpt>
      <trkpt lat="46.55238" lon="0.34336">
        <ele>96.4</ele>
        <time>2024-01-14T09:25:58Z</time>
      </trkpt>
      <trkpt lat="46.55258" lon="0.34339">
        <ele>97.6</ele>
        <time>2024-01-14T09:26:04Z</time>
      </trkpt>
      <trkpt lat="46.55268" lon="0.3434">
        <ele>98.6</ele>
        <time>2024-01-14T09:26:08Z</time>
      </trkpt>
      <trkpt lat="46.55272" lon="0.34339">
        <ele>99.2</ele>
        <time>2024-01-14T09:26:10Z</time>
      </trkpt>
      <trkpt lat="46.55277" lon="0.34339">
        <ele>99.6</ele>
        <time>2024-01-14T09:26:12Z</time>
      </trkpt>
      <trkpt lat="46.5529" lon="0.34341">
        <ele>100.8</ele>
        <time>2024-01-14T09:26:17Z</time>
      </trkpt>
      <trkpt lat="46.55301" lon="0.34342">
        <ele>102</ele>
        <time>2024-01-14T09:26:21Z</time>
      </trkpt>
      <trkpt lat="46.55309" lon="0.34343">
        <ele>102.6</ele>
        <time>2024-01-14T09:26:24Z</time>
      </trkpt>
      <trkpt lat="46.55311" lon="0.34343">
        <ele>103</ele>
        <time>2024-01-14T09:26:25Z</time>
      </trkpt>
      <trkpt lat="46.55325" lon="0.34343">
        <ele>104.2</ele>
        <time>2024-01-14T09:26:30Z</time>
      </trkpt>
      <trkpt lat="46.55327" lon="0.34344">
        <ele>104.2</ele>
        <time>2024-01-14T09:26:31Z</time>
      </trkpt>
      <trkpt lat="46.55339" lon="0.34343">
        <ele>104.6</ele>
        <time>2024-01-14T09:26:36Z</time>
      </trkpt>
      <trkpt lat="46.55361" lon="0.34339">
        <ele>103.8</ele>
        <time>2024-01-14T09:26:41Z</time>
      </trkpt>
      <trkpt lat="46.55384" lon="0.34327">
        <ele>103.4</ele>
        <time>2024-01-14T09:26:46Z</time>
      </trkpt>
      <trkpt lat="46.55399" lon="0.34318">
        <ele>104.6</ele>
        <time>2024-01-14T09:26:51Z</time>
      </trkpt>
      <trkpt lat="46.55405" lon="0.34316">
        <ele>105.2</ele>
        <time>2024-01-14T09:26:53Z</time>
      </trkpt>
      <trkpt lat="46.55421" lon="0.34314">
        <ele>106.4</ele>
        <time>2024-01-14T09:26:57Z</time>
      </trkpt>
      <trkpt lat="46.55431" lon="0.34316">
        <ele>106.4</ele>
        <time>2024-01-14T09:27:02Z</time>
      </trkpt>
      <trkpt lat="46.55432" lon="0.34316">
        <ele>106.4</ele>
        <time>2024-01-14T09:27:03Z</time>
      </trkpt>
      <trkpt lat="46.55445" lon="0.34316">
        <ele>106</ele>
        <time>2024-01-14T09:27:11Z</time>
      </trkpt>
      <trkpt lat="46.55462" lon="0.34316">
        <ele>106.8</ele>
        <time>2024-01-14T09:27:16Z</time>
      </trkpt>
      <trkpt lat="46.55479" lon="0.34317">
        <ele>107.4</ele>
        <time>2024-01-14T09:27:21Z</time>
      </trkpt>
      <trkpt lat="46.55481" lon="0.34316">
        <ele>107.6</ele>
        <time>2024-01-14T09:27:22Z</time>
      </trkpt>
      <trkpt lat="46.55484" lon="0.34314">
        <ele>108</ele>
        <time>2024-01-14T09:27:24Z</time>
      </trkpt>
      <trkpt lat="46.55483" lon="0.34311">
        <ele>108.4</ele>
        <time>2024-01-14T09:27:26Z</time>
      </trkpt>
      <trkpt lat="46.55482" lon="0.3431">
        <ele>108.4</ele>
        <time>2024-01-14T09:27:27Z</time>
      </trkpt>
      <trkpt lat="46.55478" lon="0.34304">
        <ele>109.4</ele>
        <time>2024-01-14T09:27:31Z</time>
      </trkpt>
      <trkpt lat="46.55478" lon="0.34302">
        <ele>109.6</ele>
        <time>2024-01-14T09:27:32Z</time>
      </trkpt>
      <trkpt lat="46.55471" lon="0.34288">
        <ele>110.6</ele>
        <time>2024-01-14T09:27:37Z</time>
      </trkpt>
      <trkpt lat="46.55469" lon="0.34285">
        <ele>110.6</ele>
        <time>2024-01-14T09:27:38Z</time>
      </trkpt>
      <trkpt lat="46.55466" lon="0.34276">
        <ele>111.8</ele>
        <time>2024-01-14T09:27:41Z</time>
      </trkpt>
      <trkpt lat="46.55462" lon="0.34268">
        <ele>112.8</ele>
        <time>2024-01-14T09:27:44Z</time>
      </trkpt>
      <trkpt lat="46.55461" lon="0.34264">
        <ele>113</ele>
        <time>2024-01-14T09:27:45Z</time>
      </trkpt>
      <trkpt lat="46.55458" lon="0.34245">
        <ele>113.8</ele>
        <time>2024-01-14T09:27:50Z</time>
      </trkpt>
      <trkpt lat="46.55459" lon="0.34238">
        <ele>114</ele>
        <time>2024-01-14T09:27:52Z</time>
      </trkpt>
      <trkpt lat="46.55464" lon="0.34235">
        <ele>114.4</ele>
        <time>2024-01-14T09:27:54Z</time>
      </trkpt>
      <trkpt lat="46.5548" lon="0.34233">
        <ele>115.2</ele>
        <time>2024-01-14T09:28:00Z</time>
      </trkpt>
      <trkpt lat="46.55509" lon="0.34227">
        <ele>116.2</ele>
        <time>2024-01-14T09:28:08Z</time>
      </trkpt>
      <trkpt lat="46.55542" lon="0.34222">
        <ele>116.4</ele>
        <time>2024-01-14T09:28:16Z</time>
      </trkpt>
      <trkpt lat="46.55566" lon="0.34219">
        <ele>116.6</ele>
        <time>2024-01-14T09:28:23Z</time>
      </trkpt>
      <trkpt lat="46.55596" lon="0.34215">
        <ele>116.6</ele>
        <time>2024-01-14T09:28:31Z</time>
      </trkpt>
      <trkpt lat="46.5562" lon="0.34215">
        <ele>117.2</ele>
        <time>2024-01-14T09:28:37Z</time>
      </trkpt>
      <trkpt lat="46.55624" lon="0.34216">
        <ele>117.2</ele>
        <time>2024-01-14T09:28:38Z</time>
      </trkpt>
      <trkpt lat="46.55633" lon="0.34218">
        <ele>117.2</ele>
        <time>2024-01-14T09:28:40Z</time>
      </trkpt>
      <trkpt lat="46.55662" lon="0.34224">
        <ele>117.6</ele>
        <time>2024-01-14T09:28:46Z</time>
      </trkpt>
      <trkpt lat="46.55667" lon="0.34226">
        <ele>117.6</ele>
        <time>2024-01-14T09:28:47Z</time>
      </trkpt>
      <trkpt lat="46.55671" lon="0.3423">
        <ele>117.6</ele>
        <time>2024-01-14T09:28:48Z</time>
      </trkpt>
      <trkpt lat="46.55678" lon="0.3424">
        <ele>117.6</ele>
        <time>2024-01-14T09:28:50Z</time>
      </trkpt>
      <trkpt lat="46.55681" lon="0.34245">
        <ele>117.8</ele>
        <time>2024-01-14T09:28:51Z</time>
      </trkpt>
      <trkpt lat="46.55688" lon="0.34255">
        <ele>118</ele>
        <time>2024-01-14T09:28:53Z</time>
      </trkpt>
      <trkpt lat="46.55696" lon="0.3426">
        <ele>118.2</ele>
        <time>2024-01-14T09:28:55Z</time>
      </trkpt>
      <trkpt lat="46.5571" lon="0.34258">
        <ele>118.2</ele>
        <time>2024-01-14T09:28:58Z</time>
      </trkpt>
      <trkpt lat="46.55714" lon="0.34256">
        <ele>118.2</ele>
        <time>2024-01-14T09:28:59Z</time>
      </trkpt>
      <trkpt lat="46.55727" lon="0.34249">
        <ele>117.8</ele>
        <time>2024-01-14T09:29:02Z</time>
      </trkpt>
      <trkpt lat="46.55736" lon="0.34247">
        <ele>117.6</ele>
        <time>2024-01-14T09:29:04Z</time>
      </trkpt>
      <trkpt lat="46.55741" lon="0.34248">
        <ele>117.6</ele>
        <time>2024-01-14T09:29:05Z</time>
      </trkpt>
      <trkpt lat="46.55774" lon="0.34254">
        <ele>117.8</ele>
        <time>2024-01-14T09:29:12Z</time>
      </trkpt>
      <trkpt lat="46.55794" lon="0.34258">
        <ele>118.4</ele>
        <time>2024-01-14T09:29:16Z</time>
      </trkpt>
      <trkpt lat="46.55814" lon="0.34261">
        <ele>118.4</ele>
        <time>2024-01-14T09:29:20Z</time>
      </trkpt>
      <trkpt lat="46.55822" lon="0.34263">
        <ele>118.4</ele>
        <time>2024-01-14T09:29:22Z</time>
      </trkpt>
      <trkpt lat="46.55827" lon="0.34269">
        <ele>117.8</ele>
        <time>2024-01-14T09:29:24Z</time>
      </trkpt>
      <trkpt lat="46.55828" lon="0.34277">
        <ele>117.6</ele>
        <time>2024-01-14T09:29:26Z</time>
      </trkpt>
      <trkpt lat="46.55827" lon="0.34284">
        <ele>117.6</ele>
        <time>2024-01-14T09:29:28Z</time>
      </trkpt>
      <trkpt lat="46.55825" lon="0.34306">
        <ele>118.4</ele>
        <time>2024-01-14T09:29:33Z</time>
      </trkpt>
      <trkpt lat="46.55819" lon="0.34323">
        <ele>120.2</ele>
        <time>2024-01-14T09:29:37Z</time>
      </trkpt>
      <trkpt lat="46.55819" lon="0.34327">
        <ele>120.2</ele>
        <time>2024-01-14T09:29:38Z</time>
      </trkpt>
      <trkpt lat="46.55817" lon="0.34334">
        <ele>119.8</ele>
        <time>2024-01-14T09:29:42Z</time>
      </trkpt>
      <trkpt lat="46.55816" lon="0.34335">
        <ele>119.8</ele>
        <time>2024-01-14T09:29:53Z</time>
      </trkpt>
      <trkpt lat="46.55816" lon="0.34336">
        <ele>119.6</ele>
        <time>2024-01-14T09:30:09Z</time>
      </trkpt>
      <trkpt lat="46.55816" lon="0.34337">
        <ele>119.4</ele>
        <time>2024-01-14T09:30:26Z</time>
      </trkpt>
      <trkpt lat="46.55816" lon="0.34337">
        <ele>119.2</ele>
        <time>2024-01-14T09:30:29Z</time>
      </trkpt>
      <trkpt lat="46.55816" lon="0.34338">
        <ele>119</ele>
        <time>2024-01-14T09:30:43Z</time>
      </trkpt>
      <trkpt lat="46.55816" lon="0.34338">
        <ele>118.8</ele>
        <time>2024-01-14T09:31:01Z</time>
      </trkpt>
      <trkpt lat="46.55816" lon="0.34338">
        <ele>118.8</ele>
        <time>2024-01-14T09:31:10Z</time>
      </trkpt>
      <trkpt lat="46.55816" lon="0.34338">
        <ele>118.8</ele>
        <time>2024-01-14T09:31:32Z</time>
      </trkpt>
      <trkpt lat="46.55818" lon="0.34338">
        <ele>118.8</ele>
        <time>2024-01-14T09:31:50Z</time>
      </trkpt>
      <trkpt lat="46.55818" lon="0.34337">
        <ele>118.8</ele>
        <time>2024-01-14T09:31:52Z</time>
      </trkpt>
      <trkpt lat="46.55819" lon="0.34337">
        <ele>118.8</ele>
        <time>2024-01-14T09:31:55Z</time>
      </trkpt>
      <trkpt lat="46.55819" lon="0.34337">
        <ele>118.8</ele>
        <time>2024-01-14T09:31:56Z</time>
      </trkpt>
      <trkpt lat="46.55822" lon="0.34339">
        <ele>118.8</ele>
        <time>2024-01-14T09:32:05Z</time>
      </trkpt>
      <trkpt lat="46.55822" lon="0.34339">
        <ele>118.8</ele>
        <time>2024-01-14T09:32:21Z</time>
      </trkpt>
      <trkpt lat="46.55822" lon="0.34339">
        <ele>118.8</ele>
        <time>2024-01-14T09:32:50Z</time>
      </trkpt>
      <trkpt lat="46.55822" lon="0.34339">
        <ele>119</ele>
        <time>2024-01-14T09:34:09Z</time>
      </trkpt>
      <trkpt lat="46.55823" lon="0.34339">
        <ele>119</ele>
        <time>2024-01-14T09:34:29Z</time>
      </trkpt>
      <trkpt lat="46.55822" lon="0.3434">
        <ele>119</ele>
        <time>2024-01-14T09:36:06Z</time>
      </trkpt>
      <trkpt lat="46.55822" lon="0.3434">
        <ele>119</ele>
        <time>2024-01-14T09:36:45Z</time>
      </trkpt>
      <trkpt lat="46.55822" lon="0.3434">
        <ele>119</ele>
        <time>2024-01-14T09:37:20Z</time>
      </trkpt>
      <trkpt lat="46.55822" lon="0.3434">
        <ele>119</ele>
        <time>2024-01-14T09:38:14Z</time>
      </trkpt>
      <trkpt lat="46.55822" lon="0.3434">
        <ele>119</ele>
        <time>2024-01-14T09:38:19Z</time>
      </trkpt>
      <trkpt lat="46.55822" lon="0.3434">
        <ele>119</ele>
        <time>2024-01-14T09:38:44Z</time>
      </trkpt>
      <trkpt lat="46.55823" lon="0.34337">
        <ele>119</ele>
        <time>2024-01-14T09:38:55Z</time>
      </trkpt>
      <trkpt lat="46.5582" lon="0.34326">
        <ele>119</ele>
        <time>2024-01-14T09:39:03Z</time>
      </trkpt>
      <trkpt lat="46.55823" lon="0.34306">
        <ele>119</ele>
        <time>2024-01-14T09:39:08Z</time>
      </trkpt>
      <trkpt lat="46.55823" lon="0.34294">
        <ele>119</ele>
        <time>2024-01-14T09:39:12Z</time>
      </trkpt>
      <trkpt lat="46.55823" lon="0.34291">
        <ele>119</ele>
        <time>2024-01-14T09:39:13Z</time>
      </trkpt>
      <trkpt lat="46.55826" lon="0.34278">
        <ele>119</ele>
        <time>2024-01-14T09:39:17Z</time>
      </trkpt>
      <trkpt lat="46.55829" lon="0.34273">
        <ele>118.8</ele>
        <time>2024-01-14T09:39:19Z</time>
      </trkpt>
      <trkpt lat="46.55835" lon="0.34272">
        <ele>118.6</ele>
        <time>2024-01-14T09:39:21Z</time>
      </trkpt>
      <trkpt lat="46.55857" lon="0.34274">
        <ele>118.4</ele>
        <time>2024-01-14T09:39:26Z</time>
      </trkpt>
      <trkpt lat="46.55878" lon="0.34276">
        <ele>118.2</ele>
        <time>2024-01-14T09:39:30Z</time>
      </trkpt>
      <trkpt lat="46.55896" lon="0.34277">
        <ele>117.8</ele>
        <time>2024-01-14T09:39:33Z</time>
      </trkpt>
      <trkpt lat="46.5594" lon="0.34283">
        <ele>117.6</ele>
        <time>2024-01-14T09:39:40Z</time>
      </trkpt>
      <trkpt lat="46.5599" lon="0.34291">
        <ele>117</ele>
        <time>2024-01-14T09:39:48Z</time>
      </trkpt>
      <trkpt lat="46.56008" lon="0.34294">
        <ele>116.6</ele>
        <time>2024-01-14T09:39:51Z</time>
      </trkpt>
      <trkpt lat="46.56016" lon="0.34293">
        <ele>116.4</ele>
        <time>2024-01-14T09:39:53Z</time>
      </trkpt>
      <trkpt lat="46.56019" lon="0.34292">
        <ele>116.4</ele>
        <time>2024-01-14T09:39:54Z</time>
      </trkpt>
      <trkpt lat="46.56022" lon="0.3429">
        <ele>116</ele>
        <time>2024-01-14T09:39:56Z</time>
      </trkpt>
      <trkpt lat="46.56028" lon="0.34284">
        <ele>115.8</ele>
        <time>2024-01-14T09:39:59Z</time>
      </trkpt>
      <trkpt lat="46.56031" lon="0.34283">
        <ele>115.8</ele>
        <time>2024-01-14T09:40:00Z</time>
      </trkpt>
      <trkpt lat="46.56038" lon="0.34283">
        <ele>115.6</ele>
        <time>2024-01-14T09:40:02Z</time>
      </trkpt>
      <trkpt lat="46.56051" lon="0.34286">
        <ele>115.6</ele>
        <time>2024-01-14T09:40:05Z</time>
      </trkpt>
      <trkpt lat="46.56071" lon="0.34289">
        <ele>115.4</ele>
        <time>2024-01-14T09:40:09Z</time>
      </trkpt>
      <trkpt lat="46.56081" lon="0.34289">
        <ele>115.4</ele>
        <time>2024-01-14T09:40:11Z</time>
      </trkpt>
      <trkpt lat="46.5609" lon="0.3429">
        <ele>115.2</ele>
        <time>2024-01-14T09:40:13Z</time>
      </trkpt>
      <trkpt lat="46.56094" lon="0.34284">
        <ele>114.8</ele>
        <time>2024-01-14T09:40:15Z</time>
      </trkpt>
      <trkpt lat="46.56094" lon="0.34279">
        <ele>114.6</ele>
        <time>2024-01-14T09:40:16Z</time>
      </trkpt>
      <trkpt lat="46.56093" lon="0.34268">
        <ele>114.4</ele>
        <time>2024-01-14T09:40:18Z</time>
      </trkpt>
      <trkpt lat="46.56091" lon="0.34216">
        <ele>113.8</ele>
        <time>2024-01-14T09:40:25Z</time>
      </trkpt>
      <trkpt lat="46.56086" lon="0.34146">
        <ele>113</ele>
        <time>2024-01-14T09:40:33Z</time>
      </trkpt>
      <trkpt lat="46.56082" lon="0.34114">
        <ele>113</ele>
        <time>2024-01-14T09:40:37Z</time>
      </trkpt>
      <trkpt lat="46.56079" lon="0.34108">
        <ele>113.2</ele>
        <time>2024-01-14T09:40:38Z</time>
      </trkpt>
      <trkpt lat="46.56076" lon="0.34104">
        <ele>113.4</ele>
        <time>2024-01-14T09:40:39Z</time>
      </trkpt>
      <trkpt lat="46.56068" lon="0.34099">
        <ele>113.4</ele>
        <time>2024-01-14T09:40:41Z</time>
      </trkpt>
      <trkpt lat="46.56063" lon="0.34097">
        <ele>113.6</ele>
        <time>2024-01-14T09:40:42Z</time>
      </trkpt>
      <trkpt lat="46.56058" lon="0.34096">
        <ele>113.8</ele>
        <time>2024-01-14T09:40:43Z</time>
      </trkpt>
      <trkpt lat="46.56048" lon="0.34095">
        <ele>114</ele>
        <time>2024-01-14T09:40:45Z</time>
      </trkpt>
      <trkpt lat="46.56033" lon="0.34097">
        <ele>114.2</ele>
        <time>2024-01-14T09:40:48Z</time>
      </trkpt>
      <trkpt lat="46.56024" lon="0.34096">
        <ele>114.2</ele>
        <time>2024-01-14T09:40:50Z</time>
      </trkpt>
      <trkpt lat="46.56012" lon="0.34093">
        <ele>114.6</ele>
        <time>2024-01-14T09:40:53Z</time>
      </trkpt>
      <trkpt lat="46.55998" lon="0.34089">
        <ele>115</ele>
        <time>2024-01-14T09:40:56Z</time>
      </trkpt>
      <trkpt lat="46.55984" lon="0.34085">
        <ele>114.8</ele>
        <time>2024-01-14T09:40:59Z</time>
      </trkpt>
      <trkpt lat="46.55967" lon="0.34077">
        <ele>114.8</ele>
        <time>2024-01-14T09:41:03Z</time>
      </trkpt>
      <trkpt lat="46.55963" lon="0.34076">
        <ele>114.8</ele>
        <time>2024-01-14T09:41:04Z</time>
      </trkpt>
      <trkpt lat="46.55959" lon="0.34073">
        <ele>114.6</ele>
        <time>2024-01-14T09:41:07Z</time>
      </trkpt>
      <trkpt lat="46.55953" lon="0.34068">
        <ele>114.6</ele>
        <time>2024-01-14T09:41:23Z</time>
      </trkpt>
      <trkpt lat="46.55941" lon="0.34062">
        <ele>114.6</ele>
        <time>2024-01-14T09:41:28Z</time>
      </trkpt>
      <trkpt lat="46.55938" lon="0.3406">
        <ele>114.4</ele>
        <time>2024-01-14T09:41:29Z</time>
      </trkpt>
      <trkpt lat="46.55932" lon="0.34051">
        <ele>114.2</ele>
        <time>2024-01-14T09:41:31Z</time>
      </trkpt>
      <trkpt lat="46.55931" lon="0.34045">
        <ele>114</ele>
        <time>2024-01-14T09:41:32Z</time>
      </trkpt>
      <trkpt lat="46.5593" lon="0.3404">
        <ele>113.8</ele>
        <time>2024-01-14T09:41:33Z</time>
      </trkpt>
      <trkpt lat="46.55931" lon="0.34028">
        <ele>113.2</ele>
        <time>2024-01-14T09:41:35Z</time>
      </trkpt>
      <trkpt lat="46.55932" lon="0.34022">
        <ele>112.8</ele>
        <time>2024-01-14T09:41:36Z</time>
      </trkpt>
      <trkpt lat="46.55934" lon="0.34016">
        <ele>112.2</ele>
        <time>2024-01-14T09:41:37Z</time>
      </trkpt>
      <trkpt lat="46.5594" lon="0.33994">
        <ele>112</ele>
        <time>2024-01-14T09:41:41Z</time>
      </trkpt>
      <trkpt lat="46.55942" lon="0.33989">
        <ele>112.2</ele>
        <time>2024-01-14T09:41:42Z</time>
      </trkpt>
      <trkpt lat="46.5595" lon="0.33976">
        <ele>113.2</ele>
        <time>2024-01-14T09:41:46Z</time>
      </trkpt>
      <trkpt lat="46.55954" lon="0.33968">
        <ele>113.8</ele>
        <time>2024-01-14T09:41:48Z</time>
      </trkpt>
      <trkpt lat="46.55959" lon="0.33958">
        <ele>114.2</ele>
        <time>2024-01-14T09:41:50Z</time>
      </trkpt>
      <trkpt lat="46.55962" lon="0.33953">
        <ele>114.4</ele>
        <time>2024-01-14T09:41:51Z</time>
      </trkpt>
      <trkpt lat="46.55966" lon="0.3395">
        <ele>114.4</ele>
        <time>2024-01-14T09:41:52Z</time>
      </trkpt>
      <trkpt lat="46.55973" lon="0.33946">
        <ele>114.8</ele>
        <time>2024-01-14T09:41:54Z</time>
      </trkpt>
      <trkpt lat="46.55976" lon="0.33944">
        <ele>114.8</ele>
        <time>2024-01-14T09:41:55Z</time>
      </trkpt>
      <trkpt lat="46.55984" lon="0.33938">
        <ele>115</ele>
        <time>2024-01-14T09:41:57Z</time>
      </trkpt>
      <trkpt lat="46.55995" lon="0.33924">
        <ele>115</ele>
        <time>2024-01-14T09:42:00Z</time>
      </trkpt>
      <trkpt lat="46.56014" lon="0.3389">
        <ele>113.8</ele>
        <time>2024-01-14T09:42:05Z</time>
      </trkpt>
      <trkpt lat="46.5603" lon="0.33866">
        <ele>113.4</ele>
        <time>2024-01-14T09:42:09Z</time>
      </trkpt>
      <trkpt lat="46.56039" lon="0.33855">
        <ele>113.2</ele>
        <time>2024-01-14T09:42:11Z</time>
      </trkpt>
      <trkpt lat="46.56048" lon="0.33845">
        <ele>113</ele>
        <time>2024-01-14T09:42:13Z</time>
      </trkpt>
      <trkpt lat="46.56054" lon="0.33834">
        <ele>112.8</ele>
        <time>2024-01-14T09:42:15Z</time>
      </trkpt>
      <trkpt lat="46.56054" lon="0.33827">
        <ele>112.6</ele>
        <time>2024-01-14T09:42:17Z</time>
      </trkpt>
      <trkpt lat="46.56054" lon="0.33824">
        <ele>112.6</ele>
        <time>2024-01-14T09:42:18Z</time>
      </trkpt>
      <trkpt lat="46.56058" lon="0.33818">
        <ele>112.2</ele>
        <time>2024-01-14T09:42:20Z</time>
      </trkpt>
      <trkpt lat="46.56059" lon="0.33816">
        <ele>112</ele>
        <time>2024-01-14T09:42:21Z</time>
      </trkpt>
      <trkpt lat="46.56062" lon="0.33814">
        <ele>112</ele>
        <time>2024-01-14T09:42:22Z</time>
      </trkpt>
      <trkpt lat="46.56076" lon="0.33801">
        <ele>111.4</ele>
        <time>2024-01-14T09:42:28Z</time>
      </trkpt>
      <trkpt lat="46.56084" lon="0.3379">
        <ele>111</ele>
        <time>2024-01-14T09:42:31Z</time>
      </trkpt>
      <trkpt lat="46.56088" lon="0.33783">
        <ele>110.4</ele>
        <time>2024-01-14T09:42:33Z</time>
      </trkpt>
      <trkpt lat="46.56091" lon="0.3378">
        <ele>110.2</ele>
        <time>2024-01-14T09:42:34Z</time>
      </trkpt>
      <trkpt lat="46.56092" lon="0.33778">
        <ele>109.6</ele>
        <time>2024-01-14T09:42:35Z</time>
      </trkpt>
      <trkpt lat="46.56097" lon="0.33773">
        <ele>107.8</ele>
        <time>2024-01-14T09:42:37Z</time>
      </trkpt>
      <trkpt lat="46.56097" lon="0.33773">
        <ele>106.2</ele>
        <time>2024-01-14T09:42:38Z</time>
      </trkpt>
      <trkpt lat="46.56107" lon="0.33767">
        <ele>106</ele>
        <time>2024-01-14T09:42:40Z</time>
      </trkpt>
      <trkpt lat="46.56112" lon="0.3376">
        <ele>105.4</ele>
        <time>2024-01-14T09:42:43Z</time>
      </trkpt>
      <trkpt lat="46.56113" lon="0.33757">
        <ele>104.8</ele>
        <time>2024-01-14T09:42:44Z</time>
      </trkpt>
      <trkpt lat="46.56115" lon="0.33751">
        <ele>103.4</ele>
        <time>2024-01-14T09:42:46Z</time>
      </trkpt>
      <trkpt lat="46.56121" lon="0.33745">
        <ele>101.4</ele>
        <time>2024-01-14T09:42:49Z</time>
      </trkpt>
      <trkpt lat="46.56125" lon="0.33744">
        <ele>100.4</ele>
        <time>2024-01-14T09:42:50Z</time>
      </trkpt>
      <trkpt lat="46.56127" lon="0.33743">
        <ele>99.2</ele>
        <time>2024-01-14T09:42:51Z</time>
      </trkpt>
      <trkpt lat="46.56129" lon="0.33739">
        <ele>98.2</ele>
        <time>2024-01-14T09:42:53Z</time>
      </trkpt>
      <trkpt lat="46.56131" lon="0.33738">
        <ele>97.6</ele>
        <time>2024-01-14T09:42:54Z</time>
      </trkpt>
      <trkpt lat="46.56132" lon="0.33736">
        <ele>97</ele>
        <time>2024-01-14T09:42:55Z</time>
      </trkpt>
      <trkpt lat="46.56135" lon="0.33733">
        <ele>95.6</ele>
        <time>2024-01-14T09:42:57Z</time>
      </trkpt>
      <trkpt lat="46.56136" lon="0.3373">
        <ele>94.6</ele>
        <time>2024-01-14T09:42:59Z</time>
      </trkpt>
      <trkpt lat="46.56136" lon="0.33728">
        <ele>94</ele>
        <time>2024-01-14T09:43:00Z</time>
      </trkpt>
      <trkpt lat="46.56136" lon="0.33726">
        <ele>93.8</ele>
        <time>2024-01-14T09:43:01Z</time>
      </trkpt>
      <trkpt lat="46.56136" lon="0.33723">
        <ele>92.8</ele>
        <time>2024-01-14T09:43:02Z</time>
      </trkpt>
      <trkpt lat="46.56136" lon="0.33721">
        <ele>91.4</ele>
        <time>2024-01-14T09:43:03Z</time>
      </trkpt>
      <trkpt lat="46.56136" lon="0.33718">
        <ele>90.4</ele>
        <time>2024-01-14T09:43:04Z</time>
      </trkpt>
      <trkpt lat="46.56135" lon="0.33718">
        <ele>88.4</ele>
        <time>2024-01-14T09:43:05Z</time>
      </trkpt>
      <trkpt lat="46.56134" lon="0.33719">
        <ele>87.2</ele>
        <time>2024-01-14T09:43:06Z</time>
      </trkpt>
      <trkpt lat="46.56131" lon="0.3372">
        <ele>86</ele>
        <time>2024-01-14T09:43:08Z</time>
      </trkpt>
      <trkpt lat="46.56127" lon="0.33722">
        <ele>85.2</ele>
        <time>2024-01-14T09:43:11Z</time>
      </trkpt>
      <trkpt lat="46.56114" lon="0.33731">
        <ele>84.6</ele>
        <time>2024-01-14T09:43:17Z</time>
      </trkpt>
      <trkpt lat="46.56112" lon="0.33733">
        <ele>84.2</ele>
        <time>2024-01-14T09:43:18Z</time>
      </trkpt>
      <trkpt lat="46.56109" lon="0.33735">
        <ele>83</ele>
        <time>2024-01-14T09:43:19Z</time>
      </trkpt>
      <trkpt lat="46.56103" lon="0.3374">
        <ele>81.6</ele>
        <time>2024-01-14T09:43:21Z</time>
      </trkpt>
      <trkpt lat="46.561" lon="0.33742">
        <ele>80.2</ele>
        <time>2024-01-14T09:43:22Z</time>
      </trkpt>
      <trkpt lat="46.56094" lon="0.33743">
        <ele>78.6</ele>
        <time>2024-01-14T09:43:24Z</time>
      </trkpt>
      <trkpt lat="46.56091" lon="0.33743">
        <ele>77.8</ele>
        <time>2024-01-14T09:43:25Z</time>
      </trkpt>
      <trkpt lat="46.56088" lon="0.33744">
        <ele>76.8</ele>
        <time>2024-01-14T09:43:26Z</time>
      </trkpt>
      <trkpt lat="46.56082" lon="0.33747">
        <ele>75.4</ele>
        <time>2024-01-14T09:43:28Z</time>
      </trkpt>
      <trkpt lat="46.5608" lon="0.33748">
        <ele>74.4</ele>
        <time>2024-01-14T09:43:29Z</time>
      </trkpt>
      <trkpt lat="46.56077" lon="0.3375">
        <ele>73.4</ele>
        <time>2024-01-14T09:43:31Z</time>
      </trkpt>
      <trkpt lat="46.56074" lon="0.33751">
        <ele>73</ele>
        <time>2024-01-14T09:43:32Z</time>
      </trkpt>
      <trkpt lat="46.56067" lon="0.33752">
        <ele>72.2</ele>
        <time>2024-01-14T09:43:34Z</time>
      </trkpt>
      <trkpt lat="46.56061" lon="0.3375">
        <ele>71.6</ele>
        <time>2024-01-14T09:43:35Z</time>
      </trkpt>
      <trkpt lat="46.56057" lon="0.3375">
        <ele>71.2</ele>
        <time>2024-01-14T09:43:36Z</time>
      </trkpt>
      <trkpt lat="46.56053" lon="0.33751">
        <ele>70.2</ele>
        <time>2024-01-14T09:43:37Z</time>
      </trkpt>
      <trkpt lat="46.56044" lon="0.33755">
        <ele>69.2</ele>
        <time>2024-01-14T09:43:40Z</time>
      </trkpt>
      <trkpt lat="46.56037" lon="0.33759">
        <ele>68.8</ele>
        <time>2024-01-14T09:43:42Z</time>
      </trkpt>
      <trkpt lat="46.56033" lon="0.33761">
        <ele>68.8</ele>
        <time>2024-01-14T09:43:43Z</time>
      </trkpt>
      <trkpt lat="46.56022" lon="0.33766">
        <ele>68.8</ele>
        <time>2024-01-14T09:43:46Z</time>
      </trkpt>
      <trkpt lat="46.56016" lon="0.33772">
        <ele>68.8</ele>
        <time>2024-01-14T09:43:48Z</time>
      </trkpt>
      <trkpt lat="46.55995" lon="0.3379">
        <ele>68.8</ele>
        <time>2024-01-14T09:43:54Z</time>
      </trkpt>
      <trkpt lat="46.55979" lon="0.3381">
        <ele>69</ele>
        <time>2024-01-14T09:43:58Z</time>
      </trkpt>
      <trkpt lat="46.55948" lon="0.33844">
        <ele>69.6</ele>
        <time>2024-01-14T09:44:04Z</time>
      </trkpt>
      <trkpt lat="46.55938" lon="0.33853">
        <ele>69.8</ele>
        <time>2024-01-14T09:44:06Z</time>
      </trkpt>
      <trkpt lat="46.55924" lon="0.33865">
        <ele>70</ele>
        <time>2024-01-14T09:44:09Z</time>
      </trkpt>
      <trkpt lat="46.55918" lon="0.3387">
        <ele>70.2</ele>
        <time>2024-01-14T09:44:10Z</time>
      </trkpt>
      <trkpt lat="46.55908" lon="0.33877">
        <ele>70.4</ele>
        <time>2024-01-14T09:44:12Z</time>
      </trkpt>
      <trkpt lat="46.55889" lon="0.33891">
        <ele>70.4</ele>
        <time>2024-01-14T09:44:15Z</time>
      </trkpt>
      <trkpt lat="46.55868" lon="0.33906">
        <ele>70.4</ele>
        <time>2024-01-14T09:44:19Z</time>
      </trkpt>
      <trkpt lat="46.55856" lon="0.33911">
        <ele>70.8</ele>
        <time>2024-01-14T09:44:21Z</time>
      </trkpt>
      <trkpt lat="46.55846" lon="0.3391">
        <ele>71.2</ele>
        <time>2024-01-14T09:44:23Z</time>
      </trkpt>
      <trkpt lat="46.55843" lon="0.33908">
        <ele>71.2</ele>
        <time>2024-01-14T09:44:24Z</time>
      </trkpt>
      <trkpt lat="46.55831" lon="0.33903">
        <ele>71.4</ele>
        <time>2024-01-14T09:44:26Z</time>
      </trkpt>
      <trkpt lat="46.55796" lon="0.33884">
        <ele>70.4</ele>
        <time>2024-01-14T09:44:33Z</time>
      </trkpt>
      <trkpt lat="46.55789" lon="0.33882">
        <ele>70.2</ele>
        <time>2024-01-14T09:44:34Z</time>
      </trkpt>
      <trkpt lat="46.55776" lon="0.33883">
        <ele>69.8</ele>
        <time>2024-01-14T09:44:36Z</time>
      </trkpt>
      <trkpt lat="46.55763" lon="0.33891">
        <ele>69.2</ele>
        <time>2024-01-14T09:44:40Z</time>
      </trkpt>
      <trkpt lat="46.55756" lon="0.33893">
        <ele>69</ele>
        <time>2024-01-14T09:44:42Z</time>
      </trkpt>
      <trkpt lat="46.55745" lon="0.33895">
        <ele>68.8</ele>
        <time>2024-01-14T09:44:44Z</time>
      </trkpt>
      <trkpt lat="46.55739" lon="0.33895">
        <ele>68.6</ele>
        <time>2024-01-14T09:44:45Z</time>
      </trkpt>
      <trkpt lat="46.55707" lon="0.33915">
        <ele>68.6</ele>
        <time>2024-01-14T09:44:51Z</time>
      </trkpt>
      <trkpt lat="46.55697" lon="0.33919">
        <ele>68.4</ele>
        <time>2024-01-14T09:44:53Z</time>
      </trkpt>
      <trkpt lat="46.55674" lon="0.33928">
        <ele>68.2</ele>
        <time>2024-01-14T09:44:57Z</time>
      </trkpt>
      <trkpt lat="46.5566" lon="0.33932">
        <ele>68</ele>
        <time>2024-01-14T09:45:00Z</time>
      </trkpt>
      <trkpt lat="46.55643" lon="0.33936">
        <ele>68.2</ele>
        <time>2024-01-14T09:45:03Z</time>
      </trkpt>
      <trkpt lat="46.55634" lon="0.33938">
        <ele>68.2</ele>
        <time>2024-01-14T09:45:05Z</time>
      </trkpt>
      <trkpt lat="46.55625" lon="0.33934">
        <ele>68.4</ele>
        <time>2024-01-14T09:45:07Z</time>
      </trkpt>
      <trkpt lat="46.5562" lon="0.33931">
        <ele>68.2</ele>
        <time>2024-01-14T09:45:08Z</time>
      </trkpt>
      <trkpt lat="46.55599" lon="0.33918">
        <ele>67.6</ele>
        <time>2024-01-14T09:45:14Z</time>
      </trkpt>
      <trkpt lat="46.55593" lon="0.33914">
        <ele>67.6</ele>
        <time>2024-01-14T09:45:18Z</time>
      </trkpt>
      <trkpt lat="46.55581" lon="0.33903">
        <ele>67.8</ele>
        <time>2024-01-14T09:45:24Z</time>
      </trkpt>
      <trkpt lat="46.55567" lon="0.3389">
        <ele>68.2</ele>
        <time>2024-01-14T09:45:29Z</time>
      </trkpt>
      <trkpt lat="46.55556" lon="0.33874">
        <ele>68</ele>
        <time>2024-01-14T09:45:34Z</time>
      </trkpt>
      <trkpt lat="46.55544" lon="0.33856">
        <ele>67.6</ele>
        <time>2024-01-14T09:45:40Z</time>
      </trkpt>
      <trkpt lat="46.55528" lon="0.33835">
        <ele>68.4</ele>
        <time>2024-01-14T09:45:46Z</time>
      </trkpt>
      <trkpt lat="46.55521" lon="0.33822">
        <ele>68.2</ele>
        <time>2024-01-14T09:45:49Z</time>
      </trkpt>
      <trkpt lat="46.55514" lon="0.33815">
        <ele>68</ele>
        <time>2024-01-14T09:45:51Z</time>
      </trkpt>
      <trkpt lat="46.55506" lon="0.33808">
        <ele>68.2</ele>
        <time>2024-01-14T09:45:53Z</time>
      </trkpt>
      <trkpt lat="46.55492" lon="0.33798">
        <ele>68.4</ele>
        <time>2024-01-14T09:45:57Z</time>
      </trkpt>
      <trkpt lat="46.55476" lon="0.3379">
        <ele>68.6</ele>
        <time>2024-01-14T09:46:02Z</time>
      </trkpt>
      <trkpt lat="46.55473" lon="0.33789">
        <ele>68.6</ele>
        <time>2024-01-14T09:46:03Z</time>
      </trkpt>
      <trkpt lat="46.55453" lon="0.33787">
        <ele>68.4</ele>
        <time>2024-01-14T09:46:08Z</time>
      </trkpt>
      <trkpt lat="46.55442" lon="0.33786">
        <ele>68.8</ele>
        <time>2024-01-14T09:46:11Z</time>
      </trkpt>
      <trkpt lat="46.55434" lon="0.33784">
        <ele>68.8</ele>
        <time>2024-01-14T09:46:13Z</time>
      </trkpt>
      <trkpt lat="46.5543" lon="0.33785">
        <ele>68.8</ele>
        <time>2024-01-14T09:46:14Z</time>
      </trkpt>
      <trkpt lat="46.55418" lon="0.33785">
        <ele>68.8</ele>
        <time>2024-01-14T09:46:17Z</time>
      </trkpt>
      <trkpt lat="46.55409" lon="0.33784">
        <ele>68.8</ele>
        <time>2024-01-14T09:46:19Z</time>
      </trkpt>
      <trkpt lat="46.55405" lon="0.33782">
        <ele>68.6</ele>
        <time>2024-01-14T09:46:20Z</time>
      </trkpt>
      <trkpt lat="46.55387" lon="0.33774">
        <ele>68.6</ele>
        <time>2024-01-14T09:46:24Z</time>
      </trkpt>
      <trkpt lat="46.5538" lon="0.33771">
        <ele>68.6</ele>
        <time>2024-01-14T09:46:26Z</time>
      </trkpt>
      <trkpt lat="46.55373" lon="0.33768">
        <ele>68.6</ele>
        <time>2024-01-14T09:46:28Z</time>
      </trkpt>
      <trkpt lat="46.55368" lon="0.33767">
        <ele>68.6</ele>
        <time>2024-01-14T09:46:30Z</time>
      </trkpt>
      <trkpt lat="46.55362" lon="0.33764">
        <ele>68.8</ele>
        <time>2024-01-14T09:46:32Z</time>
      </trkpt>
      <trkpt lat="46.55338" lon="0.3376">
        <ele>68.8</ele>
        <time>2024-01-14T09:46:36Z</time>
      </trkpt>
      <trkpt lat="46.55328" lon="0.33762">
        <ele>68.8</ele>
        <time>2024-01-14T09:46:38Z</time>
      </trkpt>
      <trkpt lat="46.55318" lon="0.33765">
        <ele>69</ele>
        <time>2024-01-14T09:46:40Z</time>
      </trkpt>
      <trkpt lat="46.55312" lon="0.33762">
        <ele>68.8</ele>
        <time>2024-01-14T09:46:42Z</time>
      </trkpt>
      <trkpt lat="46.5531" lon="0.33759">
        <ele>68.8</ele>
        <time>2024-01-14T09:46:43Z</time>
      </trkpt>
      <trkpt lat="46.55304" lon="0.33753">
        <ele>68.8</ele>
        <time>2024-01-14T09:46:46Z</time>
      </trkpt>
      <trkpt lat="46.55301" lon="0.33751">
        <ele>69</ele>
        <time>2024-01-14T09:46:47Z</time>
      </trkpt>
      <trkpt lat="46.55281" lon="0.33752">
        <ele>68.8</ele>
        <time>2024-01-14T09:46:52Z</time>
      </trkpt>
      <trkpt lat="46.55263" lon="0.33752">
        <ele>68.8</ele>
        <time>2024-01-14T09:46:56Z</time>
      </trkpt>
      <trkpt lat="46.55253" lon="0.33752">
        <ele>68.8</ele>
        <time>2024-01-14T09:46:58Z</time>
      </trkpt>
      <trkpt lat="46.55214" lon="0.33753">
        <ele>69</ele>
        <time>2024-01-14T09:47:06Z</time>
      </trkpt>
      <trkpt lat="46.5521" lon="0.33753">
        <ele>69</ele>
        <time>2024-01-14T09:47:07Z</time>
      </trkpt>
      <trkpt lat="46.5518" lon="0.33753">
        <ele>69.6</ele>
        <time>2024-01-14T09:47:13Z</time>
      </trkpt>
      <trkpt lat="46.55151" lon="0.3375">
        <ele>69.4</ele>
        <time>2024-01-14T09:47:19Z</time>
      </trkpt>
      <trkpt lat="46.55113" lon="0.33744">
        <ele>69</ele>
        <time>2024-01-14T09:47:27Z</time>
      </trkpt>
      <trkpt lat="46.55087" lon="0.33739">
        <ele>69.2</ele>
        <time>2024-01-14T09:47:32Z</time>
      </trkpt>
      <trkpt lat="46.55059" lon="0.33733">
        <ele>69.4</ele>
        <time>2024-01-14T09:47:38Z</time>
      </trkpt>
      <trkpt lat="46.55056" lon="0.33733">
        <ele>69.4</ele>
        <time>2024-01-14T09:47:39Z</time>
      </trkpt>
      <trkpt lat="46.55045" lon="0.33732">
        <ele>69.2</ele>
        <time>2024-01-14T09:47:43Z</time>
      </trkpt>
      <trkpt lat="46.55031" lon="0.33728">
        <ele>69.2</ele>
        <time>2024-01-14T09:47:48Z</time>
      </trkpt>
      <trkpt lat="46.5503" lon="0.33726">
        <ele>69.2</ele>
        <time>2024-01-14T09:47:49Z</time>
      </trkpt>
      <trkpt lat="46.55027" lon="0.33717">
        <ele>69.8</ele>
        <time>2024-01-14T09:47:52Z</time>
      </trkpt>
      <trkpt lat="46.55025" lon="0.33699">
        <ele>70</ele>
        <time>2024-01-14T09:47:56Z</time>
      </trkpt>
      <trkpt lat="46.55026" lon="0.33695">
        <ele>70.2</ele>
        <time>2024-01-14T09:47:57Z</time>
      </trkpt>
      <trkpt lat="46.55028" lon="0.33676">
        <ele>70.4</ele>
        <time>2024-01-14T09:48:02Z</time>
      </trkpt>
      <trkpt lat="46.55027" lon="0.33672">
        <ele>70.6</ele>
        <time>2024-01-14T09:48:03Z</time>
      </trkpt>
      <trkpt lat="46.55026" lon="0.3366">
        <ele>70.8</ele>
        <time>2024-01-14T09:48:05Z</time>
      </trkpt>
      <trkpt lat="46.55026" lon="0.33625">
        <ele>71</ele>
        <time>2024-01-14T09:48:10Z</time>
      </trkpt>
      <trkpt lat="46.55025" lon="0.33618">
        <ele>71</ele>
        <time>2024-01-14T09:48:11Z</time>
      </trkpt>
      <trkpt lat="46.55022" lon="0.33595">
        <ele>71</ele>
        <time>2024-01-14T09:48:15Z</time>
      </trkpt>
      <trkpt lat="46.55019" lon="0.33587">
        <ele>71</ele>
        <time>2024-01-14T09:48:17Z</time>
      </trkpt>
      <trkpt lat="46.55018" lon="0.33584">
        <ele>71</ele>
        <time>2024-01-14T09:48:18Z</time>
      </trkpt>
      <trkpt lat="46.55015" lon="0.33581">
        <ele>71</ele>
        <time>2024-01-14T09:48:19Z</time>
      </trkpt>
      <trkpt lat="46.55012" lon="0.33578">
        <ele>71</ele>
        <time>2024-01-14T09:48:21Z</time>
      </trkpt>
      <trkpt lat="46.55009" lon="0.33572">
        <ele>71</ele>
        <time>2024-01-14T09:48:23Z</time>
      </trkpt>
      <trkpt lat="46.55007" lon="0.3355">
        <ele>70.8</ele>
        <time>2024-01-14T09:48:28Z</time>
      </trkpt>
      <trkpt lat="46.55002" lon="0.3352">
        <ele>71</ele>
        <time>2024-01-14T09:48:35Z</time>
      </trkpt>
      <trkpt lat="46.54996" lon="0.33495">
        <ele>71</ele>
        <time>2024-01-14T09:48:42Z</time>
      </trkpt>
      <trkpt lat="46.54989" lon="0.3346">
        <ele>70.8</ele>
        <time>2024-01-14T09:48:50Z</time>
      </trkpt>
      <trkpt lat="46.54986" lon="0.33451">
        <ele>70.8</ele>
        <time>2024-01-14T09:48:52Z</time>
      </trkpt>
      <trkpt lat="46.54978" lon="0.33439">
        <ele>71</ele>
        <time>2024-01-14T09:48:55Z</time>
      </trkpt>
      <trkpt lat="46.54974" lon="0.33435">
        <ele>71</ele>
        <time>2024-01-14T09:48:56Z</time>
      </trkpt>
      <trkpt lat="46.54962" lon="0.33416">
        <ele>71.4</ele>
        <time>2024-01-14T09:49:00Z</time>
      </trkpt>
      <trkpt lat="46.54958" lon="0.33412">
        <ele>71.4</ele>
        <time>2024-01-14T09:49:01Z</time>
      </trkpt>
      <trkpt lat="46.54945" lon="0.334">
        <ele>71.4</ele>
        <time>2024-01-14T09:49:04Z</time>
      </trkpt>
      <trkpt lat="46.54941" lon="0.33397">
        <ele>71.4</ele>
        <time>2024-01-14T09:49:05Z</time>
      </trkpt>
      <trkpt lat="46.54931" lon="0.33391">
        <ele>71.4</ele>
        <time>2024-01-14T09:49:07Z</time>
      </trkpt>
      <trkpt lat="46.54917" lon="0.33382">
        <ele>71.4</ele>
        <time>2024-01-14T09:49:10Z</time>
      </trkpt>
      <trkpt lat="46.54897" lon="0.33365">
        <ele>71.6</ele>
        <time>2024-01-14T09:49:14Z</time>
      </trkpt>
      <trkpt lat="46.54891" lon="0.3336">
        <ele>71.6</ele>
        <time>2024-01-14T09:49:15Z</time>
      </trkpt>
      <trkpt lat="46.54849" lon="0.33331">
        <ele>71.6</ele>
        <time>2024-01-14T09:49:22Z</time>
      </trkpt>
      <trkpt lat="46.54807" lon="0.33301">
        <ele>71.6</ele>
        <time>2024-01-14T09:49:29Z</time>
      </trkpt>
      <trkpt lat="46.54767" lon="0.33276">
        <ele>71.2</ele>
        <time>2024-01-14T09:49:36Z</time>
      </trkpt>
      <trkpt lat="46.54735" lon="0.33255">
        <ele>71.4</ele>
        <time>2024-01-14T09:49:42Z</time>
      </trkpt>
      <trkpt lat="46.54708" lon="0.33228">
        <ele>71.4</ele>
        <time>2024-01-14T09:49:48Z</time>
      </trkpt>
      <trkpt lat="46.54678" lon="0.33195">
        <ele>71.4</ele>
        <time>2024-01-14T09:49:55Z</time>
      </trkpt>
      <trkpt lat="46.54647" lon="0.33164">
        <ele>71.4</ele>
        <time>2024-01-14T09:50:02Z</time>
      </trkpt>
      <trkpt lat="46.54617" lon="0.33136">
        <ele>71.4</ele>
        <time>2024-01-14T09:50:10Z</time>
      </trkpt>
      <trkpt lat="46.54605" lon="0.33123">
        <ele>71.4</ele>
        <time>2024-01-14T09:50:13Z</time>
      </trkpt>
      <trkpt lat="46.546" lon="0.3312">
        <ele>71.4</ele>
        <time>2024-01-14T09:50:14Z</time>
      </trkpt>
      <trkpt lat="46.54578" lon="0.33093">
        <ele>71.4</ele>
        <time>2024-01-14T09:50:20Z</time>
      </trkpt>
      <trkpt lat="46.54575" lon="0.33087">
        <ele>71.4</ele>
        <time>2024-01-14T09:50:21Z</time>
      </trkpt>
      <trkpt lat="46.5456" lon="0.33067">
        <ele>71.4</ele>
        <time>2024-01-14T09:50:25Z</time>
      </trkpt>
      <trkpt lat="46.54557" lon="0.3306">
        <ele>71.4</ele>
        <time>2024-01-14T09:50:26Z</time>
      </trkpt>
      <trkpt lat="46.54542" lon="0.33035">
        <ele>71.4</ele>
        <time>2024-01-14T09:50:30Z</time>
      </trkpt>
      <trkpt lat="46.54515" lon="0.32988">
        <ele>71.6</ele>
        <time>2024-01-14T09:50:37Z</time>
      </trkpt>
      <trkpt lat="46.54499" lon="0.32968">
        <ele>71.6</ele>
        <time>2024-01-14T09:50:41Z</time>
      </trkpt>
      <trkpt lat="46.54495" lon="0.32962">
        <ele>71.6</ele>
        <time>2024-01-14T09:50:42Z</time>
      </trkpt>
      <trkpt lat="46.54476" lon="0.32929">
        <ele>71.4</ele>
        <time>2024-01-14T09:50:48Z</time>
      </trkpt>
      <trkpt lat="46.54456" lon="0.32894">
        <ele>71.2</ele>
        <time>2024-01-14T09:50:55Z</time>
      </trkpt>
      <trkpt lat="46.5445" lon="0.32883">
        <ele>71.2</ele>
        <time>2024-01-14T09:50:57Z</time>
      </trkpt>
      <trkpt lat="46.54442" lon="0.32868">
        <ele>71.2</ele>
        <time>2024-01-14T09:51:00Z</time>
      </trkpt>
      <trkpt lat="46.54418" lon="0.32844">
        <ele>71.4</ele>
        <time>2024-01-14T09:51:05Z</time>
      </trkpt>
      <trkpt lat="46.54386" lon="0.32809">
        <ele>71.4</ele>
        <time>2024-01-14T09:51:11Z</time>
      </trkpt>
      <trkpt lat="46.54356" lon="0.32781">
        <ele>71.4</ele>
        <time>2024-01-14T09:51:17Z</time>
      </trkpt>
      <trkpt lat="46.54323" lon="0.3276">
        <ele>71.2</ele>
        <time>2024-01-14T09:51:23Z</time>
      </trkpt>
      <trkpt lat="46.54291" lon="0.32742">
        <ele>71.2</ele>
        <time>2024-01-14T09:51:29Z</time>
      </trkpt>
      <trkpt lat="46.54256" lon="0.32723">
        <ele>71.4</ele>
        <time>2024-01-14T09:51:36Z</time>
      </trkpt>
      <trkpt lat="46.54243" lon="0.32717">
        <ele>71.4</ele>
        <time>2024-01-14T09:51:39Z</time>
      </trkpt>
      <trkpt lat="46.54235" lon="0.32714">
        <ele>71.4</ele>
        <time>2024-01-14T09:51:41Z</time>
      </trkpt>
      <trkpt lat="46.54226" lon="0.32711">
        <ele>71.2</ele>
        <time>2024-01-14T09:51:43Z</time>
      </trkpt>
      <trkpt lat="46.54218" lon="0.32712">
        <ele>71</ele>
        <time>2024-01-14T09:51:45Z</time>
      </trkpt>
      <trkpt lat="46.54215" lon="0.32714">
        <ele>71</ele>
        <time>2024-01-14T09:51:46Z</time>
      </trkpt>
      <trkpt lat="46.54213" lon="0.32715">
        <ele>71</ele>
        <time>2024-01-14T09:51:47Z</time>
      </trkpt>
      <trkpt lat="46.5421" lon="0.32724">
        <ele>71</ele>
        <time>2024-01-14T09:51:49Z</time>
      </trkpt>
      <trkpt lat="46.54207" lon="0.32736">
        <ele>71</ele>
        <time>2024-01-14T09:51:51Z</time>
      </trkpt>
      <trkpt lat="46.54205" lon="0.32746">
        <ele>71</ele>
        <time>2024-01-14T09:51:53Z</time>
      </trkpt>
      <trkpt lat="46.54202" lon="0.32752">
        <ele>71</ele>
        <time>2024-01-14T09:51:54Z</time>
      </trkpt>
      <trkpt lat="46.54196" lon="0.32761">
        <ele>70.8</ele>
        <time>2024-01-14T09:51:56Z</time>
      </trkpt>
      <trkpt lat="46.54187" lon="0.32771">
        <ele>70.4</ele>
        <time>2024-01-14T09:51:59Z</time>
      </trkpt>
      <trkpt lat="46.54183" lon="0.32774">
        <ele>70.2</ele>
        <time>2024-01-14T09:52:00Z</time>
      </trkpt>
      <trkpt lat="46.54179" lon="0.32777">
        <ele>70</ele>
        <time>2024-01-14T09:52:01Z</time>
      </trkpt>
      <trkpt lat="46.54167" lon="0.32784">
        <ele>69.8</ele>
        <time>2024-01-14T09:52:04Z</time>
      </trkpt>
      <trkpt lat="46.54163" lon="0.32786">
        <ele>69.6</ele>
        <time>2024-01-14T09:52:05Z</time>
      </trkpt>
      <trkpt lat="46.5416" lon="0.32788">
        <ele>69.8</ele>
        <time>2024-01-14T09:52:06Z</time>
      </trkpt>
      <trkpt lat="46.54146" lon="0.32797">
        <ele>70</ele>
        <time>2024-01-14T09:52:10Z</time>
      </trkpt>
      <trkpt lat="46.54126" lon="0.32805">
        <ele>70.8</ele>
        <time>2024-01-14T09:52:16Z</time>
      </trkpt>
      <trkpt lat="46.54121" lon="0.3281">
        <ele>71.2</ele>
        <time>2024-01-14T09:52:18Z</time>
      </trkpt>
      <trkpt lat="46.54109" lon="0.32823">
        <ele>71.8</ele>
        <time>2024-01-14T09:52:23Z</time>
      </trkpt>
      <trkpt lat="46.54108" lon="0.32827">
        <ele>72.2</ele>
        <time>2024-01-14T09:52:24Z</time>
      </trkpt>
      <trkpt lat="46.54102" lon="0.32838">
        <ele>73</ele>
        <time>2024-01-14T09:52:28Z</time>
      </trkpt>
      <trkpt lat="46.54089" lon="0.32849">
        <ele>73</ele>
        <time>2024-01-14T09:52:32Z</time>
      </trkpt>
      <trkpt lat="46.54068" lon="0.32857">
        <ele>72</ele>
        <time>2024-01-14T09:52:37Z</time>
      </trkpt>
      <trkpt lat="46.54058" lon="0.32859">
        <ele>71.8</ele>
        <time>2024-01-14T09:52:40Z</time>
      </trkpt>
      <trkpt lat="46.54055" lon="0.3286">
        <ele>71</ele>
        <time>2024-01-14T09:52:41Z</time>
      </trkpt>
      <trkpt lat="46.54053" lon="0.32864">
        <ele>70.6</ele>
        <time>2024-01-14T09:52:42Z</time>
      </trkpt>
      <trkpt lat="46.54049" lon="0.32865">
        <ele>70.4</ele>
        <time>2024-01-14T09:52:43Z</time>
      </trkpt>
      <trkpt lat="46.54038" lon="0.3287">
        <ele>70</ele>
        <time>2024-01-14T09:52:46Z</time>
      </trkpt>
      <trkpt lat="46.54029" lon="0.32877">
        <ele>70</ele>
        <time>2024-01-14T09:52:49Z</time>
      </trkpt>
      <trkpt lat="46.54026" lon="0.32878">
        <ele>70</ele>
        <time>2024-01-14T09:52:50Z</time>
      </trkpt>
      <trkpt lat="46.54022" lon="0.32879">
        <ele>70.2</ele>
        <time>2024-01-14T09:52:51Z</time>
      </trkpt>
      <trkpt lat="46.54008" lon="0.32889">
        <ele>70.2</ele>
        <time>2024-01-14T09:52:55Z</time>
      </trkpt>
      <trkpt lat="46.54004" lon="0.32893">
        <ele>70</ele>
        <time>2024-01-14T09:52:56Z</time>
      </trkpt>
      <trkpt lat="46.53991" lon="0.329">
        <ele>70</ele>
        <time>2024-01-14T09:52:59Z</time>
      </trkpt>
      <trkpt lat="46.53985" lon="0.32901">
        <ele>70.2</ele>
        <time>2024-01-14T09:53:00Z</time>
      </trkpt>
      <trkpt lat="46.53964" lon="0.32913">
        <ele>70.8</ele>
        <time>2024-01-14T09:53:06Z</time>
      </trkpt>
      <trkpt lat="46.53948" lon="0.32927">
        <ele>71.2</ele>
        <time>2024-01-14T09:53:10Z</time>
      </trkpt>
      <trkpt lat="46.5394" lon="0.3294">
        <ele>71.4</ele>
        <time>2024-01-14T09:53:13Z</time>
      </trkpt>
      <trkpt lat="46.53931" lon="0.3295">
        <ele>71.4</ele>
        <time>2024-01-14T09:53:16Z</time>
      </trkpt>
      <trkpt lat="46.53927" lon="0.32956">
        <ele>71.4</ele>
        <time>2024-01-14T09:53:18Z</time>
      </trkpt>
      <trkpt lat="46.53923" lon="0.32965">
        <ele>71.2</ele>
        <time>2024-01-14T09:53:20Z</time>
      </trkpt>
      <trkpt lat="46.53915" lon="0.32985">
        <ele>70.8</ele>
        <time>2024-01-14T09:53:24Z</time>
      </trkpt>
      <trkpt lat="46.53911" lon="0.32997">
        <ele>70.8</ele>
        <time>2024-01-14T09:53:26Z</time>
      </trkpt>
      <trkpt lat="46.53903" lon="0.33021">
        <ele>71.4</ele>
        <time>2024-01-14T09:53:30Z</time>
      </trkpt>
      <trkpt lat="46.53897" lon="0.33038">
        <ele>72.2</ele>
        <time>2024-01-14T09:53:33Z</time>
      </trkpt>
      <trkpt lat="46.53894" lon="0.33048">
        <ele>72.6</ele>
        <time>2024-01-14T09:53:35Z</time>
      </trkpt>
      <trkpt lat="46.53888" lon="0.33074">
        <ele>72.4</ele>
        <time>2024-01-14T09:53:40Z</time>
      </trkpt>
      <trkpt lat="46.53886" lon="0.33087">
        <ele>72.2</ele>
        <time>2024-01-14T09:53:43Z</time>
      </trkpt>
      <trkpt lat="46.53884" lon="0.33099">
        <ele>72.2</ele>
        <time>2024-01-14T09:53:45Z</time>
      </trkpt>
      <trkpt lat="46.53879" lon="0.33113">
        <ele>72.4</ele>
        <time>2024-01-14T09:53:48Z</time>
      </trkpt>
      <trkpt lat="46.53875" lon="0.33122">
        <ele>72.6</ele>
        <time>2024-01-14T09:53:50Z</time>
      </trkpt>
      <trkpt lat="46.53872" lon="0.33138">
        <ele>73.4</ele>
        <time>2024-01-14T09:53:54Z</time>
      </trkpt>
      <trkpt lat="46.53869" lon="0.33146">
        <ele>73.8</ele>
        <time>2024-01-14T09:53:56Z</time>
      </trkpt>
      <trkpt lat="46.53866" lon="0.33159">
        <ele>74.6</ele>
        <time>2024-01-14T09:54:00Z</time>
      </trkpt>
      <trkpt lat="46.53863" lon="0.33169">
        <ele>74.8</ele>
        <time>2024-01-14T09:54:02Z</time>
      </trkpt>
      <trkpt lat="46.53861" lon="0.33181">
        <ele>75.6</ele>
        <time>2024-01-14T09:54:05Z</time>
      </trkpt>
      <trkpt lat="46.5386" lon="0.33193">
        <ele>76.2</ele>
        <time>2024-01-14T09:54:08Z</time>
      </trkpt>
      <trkpt lat="46.53858" lon="0.332">
        <ele>76.8</ele>
        <time>2024-01-14T09:54:10Z</time>
      </trkpt>
      <trkpt lat="46.5385" lon="0.33217">
        <ele>77.4</ele>
        <time>2024-01-14T09:54:15Z</time>
      </trkpt>
      <trkpt lat="46.53843" lon="0.33231">
        <ele>78</ele>
        <time>2024-01-14T09:54:19Z</time>
      </trkpt>
      <trkpt lat="46.53837" lon="0.33242">
        <ele>78.6</ele>
        <time>2024-01-14T09:54:23Z</time>
      </trkpt>
      <trkpt lat="46.53834" lon="0.33248">
        <ele>79.2</ele>
        <time>2024-01-14T09:54:25Z</time>
      </trkpt>
      <trkpt lat="46.53832" lon="0.33253">
        <ele>79.6</ele>
        <time>2024-01-14T09:54:27Z</time>
      </trkpt>
      <trkpt lat="46.5383" lon="0.3326">
        <ele>80</ele>
        <time>2024-01-14T09:54:29Z</time>
      </trkpt>
      <trkpt lat="46.53828" lon="0.33264">
        <ele>80.2</ele>
        <time>2024-01-14T09:54:30Z</time>
      </trkpt>
      <trkpt lat="46.53822" lon="0.33284">
        <ele>80.6</ele>
        <time>2024-01-14T09:54:35Z</time>
      </trkpt>
      <trkpt lat="46.53817" lon="0.33301">
        <ele>81.2</ele>
        <time>2024-01-14T09:54:39Z</time>
      </trkpt>
      <trkpt lat="46.53815" lon="0.3331">
        <ele>81.2</ele>
        <time>2024-01-14T09:54:41Z</time>
      </trkpt>
      <trkpt lat="46.53809" lon="0.33332">
        <ele>82</ele>
        <time>2024-01-14T09:54:47Z</time>
      </trkpt>
      <trkpt lat="46.53807" lon="0.33338">
        <ele>82.4</ele>
        <time>2024-01-14T09:54:49Z</time>
      </trkpt>
      <trkpt lat="46.53804" lon="0.33349">
        <ele>82.6</ele>
        <time>2024-01-14T09:54:52Z</time>
      </trkpt>
      <trkpt lat="46.53798" lon="0.3337">
        <ele>82.8</ele>
        <time>2024-01-14T09:54:57Z</time>
      </trkpt>
      <trkpt lat="46.53794" lon="0.33383">
        <ele>83.6</ele>
        <time>2024-01-14T09:55:00Z</time>
      </trkpt>
      <trkpt lat="46.53791" lon="0.33397">
        <ele>84</ele>
        <time>2024-01-14T09:55:03Z</time>
      </trkpt>
      <trkpt lat="46.53783" lon="0.33429">
        <ele>84.2</ele>
        <time>2024-01-14T09:55:10Z</time>
      </trkpt>
      <trkpt lat="46.53779" lon="0.33443">
        <ele>85</ele>
        <time>2024-01-14T09:55:13Z</time>
      </trkpt>
      <trkpt lat="46.53773" lon="0.33464">
        <ele>85.6</ele>
        <time>2024-01-14T09:55:17Z</time>
      </trkpt>
      <trkpt lat="46.53767" lon="0.33492">
        <ele>85.8</ele>
        <time>2024-01-14T09:55:23Z</time>
      </trkpt>
      <trkpt lat="46.53766" lon="0.33498">
        <ele>85.8</ele>
        <time>2024-01-14T09:55:24Z</time>
      </trkpt>
      <trkpt lat="46.53764" lon="0.33503">
        <ele>85.8</ele>
        <time>2024-01-14T09:55:25Z</time>
      </trkpt>
      <trkpt lat="46.53757" lon="0.33523">
        <ele>85.6</ele>
        <time>2024-01-14T09:55:29Z</time>
      </trkpt>
      <trkpt lat="46.53755" lon="0.33527">
        <ele>85.6</ele>
        <time>2024-01-14T09:55:30Z</time>
      </trkpt>
      <trkpt lat="46.5375" lon="0.33547">
        <ele>86.2</ele>
        <time>2024-01-14T09:55:34Z</time>
      </trkpt>
      <trkpt lat="46.53747" lon="0.33557">
        <ele>86.4</ele>
        <time>2024-01-14T09:55:36Z</time>
      </trkpt>
      <trkpt lat="46.53738" lon="0.33583">
        <ele>87.6</ele>
        <time>2024-01-14T09:55:42Z</time>
      </trkpt>
      <trkpt lat="46.53734" lon="0.33589">
        <ele>88</ele>
        <time>2024-01-14T09:55:44Z</time>
      </trkpt>
      <trkpt lat="46.53729" lon="0.33597">
        <ele>88.6</ele>
        <time>2024-01-14T09:55:46Z</time>
      </trkpt>
      <trkpt lat="46.53723" lon="0.33608">
        <ele>89.2</ele>
        <time>2024-01-14T09:55:50Z</time>
      </trkpt>
      <trkpt lat="46.53718" lon="0.33612">
        <ele>89.8</ele>
        <time>2024-01-14T09:55:52Z</time>
      </trkpt>
      <trkpt lat="46.53707" lon="0.33631">
        <ele>91</ele>
        <time>2024-01-14T09:55:57Z</time>
      </trkpt>
      <trkpt lat="46.53692" lon="0.33645">
        <ele>91.2</ele>
        <time>2024-01-14T09:56:03Z</time>
      </trkpt>
      <trkpt lat="46.53683" lon="0.33667">
        <ele>90.8</ele>
        <time>2024-01-14T09:56:09Z</time>
      </trkpt>
      <trkpt lat="46.53674" lon="0.3369">
        <ele>91.4</ele>
        <time>2024-01-14T09:56:15Z</time>
      </trkpt>
      <trkpt lat="46.53671" lon="0.33698">
        <ele>92</ele>
        <time>2024-01-14T09:56:17Z</time>
      </trkpt>
      <trkpt lat="46.53662" lon="0.33713">
        <ele>92.8</ele>
        <time>2024-01-14T09:56:21Z</time>
      </trkpt>
      <trkpt lat="46.53656" lon="0.33722">
        <ele>93.2</ele>
        <time>2024-01-14T09:56:23Z</time>
      </trkpt>
      <trkpt lat="46.53644" lon="0.33735">
        <ele>94</ele>
        <time>2024-01-14T09:56:27Z</time>
      </trkpt>
      <trkpt lat="46.53641" lon="0.33737">
        <ele>94.2</ele>
        <time>2024-01-14T09:56:28Z</time>
      </trkpt>
      <trkpt lat="46.53626" lon="0.33758">
        <ele>95.4</ele>
        <time>2024-01-14T09:56:34Z</time>
      </trkpt>
      <trkpt lat="46.53613" lon="0.33766">
        <ele>96.6</ele>
        <time>2024-01-14T09:56:38Z</time>
      </trkpt>
      <trkpt lat="46.53608" lon="0.33767">
        <ele>96.6</ele>
        <time>2024-01-14T09:56:40Z</time>
      </trkpt>
      <trkpt lat="46.53589" lon="0.33773">
        <ele>97</ele>
        <time>2024-01-14T09:56:47Z</time>
      </trkpt>
      <trkpt lat="46.53582" lon="0.33773">
        <ele>97.6</ele>
        <time>2024-01-14T09:56:50Z</time>
      </trkpt>
      <trkpt lat="46.5357" lon="0.33774">
        <ele>98.6</ele>
        <time>2024-01-14T09:56:54Z</time>
      </trkpt>
      <trkpt lat="46.53567" lon="0.33773">
        <ele>98.8</ele>
        <time>2024-01-14T09:56:55Z</time>
      </trkpt>
      <trkpt lat="46.53549" lon="0.33771">
        <ele>99.6</ele>
        <time>2024-01-14T09:57:01Z</time>
      </trkpt>
      <trkpt lat="46.53544" lon="0.3377">
        <ele>99.8</ele>
        <time>2024-01-14T09:57:03Z</time>
      </trkpt>
      <trkpt lat="46.53532" lon="0.33769">
        <ele>100.8</ele>
        <time>2024-01-14T09:57:08Z</time>
      </trkpt>
      <trkpt lat="46.53525" lon="0.33768">
        <ele>101.4</ele>
        <time>2024-01-14T09:57:11Z</time>
      </trkpt>
      <trkpt lat="46.53516" lon="0.33765">
        <ele>101.8</ele>
        <time>2024-01-14T09:57:14Z</time>
      </trkpt>
      <trkpt lat="46.53507" lon="0.3376">
        <ele>102</ele>
        <time>2024-01-14T09:57:17Z</time>
      </trkpt>
      <trkpt lat="46.53494" lon="0.3375">
        <ele>102.8</ele>
        <time>2024-01-14T09:57:23Z</time>
      </trkpt>
      <trkpt lat="46.53491" lon="0.33748">
        <ele>102.8</ele>
        <time>2024-01-14T09:57:24Z</time>
      </trkpt>
      <trkpt lat="46.53478" lon="0.33739">
        <ele>103.8</ele>
        <time>2024-01-14T09:57:29Z</time>
      </trkpt>
      <trkpt lat="46.53475" lon="0.33738">
        <ele>104</ele>
        <time>2024-01-14T09:57:30Z</time>
      </trkpt>
      <trkpt lat="46.53468" lon="0.33735">
        <ele>105</ele>
        <time>2024-01-14T09:57:33Z</time>
      </trkpt>
      <trkpt lat="46.53456" lon="0.33728">
        <ele>105.4</ele>
        <time>2024-01-14T09:57:38Z</time>
      </trkpt>
      <trkpt lat="46.53443" lon="0.33722">
        <ele>106</ele>
        <time>2024-01-14T09:57:43Z</time>
      </trkpt>
      <trkpt lat="46.53443" lon="0.33722">
        <ele>106</ele>
        <time>2024-01-14T09:57:44Z</time>
      </trkpt>
      <trkpt lat="46.53432" lon="0.33714">
        <ele>107</ele>
        <time>2024-01-14T09:57:48Z</time>
      </trkpt>
      <trkpt lat="46.53431" lon="0.33712">
        <ele>107.2</ele>
        <time>2024-01-14T09:57:49Z</time>
      </trkpt>
      <trkpt lat="46.5343" lon="0.33709">
        <ele>107.4</ele>
        <time>2024-01-14T09:57:50Z</time>
      </trkpt>
      <trkpt lat="46.5343" lon="0.33699">
        <ele>107.2</ele>
        <time>2024-01-14T09:57:53Z</time>
      </trkpt>
      <trkpt lat="46.53435" lon="0.33672">
        <ele>108</ele>
        <time>2024-01-14T09:58:00Z</time>
      </trkpt>
      <trkpt lat="46.53436" lon="0.33668">
        <ele>108.2</ele>
        <time>2024-01-14T09:58:01Z</time>
      </trkpt>
      <trkpt lat="46.5344" lon="0.3365">
        <ele>108.6</ele>
        <time>2024-01-14T09:58:05Z</time>
      </trkpt>
      <trkpt lat="46.53446" lon="0.33623">
        <ele>109.2</ele>
        <time>2024-01-14T09:58:11Z</time>
      </trkpt>
      <trkpt lat="46.53447" lon="0.33618">
        <ele>109.4</ele>
        <time>2024-01-14T09:58:12Z</time>
      </trkpt>
      <trkpt lat="46.53448" lon="0.33598">
        <ele>109.6</ele>
        <time>2024-01-14T09:58:16Z</time>
      </trkpt>
      <trkpt lat="46.53441" lon="0.33582">
        <ele>109.6</ele>
        <time>2024-01-14T09:58:21Z</time>
      </trkpt>
      <trkpt lat="46.53432" lon="0.33571">
        <ele>110</ele>
        <time>2024-01-14T09:58:25Z</time>
      </trkpt>
      <trkpt lat="46.53429" lon="0.33569">
        <ele>110</ele>
        <time>2024-01-14T09:58:26Z</time>
      </trkpt>
      <trkpt lat="46.53413" lon="0.33557">
        <ele>110.2</ele>
        <time>2024-01-14T09:58:31Z</time>
      </trkpt>
      <trkpt lat="46.53388" lon="0.33541">
        <ele>110.6</ele>
        <time>2024-01-14T09:58:37Z</time>
      </trkpt>
      <trkpt lat="46.53364" lon="0.33524">
        <ele>111</ele>
        <time>2024-01-14T09:58:43Z</time>
      </trkpt>
      <trkpt lat="46.53339" lon="0.33505">
        <ele>111.2</ele>
        <time>2024-01-14T09:58:49Z</time>
      </trkpt>
      <trkpt lat="46.53335" lon="0.33501">
        <ele>111.2</ele>
        <time>2024-01-14T09:58:50Z</time>
      </trkpt>
      <trkpt lat="46.53324" lon="0.3349">
        <ele>111.6</ele>
        <time>2024-01-14T09:58:53Z</time>
      </trkpt>
      <trkpt lat="46.53301" lon="0.33477">
        <ele>112.4</ele>
        <time>2024-01-14T09:58:58Z</time>
      </trkpt>
      <trkpt lat="46.53289" lon="0.33468">
        <ele>112.4</ele>
        <time>2024-01-14T09:59:01Z</time>
      </trkpt>
      <trkpt lat="46.53284" lon="0.3346">
        <ele>112.4</ele>
        <time>2024-01-14T09:59:03Z</time>
      </trkpt>
      <trkpt lat="46.53279" lon="0.33432">
        <ele>113</ele>
        <time>2024-01-14T09:59:09Z</time>
      </trkpt>
      <trkpt lat="46.53278" lon="0.33424">
        <ele>113.6</ele>
        <time>2024-01-14T09:59:11Z</time>
      </trkpt>
      <trkpt lat="46.53275" lon="0.3341">
        <ele>114</ele>
        <time>2024-01-14T09:59:15Z</time>
      </trkpt>
      <trkpt lat="46.53269" lon="0.33386">
        <ele>114.6</ele>
        <time>2024-01-14T09:59:21Z</time>
      </trkpt>
      <trkpt lat="46.53266" lon="0.33371">
        <ele>115</ele>
        <time>2024-01-14T09:59:24Z</time>
      </trkpt>
      <trkpt lat="46.53261" lon="0.33347">
        <ele>115.8</ele>
        <time>2024-01-14T09:59:29Z</time>
      </trkpt>
      <trkpt lat="46.5326" lon="0.33342">
        <ele>116</ele>
        <time>2024-01-14T09:59:30Z</time>
      </trkpt>
      <trkpt lat="46.53254" lon="0.33319">
        <ele>116.6</ele>
        <time>2024-01-14T09:59:36Z</time>
      </trkpt>
      <trkpt lat="46.53252" lon="0.33313">
        <ele>116.8</ele>
        <time>2024-01-14T09:59:38Z</time>
      </trkpt>
      <trkpt lat="46.53244" lon="0.33299">
        <ele>118.2</ele>
        <time>2024-01-14T09:59:42Z</time>
      </trkpt>
      <trkpt lat="46.53242" lon="0.33296">
        <ele>118.4</ele>
        <time>2024-01-14T09:59:43Z</time>
      </trkpt>
      <trkpt lat="46.5323" lon="0.33278">
        <ele>119.4</ele>
        <time>2024-01-14T09:59:49Z</time>
      </trkpt>
      <trkpt lat="46.53229" lon="0.33275">
        <ele>119.8</ele>
        <time>2024-01-14T09:59:50Z</time>
      </trkpt>
      <trkpt lat="46.53221" lon="0.33258">
        <ele>120.6</ele>
        <time>2024-01-14T09:59:56Z</time>
      </trkpt>
      <trkpt lat="46.5322" lon="0.33255">
        <ele>120.6</ele>
        <time>2024-01-14T09:59:57Z</time>
      </trkpt>
      <trkpt lat="46.53213" lon="0.33234">
        <ele>121.6</ele>
        <time>2024-01-14T10:00:03Z</time>
      </trkpt>
      <trkpt lat="46.53212" lon="0.33229">
        <ele>121.8</ele>
        <time>2024-01-14T10:00:04Z</time>
      </trkpt>
      <trkpt lat="46.53201" lon="0.33192">
        <ele>122</ele>
        <time>2024-01-14T10:00:11Z</time>
      </trkpt>
      <trkpt lat="46.53197" lon="0.33171">
        <ele>122.6</ele>
        <time>2024-01-14T10:00:15Z</time>
      </trkpt>
      <trkpt lat="46.53196" lon="0.33162">
        <ele>122.8</ele>
        <time>2024-01-14T10:00:17Z</time>
      </trkpt>
      <trkpt lat="46.53192" lon="0.33136">
        <ele>123.2</ele>
        <time>2024-01-14T10:00:23Z</time>
      </trkpt>
      <trkpt lat="46.53191" lon="0.33132">
        <ele>123.2</ele>
        <time>2024-01-14T10:00:24Z</time>
      </trkpt>
      <trkpt lat="46.5319" lon="0.33123">
        <ele>123.2</ele>
        <time>2024-01-14T10:00:26Z</time>
      </trkpt>
      <trkpt lat="46.53186" lon="0.33106">
        <ele>123.2</ele>
        <time>2024-01-14T10:00:29Z</time>
      </trkpt>
      <trkpt lat="46.53185" lon="0.33084">
        <ele>123.2</ele>
        <time>2024-01-14T10:00:32Z</time>
      </trkpt>
      <trkpt lat="46.53184" lon="0.33067">
        <ele>123</ele>
        <time>2024-01-14T10:00:34Z</time>
      </trkpt>
      <trkpt lat="46.53185" lon="0.33054">
        <ele>123</ele>
        <time>2024-01-14T10:00:36Z</time>
      </trkpt>
      <trkpt lat="46.53189" lon="0.33045">
        <ele>122.8</ele>
        <time>2024-01-14T10:00:38Z</time>
      </trkpt>
      <trkpt lat="46.53202" lon="0.33028">
        <ele>123</ele>
        <time>2024-01-14T10:00:42Z</time>
      </trkpt>
      <trkpt lat="46.53207" lon="0.33018">
        <ele>123.2</ele>
        <time>2024-01-14T10:00:44Z</time>
      </trkpt>
      <trkpt lat="46.5321" lon="0.33014">
        <ele>123.2</ele>
        <time>2024-01-14T10:00:45Z</time>
      </trkpt>
      <trkpt lat="46.53217" lon="0.3301">
        <ele>123</ele>
        <time>2024-01-14T10:00:47Z</time>
      </trkpt>
      <trkpt lat="46.5322" lon="0.3301">
        <ele>123</ele>
        <time>2024-01-14T10:00:48Z</time>
      </trkpt>
      <trkpt lat="46.53223" lon="0.33012">
        <ele>123.2</ele>
        <time>2024-01-14T10:00:49Z</time>
      </trkpt>
      <trkpt lat="46.53229" lon="0.33018">
        <ele>123.2</ele>
        <time>2024-01-14T10:00:51Z</time>
      </trkpt>
      <trkpt lat="46.53233" lon="0.3302">
        <ele>123</ele>
        <time>2024-01-14T10:00:52Z</time>
      </trkpt>
      <trkpt lat="46.53236" lon="0.33022">
        <ele>123</ele>
        <time>2024-01-14T10:00:53Z</time>
      </trkpt>
      <trkpt lat="46.53243" lon="0.33023">
        <ele>122.8</ele>
        <time>2024-01-14T10:00:55Z</time>
      </trkpt>
      <trkpt lat="46.53246" lon="0.33022">
        <ele>122.8</ele>
        <time>2024-01-14T10:00:56Z</time>
      </trkpt>
      <trkpt lat="46.53254" lon="0.3302">
        <ele>122.6</ele>
        <time>2024-01-14T10:00:58Z</time>
      </trkpt>
      <trkpt lat="46.5326" lon="0.3302">
        <ele>122.6</ele>
        <time>2024-01-14T10:01:00Z</time>
      </trkpt>
      <trkpt lat="46.53263" lon="0.33018">
        <ele>122.6</ele>
        <time>2024-01-14T10:01:01Z</time>
      </trkpt>
      <trkpt lat="46.53266" lon="0.33016">
        <ele>122.6</ele>
        <time>2024-01-14T10:01:02Z</time>
      </trkpt>
      <trkpt lat="46.53276" lon="0.33012">
        <ele>122.8</ele>
        <time>2024-01-14T10:01:05Z</time>
      </trkpt>
      <trkpt lat="46.5328" lon="0.33006">
        <ele>122.8</ele>
        <time>2024-01-14T10:01:07Z</time>
      </trkpt>
      <trkpt lat="46.53286" lon="0.32997">
        <ele>122.6</ele>
        <time>2024-01-14T10:01:09Z</time>
      </trkpt>
      <trkpt lat="46.53296" lon="0.32981">
        <ele>122.6</ele>
        <time>2024-01-14T10:01:13Z</time>
      </trkpt>
      <trkpt lat="46.53298" lon="0.32978">
        <ele>122.8</ele>
        <time>2024-01-14T10:01:14Z</time>
      </trkpt>
      <trkpt lat="46.53302" lon="0.32975">
        <ele>123</ele>
        <time>2024-01-14T10:01:15Z</time>
      </trkpt>
      <trkpt lat="46.5331" lon="0.32971">
        <ele>123</ele>
        <time>2024-01-14T10:01:17Z</time>
      </trkpt>
      <trkpt lat="46.53314" lon="0.32971">
        <ele>123</ele>
        <time>2024-01-14T10:01:18Z</time>
      </trkpt>
      <trkpt lat="46.53328" lon="0.32982">
        <ele>122</ele>
        <time>2024-01-14T10:01:23Z</time>
      </trkpt>
      <trkpt lat="46.53337" lon="0.32993">
        <ele>121.6</ele>
        <time>2024-01-14T10:01:26Z</time>
      </trkpt>
      <trkpt lat="46.53341" lon="0.32997">
        <ele>121.4</ele>
        <time>2024-01-14T10:01:27Z</time>
      </trkpt>
      <trkpt lat="46.53346" lon="0.33005">
        <ele>121</ele>
        <time>2024-01-14T10:01:29Z</time>
      </trkpt>
      <trkpt lat="46.5335" lon="0.33011">
        <ele>120.4</ele>
        <time>2024-01-14T10:01:31Z</time>
      </trkpt>
      <trkpt lat="46.53357" lon="0.33023">
        <ele>119.8</ele>
        <time>2024-01-14T10:01:34Z</time>
      </trkpt>
      <trkpt lat="46.53363" lon="0.33031">
        <ele>119</ele>
        <time>2024-01-14T10:01:36Z</time>
      </trkpt>
      <trkpt lat="46.53369" lon="0.33039">
        <ele>117.6</ele>
        <time>2024-01-14T10:01:38Z</time>
      </trkpt>
      <trkpt lat="46.53372" lon="0.33042">
        <ele>116.6</ele>
        <time>2024-01-14T10:01:39Z</time>
      </trkpt>
      <trkpt lat="46.53374" lon="0.33043">
        <ele>116</ele>
        <time>2024-01-14T10:01:40Z</time>
      </trkpt>
      <trkpt lat="46.53377" lon="0.33044">
        <ele>115.6</ele>
        <time>2024-01-14T10:01:41Z</time>
      </trkpt>
      <trkpt lat="46.53385" lon="0.33048">
        <ele>114.8</ele>
        <time>2024-01-14T10:01:43Z</time>
      </trkpt>
      <trkpt lat="46.53388" lon="0.3305">
        <ele>114.6</ele>
        <time>2024-01-14T10:01:44Z</time>
      </trkpt>
      <trkpt lat="46.53394" lon="0.33055">
        <ele>113.6</ele>
        <time>2024-01-14T10:01:46Z</time>
      </trkpt>
      <trkpt lat="46.53397" lon="0.33058">
        <ele>113.2</ele>
        <time>2024-01-14T10:01:47Z</time>
      </trkpt>
      <trkpt lat="46.53403" lon="0.33068">
        <ele>112.4</ele>
        <time>2024-01-14T10:01:50Z</time>
      </trkpt>
      <trkpt lat="46.53405" lon="0.33072">
        <ele>112.2</ele>
        <time>2024-01-14T10:01:51Z</time>
      </trkpt>
      <trkpt lat="46.53408" lon="0.33081">
        <ele>111.8</ele>
        <time>2024-01-14T10:01:53Z</time>
      </trkpt>
      <trkpt lat="46.53408" lon="0.33086">
        <ele>111.6</ele>
        <time>2024-01-14T10:01:54Z</time>
      </trkpt>
      <trkpt lat="46.53408" lon="0.33096">
        <ele>111.4</ele>
        <time>2024-01-14T10:01:56Z</time>
      </trkpt>
      <trkpt lat="46.53409" lon="0.33101">
        <ele>111.6</ele>
        <time>2024-01-14T10:01:57Z</time>
      </trkpt>
      <trkpt lat="46.5341" lon="0.33104">
        <ele>111.6</ele>
        <time>2024-01-14T10:01:58Z</time>
      </trkpt>
      <trkpt lat="46.53417" lon="0.33117">
        <ele>112.8</ele>
        <time>2024-01-14T10:02:02Z</time>
      </trkpt>
      <trkpt lat="46.53421" lon="0.33127">
        <ele>113.6</ele>
        <time>2024-01-14T10:02:04Z</time>
      </trkpt>
      <trkpt lat="46.53441" lon="0.33162">
        <ele>114.2</ele>
        <time>2024-01-14T10:02:09Z</time>
      </trkpt>
      <trkpt lat="46.53448" lon="0.33182">
        <ele>114.2</ele>
        <time>2024-01-14T10:02:13Z</time>
      </trkpt>
      <trkpt lat="46.53454" lon="0.3319">
        <ele>114</ele>
        <time>2024-01-14T10:02:15Z</time>
      </trkpt>
      <trkpt lat="46.53462" lon="0.33201">
        <ele>114</ele>
        <time>2024-01-14T10:02:18Z</time>
      </trkpt>
      <trkpt lat="46.53473" lon="0.33213">
        <ele>114.6</ele>
        <time>2024-01-14T10:02:21Z</time>
      </trkpt>
      <trkpt lat="46.53482" lon="0.33222">
        <ele>114.8</ele>
        <time>2024-01-14T10:02:23Z</time>
      </trkpt>
      <trkpt lat="46.53497" lon="0.33239">
        <ele>115</ele>
        <time>2024-01-14T10:02:27Z</time>
      </trkpt>
      <trkpt lat="46.53503" lon="0.33243">
        <ele>114.8</ele>
        <time>2024-01-14T10:02:28Z</time>
      </trkpt>
      <trkpt lat="46.53511" lon="0.33254">
        <ele>114.8</ele>
        <time>2024-01-14T10:02:30Z</time>
      </trkpt>
      <trkpt lat="46.53526" lon="0.3327">
        <ele>114.2</ele>
        <time>2024-01-14T10:02:33Z</time>
      </trkpt>
      <trkpt lat="46.53548" lon="0.33297">
        <ele>114.2</ele>
        <time>2024-01-14T10:02:37Z</time>
      </trkpt>
      <trkpt lat="46.53553" lon="0.33303">
        <ele>114.4</ele>
        <time>2024-01-14T10:02:38Z</time>
      </trkpt>
      <trkpt lat="46.53559" lon="0.33306">
        <ele>114.4</ele>
        <time>2024-01-14T10:02:39Z</time>
      </trkpt>
      <trkpt lat="46.53578" lon="0.33313">
        <ele>114.6</ele>
        <time>2024-01-14T10:02:42Z</time>
      </trkpt>
      <trkpt lat="46.53607" lon="0.33321">
        <ele>114.6</ele>
        <time>2024-01-14T10:02:47Z</time>
      </trkpt>
      <trkpt lat="46.53616" lon="0.33317">
        <ele>114.2</ele>
        <time>2024-01-14T10:02:49Z</time>
      </trkpt>
      <trkpt lat="46.5362" lon="0.33313">
        <ele>114</ele>
        <time>2024-01-14T10:02:50Z</time>
      </trkpt>
      <trkpt lat="46.53627" lon="0.33302">
        <ele>113.6</ele>
        <time>2024-01-14T10:02:52Z</time>
      </trkpt>
      <trkpt lat="46.53644" lon="0.33278">
        <ele>113</ele>
        <time>2024-01-14T10:02:56Z</time>
      </trkpt>
      <trkpt lat="46.53652" lon="0.33265">
        <ele>112.4</ele>
        <time>2024-01-14T10:02:58Z</time>
      </trkpt>
      <trkpt lat="46.53665" lon="0.33245">
        <ele>111.8</ele>
        <time>2024-01-14T10:03:01Z</time>
      </trkpt>
      <trkpt lat="46.53684" lon="0.33221">
        <ele>110.8</ele>
        <time>2024-01-14T10:03:05Z</time>
      </trkpt>
      <trkpt lat="46.53687" lon="0.33216">
        <ele>110.4</ele>
        <time>2024-01-14T10:03:06Z</time>
      </trkpt>
      <trkpt lat="46.5369" lon="0.33212">
        <ele>109.8</ele>
        <time>2024-01-14T10:03:07Z</time>
      </trkpt>
      <trkpt lat="46.53693" lon="0.3321">
        <ele>109.6</ele>
        <time>2024-01-14T10:03:08Z</time>
      </trkpt>
      <trkpt lat="46.53697" lon="0.33209">
        <ele>108.8</ele>
        <time>2024-01-14T10:03:09Z</time>
      </trkpt>
      <trkpt lat="46.537" lon="0.33209">
        <ele>108.4</ele>
        <time>2024-01-14T10:03:10Z</time>
      </trkpt>
      <trkpt lat="46.53714" lon="0.33215">
        <ele>107.6</ele>
        <time>2024-01-14T10:03:14Z</time>
      </trkpt>
      <trkpt lat="46.53723" lon="0.33219">
        <ele>107.4</ele>
        <time>2024-01-14T10:03:16Z</time>
      </trkpt>
      <trkpt lat="46.53727" lon="0.3322">
        <ele>107.2</ele>
        <time>2024-01-14T10:03:17Z</time>
      </trkpt>
      <trkpt lat="46.5373" lon="0.33221">
        <ele>106.8</ele>
        <time>2024-01-14T10:03:18Z</time>
      </trkpt>
      <trkpt lat="46.53738" lon="0.33214">
        <ele>106</ele>
        <time>2024-01-14T10:03:21Z</time>
      </trkpt>
      <trkpt lat="46.5374" lon="0.3321">
        <ele>105.2</ele>
        <time>2024-01-14T10:03:22Z</time>
      </trkpt>
      <trkpt lat="46.53743" lon="0.33205">
        <ele>104</ele>
        <time>2024-01-14T10:03:23Z</time>
      </trkpt>
      <trkpt lat="46.53747" lon="0.33192">
        <ele>103</ele>
        <time>2024-01-14T10:03:25Z</time>
      </trkpt>
      <trkpt lat="46.53751" lon="0.33182">
        <ele>102.6</ele>
        <time>2024-01-14T10:03:27Z</time>
      </trkpt>
      <trkpt lat="46.53754" lon="0.33172">
        <ele>102.6</ele>
        <time>2024-01-14T10:03:31Z</time>
      </trkpt>
      <trkpt lat="46.53759" lon="0.33158">
        <ele>104.2</ele>
        <time>2024-01-14T10:03:36Z</time>
      </trkpt>
      <trkpt lat="46.53761" lon="0.33153">
        <ele>104.6</ele>
        <time>2024-01-14T10:03:38Z</time>
      </trkpt>
      <trkpt lat="46.53771" lon="0.33134">
        <ele>104.4</ele>
        <time>2024-01-14T10:03:44Z</time>
      </trkpt>
      <trkpt lat="46.53776" lon="0.33125">
        <ele>104.4</ele>
        <time>2024-01-14T10:03:47Z</time>
      </trkpt>
      <trkpt lat="46.5378" lon="0.33117">
        <ele>104.4</ele>
        <time>2024-01-14T10:03:50Z</time>
      </trkpt>
      <trkpt lat="46.53786" lon="0.33091">
        <ele>103.6</ele>
        <time>2024-01-14T10:03:57Z</time>
      </trkpt>
      <trkpt lat="46.53788" lon="0.33082">
        <ele>103</ele>
        <time>2024-01-14T10:03:59Z</time>
      </trkpt>
      <trkpt lat="46.53794" lon="0.33067">
        <ele>102.2</ele>
        <time>2024-01-14T10:04:02Z</time>
      </trkpt>
      <trkpt lat="46.53798" lon="0.33062">
        <ele>101.8</ele>
        <time>2024-01-14T10:04:03Z</time>
      </trkpt>
      <trkpt lat="46.53804" lon="0.33049">
        <ele>101.4</ele>
        <time>2024-01-14T10:04:06Z</time>
      </trkpt>
      <trkpt lat="46.53805" lon="0.33046">
        <ele>101.4</ele>
        <time>2024-01-14T10:04:07Z</time>
      </trkpt>
      <trkpt lat="46.5381" lon="0.3304">
        <ele>101.8</ele>
        <time>2024-01-14T10:04:09Z</time>
      </trkpt>
      <trkpt lat="46.53818" lon="0.33029">
        <ele>102.4</ele>
        <time>2024-01-14T10:04:12Z</time>
      </trkpt>
      <trkpt lat="46.53826" lon="0.3302">
        <ele>102.8</ele>
        <time>2024-01-14T10:04:15Z</time>
      </trkpt>
      <trkpt lat="46.53827" lon="0.33017">
        <ele>103</ele>
        <time>2024-01-14T10:04:16Z</time>
      </trkpt>
      <trkpt lat="46.53828" lon="0.33013">
        <ele>103.2</ele>
        <time>2024-01-14T10:04:17Z</time>
      </trkpt>
      <trkpt lat="46.53833" lon="0.33001">
        <ele>104.2</ele>
        <time>2024-01-14T10:04:20Z</time>
      </trkpt>
      <trkpt lat="46.53835" lon="0.32997">
        <ele>104.4</ele>
        <time>2024-01-14T10:04:21Z</time>
      </trkpt>
      <trkpt lat="46.5384" lon="0.32987">
        <ele>105.2</ele>
        <time>2024-01-14T10:04:24Z</time>
      </trkpt>
      <trkpt lat="46.53843" lon="0.32979">
        <ele>106</ele>
        <time>2024-01-14T10:04:26Z</time>
      </trkpt>
      <trkpt lat="46.53846" lon="0.32976">
        <ele>106.4</ele>
        <time>2024-01-14T10:04:27Z</time>
      </trkpt>
      <trkpt lat="46.53858" lon="0.3296">
        <ele>106.6</ele>
        <time>2024-01-14T10:04:32Z</time>
      </trkpt>
      <trkpt lat="46.53865" lon="0.32948">
        <ele>106.6</ele>
        <time>2024-01-14T10:04:36Z</time>
      </trkpt>
      <trkpt lat="46.53866" lon="0.32945">
        <ele>106.6</ele>
        <time>2024-01-14T10:04:37Z</time>
      </trkpt>
      <trkpt lat="46.53871" lon="0.32932">
        <ele>107.8</ele>
        <time>2024-01-14T10:04:41Z</time>
      </trkpt>
      <trkpt lat="46.53879" lon="0.32928">
        <ele>108.6</ele>
        <time>2024-01-14T10:04:43Z</time>
      </trkpt>
      <trkpt lat="46.5388" lon="0.32926">
        <ele>108.8</ele>
        <time>2024-01-14T10:04:44Z</time>
      </trkpt>
      <trkpt lat="46.53881" lon="0.32917">
        <ele>109.4</ele>
        <time>2024-01-14T10:04:47Z</time>
      </trkpt>
      <trkpt lat="46.53884" lon="0.32906">
        <ele>109.6</ele>
        <time>2024-01-14T10:04:50Z</time>
      </trkpt>
      <trkpt lat="46.53892" lon="0.32895">
        <ele>109.8</ele>
        <time>2024-01-14T10:04:53Z</time>
      </trkpt>
      <trkpt lat="46.53894" lon="0.32892">
        <ele>109.6</ele>
        <time>2024-01-14T10:04:54Z</time>
      </trkpt>
      <trkpt lat="46.53902" lon="0.32885">
        <ele>109</ele>
        <time>2024-01-14T10:04:57Z</time>
      </trkpt>
      <trkpt lat="46.53905" lon="0.32882">
        <ele>108.8</ele>
        <time>2024-01-14T10:04:58Z</time>
      </trkpt>
      <trkpt lat="46.5391" lon="0.32879">
        <ele>108.4</ele>
        <time>2024-01-14T10:04:59Z</time>
      </trkpt>
      <trkpt lat="46.53916" lon="0.32878">
        <ele>107.8</ele>
        <time>2024-01-14T10:05:01Z</time>
      </trkpt>
      <trkpt lat="46.53922" lon="0.32876">
        <ele>107.2</ele>
        <time>2024-01-14T10:05:03Z</time>
      </trkpt>
      <trkpt lat="46.53924" lon="0.3287">
        <ele>106.8</ele>
        <time>2024-01-14T10:05:05Z</time>
      </trkpt>
      <trkpt lat="46.53924" lon="0.32867">
        <ele>106.6</ele>
        <time>2024-01-14T10:05:06Z</time>
      </trkpt>
      <trkpt lat="46.53928" lon="0.32861">
        <ele>106.2</ele>
        <time>2024-01-14T10:05:09Z</time>
      </trkpt>
      <trkpt lat="46.53929" lon="0.3286">
        <ele>106</ele>
        <time>2024-01-14T10:05:10Z</time>
      </trkpt>
      <trkpt lat="46.53933" lon="0.32857">
        <ele>105.4</ele>
        <time>2024-01-14T10:05:12Z</time>
      </trkpt>
      <trkpt lat="46.53944" lon="0.3285">
        <ele>104.8</ele>
        <time>2024-01-14T10:05:16Z</time>
      </trkpt>
      <trkpt lat="46.53948" lon="0.32846">
        <ele>104.4</ele>
        <time>2024-01-14T10:05:18Z</time>
      </trkpt>
      <trkpt lat="46.53951" lon="0.32844">
        <ele>104.2</ele>
        <time>2024-01-14T10:05:19Z</time>
      </trkpt>
      <trkpt lat="46.53958" lon="0.3284">
        <ele>104</ele>
        <time>2024-01-14T10:05:21Z</time>
      </trkpt>
      <trkpt lat="46.53962" lon="0.32837">
        <ele>103.6</ele>
        <time>2024-01-14T10:05:22Z</time>
      </trkpt>
      <trkpt lat="46.53965" lon="0.32832">
        <ele>103</ele>
        <time>2024-01-14T10:05:24Z</time>
      </trkpt>
      <trkpt lat="46.53963" lon="0.32828">
        <ele>101.6</ele>
        <time>2024-01-14T10:05:27Z</time>
      </trkpt>
      <trkpt lat="46.53963" lon="0.32828">
        <ele>101</ele>
        <time>2024-01-14T10:05:28Z</time>
      </trkpt>
      <trkpt lat="46.53963" lon="0.32826">
        <ele>100.6</ele>
        <time>2024-01-14T10:05:30Z</time>
      </trkpt>
      <trkpt lat="46.53962" lon="0.32823">
        <ele>100.2</ele>
        <time>2024-01-14T10:05:32Z</time>
      </trkpt>
      <trkpt lat="46.53961" lon="0.32823">
        <ele>100</ele>
        <time>2024-01-14T10:05:33Z</time>
      </trkpt>
      <trkpt lat="46.5396" lon="0.32822">
        <ele>99.6</ele>
        <time>2024-01-14T10:05:35Z</time>
      </trkpt>
      <trkpt lat="46.53956" lon="0.3282">
        <ele>99.4</ele>
        <time>2024-01-14T10:05:38Z</time>
      </trkpt>
      <trkpt lat="46.53951" lon="0.3282">
        <ele>100.6</ele>
        <time>2024-01-14T10:05:42Z</time>
      </trkpt>
      <trkpt lat="46.53946" lon="0.3282">
        <ele>101.6</ele>
        <time>2024-01-14T10:05:45Z</time>
      </trkpt>
      <trkpt lat="46.53938" lon="0.32822">
        <ele>103.2</ele>
        <time>2024-01-14T10:05:49Z</time>
      </trkpt>
      <trkpt lat="46.53934" lon="0.32823">
        <ele>103.6</ele>
        <time>2024-01-14T10:05:51Z</time>
      </trkpt>
      <trkpt lat="46.53929" lon="0.32824">
        <ele>104.2</ele>
        <time>2024-01-14T10:05:54Z</time>
      </trkpt>
      <trkpt lat="46.53927" lon="0.32824">
        <ele>104.6</ele>
        <time>2024-01-14T10:05:55Z</time>
      </trkpt>
      <trkpt lat="46.53923" lon="0.32824">
        <ele>105</ele>
        <time>2024-01-14T10:05:57Z</time>
      </trkpt>
      <trkpt lat="46.53918" lon="0.32823">
        <ele>105.4</ele>
        <time>2024-01-14T10:05:59Z</time>
      </trkpt>
      <trkpt lat="46.53907" lon="0.3282">
        <ele>105.8</ele>
        <time>2024-01-14T10:06:03Z</time>
      </trkpt>
      <trkpt lat="46.53892" lon="0.32816">
        <ele>106</ele>
        <time>2024-01-14T10:06:08Z</time>
      </trkpt>
      <trkpt lat="46.53878" lon="0.32809">
        <ele>106</ele>
        <time>2024-01-14T10:06:12Z</time>
      </trkpt>
      <trkpt lat="46.53867" lon="0.32803">
        <ele>106.4</ele>
        <time>2024-01-14T10:06:15Z</time>
      </trkpt>
      <trkpt lat="46.53863" lon="0.32802">
        <ele>106.4</ele>
        <time>2024-01-14T10:06:16Z</time>
      </trkpt>
      <trkpt lat="46.53856" lon="0.32799">
        <ele>106.6</ele>
        <time>2024-01-14T10:06:18Z</time>
      </trkpt>
      <trkpt lat="46.53841" lon="0.32791">
        <ele>107</ele>
        <time>2024-01-14T10:06:21Z</time>
      </trkpt>
      <trkpt lat="46.53821" lon="0.32784">
        <ele>107.4</ele>
        <time>2024-01-14T10:06:25Z</time>
      </trkpt>
      <trkpt lat="46.53806" lon="0.32781">
        <ele>107.6</ele>
        <time>2024-01-14T10:06:28Z</time>
      </trkpt>
      <trkpt lat="46.53771" lon="0.32774">
        <ele>108</ele>
        <time>2024-01-14T10:06:35Z</time>
      </trkpt>
      <trkpt lat="46.53763" lon="0.32772">
        <ele>108.2</ele>
        <time>2024-01-14T10:06:37Z</time>
      </trkpt>
      <trkpt lat="46.53748" lon="0.32768">
        <ele>108.8</ele>
        <time>2024-01-14T10:06:40Z</time>
      </trkpt>
      <trkpt lat="46.5373" lon="0.32766">
        <ele>109.8</ele>
        <time>2024-01-14T10:06:45Z</time>
      </trkpt>
      <trkpt lat="46.53726" lon="0.32765">
        <ele>110</ele>
        <time>2024-01-14T10:06:46Z</time>
      </trkpt>
      <trkpt lat="46.53708" lon="0.32762">
        <ele>110.8</ele>
        <time>2024-01-14T10:06:51Z</time>
      </trkpt>
      <trkpt lat="46.53705" lon="0.32761">
        <ele>111</ele>
        <time>2024-01-14T10:06:52Z</time>
      </trkpt>
      <trkpt lat="46.53692" lon="0.3276">
        <ele>112</ele>
        <time>2024-01-14T10:06:56Z</time>
      </trkpt>
      <trkpt lat="46.53684" lon="0.32761">
        <ele>112.8</ele>
        <time>2024-01-14T10:06:59Z</time>
      </trkpt>
      <trkpt lat="46.5368" lon="0.32761">
        <ele>113</ele>
        <time>2024-01-14T10:07:01Z</time>
      </trkpt>
      <trkpt lat="46.53677" lon="0.3276">
        <ele>113</ele>
        <time>2024-01-14T10:07:02Z</time>
      </trkpt>
      <trkpt lat="46.53673" lon="0.32756">
        <ele>113.2</ele>
        <time>2024-01-14T10:07:04Z</time>
      </trkpt>
      <trkpt lat="46.53669" lon="0.32744">
        <ele>112.8</ele>
        <time>2024-01-14T10:07:07Z</time>
      </trkpt>
      <trkpt lat="46.53667" lon="0.32733">
        <ele>112</ele>
        <time>2024-01-14T10:07:09Z</time>
      </trkpt>
      <trkpt lat="46.53668" lon="0.32717">
        <ele>110.4</ele>
        <time>2024-01-14T10:07:12Z</time>
      </trkpt>
      <trkpt lat="46.53668" lon="0.32703">
        <ele>108.8</ele>
        <time>2024-01-14T10:07:14Z</time>
      </trkpt>
      <trkpt lat="46.53668" lon="0.32697">
        <ele>107.4</ele>
        <time>2024-01-14T10:07:15Z</time>
      </trkpt>
      <trkpt lat="46.53667" lon="0.32687">
        <ele>105.6</ele>
        <time>2024-01-14T10:07:17Z</time>
      </trkpt>
      <trkpt lat="46.53665" lon="0.32684">
        <ele>104.6</ele>
        <time>2024-01-14T10:07:18Z</time>
      </trkpt>
      <trkpt lat="46.53663" lon="0.32682">
        <ele>103.8</ele>
        <time>2024-01-14T10:07:19Z</time>
      </trkpt>
      <trkpt lat="46.53659" lon="0.32677">
        <ele>102.4</ele>
        <time>2024-01-14T10:07:21Z</time>
      </trkpt>
      <trkpt lat="46.53654" lon="0.32671">
        <ele>101.8</ele>
        <time>2024-01-14T10:07:23Z</time>
      </trkpt>
      <trkpt lat="46.53651" lon="0.32662">
        <ele>101.6</ele>
        <time>2024-01-14T10:07:25Z</time>
      </trkpt>
      <trkpt lat="46.53651" lon="0.32656">
        <ele>101.2</ele>
        <time>2024-01-14T10:07:26Z</time>
      </trkpt>
      <trkpt lat="46.53652" lon="0.3265">
        <ele>100.8</ele>
        <time>2024-01-14T10:07:27Z</time>
      </trkpt>
      <trkpt lat="46.53654" lon="0.32648">
        <ele>100</ele>
        <time>2024-01-14T10:07:28Z</time>
      </trkpt>
      <trkpt lat="46.53655" lon="0.32643">
        <ele>98.8</ele>
        <time>2024-01-14T10:07:29Z</time>
      </trkpt>
      <trkpt lat="46.53655" lon="0.32637">
        <ele>97.8</ele>
        <time>2024-01-14T10:07:30Z</time>
      </trkpt>
      <trkpt lat="46.53657" lon="0.32628">
        <ele>96.6</ele>
        <time>2024-01-14T10:07:32Z</time>
      </trkpt>
      <trkpt lat="46.53659" lon="0.3262">
        <ele>95.8</ele>
        <time>2024-01-14T10:07:35Z</time>
      </trkpt>
      <trkpt lat="46.53659" lon="0.32618">
        <ele>94.4</ele>
        <time>2024-01-14T10:07:36Z</time>
      </trkpt>
      <trkpt lat="46.53658" lon="0.32616">
        <ele>93.4</ele>
        <time>2024-01-14T10:07:37Z</time>
      </trkpt>
      <trkpt lat="46.53656" lon="0.32616">
        <ele>92.6</ele>
        <time>2024-01-14T10:07:39Z</time>
      </trkpt>
      <trkpt lat="46.53644" lon="0.32613">
        <ele>93.2</ele>
        <time>2024-01-14T10:07:46Z</time>
      </trkpt>
      <trkpt lat="46.53638" lon="0.32609">
        <ele>94.6</ele>
        <time>2024-01-14T10:07:49Z</time>
      </trkpt>
      <trkpt lat="46.53627" lon="0.32607">
        <ele>95.8</ele>
        <time>2024-01-14T10:07:54Z</time>
      </trkpt>
      <trkpt lat="46.5362" lon="0.32606">
        <ele>96.8</ele>
        <time>2024-01-14T10:07:58Z</time>
      </trkpt>
      <trkpt lat="46.53615" lon="0.32605">
        <ele>97.8</ele>
        <time>2024-01-14T10:08:01Z</time>
      </trkpt>
      <trkpt lat="46.53613" lon="0.32607">
        <ele>98.2</ele>
        <time>2024-01-14T10:08:02Z</time>
      </trkpt>
      <trkpt lat="46.53606" lon="0.3261">
        <ele>99.4</ele>
        <time>2024-01-14T10:08:07Z</time>
      </trkpt>
      <trkpt lat="46.53603" lon="0.32611">
        <ele>99.8</ele>
        <time>2024-01-14T10:08:09Z</time>
      </trkpt>
      <trkpt lat="46.53598" lon="0.32611">
        <ele>100.6</ele>
        <time>2024-01-14T10:08:12Z</time>
      </trkpt>
      <trkpt lat="46.53588" lon="0.3261">
        <ele>101.6</ele>
        <time>2024-01-14T10:08:18Z</time>
      </trkpt>
      <trkpt lat="46.53578" lon="0.32612">
        <ele>102.8</ele>
        <time>2024-01-14T10:08:23Z</time>
      </trkpt>
      <trkpt lat="46.53574" lon="0.32613">
        <ele>103.4</ele>
        <time>2024-01-14T10:08:25Z</time>
      </trkpt>
      <trkpt lat="46.53569" lon="0.32614">
        <ele>103.8</ele>
        <time>2024-01-14T10:08:28Z</time>
      </trkpt>
      <trkpt lat="46.53559" lon="0.32616">
        <ele>104.4</ele>
        <time>2024-01-14T10:08:33Z</time>
      </trkpt>
      <trkpt lat="46.53556" lon="0.32617">
        <ele>105</ele>
        <time>2024-01-14T10:08:35Z</time>
      </trkpt>
      <trkpt lat="46.5355" lon="0.3262">
        <ele>106</ele>
        <time>2024-01-14T10:08:39Z</time>
      </trkpt>
      <trkpt lat="46.5354" lon="0.32623">
        <ele>107.2</ele>
        <time>2024-01-14T10:08:44Z</time>
      </trkpt>
      <trkpt lat="46.53537" lon="0.32625">
        <ele>107.4</ele>
        <time>2024-01-14T10:08:46Z</time>
      </trkpt>
      <trkpt lat="46.53528" lon="0.32628">
        <ele>108.2</ele>
        <time>2024-01-14T10:08:51Z</time>
      </trkpt>
      <trkpt lat="46.53524" lon="0.32629">
        <ele>108.6</ele>
        <time>2024-01-14T10:08:53Z</time>
      </trkpt>
      <trkpt lat="46.53518" lon="0.32631">
        <ele>109.4</ele>
        <time>2024-01-14T10:08:56Z</time>
      </trkpt>
      <trkpt lat="46.5351" lon="0.32634">
        <ele>109.8</ele>
        <time>2024-01-14T10:09:01Z</time>
      </trkpt>
      <trkpt lat="46.53506" lon="0.32635">
        <ele>110.6</ele>
        <time>2024-01-14T10:09:03Z</time>
      </trkpt>
      <trkpt lat="46.53493" lon="0.3264">
        <ele>111.6</ele>
        <time>2024-01-14T10:09:09Z</time>
      </trkpt>
      <trkpt lat="46.53491" lon="0.32641">
        <ele>111.6</ele>
        <time>2024-01-14T10:09:10Z</time>
      </trkpt>
      <trkpt lat="46.53484" lon="0.32645">
        <ele>112.4</ele>
        <time>2024-01-14T10:09:14Z</time>
      </trkpt>
      <trkpt lat="46.53481" lon="0.32646">
        <ele>112.6</ele>
        <time>2024-01-14T10:09:16Z</time>
      </trkpt>
      <trkpt lat="46.53471" lon="0.32652">
        <ele>113.6</ele>
        <time>2024-01-14T10:09:21Z</time>
      </trkpt>
      <trkpt lat="46.53459" lon="0.32656">
        <ele>114.6</ele>
        <time>2024-01-14T10:09:27Z</time>
      </trkpt>
      <trkpt lat="46.53456" lon="0.32656">
        <ele>114.8</ele>
        <time>2024-01-14T10:09:28Z</time>
      </trkpt>
      <trkpt lat="46.53444" lon="0.32658">
        <ele>115.6</ele>
        <time>2024-01-14T10:09:33Z</time>
      </trkpt>
      <trkpt lat="46.53433" lon="0.32659">
        <ele>115.8</ele>
        <time>2024-01-14T10:09:37Z</time>
      </trkpt>
      <trkpt lat="46.53426" lon="0.3266">
        <ele>116.6</ele>
        <time>2024-01-14T10:09:40Z</time>
      </trkpt>
      <trkpt lat="46.53421" lon="0.32661">
        <ele>117</ele>
        <time>2024-01-14T10:09:42Z</time>
      </trkpt>
      <trkpt lat="46.53409" lon="0.3266">
        <ele>117.4</ele>
        <time>2024-01-14T10:09:47Z</time>
      </trkpt>
      <trkpt lat="46.53393" lon="0.32656">
        <ele>117.8</ele>
        <time>2024-01-14T10:09:55Z</time>
      </trkpt>
      <trkpt lat="46.53378" lon="0.32648">
        <ele>117.4</ele>
        <time>2024-01-14T10:10:01Z</time>
      </trkpt>
      <trkpt lat="46.53374" lon="0.32647">
        <ele>117.4</ele>
        <time>2024-01-14T10:10:02Z</time>
      </trkpt>
      <trkpt lat="46.53355" lon="0.32638">
        <ele>117.2</ele>
        <time>2024-01-14T10:10:06Z</time>
      </trkpt>
      <trkpt lat="46.53349" lon="0.32634">
        <ele>117.4</ele>
        <time>2024-01-14T10:10:08Z</time>
      </trkpt>
      <trkpt lat="46.53345" lon="0.32628">
        <ele>117.2</ele>
        <time>2024-01-14T10:10:10Z</time>
      </trkpt>
      <trkpt lat="46.53335" lon="0.32602">
        <ele>116.8</ele>
        <time>2024-01-14T10:10:15Z</time>
      </trkpt>
      <trkpt lat="46.53331" lon="0.32581">
        <ele>115.8</ele>
        <time>2024-01-14T10:10:18Z</time>
      </trkpt>
      <trkpt lat="46.53329" lon="0.3256">
        <ele>115.2</ele>
        <time>2024-01-14T10:10:20Z</time>
      </trkpt>
      <trkpt lat="46.53329" lon="0.32551">
        <ele>113.8</ele>
        <time>2024-01-14T10:10:21Z</time>
      </trkpt>
      <trkpt lat="46.5333" lon="0.32532">
        <ele>111.8</ele>
        <time>2024-01-14T10:10:23Z</time>
      </trkpt>
      <trkpt lat="46.5333" lon="0.32512">
        <ele>109.8</ele>
        <time>2024-01-14T10:10:25Z</time>
      </trkpt>
      <trkpt lat="46.53329" lon="0.32494">
        <ele>108</ele>
        <time>2024-01-14T10:10:27Z</time>
      </trkpt>
      <trkpt lat="46.53329" lon="0.32488">
        <ele>106.4</ele>
        <time>2024-01-14T10:10:28Z</time>
      </trkpt>
      <trkpt lat="46.53328" lon="0.32483">
        <ele>105.4</ele>
        <time>2024-01-14T10:10:29Z</time>
      </trkpt>
      <trkpt lat="46.53325" lon="0.32477">
        <ele>105</ele>
        <time>2024-01-14T10:10:30Z</time>
      </trkpt>
      <trkpt lat="46.53323" lon="0.32473">
        <ele>104.6</ele>
        <time>2024-01-14T10:10:32Z</time>
      </trkpt>
      <trkpt lat="46.5332" lon="0.3247">
        <ele>104.4</ele>
        <time>2024-01-14T10:10:34Z</time>
      </trkpt>
      <trkpt lat="46.53314" lon="0.32467">
        <ele>105.4</ele>
        <time>2024-01-14T10:10:37Z</time>
      </trkpt>
      <trkpt lat="46.5331" lon="0.32465">
        <ele>106.4</ele>
        <time>2024-01-14T10:10:39Z</time>
      </trkpt>
      <trkpt lat="46.53308" lon="0.32464">
        <ele>106.8</ele>
        <time>2024-01-14T10:10:40Z</time>
      </trkpt>
      <trkpt lat="46.53301" lon="0.32463">
        <ele>107.8</ele>
        <time>2024-01-14T10:10:44Z</time>
      </trkpt>
      <trkpt lat="46.53296" lon="0.32462">
        <ele>108.8</ele>
        <time>2024-01-14T10:10:47Z</time>
      </trkpt>
      <trkpt lat="46.53287" lon="0.32455">
        <ele>109.6</ele>
        <time>2024-01-14T10:10:51Z</time>
      </trkpt>
      <trkpt lat="46.53285" lon="0.32454">
        <ele>109.8</ele>
        <time>2024-01-14T10:10:52Z</time>
      </trkpt>
      <trkpt lat="46.53284" lon="0.32453">
        <ele>110.2</ele>
        <time>2024-01-14T10:10:53Z</time>
      </trkpt>
      <trkpt lat="46.53276" lon="0.3245">
        <ele>110.6</ele>
        <time>2024-01-14T10:10:56Z</time>
      </trkpt>
      <trkpt lat="46.53273" lon="0.32449">
        <ele>110.6</ele>
        <time>2024-01-14T10:10:57Z</time>
      </trkpt>
      <trkpt lat="46.53259" lon="0.32452">
        <ele>111.2</ele>
        <time>2024-01-14T10:11:02Z</time>
      </trkpt>
      <trkpt lat="46.53257" lon="0.32453">
        <ele>111.2</ele>
        <time>2024-01-14T10:11:03Z</time>
      </trkpt>
      <trkpt lat="46.5325" lon="0.32457">
        <ele>112.2</ele>
        <time>2024-01-14T10:11:07Z</time>
      </trkpt>
      <trkpt lat="46.53246" lon="0.32458">
        <ele>112.8</ele>
        <time>2024-01-14T10:11:09Z</time>
      </trkpt>
      <trkpt lat="46.53237" lon="0.3246">
        <ele>113.4</ele>
        <time>2024-01-14T10:11:13Z</time>
      </trkpt>
      <trkpt lat="46.53233" lon="0.32461">
        <ele>113.6</ele>
        <time>2024-01-14T10:11:15Z</time>
      </trkpt>
      <trkpt lat="46.53231" lon="0.32461">
        <ele>113.8</ele>
        <time>2024-01-14T10:11:16Z</time>
      </trkpt>
      <trkpt lat="46.53226" lon="0.32459">
        <ele>114.2</ele>
        <time>2024-01-14T10:11:19Z</time>
      </trkpt>
      <trkpt lat="46.53221" lon="0.32454">
        <ele>114.2</ele>
        <time>2024-01-14T10:11:22Z</time>
      </trkpt>
      <trkpt lat="46.53208" lon="0.32438">
        <ele>113.6</ele>
        <time>2024-01-14T10:11:28Z</time>
      </trkpt>
      <trkpt lat="46.53205" lon="0.32436">
        <ele>113.6</ele>
        <time>2024-01-14T10:11:29Z</time>
      </trkpt>
      <trkpt lat="46.53199" lon="0.3243">
        <ele>113.6</ele>
        <time>2024-01-14T10:11:31Z</time>
      </trkpt>
      <trkpt lat="46.53195" lon="0.32423">
        <ele>113.6</ele>
        <time>2024-01-14T10:11:33Z</time>
      </trkpt>
      <trkpt lat="46.53186" lon="0.32414">
        <ele>113.8</ele>
        <time>2024-01-14T10:11:36Z</time>
      </trkpt>
      <trkpt lat="46.53179" lon="0.3241">
        <ele>113.8</ele>
        <time>2024-01-14T10:11:38Z</time>
      </trkpt>
      <trkpt lat="46.53176" lon="0.32408">
        <ele>113.8</ele>
        <time>2024-01-14T10:11:39Z</time>
      </trkpt>
      <trkpt lat="46.53162" lon="0.32401">
        <ele>114.6</ele>
        <time>2024-01-14T10:11:43Z</time>
      </trkpt>
      <trkpt lat="46.53158" lon="0.32399">
        <ele>114.8</ele>
        <time>2024-01-14T10:11:44Z</time>
      </trkpt>
      <trkpt lat="46.53137" lon="0.32397">
        <ele>115.8</ele>
        <time>2024-01-14T10:11:51Z</time>
      </trkpt>
      <trkpt lat="46.53113" lon="0.32395">
        <ele>116.8</ele>
        <time>2024-01-14T10:11:58Z</time>
      </trkpt>
      <trkpt lat="46.5311" lon="0.32395">
        <ele>117</ele>
        <time>2024-01-14T10:11:59Z</time>
      </trkpt>
      <trkpt lat="46.53092" lon="0.32393">
        <ele>117.8</ele>
        <time>2024-01-14T10:12:05Z</time>
      </trkpt>
      <trkpt lat="46.53089" lon="0.32392">
        <ele>117.8</ele>
        <time>2024-01-14T10:12:06Z</time>
      </trkpt>
      <trkpt lat="46.53074" lon="0.32391">
        <ele>118.6</ele>
        <time>2024-01-14T10:12:11Z</time>
      </trkpt>
      <trkpt lat="46.53068" lon="0.32391">
        <ele>118.8</ele>
        <time>2024-01-14T10:12:13Z</time>
      </trkpt>
      <trkpt lat="46.53051" lon="0.32393">
        <ele>119.2</ele>
        <time>2024-01-14T10:12:18Z</time>
      </trkpt>
      <trkpt lat="46.53029" lon="0.32393">
        <ele>119.8</ele>
        <time>2024-01-14T10:12:24Z</time>
      </trkpt>
      <trkpt lat="46.5302" lon="0.32392">
        <ele>120</ele>
        <time>2024-01-14T10:12:26Z</time>
      </trkpt>
      <trkpt lat="46.53013" lon="0.32394">
        <ele>120.2</ele>
        <time>2024-01-14T10:12:28Z</time>
      </trkpt>
      <trkpt lat="46.53011" lon="0.32396">
        <ele>120.4</ele>
        <time>2024-01-14T10:12:29Z</time>
      </trkpt>
      <trkpt lat="46.53004" lon="0.32405">
        <ele>121.2</ele>
        <time>2024-01-14T10:12:32Z</time>
      </trkpt>
      <trkpt lat="46.52998" lon="0.32414">
        <ele>121.6</ele>
        <time>2024-01-14T10:12:35Z</time>
      </trkpt>
      <trkpt lat="46.52986" lon="0.32432">
        <ele>122.4</ele>
        <time>2024-01-14T10:12:40Z</time>
      </trkpt>
      <trkpt lat="46.52982" lon="0.3244">
        <ele>122.4</ele>
        <time>2024-01-14T10:12:42Z</time>
      </trkpt>
      <trkpt lat="46.52969" lon="0.32466">
        <ele>122.6</ele>
        <time>2024-01-14T10:12:48Z</time>
      </trkpt>
      <trkpt lat="46.52962" lon="0.32479">
        <ele>123.4</ele>
        <time>2024-01-14T10:12:51Z</time>
      </trkpt>
      <trkpt lat="46.52956" lon="0.32492">
        <ele>123.6</ele>
        <time>2024-01-14T10:12:54Z</time>
      </trkpt>
      <trkpt lat="46.52952" lon="0.32511">
        <ele>124</ele>
        <time>2024-01-14T10:13:00Z</time>
      </trkpt>
      <trkpt lat="46.52953" lon="0.32519">
        <ele>124.4</ele>
        <time>2024-01-14T10:13:03Z</time>
      </trkpt>
      <trkpt lat="46.52955" lon="0.32529">
        <ele>124.6</ele>
        <time>2024-01-14T10:13:06Z</time>
      </trkpt>
      <trkpt lat="46.52963" lon="0.32547">
        <ele>125</ele>
        <time>2024-01-14T10:13:11Z</time>
      </trkpt>
      <trkpt lat="46.52974" lon="0.32567">
        <ele>125.2</ele>
        <time>2024-01-14T10:13:16Z</time>
      </trkpt>
      <trkpt lat="46.52976" lon="0.3257">
        <ele>125.2</ele>
        <time>2024-01-14T10:13:17Z</time>
      </trkpt>
      <trkpt lat="46.52979" lon="0.32579">
        <ele>125.2</ele>
        <time>2024-01-14T10:13:19Z</time>
      </trkpt>
      <trkpt lat="46.52981" lon="0.32582">
        <ele>125.2</ele>
        <time>2024-01-14T10:13:20Z</time>
      </trkpt>
      <trkpt lat="46.52985" lon="0.32585">
        <ele>125.2</ele>
        <time>2024-01-14T10:13:21Z</time>
      </trkpt>
      <trkpt lat="46.52997" lon="0.32594">
        <ele>125</ele>
        <time>2024-01-14T10:13:24Z</time>
      </trkpt>
      <trkpt lat="46.53018" lon="0.32616">
        <ele>125</ele>
        <time>2024-01-14T10:13:29Z</time>
      </trkpt>
      <trkpt lat="46.53021" lon="0.3262">
        <ele>124.8</ele>
        <time>2024-01-14T10:13:30Z</time>
      </trkpt>
      <trkpt lat="46.53023" lon="0.32625">
        <ele>124.8</ele>
        <time>2024-01-14T10:13:31Z</time>
      </trkpt>
      <trkpt lat="46.53028" lon="0.32635">
        <ele>125</ele>
        <time>2024-01-14T10:13:33Z</time>
      </trkpt>
      <trkpt lat="46.53031" lon="0.32646">
        <ele>125.2</ele>
        <time>2024-01-14T10:13:35Z</time>
      </trkpt>
      <trkpt lat="46.53037" lon="0.32661">
        <ele>125.4</ele>
        <time>2024-01-14T10:13:38Z</time>
      </trkpt>
      <trkpt lat="46.53042" lon="0.32671">
        <ele>125.8</ele>
        <time>2024-01-14T10:13:40Z</time>
      </trkpt>
      <trkpt lat="46.53048" lon="0.32682">
        <ele>126</ele>
        <time>2024-01-14T10:13:42Z</time>
      </trkpt>
      <trkpt lat="46.53056" lon="0.32696">
        <ele>126</ele>
        <time>2024-01-14T10:13:45Z</time>
      </trkpt>
      <trkpt lat="46.53062" lon="0.32706">
        <ele>126</ele>
        <time>2024-01-14T10:13:47Z</time>
      </trkpt>
      <trkpt lat="46.53068" lon="0.32716">
        <ele>126.2</ele>
        <time>2024-01-14T10:13:49Z</time>
      </trkpt>
      <trkpt lat="46.53075" lon="0.32731">
        <ele>126.2</ele>
        <time>2024-01-14T10:13:52Z</time>
      </trkpt>
      <trkpt lat="46.53077" lon="0.32735">
        <ele>126.2</ele>
        <time>2024-01-14T10:13:53Z</time>
      </trkpt>
      <trkpt lat="46.53078" lon="0.32741">
        <ele>126.4</ele>
        <time>2024-01-14T10:13:54Z</time>
      </trkpt>
      <trkpt lat="46.5308" lon="0.32753">
        <ele>126.2</ele>
        <time>2024-01-14T10:13:56Z</time>
      </trkpt>
      <trkpt lat="46.53078" lon="0.32766">
        <ele>126.4</ele>
        <time>2024-01-14T10:13:58Z</time>
      </trkpt>
      <trkpt lat="46.53076" lon="0.32778">
        <ele>126.2</ele>
        <time>2024-01-14T10:14:00Z</time>
      </trkpt>
      <trkpt lat="46.53071" lon="0.32786">
        <ele>126</ele>
        <time>2024-01-14T10:14:02Z</time>
      </trkpt>
      <trkpt lat="46.53064" lon="0.32794">
        <ele>126</ele>
        <time>2024-01-14T10:14:05Z</time>
      </trkpt>
      <trkpt lat="46.53055" lon="0.32808">
        <ele>126.2</ele>
        <time>2024-01-14T10:14:09Z</time>
      </trkpt>
      <trkpt lat="46.53049" lon="0.32814">
        <ele>126</ele>
        <time>2024-01-14T10:14:11Z</time>
      </trkpt>
      <trkpt lat="46.5304" lon="0.32821">
        <ele>126</ele>
        <time>2024-01-14T10:14:14Z</time>
      </trkpt>
      <trkpt lat="46.53026" lon="0.32832">
        <ele>126.2</ele>
        <time>2024-01-14T10:14:17Z</time>
      </trkpt>
      <trkpt lat="46.52997" lon="0.32853">
        <ele>126</ele>
        <time>2024-01-14T10:14:24Z</time>
      </trkpt>
      <trkpt lat="46.52985" lon="0.32861">
        <ele>125.8</ele>
        <time>2024-01-14T10:14:27Z</time>
      </trkpt>
      <trkpt lat="46.52971" lon="0.32868">
        <ele>126</ele>
        <time>2024-01-14T10:14:30Z</time>
      </trkpt>
      <trkpt lat="46.52967" lon="0.32872">
        <ele>125.8</ele>
        <time>2024-01-14T10:14:31Z</time>
      </trkpt>
      <trkpt lat="46.52954" lon="0.32881">
        <ele>125.4</ele>
        <time>2024-01-14T10:14:34Z</time>
      </trkpt>
      <trkpt lat="46.52949" lon="0.32883">
        <ele>125.2</ele>
        <time>2024-01-14T10:14:35Z</time>
      </trkpt>
      <trkpt lat="46.52935" lon="0.32893">
        <ele>124.4</ele>
        <time>2024-01-14T10:14:38Z</time>
      </trkpt>
      <trkpt lat="46.52919" lon="0.32902">
        <ele>124</ele>
        <time>2024-01-14T10:14:41Z</time>
      </trkpt>
      <trkpt lat="46.52907" lon="0.32905">
        <ele>123.2</ele>
        <time>2024-01-14T10:14:43Z</time>
      </trkpt>
      <trkpt lat="46.52897" lon="0.32909">
        <ele>122.6</ele>
        <time>2024-01-14T10:14:45Z</time>
      </trkpt>
      <trkpt lat="46.52893" lon="0.32909">
        <ele>122.6</ele>
        <time>2024-01-14T10:14:46Z</time>
      </trkpt>
      <trkpt lat="46.52887" lon="0.32907">
        <ele>122.2</ele>
        <time>2024-01-14T10:14:48Z</time>
      </trkpt>
      <trkpt lat="46.52883" lon="0.32904">
        <ele>122.2</ele>
        <time>2024-01-14T10:14:49Z</time>
      </trkpt>
      <trkpt lat="46.52882" lon="0.32902">
        <ele>122.2</ele>
        <time>2024-01-14T10:14:50Z</time>
      </trkpt>
      <trkpt lat="46.52869" lon="0.32885">
        <ele>122.8</ele>
        <time>2024-01-14T10:14:56Z</time>
      </trkpt>
      <trkpt lat="46.52866" lon="0.32876">
        <ele>123</ele>
        <time>2024-01-14T10:14:58Z</time>
      </trkpt>
      <trkpt lat="46.52862" lon="0.3286">
        <ele>123.2</ele>
        <time>2024-01-14T10:15:01Z</time>
      </trkpt>
      <trkpt lat="46.52852" lon="0.32828">
        <ele>123.8</ele>
        <time>2024-01-14T10:15:05Z</time>
      </trkpt>
      <trkpt lat="46.52851" lon="0.32823">
        <ele>124</ele>
        <time>2024-01-14T10:15:06Z</time>
      </trkpt>
      <trkpt lat="46.52849" lon="0.32817">
        <ele>124.2</ele>
        <time>2024-01-14T10:15:07Z</time>
      </trkpt>
      <trkpt lat="46.52844" lon="0.3279">
        <ele>124.6</ele>
        <time>2024-01-14T10:15:12Z</time>
      </trkpt>
      <trkpt lat="46.52842" lon="0.32787">
        <ele>124.6</ele>
        <time>2024-01-14T10:15:13Z</time>
      </trkpt>
      <trkpt lat="46.52837" lon="0.32782">
        <ele>124.6</ele>
        <time>2024-01-14T10:15:15Z</time>
      </trkpt>
      <trkpt lat="46.52834" lon="0.32781">
        <ele>124.6</ele>
        <time>2024-01-14T10:15:16Z</time>
      </trkpt>
      <trkpt lat="46.52832" lon="0.32779">
        <ele>124.4</ele>
        <time>2024-01-14T10:15:17Z</time>
      </trkpt>
      <trkpt lat="46.52823" lon="0.32775">
        <ele>124.2</ele>
        <time>2024-01-14T10:15:20Z</time>
      </trkpt>
      <trkpt lat="46.52818" lon="0.32772">
        <ele>124.2</ele>
        <time>2024-01-14T10:15:21Z</time>
      </trkpt>
      <trkpt lat="46.52809" lon="0.32765">
        <ele>123.8</ele>
        <time>2024-01-14T10:15:23Z</time>
      </trkpt>
      <trkpt lat="46.52799" lon="0.32756">
        <ele>123.2</ele>
        <time>2024-01-14T10:15:25Z</time>
      </trkpt>
      <trkpt lat="46.52793" lon="0.32752">
        <ele>123</ele>
        <time>2024-01-14T10:15:26Z</time>
      </trkpt>
      <trkpt lat="46.52788" lon="0.32748">
        <ele>122.8</ele>
        <time>2024-01-14T10:15:27Z</time>
      </trkpt>
      <trkpt lat="46.52779" lon="0.32739">
        <ele>122.6</ele>
        <time>2024-01-14T10:15:29Z</time>
      </trkpt>
      <trkpt lat="46.52775" lon="0.32732">
        <ele>122.4</ele>
        <time>2024-01-14T10:15:30Z</time>
      </trkpt>
      <trkpt lat="46.52772" lon="0.32725">
        <ele>122.4</ele>
        <time>2024-01-14T10:15:31Z</time>
      </trkpt>
      <trkpt lat="46.5277" lon="0.32714">
        <ele>122.6</ele>
        <time>2024-01-14T10:15:33Z</time>
      </trkpt>
      <trkpt lat="46.52769" lon="0.32709">
        <ele>122.6</ele>
        <time>2024-01-14T10:15:34Z</time>
      </trkpt>
      <trkpt lat="46.52763" lon="0.32679">
        <ele>122.2</ele>
        <time>2024-01-14T10:15:38Z</time>
      </trkpt>
      <trkpt lat="46.52761" lon="0.32662">
        <ele>122</ele>
        <time>2024-01-14T10:15:40Z</time>
      </trkpt>
      <trkpt lat="46.52759" lon="0.32652">
        <ele>121.8</ele>
        <time>2024-01-14T10:15:41Z</time>
      </trkpt>
      <trkpt lat="46.52756" lon="0.32631">
        <ele>121.6</ele>
        <time>2024-01-14T10:15:44Z</time>
      </trkpt>
      <trkpt lat="46.52751" lon="0.32623">
        <ele>121.6</ele>
        <time>2024-01-14T10:15:46Z</time>
      </trkpt>
      <trkpt lat="46.52746" lon="0.32618">
        <ele>121.6</ele>
        <time>2024-01-14T10:15:47Z</time>
      </trkpt>
      <trkpt lat="46.52743" lon="0.32617">
        <ele>121.6</ele>
        <time>2024-01-14T10:15:48Z</time>
      </trkpt>
      <trkpt lat="46.52737" lon="0.32615">
        <ele>121.6</ele>
        <time>2024-01-14T10:15:50Z</time>
      </trkpt>
      <trkpt lat="46.5273" lon="0.32609">
        <ele>121.4</ele>
        <time>2024-01-14T10:15:52Z</time>
      </trkpt>
      <trkpt lat="46.52723" lon="0.32602">
        <ele>121.4</ele>
        <time>2024-01-14T10:15:54Z</time>
      </trkpt>
      <trkpt lat="46.52715" lon="0.32594">
        <ele>121.4</ele>
        <time>2024-01-14T10:15:56Z</time>
      </trkpt>
      <trkpt lat="46.52711" lon="0.32592">
        <ele>121.2</ele>
        <time>2024-01-14T10:15:57Z</time>
      </trkpt>
      <trkpt lat="46.52707" lon="0.3259">
        <ele>121.2</ele>
        <time>2024-01-14T10:15:58Z</time>
      </trkpt>
      <trkpt lat="46.52692" lon="0.32584">
        <ele>121</ele>
        <time>2024-01-14T10:16:01Z</time>
      </trkpt>
      <trkpt lat="46.52687" lon="0.32583">
        <ele>121</ele>
        <time>2024-01-14T10:16:02Z</time>
      </trkpt>
      <trkpt lat="46.52682" lon="0.32581">
        <ele>121</ele>
        <time>2024-01-14T10:16:03Z</time>
      </trkpt>
      <trkpt lat="46.52674" lon="0.32574">
        <ele>120.8</ele>
        <time>2024-01-14T10:16:05Z</time>
      </trkpt>
      <trkpt lat="46.5267" lon="0.3257">
        <ele>120.8</ele>
        <time>2024-01-14T10:16:06Z</time>
      </trkpt>
      <trkpt lat="46.52652" lon="0.32556">
        <ele>120.2</ele>
        <time>2024-01-14T10:16:10Z</time>
      </trkpt>
      <trkpt lat="46.52646" lon="0.32553">
        <ele>120</ele>
        <time>2024-01-14T10:16:11Z</time>
      </trkpt>
      <trkpt lat="46.52639" lon="0.32549">
        <ele>120</ele>
        <time>2024-01-14T10:16:12Z</time>
      </trkpt>
      <trkpt lat="46.52624" lon="0.32535">
        <ele>119.6</ele>
        <time>2024-01-14T10:16:16Z</time>
      </trkpt>
      <trkpt lat="46.5262" lon="0.32532">
        <ele>119.4</ele>
        <time>2024-01-14T10:16:17Z</time>
      </trkpt>
      <trkpt lat="46.52609" lon="0.32521">
        <ele>119.2</ele>
        <time>2024-01-14T10:16:20Z</time>
      </trkpt>
      <trkpt lat="46.52585" lon="0.32489">
        <ele>119.4</ele>
        <time>2024-01-14T10:16:26Z</time>
      </trkpt>
      <trkpt lat="46.52569" lon="0.32464">
        <ele>119.6</ele>
        <time>2024-01-14T10:16:32Z</time>
      </trkpt>
      <trkpt lat="46.52567" lon="0.32461">
        <ele>119.8</ele>
        <time>2024-01-14T10:16:33Z</time>
      </trkpt>
      <trkpt lat="46.52557" lon="0.32444">
        <ele>119.8</ele>
        <time>2024-01-14T10:16:37Z</time>
      </trkpt>
      <trkpt lat="46.52552" lon="0.32436">
        <ele>119.8</ele>
        <time>2024-01-14T10:16:38Z</time>
      </trkpt>
      <trkpt lat="46.52549" lon="0.32426">
        <ele>119.8</ele>
        <time>2024-01-14T10:16:40Z</time>
      </trkpt>
      <trkpt lat="46.52548" lon="0.3241">
        <ele>120</ele>
        <time>2024-01-14T10:16:43Z</time>
      </trkpt>
      <trkpt lat="46.52548" lon="0.32389">
        <ele>121.2</ele>
        <time>2024-01-14T10:16:48Z</time>
      </trkpt>
      <trkpt lat="46.52548" lon="0.32386">
        <ele>121.4</ele>
        <time>2024-01-14T10:16:49Z</time>
      </trkpt>
      <trkpt lat="46.52549" lon="0.32378">
        <ele>122.2</ele>
        <time>2024-01-14T10:16:52Z</time>
      </trkpt>
      <trkpt lat="46.52552" lon="0.32364">
        <ele>123</ele>
        <time>2024-01-14T10:16:56Z</time>
      </trkpt>
      <trkpt lat="46.52554" lon="0.3236">
        <ele>123.4</ele>
        <time>2024-01-14T10:16:58Z</time>
      </trkpt>
      <trkpt lat="46.52558" lon="0.32352">
        <ele>123.8</ele>
        <time>2024-01-14T10:17:01Z</time>
      </trkpt>
      <trkpt lat="46.52561" lon="0.32348">
        <ele>124</ele>
        <time>2024-01-14T10:17:03Z</time>
      </trkpt>
      <trkpt lat="46.52565" lon="0.32342">
        <ele>124.4</ele>
        <time>2024-01-14T10:17:05Z</time>
      </trkpt>
      <trkpt lat="46.52569" lon="0.32336">
        <ele>124.8</ele>
        <time>2024-01-14T10:17:07Z</time>
      </trkpt>
      <trkpt lat="46.52571" lon="0.32329">
        <ele>125.2</ele>
        <time>2024-01-14T10:17:09Z</time>
      </trkpt>
      <trkpt lat="46.52573" lon="0.32323">
        <ele>125.6</ele>
        <time>2024-01-14T10:17:12Z</time>
      </trkpt>
      <trkpt lat="46.52574" lon="0.32321">
        <ele>125.8</ele>
        <time>2024-01-14T10:17:13Z</time>
      </trkpt>
      <trkpt lat="46.52575" lon="0.32318">
        <ele>126</ele>
        <time>2024-01-14T10:17:14Z</time>
      </trkpt>
      <trkpt lat="46.52579" lon="0.323">
        <ele>126.2</ele>
        <time>2024-01-14T10:17:20Z</time>
      </trkpt>
      <trkpt lat="46.52581" lon="0.32286">
        <ele>126.2</ele>
        <time>2024-01-14T10:17:25Z</time>
      </trkpt>
      <trkpt lat="46.52577" lon="0.32285">
        <ele>126.6</ele>
        <time>2024-01-14T10:17:28Z</time>
      </trkpt>
      <trkpt lat="46.52573" lon="0.32284">
        <ele>126.8</ele>
        <time>2024-01-14T10:17:30Z</time>
      </trkpt>
      <trkpt lat="46.52565" lon="0.32279">
        <ele>126.4</ele>
        <time>2024-01-14T10:17:34Z</time>
      </trkpt>
      <trkpt lat="46.52565" lon="0.32276">
        <ele>126.4</ele>
        <time>2024-01-14T10:17:35Z</time>
      </trkpt>
      <trkpt lat="46.52561" lon="0.32259">
        <ele>126.6</ele>
        <time>2024-01-14T10:17:41Z</time>
      </trkpt>
      <trkpt lat="46.5256" lon="0.32253">
        <ele>126.8</ele>
        <time>2024-01-14T10:17:43Z</time>
      </trkpt>
      <trkpt lat="46.52556" lon="0.32247">
        <ele>127</ele>
        <time>2024-01-14T10:17:45Z</time>
      </trkpt>
      <trkpt lat="46.52545" lon="0.32234">
        <ele>127.2</ele>
        <time>2024-01-14T10:17:50Z</time>
      </trkpt>
      <trkpt lat="46.52532" lon="0.32218">
        <ele>127.6</ele>
        <time>2024-01-14T10:17:55Z</time>
      </trkpt>
      <trkpt lat="46.52532" lon="0.32208">
        <ele>127.6</ele>
        <time>2024-01-14T10:17:57Z</time>
      </trkpt>
      <trkpt lat="46.52533" lon="0.32203">
        <ele>127.8</ele>
        <time>2024-01-14T10:17:58Z</time>
      </trkpt>
      <trkpt lat="46.52543" lon="0.32173">
        <ele>128.2</ele>
        <time>2024-01-14T10:18:04Z</time>
      </trkpt>
      <trkpt lat="46.52545" lon="0.32153">
        <ele>128</ele>
        <time>2024-01-14T10:18:09Z</time>
      </trkpt>
      <trkpt lat="46.52545" lon="0.32135">
        <ele>128</ele>
        <time>2024-01-14T10:18:14Z</time>
      </trkpt>
      <trkpt lat="46.52546" lon="0.3213">
        <ele>128.2</ele>
        <time>2024-01-14T10:18:15Z</time>
      </trkpt>
      <trkpt lat="46.52547" lon="0.3212">
        <ele>128.2</ele>
        <time>2024-01-14T10:18:17Z</time>
      </trkpt>
      <trkpt lat="46.52553" lon="0.32113">
        <ele>128</ele>
        <time>2024-01-14T10:18:19Z</time>
      </trkpt>
      <trkpt lat="46.52561" lon="0.32111">
        <ele>128</ele>
        <time>2024-01-14T10:18:21Z</time>
      </trkpt>
      <trkpt lat="46.52577" lon="0.32113">
        <ele>127.6</ele>
        <time>2024-01-14T10:18:25Z</time>
      </trkpt>
      <trkpt lat="46.52599" lon="0.32114">
        <ele>126.8</ele>
        <time>2024-01-14T10:18:30Z</time>
      </trkpt>
      <trkpt lat="46.52602" lon="0.32104">
        <ele>126.8</ele>
        <time>2024-01-14T10:18:33Z</time>
      </trkpt>
      <trkpt lat="46.52604" lon="0.32075">
        <ele>126.6</ele>
        <time>2024-01-14T10:18:39Z</time>
      </trkpt>
      <trkpt lat="46.52608" lon="0.32044">
        <ele>125.8</ele>
        <time>2024-01-14T10:18:44Z</time>
      </trkpt>
      <trkpt lat="46.52611" lon="0.32032">
        <ele>125.6</ele>
        <time>2024-01-14T10:18:46Z</time>
      </trkpt>
      <trkpt lat="46.52613" lon="0.32021">
        <ele>124.6</ele>
        <time>2024-01-14T10:18:48Z</time>
      </trkpt>
      <trkpt lat="46.52615" lon="0.32016">
        <ele>124.4</ele>
        <time>2024-01-14T10:18:49Z</time>
      </trkpt>
      <trkpt lat="46.52616" lon="0.32012">
        <ele>123.8</ele>
        <time>2024-01-14T10:18:50Z</time>
      </trkpt>
      <trkpt lat="46.52621" lon="0.32002">
        <ele>123.4</ele>
        <time>2024-01-14T10:18:52Z</time>
      </trkpt>
      <trkpt lat="46.52623" lon="0.31997">
        <ele>123.2</ele>
        <time>2024-01-14T10:18:53Z</time>
      </trkpt>
      <trkpt lat="46.52626" lon="0.31992">
        <ele>123.2</ele>
        <time>2024-01-14T10:18:54Z</time>
      </trkpt>
      <trkpt lat="46.52633" lon="0.31982">
        <ele>123</ele>
        <time>2024-01-14T10:18:56Z</time>
      </trkpt>
      <trkpt lat="46.52641" lon="0.31969">
        <ele>122</ele>
        <time>2024-01-14T10:18:58Z</time>
      </trkpt>
      <trkpt lat="46.52646" lon="0.31963">
        <ele>121.4</ele>
        <time>2024-01-14T10:18:59Z</time>
      </trkpt>
      <trkpt lat="46.52657" lon="0.31952">
        <ele>120.2</ele>
        <time>2024-01-14T10:19:01Z</time>
      </trkpt>
      <trkpt lat="46.52664" lon="0.31947">
        <ele>119.2</ele>
        <time>2024-01-14T10:19:02Z</time>
      </trkpt>
      <trkpt lat="46.5267" lon="0.31942">
        <ele>118.6</ele>
        <time>2024-01-14T10:19:03Z</time>
      </trkpt>
      <trkpt lat="46.52676" lon="0.31936">
        <ele>118</ele>
        <time>2024-01-14T10:19:04Z</time>
      </trkpt>
      <trkpt lat="46.5269" lon="0.31921">
        <ele>117.6</ele>
        <time>2024-01-14T10:19:06Z</time>
      </trkpt>
      <trkpt lat="46.52703" lon="0.31907">
        <ele>115.6</ele>
        <time>2024-01-14T10:19:08Z</time>
      </trkpt>
      <trkpt lat="46.52709" lon="0.319">
        <ele>114.4</ele>
        <time>2024-01-14T10:19:09Z</time>
      </trkpt>
      <trkpt lat="46.52721" lon="0.31888">
        <ele>112.8</ele>
        <time>2024-01-14T10:19:11Z</time>
      </trkpt>
      <trkpt lat="46.52728" lon="0.31884">
        <ele>111.6</ele>
        <time>2024-01-14T10:19:12Z</time>
      </trkpt>
      <trkpt lat="46.52733" lon="0.3188">
        <ele>109.6</ele>
        <time>2024-01-14T10:19:13Z</time>
      </trkpt>
      <trkpt lat="46.52737" lon="0.31875">
        <ele>108.4</ele>
        <time>2024-01-14T10:19:14Z</time>
      </trkpt>
      <trkpt lat="46.5274" lon="0.31871">
        <ele>107.6</ele>
        <time>2024-01-14T10:19:15Z</time>
      </trkpt>
      <trkpt lat="46.52744" lon="0.31866">
        <ele>106.2</ele>
        <time>2024-01-14T10:19:16Z</time>
      </trkpt>
      <trkpt lat="46.52746" lon="0.31862">
        <ele>105.2</ele>
        <time>2024-01-14T10:19:17Z</time>
      </trkpt>
      <trkpt lat="46.52748" lon="0.31858">
        <ele>104.2</ele>
        <time>2024-01-14T10:19:18Z</time>
      </trkpt>
      <trkpt lat="46.5275" lon="0.31855">
        <ele>103.8</ele>
        <time>2024-01-14T10:19:19Z</time>
      </trkpt>
      <trkpt lat="46.52756" lon="0.31846">
        <ele>102.6</ele>
        <time>2024-01-14T10:19:21Z</time>
      </trkpt>
      <trkpt lat="46.52756" lon="0.31846">
        <ele>101.2</ele>
        <time>2024-01-14T10:19:22Z</time>
      </trkpt>
      <trkpt lat="46.52768" lon="0.31815">
        <ele>100.8</ele>
        <time>2024-01-14T10:19:26Z</time>
      </trkpt>
      <trkpt lat="46.52773" lon="0.31794">
        <ele>102.4</ele>
        <time>2024-01-14T10:19:32Z</time>
      </trkpt>
      <trkpt lat="46.52773" lon="0.31791">
        <ele>102.8</ele>
        <time>2024-01-14T10:19:33Z</time>
      </trkpt>
      <trkpt lat="46.52772" lon="0.31783">
        <ele>103.8</ele>
        <time>2024-01-14T10:19:35Z</time>
      </trkpt>
      <trkpt lat="46.52772" lon="0.31769">
        <ele>105</ele>
        <time>2024-01-14T10:19:39Z</time>
      </trkpt>
      <trkpt lat="46.52772" lon="0.31767">
        <ele>105.4</ele>
        <time>2024-01-14T10:19:40Z</time>
      </trkpt>
      <trkpt lat="46.52772" lon="0.31762">
        <ele>106.2</ele>
        <time>2024-01-14T10:19:42Z</time>
      </trkpt>
      <trkpt lat="46.5277" lon="0.31749">
        <ele>107.2</ele>
        <time>2024-01-14T10:19:47Z</time>
      </trkpt>
      <trkpt lat="46.5277" lon="0.31746">
        <ele>107.4</ele>
        <time>2024-01-14T10:19:48Z</time>
      </trkpt>
      <trkpt lat="46.52769" lon="0.31736">
        <ele>108.2</ele>
        <time>2024-01-14T10:19:52Z</time>
      </trkpt>
      <trkpt lat="46.52767" lon="0.31724">
        <ele>109.4</ele>
        <time>2024-01-14T10:19:58Z</time>
      </trkpt>
      <trkpt lat="46.52764" lon="0.31715">
        <ele>109.6</ele>
        <time>2024-01-14T10:20:01Z</time>
      </trkpt>
      <trkpt lat="46.52762" lon="0.31708">
        <ele>110.6</ele>
        <time>2024-01-14T10:20:05Z</time>
      </trkpt>
      <trkpt lat="46.52761" lon="0.31703">
        <ele>111.2</ele>
        <time>2024-01-14T10:20:07Z</time>
      </trkpt>
      <trkpt lat="46.52759" lon="0.31699">
        <ele>111.8</ele>
        <time>2024-01-14T10:20:09Z</time>
      </trkpt>
      <trkpt lat="46.52759" lon="0.31695">
        <ele>112.2</ele>
        <time>2024-01-14T10:20:11Z</time>
      </trkpt>
      <trkpt lat="46.52758" lon="0.3169">
        <ele>112.4</ele>
        <time>2024-01-14T10:20:13Z</time>
      </trkpt>
      <trkpt lat="46.52759" lon="0.31686">
        <ele>113.2</ele>
        <time>2024-01-14T10:20:15Z</time>
      </trkpt>
      <trkpt lat="46.52761" lon="0.31678">
        <ele>113.8</ele>
        <time>2024-01-14T10:20:19Z</time>
      </trkpt>
      <trkpt lat="46.52762" lon="0.31676">
        <ele>114.2</ele>
        <time>2024-01-14T10:20:20Z</time>
      </trkpt>
      <trkpt lat="46.52765" lon="0.31671">
        <ele>114.6</ele>
        <time>2024-01-14T10:20:23Z</time>
      </trkpt>
      <trkpt lat="46.52769" lon="0.31663">
        <ele>115.2</ele>
        <time>2024-01-14T10:20:28Z</time>
      </trkpt>
      <trkpt lat="46.52773" lon="0.31652">
        <ele>116.4</ele>
        <time>2024-01-14T10:20:35Z</time>
      </trkpt>
      <trkpt lat="46.52774" lon="0.3165">
        <ele>116.6</ele>
        <time>2024-01-14T10:20:36Z</time>
      </trkpt>
      <trkpt lat="46.52777" lon="0.31643">
        <ele>117.4</ele>
        <time>2024-01-14T10:20:40Z</time>
      </trkpt>
      <trkpt lat="46.52781" lon="0.31627">
        <ele>118.6</ele>
        <time>2024-01-14T10:20:48Z</time>
      </trkpt>
      <trkpt lat="46.52781" lon="0.31612">
        <ele>119.6</ele>
        <time>2024-01-14T10:20:56Z</time>
      </trkpt>
      <trkpt lat="46.52782" lon="0.31602">
        <ele>120.2</ele>
        <time>2024-01-14T10:21:00Z</time>
      </trkpt>
      <trkpt lat="46.52785" lon="0.31594">
        <ele>120.6</ele>
        <time>2024-01-14T10:21:03Z</time>
      </trkpt>
      <trkpt lat="46.5279" lon="0.31579">
        <ele>121.2</ele>
        <time>2024-01-14T10:21:09Z</time>
      </trkpt>
      <trkpt lat="46.52794" lon="0.3157">
        <ele>121.8</ele>
        <time>2024-01-14T10:21:13Z</time>
      </trkpt>
      <trkpt lat="46.52798" lon="0.31565">
        <ele>122</ele>
        <time>2024-01-14T10:21:15Z</time>
      </trkpt>
      <trkpt lat="46.52813" lon="0.31562">
        <ele>122.2</ele>
        <time>2024-01-14T10:21:21Z</time>
      </trkpt>
      <trkpt lat="46.52829" lon="0.31563">
        <ele>122.2</ele>
        <time>2024-01-14T10:21:27Z</time>
      </trkpt>
      <trkpt lat="46.52836" lon="0.31563">
        <ele>122.2</ele>
        <time>2024-01-14T10:21:29Z</time>
      </trkpt>
      <trkpt lat="46.52842" lon="0.31561">
        <ele>122.2</ele>
        <time>2024-01-14T10:21:31Z</time>
      </trkpt>
      <trkpt lat="46.52845" lon="0.31558">
        <ele>122</ele>
        <time>2024-01-14T10:21:32Z</time>
      </trkpt>
      <trkpt lat="46.52848" lon="0.31556">
        <ele>122</ele>
        <time>2024-01-14T10:21:33Z</time>
      </trkpt>
      <trkpt lat="46.52855" lon="0.3155">
        <ele>121.8</ele>
        <time>2024-01-14T10:21:35Z</time>
      </trkpt>
      <trkpt lat="46.52864" lon="0.31545">
        <ele>121.4</ele>
        <time>2024-01-14T10:21:37Z</time>
      </trkpt>
      <trkpt lat="46.52873" lon="0.31537">
        <ele>121.2</ele>
        <time>2024-01-14T10:21:40Z</time>
      </trkpt>
      <trkpt lat="46.5288" lon="0.31528">
        <ele>121.2</ele>
        <time>2024-01-14T10:21:42Z</time>
      </trkpt>
      <trkpt lat="46.52894" lon="0.31515">
        <ele>120.6</ele>
        <time>2024-01-14T10:21:45Z</time>
      </trkpt>
      <trkpt lat="46.52897" lon="0.31511">
        <ele>120.2</ele>
        <time>2024-01-14T10:21:46Z</time>
      </trkpt>
      <trkpt lat="46.52899" lon="0.31505">
        <ele>119.8</ele>
        <time>2024-01-14T10:21:47Z</time>
      </trkpt>
      <trkpt lat="46.52901" lon="0.315">
        <ele>119.6</ele>
        <time>2024-01-14T10:21:48Z</time>
      </trkpt>
      <trkpt lat="46.52905" lon="0.31485">
        <ele>118</ele>
        <time>2024-01-14T10:21:51Z</time>
      </trkpt>
      <trkpt lat="46.52906" lon="0.31481">
        <ele>117.2</ele>
        <time>2024-01-14T10:21:52Z</time>
      </trkpt>
      <trkpt lat="46.52909" lon="0.31478">
        <ele>116.6</ele>
        <time>2024-01-14T10:21:53Z</time>
      </trkpt>
      <trkpt lat="46.52914" lon="0.31471">
        <ele>115.2</ele>
        <time>2024-01-14T10:21:55Z</time>
      </trkpt>
      <trkpt lat="46.52917" lon="0.31465">
        <ele>113.6</ele>
        <time>2024-01-14T10:21:57Z</time>
      </trkpt>
      <trkpt lat="46.5292" lon="0.31462">
        <ele>113.2</ele>
        <time>2024-01-14T10:21:58Z</time>
      </trkpt>
      <trkpt lat="46.52924" lon="0.31455">
        <ele>112.6</ele>
        <time>2024-01-14T10:22:00Z</time>
      </trkpt>
      <trkpt lat="46.52929" lon="0.31434">
        <ele>111.6</ele>
        <time>2024-01-14T10:22:04Z</time>
      </trkpt>
      <trkpt lat="46.52929" lon="0.31427">
        <ele>110.4</ele>
        <time>2024-01-14T10:22:05Z</time>
      </trkpt>
      <trkpt lat="46.52929" lon="0.31419">
        <ele>109.8</ele>
        <time>2024-01-14T10:22:06Z</time>
      </trkpt>
      <trkpt lat="46.52928" lon="0.31411">
        <ele>108.8</ele>
        <time>2024-01-14T10:22:07Z</time>
      </trkpt>
      <trkpt lat="46.52927" lon="0.31405">
        <ele>108.2</ele>
        <time>2024-01-14T10:22:08Z</time>
      </trkpt>
      <trkpt lat="46.52927" lon="0.31405">
        <ele>107.2</ele>
        <time>2024-01-14T10:22:09Z</time>
      </trkpt>
      <trkpt lat="46.52928" lon="0.31393">
        <ele>107.2</ele>
        <time>2024-01-14T10:22:10Z</time>
      </trkpt>
      <trkpt lat="46.52928" lon="0.31383">
        <ele>106.2</ele>
        <time>2024-01-14T10:22:12Z</time>
      </trkpt>
      <trkpt lat="46.52928" lon="0.31378">
        <ele>105.6</ele>
        <time>2024-01-14T10:22:13Z</time>
      </trkpt>
      <trkpt lat="46.52927" lon="0.31369">
        <ele>105</ele>
        <time>2024-01-14T10:22:15Z</time>
      </trkpt>
      <trkpt lat="46.52926" lon="0.31359">
        <ele>103.4</ele>
        <time>2024-01-14T10:22:17Z</time>
      </trkpt>
      <trkpt lat="46.52925" lon="0.31353">
        <ele>102.2</ele>
        <time>2024-01-14T10:22:18Z</time>
      </trkpt>
      <trkpt lat="46.52924" lon="0.31347">
        <ele>100.6</ele>
        <time>2024-01-14T10:22:19Z</time>
      </trkpt>
      <trkpt lat="46.52923" lon="0.31343">
        <ele>99.8</ele>
        <time>2024-01-14T10:22:20Z</time>
      </trkpt>
      <trkpt lat="46.52922" lon="0.31339">
        <ele>99.2</ele>
        <time>2024-01-14T10:22:21Z</time>
      </trkpt>
      <trkpt lat="46.52921" lon="0.31334">
        <ele>98.2</ele>
        <time>2024-01-14T10:22:22Z</time>
      </trkpt>
      <trkpt lat="46.5292" lon="0.31329">
        <ele>97</ele>
        <time>2024-01-14T10:22:23Z</time>
      </trkpt>
      <trkpt lat="46.52918" lon="0.31322">
        <ele>96</ele>
        <time>2024-01-14T10:22:24Z</time>
      </trkpt>
      <trkpt lat="46.52917" lon="0.31319">
        <ele>95.2</ele>
        <time>2024-01-14T10:22:25Z</time>
      </trkpt>
      <trkpt lat="46.52916" lon="0.3131">
        <ele>94</ele>
        <time>2024-01-14T10:22:27Z</time>
      </trkpt>
      <trkpt lat="46.52915" lon="0.31307">
        <ele>92.8</ele>
        <time>2024-01-14T10:22:28Z</time>
      </trkpt>
      <trkpt lat="46.52914" lon="0.31299">
        <ele>91.4</ele>
        <time>2024-01-14T10:22:30Z</time>
      </trkpt>
      <trkpt lat="46.52913" lon="0.31294">
        <ele>90.4</ele>
        <time>2024-01-14T10:22:31Z</time>
      </trkpt>
      <trkpt lat="46.52909" lon="0.31278">
        <ele>88.8</ele>
        <time>2024-01-14T10:22:33Z</time>
      </trkpt>
      <trkpt lat="46.52907" lon="0.31269">
        <ele>87.6</ele>
        <time>2024-01-14T10:22:34Z</time>
      </trkpt>
      <trkpt lat="46.52906" lon="0.31261">
        <ele>86.2</ele>
        <time>2024-01-14T10:22:36Z</time>
      </trkpt>
      <trkpt lat="46.52903" lon="0.31251">
        <ele>85.2</ele>
        <time>2024-01-14T10:22:38Z</time>
      </trkpt>
      <trkpt lat="46.52904" lon="0.31245">
        <ele>84.8</ele>
        <time>2024-01-14T10:22:46Z</time>
      </trkpt>
      <trkpt lat="46.52903" lon="0.31243">
        <ele>85</ele>
        <time>2024-01-14T10:23:00Z</time>
      </trkpt>
      <trkpt lat="46.529" lon="0.31244">
        <ele>86.2</ele>
        <time>2024-01-14T10:23:09Z</time>
      </trkpt>
      <trkpt lat="46.529" lon="0.31244">
        <ele>87</ele>
        <time>2024-01-14T10:23:12Z</time>
      </trkpt>
      <trkpt lat="46.529" lon="0.31245">
        <ele>87.4</ele>
        <time>2024-01-14T10:23:13Z</time>
      </trkpt>
      <trkpt lat="46.52899" lon="0.31246">
        <ele>88.4</ele>
        <time>2024-01-14T10:23:18Z</time>
      </trkpt>
      <trkpt lat="46.529" lon="0.31248">
        <ele>89.6</ele>
        <time>2024-01-14T10:23:23Z</time>
      </trkpt>
      <trkpt lat="46.529" lon="0.31248">
        <ele>90</ele>
        <time>2024-01-14T10:23:24Z</time>
      </trkpt>
      <trkpt lat="46.529" lon="0.3125">
        <ele>90.4</ele>
        <time>2024-01-14T10:23:27Z</time>
      </trkpt>
      <trkpt lat="46.52901" lon="0.31251">
        <ele>90.8</ele>
        <time>2024-01-14T10:23:29Z</time>
      </trkpt>
      <trkpt lat="46.52902" lon="0.31254">
        <ele>91.8</ele>
        <time>2024-01-14T10:23:33Z</time>
      </trkpt>
      <trkpt lat="46.52903" lon="0.31259">
        <ele>92.8</ele>
        <time>2024-01-14T10:23:37Z</time>
      </trkpt>
      <trkpt lat="46.52903" lon="0.3126">
        <ele>92.8</ele>
        <time>2024-01-14T10:23:38Z</time>
      </trkpt>
      <trkpt lat="46.52904" lon="0.31261">
        <ele>93</ele>
        <time>2024-01-14T10:23:39Z</time>
      </trkpt>
      <trkpt lat="46.52904" lon="0.31262">
        <ele>93.2</ele>
        <time>2024-01-14T10:23:40Z</time>
      </trkpt>
      <trkpt lat="46.52905" lon="0.31265">
        <ele>94</ele>
        <time>2024-01-14T10:23:43Z</time>
      </trkpt>
      <trkpt lat="46.52906" lon="0.31266">
        <ele>94.4</ele>
        <time>2024-01-14T10:23:44Z</time>
      </trkpt>
      <trkpt lat="46.52907" lon="0.31269">
        <ele>94.8</ele>
        <time>2024-01-14T10:23:48Z</time>
      </trkpt>
      <trkpt lat="46.52908" lon="0.31272">
        <ele>95.2</ele>
        <time>2024-01-14T10:23:50Z</time>
      </trkpt>
      <trkpt lat="46.5291" lon="0.31277">
        <ele>96</ele>
        <time>2024-01-14T10:23:55Z</time>
      </trkpt>
      <trkpt lat="46.52911" lon="0.31279">
        <ele>96.4</ele>
        <time>2024-01-14T10:23:56Z</time>
      </trkpt>
      <trkpt lat="46.52912" lon="0.31283">
        <ele>97</ele>
        <time>2024-01-14T10:23:59Z</time>
      </trkpt>
      <trkpt lat="46.52913" lon="0.31287">
        <ele>97.6</ele>
        <time>2024-01-14T10:24:02Z</time>
      </trkpt>
      <trkpt lat="46.52914" lon="0.31289">
        <ele>98</ele>
        <time>2024-01-14T10:24:04Z</time>
      </trkpt>
      <trkpt lat="46.52915" lon="0.31292">
        <ele>98.6</ele>
        <time>2024-01-14T10:24:06Z</time>
      </trkpt>
      <trkpt lat="46.52915" lon="0.31293">
        <ele>98.8</ele>
        <time>2024-01-14T10:24:07Z</time>
      </trkpt>
      <trkpt lat="46.52918" lon="0.31299">
        <ele>99.6</ele>
        <time>2024-01-14T10:24:12Z</time>
      </trkpt>
      <trkpt lat="46.52917" lon="0.31302">
        <ele>100.2</ele>
        <time>2024-01-14T10:24:14Z</time>
      </trkpt>
      <trkpt lat="46.52917" lon="0.31303">
        <ele>100.4</ele>
        <time>2024-01-14T10:24:15Z</time>
      </trkpt>
      <trkpt lat="46.52918" lon="0.31307">
        <ele>101.2</ele>
        <time>2024-01-14T10:24:19Z</time>
      </trkpt>
      <trkpt lat="46.52919" lon="0.3131">
        <ele>101.6</ele>
        <time>2024-01-14T10:24:22Z</time>
      </trkpt>
      <trkpt lat="46.5292" lon="0.31313">
        <ele>101.8</ele>
        <time>2024-01-14T10:24:24Z</time>
      </trkpt>
      <trkpt lat="46.5292" lon="0.31315">
        <ele>102.4</ele>
        <time>2024-01-14T10:24:26Z</time>
      </trkpt>
      <trkpt lat="46.52924" lon="0.31322">
        <ele>103.4</ele>
        <time>2024-01-14T10:24:32Z</time>
      </trkpt>
      <trkpt lat="46.52925" lon="0.31323">
        <ele>103.6</ele>
        <time>2024-01-14T10:24:33Z</time>
      </trkpt>
      <trkpt lat="46.52925" lon="0.31327">
        <ele>104.2</ele>
        <time>2024-01-14T10:24:36Z</time>
      </trkpt>
      <trkpt lat="46.52925" lon="0.3133">
        <ele>104.6</ele>
        <time>2024-01-14T10:24:38Z</time>
      </trkpt>
      <trkpt lat="46.52929" lon="0.31342">
        <ele>105.6</ele>
        <time>2024-01-14T10:24:49Z</time>
      </trkpt>
      <trkpt lat="46.52929" lon="0.31342">
        <ele>105.8</ele>
        <time>2024-01-14T10:24:50Z</time>
      </trkpt>
      <trkpt lat="46.52931" lon="0.31346">
        <ele>105.8</ele>
        <time>2024-01-14T10:24:51Z</time>
      </trkpt>
      <trkpt lat="46.52936" lon="0.3136">
        <ele>106.4</ele>
        <time>2024-01-14T10:24:56Z</time>
      </trkpt>
      <trkpt lat="46.52938" lon="0.31364">
        <ele>107</ele>
        <time>2024-01-14T10:24:58Z</time>
      </trkpt>
      <trkpt lat="46.52939" lon="0.31367">
        <ele>107</ele>
        <time>2024-01-14T10:24:59Z</time>
      </trkpt>
      <trkpt lat="46.5294" lon="0.31375">
        <ele>107.6</ele>
        <time>2024-01-14T10:25:03Z</time>
      </trkpt>
      <trkpt lat="46.5294" lon="0.31376">
        <ele>108.2</ele>
        <time>2024-01-14T10:25:04Z</time>
      </trkpt>
      <trkpt lat="46.52942" lon="0.31387">
        <ele>109.6</ele>
        <time>2024-01-14T10:25:08Z</time>
      </trkpt>
      <trkpt lat="46.52944" lon="0.31398">
        <ele>110.6</ele>
        <time>2024-01-14T10:25:12Z</time>
      </trkpt>
      <trkpt lat="46.52944" lon="0.314">
        <ele>110.8</ele>
        <time>2024-01-14T10:25:13Z</time>
      </trkpt>
      <trkpt lat="46.52945" lon="0.31417">
        <ele>112</ele>
        <time>2024-01-14T10:25:20Z</time>
      </trkpt>
      <trkpt lat="46.52948" lon="0.31427">
        <ele>112.4</ele>
        <time>2024-01-14T10:25:24Z</time>
      </trkpt>
      <trkpt lat="46.52949" lon="0.31435">
        <ele>112.8</ele>
        <time>2024-01-14T10:25:27Z</time>
      </trkpt>
      <trkpt lat="46.5295" lon="0.3144">
        <ele>113</ele>
        <time>2024-01-14T10:25:32Z</time>
      </trkpt>
      <trkpt lat="46.52949" lon="0.31441">
        <ele>113</ele>
        <time>2024-01-14T10:25:37Z</time>
      </trkpt>
      <trkpt lat="46.52948" lon="0.31441">
        <ele>113.6</ele>
        <time>2024-01-14T10:25:42Z</time>
      </trkpt>
      <trkpt lat="46.52947" lon="0.31441">
        <ele>113.8</ele>
        <time>2024-01-14T10:25:44Z</time>
      </trkpt>
      <trkpt lat="46.52946" lon="0.3144">
        <ele>114.2</ele>
        <time>2024-01-14T10:25:46Z</time>
      </trkpt>
      <trkpt lat="46.52944" lon="0.31439">
        <ele>115.2</ele>
        <time>2024-01-14T10:25:50Z</time>
      </trkpt>
      <trkpt lat="46.52944" lon="0.31439">
        <ele>115.8</ele>
        <time>2024-01-14T10:25:52Z</time>
      </trkpt>
      <trkpt lat="46.52943" lon="0.31437">
        <ele>116</ele>
        <time>2024-01-14T10:25:56Z</time>
      </trkpt>
      <trkpt lat="46.52939" lon="0.31435">
        <ele>116</ele>
        <time>2024-01-14T10:26:00Z</time>
      </trkpt>
      <trkpt lat="46.52935" lon="0.31432">
        <ele>116.6</ele>
        <time>2024-01-14T10:26:03Z</time>
      </trkpt>
      <trkpt lat="46.52934" lon="0.3143">
        <ele>117</ele>
        <time>2024-01-14T10:26:05Z</time>
      </trkpt>
      <trkpt lat="46.52931" lon="0.31428">
        <ele>117.8</ele>
        <time>2024-01-14T10:26:08Z</time>
      </trkpt>
      <trkpt lat="46.52925" lon="0.31413">
        <ele>118.6</ele>
        <time>2024-01-14T10:26:16Z</time>
      </trkpt>
      <trkpt lat="46.5292" lon="0.31404">
        <ele>118.8</ele>
        <time>2024-01-14T10:26:19Z</time>
      </trkpt>
      <trkpt lat="46.52913" lon="0.31393">
        <ele>119</ele>
        <time>2024-01-14T10:26:23Z</time>
      </trkpt>
      <trkpt lat="46.52902" lon="0.31377">
        <ele>119.4</ele>
        <time>2024-01-14T10:26:28Z</time>
      </trkpt>
      <trkpt lat="46.52895" lon="0.31361">
        <ele>119.2</ele>
        <time>2024-01-14T10:26:33Z</time>
      </trkpt>
      <trkpt lat="46.52891" lon="0.31347">
        <ele>118.4</ele>
        <time>2024-01-14T10:26:37Z</time>
      </trkpt>
      <trkpt lat="46.52888" lon="0.31339">
        <ele>117.8</ele>
        <time>2024-01-14T10:26:39Z</time>
      </trkpt>
      <trkpt lat="46.52887" lon="0.31335">
        <ele>117.4</ele>
        <time>2024-01-14T10:26:40Z</time>
      </trkpt>
      <trkpt lat="46.52877" lon="0.31316">
        <ele>116.4</ele>
        <time>2024-01-14T10:26:45Z</time>
      </trkpt>
      <trkpt lat="46.52875" lon="0.31313">
        <ele>116.2</ele>
        <time>2024-01-14T10:26:46Z</time>
      </trkpt>
      <trkpt lat="46.52868" lon="0.31297">
        <ele>116</ele>
        <time>2024-01-14T10:26:49Z</time>
      </trkpt>
      <trkpt lat="46.52864" lon="0.31291">
        <ele>116.2</ele>
        <time>2024-01-14T10:26:50Z</time>
      </trkpt>
      <trkpt lat="46.5286" lon="0.31287">
        <ele>116.2</ele>
        <time>2024-01-14T10:26:51Z</time>
      </trkpt>
      <trkpt lat="46.52845" lon="0.31276">
        <ele>117.2</ele>
        <time>2024-01-14T10:26:54Z</time>
      </trkpt>
      <trkpt lat="46.52842" lon="0.31273">
        <ele>117.8</ele>
        <time>2024-01-14T10:26:55Z</time>
      </trkpt>
      <trkpt lat="46.52835" lon="0.31269">
        <ele>118.4</ele>
        <time>2024-01-14T10:26:57Z</time>
      </trkpt>
      <trkpt lat="46.52831" lon="0.31263">
        <ele>118.8</ele>
        <time>2024-01-14T10:26:59Z</time>
      </trkpt>
      <trkpt lat="46.52828" lon="0.31261">
        <ele>119.6</ele>
        <time>2024-01-14T10:27:00Z</time>
      </trkpt>
      <trkpt lat="46.52826" lon="0.3126">
        <ele>120.2</ele>
        <time>2024-01-14T10:27:01Z</time>
      </trkpt>
      <trkpt lat="46.52824" lon="0.3126">
        <ele>120.6</ele>
        <time>2024-01-14T10:27:02Z</time>
      </trkpt>
      <trkpt lat="46.52819" lon="0.31257">
        <ele>121.2</ele>
        <time>2024-01-14T10:27:04Z</time>
      </trkpt>
      <trkpt lat="46.52814" lon="0.31256">
        <ele>122</ele>
        <time>2024-01-14T10:27:07Z</time>
      </trkpt>
      <trkpt lat="46.52808" lon="0.31257">
        <ele>123.2</ele>
        <time>2024-01-14T10:27:11Z</time>
      </trkpt>
      <trkpt lat="46.52806" lon="0.31256">
        <ele>123.6</ele>
        <time>2024-01-14T10:27:13Z</time>
      </trkpt>
      <trkpt lat="46.52802" lon="0.31251">
        <ele>124.2</ele>
        <time>2024-01-14T10:27:16Z</time>
      </trkpt>
      <trkpt lat="46.52799" lon="0.31243">
        <ele>124.2</ele>
        <time>2024-01-14T10:27:19Z</time>
      </trkpt>
      <trkpt lat="46.52798" lon="0.3124">
        <ele>123.8</ele>
        <time>2024-01-14T10:27:20Z</time>
      </trkpt>
      <trkpt lat="46.52793" lon="0.31233">
        <ele>123.2</ele>
        <time>2024-01-14T10:27:23Z</time>
      </trkpt>
      <trkpt lat="46.52791" lon="0.3123">
        <ele>123</ele>
        <time>2024-01-14T10:27:24Z</time>
      </trkpt>
      <trkpt lat="46.5279" lon="0.31228">
        <ele>122.8</ele>
        <time>2024-01-14T10:27:25Z</time>
      </trkpt>
      <trkpt lat="46.52789" lon="0.31225">
        <ele>122.4</ele>
        <time>2024-01-14T10:27:27Z</time>
      </trkpt>
      <trkpt lat="46.52785" lon="0.31219">
        <ele>122.2</ele>
        <time>2024-01-14T10:27:29Z</time>
      </trkpt>
      <trkpt lat="46.52784" lon="0.31216">
        <ele>122.2</ele>
        <time>2024-01-14T10:27:30Z</time>
      </trkpt>
      <trkpt lat="46.5278" lon="0.312">
        <ele>121.8</ele>
        <time>2024-01-14T10:27:34Z</time>
      </trkpt>
      <trkpt lat="46.52779" lon="0.31191">
        <ele>121.4</ele>
        <time>2024-01-14T10:27:36Z</time>
      </trkpt>
      <trkpt lat="46.52778" lon="0.31181">
        <ele>120.6</ele>
        <time>2024-01-14T10:27:38Z</time>
      </trkpt>
      <trkpt lat="46.52776" lon="0.31171">
        <ele>119.8</ele>
        <time>2024-01-14T10:27:40Z</time>
      </trkpt>
      <trkpt lat="46.52774" lon="0.31166">
        <ele>119.6</ele>
        <time>2024-01-14T10:27:41Z</time>
      </trkpt>
      <trkpt lat="46.52773" lon="0.31161">
        <ele>119.2</ele>
        <time>2024-01-14T10:27:42Z</time>
      </trkpt>
      <trkpt lat="46.52772" lon="0.31142">
        <ele>118</ele>
        <time>2024-01-14T10:27:45Z</time>
      </trkpt>
      <trkpt lat="46.52771" lon="0.31134">
        <ele>117.2</ele>
        <time>2024-01-14T10:27:46Z</time>
      </trkpt>
      <trkpt lat="46.5277" lon="0.31126">
        <ele>116.6</ele>
        <time>2024-01-14T10:27:47Z</time>
      </trkpt>
      <trkpt lat="46.52766" lon="0.31108">
        <ele>115.6</ele>
        <time>2024-01-14T10:27:50Z</time>
      </trkpt>
      <trkpt lat="46.52765" lon="0.31102">
        <ele>115.4</ele>
        <time>2024-01-14T10:27:51Z</time>
      </trkpt>
      <trkpt lat="46.52763" lon="0.31092">
        <ele>115.2</ele>
        <time>2024-01-14T10:27:53Z</time>
      </trkpt>
      <trkpt lat="46.52762" lon="0.31082">
        <ele>115</ele>
        <time>2024-01-14T10:27:55Z</time>
      </trkpt>
      <trkpt lat="46.52761" lon="0.31069">
        <ele>115.2</ele>
        <time>2024-01-14T10:27:57Z</time>
      </trkpt>
      <trkpt lat="46.52761" lon="0.31052">
        <ele>115.4</ele>
        <time>2024-01-14T10:27:59Z</time>
      </trkpt>
      <trkpt lat="46.52759" lon="0.31027">
        <ele>115.6</ele>
        <time>2024-01-14T10:28:02Z</time>
      </trkpt>
      <trkpt lat="46.52758" lon="0.31019">
        <ele>115.6</ele>
        <time>2024-01-14T10:28:03Z</time>
      </trkpt>
      <trkpt lat="46.52757" lon="0.31006">
        <ele>115.4</ele>
        <time>2024-01-14T10:28:05Z</time>
      </trkpt>
      <trkpt lat="46.52756" lon="0.30997">
        <ele>115.4</ele>
        <time>2024-01-14T10:28:07Z</time>
      </trkpt>
      <trkpt lat="46.52751" lon="0.30982">
        <ele>115.6</ele>
        <time>2024-01-14T10:28:10Z</time>
      </trkpt>
      <trkpt lat="46.52747" lon="0.30971">
        <ele>115.8</ele>
        <time>2024-01-14T10:28:12Z</time>
      </trkpt>
      <trkpt lat="46.52745" lon="0.30949">
        <ele>116.6</ele>
        <time>2024-01-14T10:28:15Z</time>
      </trkpt>
      <trkpt lat="46.52743" lon="0.30941">
        <ele>117.2</ele>
        <time>2024-01-14T10:28:17Z</time>
      </trkpt>
      <trkpt lat="46.52741" lon="0.30932">
        <ele>117.6</ele>
        <time>2024-01-14T10:28:19Z</time>
      </trkpt>
      <trkpt lat="46.52733" lon="0.30894">
        <ele>118.8</ele>
        <time>2024-01-14T10:28:24Z</time>
      </trkpt>
      <trkpt lat="46.52729" lon="0.3088">
        <ele>119.6</ele>
        <time>2024-01-14T10:28:27Z</time>
      </trkpt>
      <trkpt lat="46.52726" lon="0.3087">
        <ele>120</ele>
        <time>2024-01-14T10:28:30Z</time>
      </trkpt>
      <trkpt lat="46.52718" lon="0.30838">
        <ele>120.4</ele>
        <time>2024-01-14T10:28:40Z</time>
      </trkpt>
      <trkpt lat="46.52718" lon="0.30833">
        <ele>120.2</ele>
        <time>2024-01-14T10:28:42Z</time>
      </trkpt>
      <trkpt lat="46.52717" lon="0.3082">
        <ele>119.2</ele>
        <time>2024-01-14T10:28:46Z</time>
      </trkpt>
      <trkpt lat="46.52716" lon="0.30812">
        <ele>118.6</ele>
        <time>2024-01-14T10:28:48Z</time>
      </trkpt>
      <trkpt lat="46.52718" lon="0.30803">
        <ele>118.4</ele>
        <time>2024-01-14T10:28:51Z</time>
      </trkpt>
      <trkpt lat="46.52716" lon="0.30782">
        <ele>119.8</ele>
        <time>2024-01-14T10:28:57Z</time>
      </trkpt>
      <trkpt lat="46.5271" lon="0.30762">
        <ele>120.8</ele>
        <time>2024-01-14T10:29:03Z</time>
      </trkpt>
      <trkpt lat="46.5271" lon="0.30758">
        <ele>120.8</ele>
        <time>2024-01-14T10:29:04Z</time>
      </trkpt>
      <trkpt lat="46.52705" lon="0.30741">
        <ele>120.4</ele>
        <time>2024-01-14T10:29:08Z</time>
      </trkpt>
      <trkpt lat="46.52704" lon="0.30721">
        <ele>120.8</ele>
        <time>2024-01-14T10:29:14Z</time>
      </trkpt>
      <trkpt lat="46.52704" lon="0.30719">
        <ele>120.8</ele>
        <time>2024-01-14T10:29:15Z</time>
      </trkpt>
      <trkpt lat="46.52701" lon="0.3071">
        <ele>120.4</ele>
        <time>2024-01-14T10:29:18Z</time>
      </trkpt>
      <trkpt lat="46.52695" lon="0.30695">
        <ele>120.6</ele>
        <time>2024-01-14T10:29:22Z</time>
      </trkpt>
      <trkpt lat="46.52686" lon="0.3067">
        <ele>122</ele>
        <time>2024-01-14T10:29:29Z</time>
      </trkpt>
      <trkpt lat="46.52685" lon="0.30667">
        <ele>122.2</ele>
        <time>2024-01-14T10:29:30Z</time>
      </trkpt>
      <trkpt lat="46.5268" lon="0.30639">
        <ele>122.4</ele>
        <time>2024-01-14T10:29:35Z</time>
      </trkpt>
      <trkpt lat="46.52679" lon="0.30622">
        <ele>122.2</ele>
        <time>2024-01-14T10:29:38Z</time>
      </trkpt>
      <trkpt lat="46.52678" lon="0.30609">
        <ele>121.4</ele>
        <time>2024-01-14T10:29:40Z</time>
      </trkpt>
      <trkpt lat="46.52677" lon="0.30604">
        <ele>120.6</ele>
        <time>2024-01-14T10:29:41Z</time>
      </trkpt>
      <trkpt lat="46.52672" lon="0.30593">
        <ele>119.6</ele>
        <time>2024-01-14T10:29:44Z</time>
      </trkpt>
      <trkpt lat="46.52671" lon="0.30588">
        <ele>119.6</ele>
        <time>2024-01-14T10:29:45Z</time>
      </trkpt>
      <trkpt lat="46.52669" lon="0.30568">
        <ele>120.4</ele>
        <time>2024-01-14T10:29:49Z</time>
      </trkpt>
      <trkpt lat="46.52668" lon="0.30566">
        <ele>120.8</ele>
        <time>2024-01-14T10:29:50Z</time>
      </trkpt>
      <trkpt lat="46.52665" lon="0.30554">
        <ele>121.4</ele>
        <time>2024-01-14T10:29:54Z</time>
      </trkpt>
      <trkpt lat="46.52664" lon="0.3055">
        <ele>121.8</ele>
        <time>2024-01-14T10:29:55Z</time>
      </trkpt>
      <trkpt lat="46.52663" lon="0.30545">
        <ele>121.8</ele>
        <time>2024-01-14T10:29:56Z</time>
      </trkpt>
      <trkpt lat="46.52661" lon="0.3053">
        <ele>122</ele>
        <time>2024-01-14T10:29:59Z</time>
      </trkpt>
      <trkpt lat="46.52659" lon="0.30517">
        <ele>121.8</ele>
        <time>2024-01-14T10:30:01Z</time>
      </trkpt>
      <trkpt lat="46.52659" lon="0.30511">
        <ele>121.6</ele>
        <time>2024-01-14T10:30:02Z</time>
      </trkpt>
      <trkpt lat="46.52658" lon="0.30499">
        <ele>121</ele>
        <time>2024-01-14T10:30:04Z</time>
      </trkpt>
      <trkpt lat="46.52656" lon="0.30487">
        <ele>120.4</ele>
        <time>2024-01-14T10:30:06Z</time>
      </trkpt>
      <trkpt lat="46.52656" lon="0.30465">
        <ele>119.8</ele>
        <time>2024-01-14T10:30:10Z</time>
      </trkpt>
      <trkpt lat="46.52655" lon="0.30457">
        <ele>119.6</ele>
        <time>2024-01-14T10:30:12Z</time>
      </trkpt>
      <trkpt lat="46.52652" lon="0.30439">
        <ele>119.4</ele>
        <time>2024-01-14T10:30:15Z</time>
      </trkpt>
      <trkpt lat="46.52652" lon="0.30425">
        <ele>119.2</ele>
        <time>2024-01-14T10:30:17Z</time>
      </trkpt>
      <trkpt lat="46.52652" lon="0.3041">
        <ele>118.8</ele>
        <time>2024-01-14T10:30:19Z</time>
      </trkpt>
      <trkpt lat="46.52652" lon="0.30395">
        <ele>118.4</ele>
        <time>2024-01-14T10:30:22Z</time>
      </trkpt>
      <trkpt lat="46.52651" lon="0.30389">
        <ele>118.2</ele>
        <time>2024-01-14T10:30:23Z</time>
      </trkpt>
      <trkpt lat="46.5265" lon="0.30384">
        <ele>118</ele>
        <time>2024-01-14T10:30:24Z</time>
      </trkpt>
      <trkpt lat="46.52648" lon="0.30373">
        <ele>117.6</ele>
        <time>2024-01-14T10:30:26Z</time>
      </trkpt>
      <trkpt lat="46.52644" lon="0.30364">
        <ele>117.6</ele>
        <time>2024-01-14T10:30:28Z</time>
      </trkpt>
      <trkpt lat="46.5264" lon="0.30357">
        <ele>117.2</ele>
        <time>2024-01-14T10:30:30Z</time>
      </trkpt>
      <trkpt lat="46.52634" lon="0.30352">
        <ele>116.6</ele>
        <time>2024-01-14T10:30:32Z</time>
      </trkpt>
      <trkpt lat="46.52629" lon="0.30346">
        <ele>116.2</ele>
        <time>2024-01-14T10:30:34Z</time>
      </trkpt>
      <trkpt lat="46.52615" lon="0.30329">
        <ele>116</ele>
        <time>2024-01-14T10:30:38Z</time>
      </trkpt>
      <trkpt lat="46.52608" lon="0.30317">
        <ele>115</ele>
        <time>2024-01-14T10:30:40Z</time>
      </trkpt>
      <trkpt lat="46.52596" lon="0.30298">
        <ele>113.8</ele>
        <time>2024-01-14T10:30:43Z</time>
      </trkpt>
      <trkpt lat="46.52588" lon="0.30295">
        <ele>113</ele>
        <time>2024-01-14T10:30:45Z</time>
      </trkpt>
      <trkpt lat="46.52583" lon="0.30293">
        <ele>112.4</ele>
        <time>2024-01-14T10:30:46Z</time>
      </trkpt>
      <trkpt lat="46.52574" lon="0.30288">
        <ele>112</ele>
        <time>2024-01-14T10:30:48Z</time>
      </trkpt>
      <trkpt lat="46.52564" lon="0.30288">
        <ele>111.2</ele>
        <time>2024-01-14T10:30:50Z</time>
      </trkpt>
      <trkpt lat="46.52554" lon="0.30285">
        <ele>110.6</ele>
        <time>2024-01-14T10:30:52Z</time>
      </trkpt>
      <trkpt lat="46.52541" lon="0.30279">
        <ele>110</ele>
        <time>2024-01-14T10:30:55Z</time>
      </trkpt>
      <trkpt lat="46.52537" lon="0.30279">
        <ele>109.6</ele>
        <time>2024-01-14T10:30:56Z</time>
      </trkpt>
      <trkpt lat="46.52529" lon="0.30277">
        <ele>108.4</ele>
        <time>2024-01-14T10:30:58Z</time>
      </trkpt>
      <trkpt lat="46.52524" lon="0.30276">
        <ele>106.8</ele>
        <time>2024-01-14T10:30:59Z</time>
      </trkpt>
      <trkpt lat="46.52517" lon="0.30272">
        <ele>105.2</ele>
        <time>2024-01-14T10:31:01Z</time>
      </trkpt>
      <trkpt lat="46.52514" lon="0.30269">
        <ele>104.8</ele>
        <time>2024-01-14T10:31:02Z</time>
      </trkpt>
      <trkpt lat="46.52511" lon="0.30266">
        <ele>104.6</ele>
        <time>2024-01-14T10:31:03Z</time>
      </trkpt>
      <trkpt lat="46.52504" lon="0.30262">
        <ele>104.2</ele>
        <time>2024-01-14T10:31:05Z</time>
      </trkpt>
      <trkpt lat="46.52496" lon="0.30257">
        <ele>104.2</ele>
        <time>2024-01-14T10:31:07Z</time>
      </trkpt>
      <trkpt lat="46.52472" lon="0.30252">
        <ele>105.4</ele>
        <time>2024-01-14T10:31:14Z</time>
      </trkpt>
      <trkpt lat="46.5246" lon="0.30254">
        <ele>106.4</ele>
        <time>2024-01-14T10:31:18Z</time>
      </trkpt>
      <trkpt lat="46.52453" lon="0.30256">
        <ele>106.8</ele>
        <time>2024-01-14T10:31:21Z</time>
      </trkpt>
      <trkpt lat="46.52445" lon="0.30259">
        <ele>107.6</ele>
        <time>2024-01-14T10:31:24Z</time>
      </trkpt>
      <trkpt lat="46.52436" lon="0.30263">
        <ele>108</ele>
        <time>2024-01-14T10:31:27Z</time>
      </trkpt>
      <trkpt lat="46.52431" lon="0.30261">
        <ele>108.8</ele>
        <time>2024-01-14T10:31:30Z</time>
      </trkpt>
      <trkpt lat="46.52428" lon="0.30261">
        <ele>109.4</ele>
        <time>2024-01-14T10:31:32Z</time>
      </trkpt>
      <trkpt lat="46.52421" lon="0.30258">
        <ele>110</ele>
        <time>2024-01-14T10:31:34Z</time>
      </trkpt>
      <trkpt lat="46.5241" lon="0.30255">
        <ele>111.2</ele>
        <time>2024-01-14T10:31:38Z</time>
      </trkpt>
      <trkpt lat="46.52398" lon="0.30256">
        <ele>112.4</ele>
        <time>2024-01-14T10:31:43Z</time>
      </trkpt>
      <trkpt lat="46.52389" lon="0.30256">
        <ele>113.6</ele>
        <time>2024-01-14T10:31:47Z</time>
      </trkpt>
      <trkpt lat="46.52385" lon="0.30255">
        <ele>114</ele>
        <time>2024-01-14T10:31:49Z</time>
      </trkpt>
      <trkpt lat="46.5238" lon="0.30255">
        <ele>114.6</ele>
        <time>2024-01-14T10:31:52Z</time>
      </trkpt>
      <trkpt lat="46.52369" lon="0.30256">
        <ele>115.4</ele>
        <time>2024-01-14T10:31:57Z</time>
      </trkpt>
      <trkpt lat="46.52362" lon="0.30257">
        <ele>115.6</ele>
        <time>2024-01-14T10:32:00Z</time>
      </trkpt>
      <trkpt lat="46.52356" lon="0.30258">
        <ele>116.4</ele>
        <time>2024-01-14T10:32:04Z</time>
      </trkpt>
      <trkpt lat="46.5235" lon="0.30259">
        <ele>116.6</ele>
        <time>2024-01-14T10:32:07Z</time>
      </trkpt>
      <trkpt lat="46.52342" lon="0.3026">
        <ele>117.2</ele>
        <time>2024-01-14T10:32:11Z</time>
      </trkpt>
      <trkpt lat="46.52336" lon="0.30262">
        <ele>117.8</ele>
        <time>2024-01-14T10:32:15Z</time>
      </trkpt>
      <trkpt lat="46.52334" lon="0.30262">
        <ele>118</ele>
        <time>2024-01-14T10:32:16Z</time>
      </trkpt>
      <trkpt lat="46.5233" lon="0.30263">
        <ele>118.4</ele>
        <time>2024-01-14T10:32:18Z</time>
      </trkpt>
      <trkpt lat="46.52328" lon="0.30264">
        <ele>118.6</ele>
        <time>2024-01-14T10:32:19Z</time>
      </trkpt>
      <trkpt lat="46.52327" lon="0.30264">
        <ele>119</ele>
        <time>2024-01-14T10:32:20Z</time>
      </trkpt>
      <trkpt lat="46.52319" lon="0.30264">
        <ele>120.2</ele>
        <time>2024-01-14T10:32:25Z</time>
      </trkpt>
      <trkpt lat="46.52315" lon="0.30263">
        <ele>120.8</ele>
        <time>2024-01-14T10:32:27Z</time>
      </trkpt>
      <trkpt lat="46.52314" lon="0.30262">
        <ele>121</ele>
        <time>2024-01-14T10:32:28Z</time>
      </trkpt>
      <trkpt lat="46.52311" lon="0.30261">
        <ele>121.2</ele>
        <time>2024-01-14T10:32:30Z</time>
      </trkpt>
      <trkpt lat="46.52302" lon="0.30256">
        <ele>122.4</ele>
        <time>2024-01-14T10:32:35Z</time>
      </trkpt>
      <trkpt lat="46.52292" lon="0.30252">
        <ele>123.4</ele>
        <time>2024-01-14T10:32:40Z</time>
      </trkpt>
      <trkpt lat="46.5229" lon="0.30251">
        <ele>123.6</ele>
        <time>2024-01-14T10:32:41Z</time>
      </trkpt>
      <trkpt lat="46.52285" lon="0.30248">
        <ele>124.4</ele>
        <time>2024-01-14T10:32:44Z</time>
      </trkpt>
      <trkpt lat="46.52283" lon="0.30247">
        <ele>124.8</ele>
        <time>2024-01-14T10:32:45Z</time>
      </trkpt>
      <trkpt lat="46.5228" lon="0.30241">
        <ele>125.4</ele>
        <time>2024-01-14T10:32:49Z</time>
      </trkpt>
      <trkpt lat="46.52279" lon="0.3024">
        <ele>125.6</ele>
        <time>2024-01-14T10:32:50Z</time>
      </trkpt>
      <trkpt lat="46.52276" lon="0.30233">
        <ele>126.8</ele>
        <time>2024-01-14T10:32:55Z</time>
      </trkpt>
      <trkpt lat="46.52273" lon="0.30224">
        <ele>128</ele>
        <time>2024-01-14T10:33:01Z</time>
      </trkpt>
      <trkpt lat="46.52272" lon="0.30222">
        <ele>128.2</ele>
        <time>2024-01-14T10:33:02Z</time>
      </trkpt>
      <trkpt lat="46.52271" lon="0.30217">
        <ele>128.8</ele>
        <time>2024-01-14T10:33:05Z</time>
      </trkpt>
      <trkpt lat="46.52271" lon="0.30215">
        <ele>129</ele>
        <time>2024-01-14T10:33:06Z</time>
      </trkpt>
      <trkpt lat="46.5227" lon="0.30206">
        <ele>130</ele>
        <time>2024-01-14T10:33:11Z</time>
      </trkpt>
      <trkpt lat="46.52269" lon="0.30202">
        <ele>130.4</ele>
        <time>2024-01-14T10:33:13Z</time>
      </trkpt>
      <trkpt lat="46.52267" lon="0.3019">
        <ele>131.2</ele>
        <time>2024-01-14T10:33:19Z</time>
      </trkpt>
      <trkpt lat="46.52266" lon="0.30177">
        <ele>132</ele>
        <time>2024-01-14T10:33:24Z</time>
      </trkpt>
      <trkpt lat="46.52264" lon="0.30174">
        <ele>132.2</ele>
        <time>2024-01-14T10:33:26Z</time>
      </trkpt>
      <trkpt lat="46.52259" lon="0.30158">
        <ele>133.2</ele>
        <time>2024-01-14T10:33:33Z</time>
      </trkpt>
      <trkpt lat="46.52259" lon="0.30155">
        <ele>133.4</ele>
        <time>2024-01-14T10:33:34Z</time>
      </trkpt>
      <trkpt lat="46.52253" lon="0.30132">
        <ele>133.8</ele>
        <time>2024-01-14T10:33:41Z</time>
      </trkpt>
      <trkpt lat="46.52255" lon="0.30108">
        <ele>134.4</ele>
        <time>2024-01-14T10:33:48Z</time>
      </trkpt>
      <trkpt lat="46.52255" lon="0.30105">
        <ele>134.4</ele>
        <time>2024-01-14T10:33:49Z</time>
      </trkpt>
      <trkpt lat="46.52259" lon="0.30085">
        <ele>134.6</ele>
        <time>2024-01-14T10:33:55Z</time>
      </trkpt>
      <trkpt lat="46.52263" lon="0.30058">
        <ele>134.4</ele>
        <time>2024-01-14T10:34:01Z</time>
      </trkpt>
      <trkpt lat="46.52266" lon="0.30022">
        <ele>134.2</ele>
        <time>2024-01-14T10:34:07Z</time>
      </trkpt>
      <trkpt lat="46.52269" lon="0.29987">
        <ele>133.8</ele>
        <time>2024-01-14T10:34:12Z</time>
      </trkpt>
      <trkpt lat="46.52269" lon="0.2998">
        <ele>133.6</ele>
        <time>2024-01-14T10:34:13Z</time>
      </trkpt>
      <trkpt lat="46.52271" lon="0.29972">
        <ele>133.4</ele>
        <time>2024-01-14T10:34:14Z</time>
      </trkpt>
      <trkpt lat="46.52275" lon="0.29957">
        <ele>133</ele>
        <time>2024-01-14T10:34:16Z</time>
      </trkpt>
      <trkpt lat="46.52276" lon="0.29949">
        <ele>132.8</ele>
        <time>2024-01-14T10:34:17Z</time>
      </trkpt>
      <trkpt lat="46.52278" lon="0.29933">
        <ele>131.6</ele>
        <time>2024-01-14T10:34:19Z</time>
      </trkpt>
      <trkpt lat="46.52279" lon="0.29928">
        <ele>131.2</ele>
        <time>2024-01-14T10:34:20Z</time>
      </trkpt>
      <trkpt lat="46.52278" lon="0.29924">
        <ele>130.4</ele>
        <time>2024-01-14T10:34:21Z</time>
      </trkpt>
      <trkpt lat="46.52278" lon="0.29919">
        <ele>129.8</ele>
        <time>2024-01-14T10:34:22Z</time>
      </trkpt>
      <trkpt lat="46.52277" lon="0.29915">
        <ele>129.4</ele>
        <time>2024-01-14T10:34:23Z</time>
      </trkpt>
      <trkpt lat="46.52276" lon="0.29904">
        <ele>127.8</ele>
        <time>2024-01-14T10:34:25Z</time>
      </trkpt>
      <trkpt lat="46.52276" lon="0.29899">
        <ele>127.2</ele>
        <time>2024-01-14T10:34:26Z</time>
      </trkpt>
      <trkpt lat="46.52277" lon="0.29894">
        <ele>126.8</ele>
        <time>2024-01-14T10:34:27Z</time>
      </trkpt>
      <trkpt lat="46.5228" lon="0.29882">
        <ele>125.4</ele>
        <time>2024-01-14T10:34:29Z</time>
      </trkpt>
      <trkpt lat="46.52283" lon="0.29876">
        <ele>124.8</ele>
        <time>2024-01-14T10:34:30Z</time>
      </trkpt>
      <trkpt lat="46.52285" lon="0.29871">
        <ele>123.6</ele>
        <time>2024-01-14T10:34:31Z</time>
      </trkpt>
      <trkpt lat="46.5229" lon="0.29862">
        <ele>121.8</ele>
        <time>2024-01-14T10:34:33Z</time>
      </trkpt>
      <trkpt lat="46.52292" lon="0.29854">
        <ele>119.8</ele>
        <time>2024-01-14T10:34:35Z</time>
      </trkpt>
      <trkpt lat="46.52293" lon="0.2985">
        <ele>118.6</ele>
        <time>2024-01-14T10:34:36Z</time>
      </trkpt>
      <trkpt lat="46.52294" lon="0.29846">
        <ele>117.2</ele>
        <time>2024-01-14T10:34:37Z</time>
      </trkpt>
      <trkpt lat="46.52295" lon="0.29843">
        <ele>116</ele>
        <time>2024-01-14T10:34:38Z</time>
      </trkpt>
      <trkpt lat="46.52296" lon="0.29842">
        <ele>114.8</ele>
        <time>2024-01-14T10:34:39Z</time>
      </trkpt>
      <trkpt lat="46.52297" lon="0.2984">
        <ele>113.8</ele>
        <time>2024-01-14T10:34:40Z</time>
      </trkpt>
      <trkpt lat="46.52298" lon="0.29837">
        <ele>113</ele>
        <time>2024-01-14T10:34:41Z</time>
      </trkpt>
      <trkpt lat="46.52299" lon="0.29834">
        <ele>112.2</ele>
        <time>2024-01-14T10:34:42Z</time>
      </trkpt>
      <trkpt lat="46.523" lon="0.29831">
        <ele>111</ele>
        <time>2024-01-14T10:34:43Z</time>
      </trkpt>
      <trkpt lat="46.52303" lon="0.29827">
        <ele>109.2</ele>
        <time>2024-01-14T10:34:45Z</time>
      </trkpt>
      <trkpt lat="46.52305" lon="0.29827">
        <ele>108.4</ele>
        <time>2024-01-14T10:34:46Z</time>
      </trkpt>
      <trkpt lat="46.52307" lon="0.29826">
        <ele>108</ele>
        <time>2024-01-14T10:34:47Z</time>
      </trkpt>
      <trkpt lat="46.52311" lon="0.29827">
        <ele>106.6</ele>
        <time>2024-01-14T10:34:49Z</time>
      </trkpt>
      <trkpt lat="46.52315" lon="0.29828">
        <ele>104.6</ele>
        <time>2024-01-14T10:34:51Z</time>
      </trkpt>
      <trkpt lat="46.52317" lon="0.29829">
        <ele>104</ele>
        <time>2024-01-14T10:34:52Z</time>
      </trkpt>
      <trkpt lat="46.52318" lon="0.2983">
        <ele>103.6</ele>
        <time>2024-01-14T10:34:53Z</time>
      </trkpt>
      <trkpt lat="46.5232" lon="0.29832">
        <ele>102.8</ele>
        <time>2024-01-14T10:34:54Z</time>
      </trkpt>
      <trkpt lat="46.52323" lon="0.29833">
        <ele>102</ele>
        <time>2024-01-14T10:34:55Z</time>
      </trkpt>
      <trkpt lat="46.52325" lon="0.29835">
        <ele>101</ele>
        <time>2024-01-14T10:34:56Z</time>
      </trkpt>
      <trkpt lat="46.52328" lon="0.29838">
        <ele>100.2</ele>
        <time>2024-01-14T10:34:57Z</time>
      </trkpt>
      <trkpt lat="46.52331" lon="0.29839">
        <ele>99.4</ele>
        <time>2024-01-14T10:34:58Z</time>
      </trkpt>
      <trkpt lat="46.52333" lon="0.2984">
        <ele>98.4</ele>
        <time>2024-01-14T10:34:59Z</time>
      </trkpt>
      <trkpt lat="46.52337" lon="0.29839">
        <ele>96.6</ele>
        <time>2024-01-14T10:35:01Z</time>
      </trkpt>
      <trkpt lat="46.52338" lon="0.29837">
        <ele>95</ele>
        <time>2024-01-14T10:35:03Z</time>
      </trkpt>
      <trkpt lat="46.52338" lon="0.29832">
        <ele>94.4</ele>
        <time>2024-01-14T10:35:06Z</time>
      </trkpt>
      <trkpt lat="46.52342" lon="0.29821">
        <ele>95.2</ele>
        <time>2024-01-14T10:35:12Z</time>
      </trkpt>
      <trkpt lat="46.52342" lon="0.29815">
        <ele>96.4</ele>
        <time>2024-01-14T10:35:16Z</time>
      </trkpt>
      <trkpt lat="46.52342" lon="0.29808">
        <ele>97</ele>
        <time>2024-01-14T10:35:19Z</time>
      </trkpt>
      <trkpt lat="46.52341" lon="0.29805">
        <ele>97.6</ele>
        <time>2024-01-14T10:35:21Z</time>
      </trkpt>
      <trkpt lat="46.52338" lon="0.29801">
        <ele>98.2</ele>
        <time>2024-01-14T10:35:23Z</time>
      </trkpt>
      <trkpt lat="46.52325" lon="0.29786">
        <ele>97.8</ele>
        <time>2024-01-14T10:35:30Z</time>
      </trkpt>
      <trkpt lat="46.52321" lon="0.29782">
        <ele>97.6</ele>
        <time>2024-01-14T10:35:32Z</time>
      </trkpt>
      <trkpt lat="46.52316" lon="0.29778">
        <ele>97.4</ele>
        <time>2024-01-14T10:35:34Z</time>
      </trkpt>
      <trkpt lat="46.52309" lon="0.29771">
        <ele>96.6</ele>
        <time>2024-01-14T10:35:36Z</time>
      </trkpt>
      <trkpt lat="46.52305" lon="0.29767">
        <ele>96.4</ele>
        <time>2024-01-14T10:35:37Z</time>
      </trkpt>
      <trkpt lat="46.52294" lon="0.29756">
        <ele>95.4</ele>
        <time>2024-01-14T10:35:40Z</time>
      </trkpt>
      <trkpt lat="46.5229" lon="0.29752">
        <ele>95.2</ele>
        <time>2024-01-14T10:35:41Z</time>
      </trkpt>
      <trkpt lat="46.52285" lon="0.29751">
        <ele>95.2</ele>
        <time>2024-01-14T10:35:42Z</time>
      </trkpt>
      <trkpt lat="46.52281" lon="0.2975">
        <ele>95.2</ele>
        <time>2024-01-14T10:35:43Z</time>
      </trkpt>
      <trkpt lat="46.52273" lon="0.29747">
        <ele>95.6</ele>
        <time>2024-01-14T10:35:46Z</time>
      </trkpt>
      <trkpt lat="46.52262" lon="0.29745">
        <ele>96.4</ele>
        <time>2024-01-14T10:35:51Z</time>
      </trkpt>
      <trkpt lat="46.52259" lon="0.29744">
        <ele>96.8</ele>
        <time>2024-01-14T10:35:52Z</time>
      </trkpt>
      <trkpt lat="46.52247" lon="0.29741">
        <ele>97.6</ele>
        <time>2024-01-14T10:35:56Z</time>
      </trkpt>
      <trkpt lat="46.52241" lon="0.29738">
        <ele>97.6</ele>
        <time>2024-01-14T10:35:58Z</time>
      </trkpt>
      <trkpt lat="46.52219" lon="0.29727">
        <ele>98.4</ele>
        <time>2024-01-14T10:36:05Z</time>
      </trkpt>
      <trkpt lat="46.52216" lon="0.29726">
        <ele>98.6</ele>
        <time>2024-01-14T10:36:06Z</time>
      </trkpt>
      <trkpt lat="46.52201" lon="0.29719">
        <ele>99.2</ele>
        <time>2024-01-14T10:36:11Z</time>
      </trkpt>
      <trkpt lat="46.52194" lon="0.29716">
        <ele>99.8</ele>
        <time>2024-01-14T10:36:14Z</time>
      </trkpt>
      <trkpt lat="46.52184" lon="0.2971">
        <ele>101</ele>
        <time>2024-01-14T10:36:18Z</time>
      </trkpt>
      <trkpt lat="46.52167" lon="0.29692">
        <ele>101.4</ele>
        <time>2024-01-14T10:36:25Z</time>
      </trkpt>
      <trkpt lat="46.52159" lon="0.29686">
        <ele>101.4</ele>
        <time>2024-01-14T10:36:27Z</time>
      </trkpt>
      <trkpt lat="46.52152" lon="0.2968">
        <ele>101.2</ele>
        <time>2024-01-14T10:36:29Z</time>
      </trkpt>
      <trkpt lat="46.52149" lon="0.29677">
        <ele>101</ele>
        <time>2024-01-14T10:36:30Z</time>
      </trkpt>
      <trkpt lat="46.52131" lon="0.29657">
        <ele>101</ele>
        <time>2024-01-14T10:36:36Z</time>
      </trkpt>
      <trkpt lat="46.52127" lon="0.29653">
        <ele>101</ele>
        <time>2024-01-14T10:36:37Z</time>
      </trkpt>
      <trkpt lat="46.52124" lon="0.2965">
        <ele>101</ele>
        <time>2024-01-14T10:36:38Z</time>
      </trkpt>
      <trkpt lat="46.52112" lon="0.29639">
        <ele>100.8</ele>
        <time>2024-01-14T10:36:42Z</time>
      </trkpt>
      <trkpt lat="46.52092" lon="0.29618">
        <ele>100.8</ele>
        <time>2024-01-14T10:36:48Z</time>
      </trkpt>
      <trkpt lat="46.52078" lon="0.29606">
        <ele>100.6</ele>
        <time>2024-01-14T10:36:51Z</time>
      </trkpt>
      <trkpt lat="46.52073" lon="0.29602">
        <ele>100.6</ele>
        <time>2024-01-14T10:36:52Z</time>
      </trkpt>
      <trkpt lat="46.52069" lon="0.296">
        <ele>100.6</ele>
        <time>2024-01-14T10:36:53Z</time>
      </trkpt>
      <trkpt lat="46.5205" lon="0.29589">
        <ele>100.6</ele>
        <time>2024-01-14T10:36:57Z</time>
      </trkpt>
      <trkpt lat="46.52034" lon="0.29582">
        <ele>101.4</ele>
        <time>2024-01-14T10:37:02Z</time>
      </trkpt>
      <trkpt lat="46.52028" lon="0.29579">
        <ele>102</ele>
        <time>2024-01-14T10:37:05Z</time>
      </trkpt>
      <trkpt lat="46.52019" lon="0.29571">
        <ele>103.4</ele>
        <time>2024-01-14T10:37:10Z</time>
      </trkpt>
      <trkpt lat="46.52014" lon="0.29568">
        <ele>104.6</ele>
        <time>2024-01-14T10:37:13Z</time>
      </trkpt>
      <trkpt lat="46.5201" lon="0.29566">
        <ele>105.6</ele>
        <time>2024-01-14T10:37:16Z</time>
      </trkpt>
      <trkpt lat="46.52008" lon="0.29565">
        <ele>105.6</ele>
        <time>2024-01-14T10:37:17Z</time>
      </trkpt>
      <trkpt lat="46.52002" lon="0.29564">
        <ele>107</ele>
        <time>2024-01-14T10:37:20Z</time>
      </trkpt>
      <trkpt lat="46.51992" lon="0.2956">
        <ele>107.8</ele>
        <time>2024-01-14T10:37:26Z</time>
      </trkpt>
      <trkpt lat="46.51983" lon="0.29547">
        <ele>107.4</ele>
        <time>2024-01-14T10:37:33Z</time>
      </trkpt>
      <trkpt lat="46.51971" lon="0.29527">
        <ele>106.6</ele>
        <time>2024-01-14T10:37:38Z</time>
      </trkpt>
      <trkpt lat="46.51956" lon="0.29506">
        <ele>105.8</ele>
        <time>2024-01-14T10:37:43Z</time>
      </trkpt>
      <trkpt lat="46.5195" lon="0.29498">
        <ele>105.4</ele>
        <time>2024-01-14T10:37:45Z</time>
      </trkpt>
      <trkpt lat="46.51946" lon="0.29495">
        <ele>105.2</ele>
        <time>2024-01-14T10:37:46Z</time>
      </trkpt>
      <trkpt lat="46.51942" lon="0.29491">
        <ele>105.2</ele>
        <time>2024-01-14T10:37:47Z</time>
      </trkpt>
      <trkpt lat="46.51928" lon="0.29479">
        <ele>105</ele>
        <time>2024-01-14T10:37:51Z</time>
      </trkpt>
      <trkpt lat="46.51917" lon="0.29461">
        <ele>105.2</ele>
        <time>2024-01-14T10:37:56Z</time>
      </trkpt>
      <trkpt lat="46.51904" lon="0.29439">
        <ele>105.4</ele>
        <time>2024-01-14T10:38:01Z</time>
      </trkpt>
      <trkpt lat="46.5189" lon="0.29416">
        <ele>105.6</ele>
        <time>2024-01-14T10:38:05Z</time>
      </trkpt>
      <trkpt lat="46.51887" lon="0.29412">
        <ele>105.6</ele>
        <time>2024-01-14T10:38:06Z</time>
      </trkpt>
      <trkpt lat="46.51881" lon="0.29409">
        <ele>106.6</ele>
        <time>2024-01-14T10:38:09Z</time>
      </trkpt>
      <trkpt lat="46.51878" lon="0.29408">
        <ele>106.8</ele>
        <time>2024-01-14T10:38:11Z</time>
      </trkpt>
      <trkpt lat="46.51875" lon="0.2941">
        <ele>107.8</ele>
        <time>2024-01-14T10:38:15Z</time>
      </trkpt>
      <trkpt lat="46.51871" lon="0.29412">
        <ele>108.8</ele>
        <time>2024-01-14T10:38:18Z</time>
      </trkpt>
      <trkpt lat="46.51871" lon="0.29412">
        <ele>109.2</ele>
        <time>2024-01-14T10:38:19Z</time>
      </trkpt>
      <trkpt lat="46.51866" lon="0.29417">
        <ele>110.2</ele>
        <time>2024-01-14T10:38:23Z</time>
      </trkpt>
      <trkpt lat="46.51863" lon="0.2942">
        <ele>110.6</ele>
        <time>2024-01-14T10:38:26Z</time>
      </trkpt>
      <trkpt lat="46.51863" lon="0.29422">
        <ele>110.6</ele>
        <time>2024-01-14T10:38:27Z</time>
      </trkpt>
      <trkpt lat="46.51858" lon="0.29432">
        <ele>111.4</ele>
        <time>2024-01-14T10:38:32Z</time>
      </trkpt>
      <trkpt lat="46.51857" lon="0.29434">
        <ele>111.4</ele>
        <time>2024-01-14T10:38:33Z</time>
      </trkpt>
      <trkpt lat="46.51849" lon="0.29448">
        <ele>112</ele>
        <time>2024-01-14T10:38:39Z</time>
      </trkpt>
      <trkpt lat="46.51847" lon="0.29452">
        <ele>112.4</ele>
        <time>2024-01-14T10:38:41Z</time>
      </trkpt>
      <trkpt lat="46.51842" lon="0.29461">
        <ele>113.4</ele>
        <time>2024-01-14T10:38:46Z</time>
      </trkpt>
      <trkpt lat="46.51836" lon="0.29472">
        <ele>114.4</ele>
        <time>2024-01-14T10:38:52Z</time>
      </trkpt>
      <trkpt lat="46.51835" lon="0.29473">
        <ele>114.4</ele>
        <time>2024-01-14T10:38:53Z</time>
      </trkpt>
      <trkpt lat="46.5183" lon="0.29481">
        <ele>115.6</ele>
        <time>2024-01-14T10:38:57Z</time>
      </trkpt>
      <trkpt lat="46.51827" lon="0.29485">
        <ele>116</ele>
        <time>2024-01-14T10:38:59Z</time>
      </trkpt>
      <trkpt lat="46.51826" lon="0.29489">
        <ele>116.6</ele>
        <time>2024-01-14T10:39:01Z</time>
      </trkpt>
      <trkpt lat="46.51822" lon="0.29498">
        <ele>117.6</ele>
        <time>2024-01-14T10:39:05Z</time>
      </trkpt>
      <trkpt lat="46.5182" lon="0.29502">
        <ele>118.2</ele>
        <time>2024-01-14T10:39:07Z</time>
      </trkpt>
      <trkpt lat="46.51818" lon="0.29509">
        <ele>118.8</ele>
        <time>2024-01-14T10:39:10Z</time>
      </trkpt>
      <trkpt lat="46.51814" lon="0.29517">
        <ele>119.6</ele>
        <time>2024-01-14T10:39:15Z</time>
      </trkpt>
      <trkpt lat="46.51814" lon="0.29519">
        <ele>119.8</ele>
        <time>2024-01-14T10:39:16Z</time>
      </trkpt>
      <trkpt lat="46.5181" lon="0.29528">
        <ele>121</ele>
        <time>2024-01-14T10:39:23Z</time>
      </trkpt>
      <trkpt lat="46.51804" lon="0.29539">
        <ele>122</ele>
        <time>2024-01-14T10:39:30Z</time>
      </trkpt>
      <trkpt lat="46.51802" lon="0.29543">
        <ele>122</ele>
        <time>2024-01-14T10:39:32Z</time>
      </trkpt>
      <trkpt lat="46.51797" lon="0.2955">
        <ele>123</ele>
        <time>2024-01-14T10:39:37Z</time>
      </trkpt>
      <trkpt lat="46.51796" lon="0.29552">
        <ele>123.2</ele>
        <time>2024-01-14T10:39:38Z</time>
      </trkpt>
      <trkpt lat="46.51788" lon="0.29566">
        <ele>124</ele>
        <time>2024-01-14T10:39:45Z</time>
      </trkpt>
      <trkpt lat="46.51787" lon="0.29568">
        <ele>124</ele>
        <time>2024-01-14T10:39:46Z</time>
      </trkpt>
      <trkpt lat="46.51781" lon="0.29577">
        <ele>125.2</ele>
        <time>2024-01-14T10:39:51Z</time>
      </trkpt>
      <trkpt lat="46.51779" lon="0.29582">
        <ele>125.4</ele>
        <time>2024-01-14T10:39:53Z</time>
      </trkpt>
      <trkpt lat="46.51773" lon="0.29595">
        <ele>126.2</ele>
        <time>2024-01-14T10:39:59Z</time>
      </trkpt>
      <trkpt lat="46.51772" lon="0.29598">
        <ele>126.2</ele>
        <time>2024-01-14T10:40:00Z</time>
      </trkpt>
      <trkpt lat="46.51768" lon="0.29613">
        <ele>126.8</ele>
        <time>2024-01-14T10:40:05Z</time>
      </trkpt>
      <trkpt lat="46.51764" lon="0.29621">
        <ele>127.2</ele>
        <time>2024-01-14T10:40:08Z</time>
      </trkpt>
      <trkpt lat="46.51756" lon="0.29637">
        <ele>128.2</ele>
        <time>2024-01-14T10:40:14Z</time>
      </trkpt>
      <trkpt lat="46.51754" lon="0.29642">
        <ele>128.4</ele>
        <time>2024-01-14T10:40:16Z</time>
      </trkpt>
      <trkpt lat="46.51745" lon="0.29659">
        <ele>129</ele>
        <time>2024-01-14T10:40:23Z</time>
      </trkpt>
      <trkpt lat="46.51741" lon="0.29667">
        <ele>129.4</ele>
        <time>2024-01-14T10:40:26Z</time>
      </trkpt>
      <trkpt lat="46.51736" lon="0.29675">
        <ele>129.8</ele>
        <time>2024-01-14T10:40:29Z</time>
      </trkpt>
      <trkpt lat="46.51728" lon="0.29686">
        <ele>130.4</ele>
        <time>2024-01-14T10:40:33Z</time>
      </trkpt>
      <trkpt lat="46.51726" lon="0.29687">
        <ele>130.6</ele>
        <time>2024-01-14T10:40:34Z</time>
      </trkpt>
      <trkpt lat="46.51714" lon="0.29693">
        <ele>131.6</ele>
        <time>2024-01-14T10:40:40Z</time>
      </trkpt>
      <trkpt lat="46.51712" lon="0.29694">
        <ele>131.6</ele>
        <time>2024-01-14T10:40:41Z</time>
      </trkpt>
      <trkpt lat="46.51698" lon="0.29704">
        <ele>132.2</ele>
        <time>2024-01-14T10:40:48Z</time>
      </trkpt>
      <trkpt lat="46.51686" lon="0.29714">
        <ele>132.6</ele>
        <time>2024-01-14T10:40:53Z</time>
      </trkpt>
      <trkpt lat="46.51679" lon="0.29721">
        <ele>133</ele>
        <time>2024-01-14T10:40:56Z</time>
      </trkpt>
      <trkpt lat="46.51666" lon="0.29735">
        <ele>133.8</ele>
        <time>2024-01-14T10:41:03Z</time>
      </trkpt>
      <trkpt lat="46.51661" lon="0.29741">
        <ele>134.8</ele>
        <time>2024-01-14T10:41:06Z</time>
      </trkpt>
      <trkpt lat="46.51651" lon="0.29749">
        <ele>135.2</ele>
        <time>2024-01-14T10:41:11Z</time>
      </trkpt>
      <trkpt lat="46.51638" lon="0.29761">
        <ele>135.8</ele>
        <time>2024-01-14T10:41:19Z</time>
      </trkpt>
      <trkpt lat="46.51637" lon="0.29762">
        <ele>135.8</ele>
        <time>2024-01-14T10:41:20Z</time>
      </trkpt>
      <trkpt lat="46.51629" lon="0.29765">
        <ele>136.2</ele>
        <time>2024-01-14T10:41:24Z</time>
      </trkpt>
      <trkpt lat="46.51613" lon="0.2977">
        <ele>136.8</ele>
        <time>2024-01-14T10:41:30Z</time>
      </trkpt>
      <trkpt lat="46.51604" lon="0.29772">
        <ele>137</ele>
        <time>2024-01-14T10:41:33Z</time>
      </trkpt>
      <trkpt lat="46.51594" lon="0.29774">
        <ele>137.2</ele>
        <time>2024-01-14T10:41:36Z</time>
      </trkpt>
      <trkpt lat="46.51573" lon="0.29778">
        <ele>137.8</ele>
        <time>2024-01-14T10:41:43Z</time>
      </trkpt>
      <trkpt lat="46.51556" lon="0.29777">
        <ele>137.8</ele>
        <time>2024-01-14T10:41:48Z</time>
      </trkpt>
      <trkpt lat="46.51552" lon="0.29777">
        <ele>138.2</ele>
        <time>2024-01-14T10:41:49Z</time>
      </trkpt>
      <trkpt lat="46.51526" lon="0.29779">
        <ele>138.6</ele>
        <time>2024-01-14T10:41:56Z</time>
      </trkpt>
      <trkpt lat="46.51503" lon="0.29782">
        <ele>138.6</ele>
        <time>2024-01-14T10:42:03Z</time>
      </trkpt>
      <trkpt lat="46.51486" lon="0.29784">
        <ele>138.8</ele>
        <time>2024-01-14T10:42:08Z</time>
      </trkpt>
      <trkpt lat="46.51469" lon="0.29781">
        <ele>139.2</ele>
        <time>2024-01-14T10:42:13Z</time>
      </trkpt>
      <trkpt lat="46.51466" lon="0.29779">
        <ele>139.2</ele>
        <time>2024-01-14T10:42:14Z</time>
      </trkpt>
      <trkpt lat="46.51455" lon="0.29775">
        <ele>139.2</ele>
        <time>2024-01-14T10:42:17Z</time>
      </trkpt>
      <trkpt lat="46.51451" lon="0.29776">
        <ele>139</ele>
        <time>2024-01-14T10:42:18Z</time>
      </trkpt>
      <trkpt lat="46.51438" lon="0.29795">
        <ele>138.6</ele>
        <time>2024-01-14T10:42:23Z</time>
      </trkpt>
      <trkpt lat="46.51425" lon="0.29823">
        <ele>138.4</ele>
        <time>2024-01-14T10:42:28Z</time>
      </trkpt>
      <trkpt lat="46.5142" lon="0.29836">
        <ele>138</ele>
        <time>2024-01-14T10:42:30Z</time>
      </trkpt>
      <trkpt lat="46.51417" lon="0.29843">
        <ele>137.6</ele>
        <time>2024-01-14T10:42:31Z</time>
      </trkpt>
      <trkpt lat="46.51408" lon="0.29863">
        <ele>137.4</ele>
        <time>2024-01-14T10:42:34Z</time>
      </trkpt>
      <trkpt lat="46.51403" lon="0.29877">
        <ele>137</ele>
        <time>2024-01-14T10:42:36Z</time>
      </trkpt>
      <trkpt lat="46.514" lon="0.29885">
        <ele>136.8</ele>
        <time>2024-01-14T10:42:37Z</time>
      </trkpt>
      <trkpt lat="46.51396" lon="0.29901">
        <ele>136.6</ele>
        <time>2024-01-14T10:42:39Z</time>
      </trkpt>
      <trkpt lat="46.51388" lon="0.29946">
        <ele>135.8</ele>
        <time>2024-01-14T10:42:44Z</time>
      </trkpt>
      <trkpt lat="46.51383" lon="0.29971">
        <ele>135.4</ele>
        <time>2024-01-14T10:42:47Z</time>
      </trkpt>
      <trkpt lat="46.51373" lon="0.30028">
        <ele>134.8</ele>
        <time>2024-01-14T10:42:54Z</time>
      </trkpt>
      <trkpt lat="46.51366" lon="0.30067">
        <ele>134.4</ele>
        <time>2024-01-14T10:42:59Z</time>
      </trkpt>
      <trkpt lat="46.51366" lon="0.30072">
        <ele>134.4</ele>
        <time>2024-01-14T10:43:00Z</time>
      </trkpt>
      <trkpt lat="46.51367" lon="0.30076">
        <ele>134.2</ele>
        <time>2024-01-14T10:43:01Z</time>
      </trkpt>
      <trkpt lat="46.51369" lon="0.30081">
        <ele>134.2</ele>
        <time>2024-01-14T10:43:03Z</time>
      </trkpt>
      <trkpt lat="46.51371" lon="0.30082">
        <ele>134.2</ele>
        <time>2024-01-14T10:43:04Z</time>
      </trkpt>
      <trkpt lat="46.51382" lon="0.30085">
        <ele>135</ele>
        <time>2024-01-14T10:43:09Z</time>
      </trkpt>
      <trkpt lat="46.51395" lon="0.30092">
        <ele>135.8</ele>
        <time>2024-01-14T10:43:14Z</time>
      </trkpt>
      <trkpt lat="46.51397" lon="0.30095">
        <ele>136</ele>
        <time>2024-01-14T10:43:15Z</time>
      </trkpt>
      <trkpt lat="46.51398" lon="0.30109">
        <ele>136.4</ele>
        <time>2024-01-14T10:43:18Z</time>
      </trkpt>
      <trkpt lat="46.51399" lon="0.30144">
        <ele>136.6</ele>
        <time>2024-01-14T10:43:24Z</time>
      </trkpt>
      <trkpt lat="46.51403" lon="0.3018">
        <ele>137</ele>
        <time>2024-01-14T10:43:30Z</time>
      </trkpt>
      <trkpt lat="46.51403" lon="0.30185">
        <ele>137.2</ele>
        <time>2024-01-14T10:43:31Z</time>
      </trkpt>
      <trkpt lat="46.51403" lon="0.30201">
        <ele>137.4</ele>
        <time>2024-01-14T10:43:34Z</time>
      </trkpt>
      <trkpt lat="46.51403" lon="0.30217">
        <ele>137.2</ele>
        <time>2024-01-14T10:43:37Z</time>
      </trkpt>
      <trkpt lat="46.51402" lon="0.30223">
        <ele>137.2</ele>
        <time>2024-01-14T10:43:38Z</time>
      </trkpt>
      <trkpt lat="46.51401" lon="0.30235">
        <ele>137.2</ele>
        <time>2024-01-14T10:43:40Z</time>
      </trkpt>
      <trkpt lat="46.51397" lon="0.30251">
        <ele>137.4</ele>
        <time>2024-01-14T10:43:43Z</time>
      </trkpt>
      <trkpt lat="46.51378" lon="0.30302">
        <ele>138</ele>
        <time>2024-01-14T10:43:51Z</time>
      </trkpt>
      <trkpt lat="46.51376" lon="0.30308">
        <ele>138</ele>
        <time>2024-01-14T10:43:52Z</time>
      </trkpt>
      <trkpt lat="46.51363" lon="0.30342">
        <ele>138</ele>
        <time>2024-01-14T10:43:57Z</time>
      </trkpt>
      <trkpt lat="46.51342" lon="0.304">
        <ele>137.6</ele>
        <time>2024-01-14T10:44:05Z</time>
      </trkpt>
      <trkpt lat="46.51321" lon="0.30458">
        <ele>137.4</ele>
        <time>2024-01-14T10:44:13Z</time>
      </trkpt>
      <trkpt lat="46.51296" lon="0.30528">
        <ele>136.8</ele>
        <time>2024-01-14T10:44:22Z</time>
      </trkpt>
      <trkpt lat="46.51274" lon="0.30589">
        <ele>136</ele>
        <time>2024-01-14T10:44:29Z</time>
      </trkpt>
      <trkpt lat="46.51268" lon="0.30607">
        <ele>135.6</ele>
        <time>2024-01-14T10:44:31Z</time>
      </trkpt>
      <trkpt lat="46.51258" lon="0.30633">
        <ele>134.8</ele>
        <time>2024-01-14T10:44:34Z</time>
      </trkpt>
      <trkpt lat="46.51255" lon="0.30642">
        <ele>134.6</ele>
        <time>2024-01-14T10:44:35Z</time>
      </trkpt>
      <trkpt lat="46.51242" lon="0.30674">
        <ele>134</ele>
        <time>2024-01-14T10:44:39Z</time>
      </trkpt>
      <trkpt lat="46.51233" lon="0.30699">
        <ele>133.4</ele>
        <time>2024-01-14T10:44:42Z</time>
      </trkpt>
      <trkpt lat="46.51222" lon="0.30726">
        <ele>133.2</ele>
        <time>2024-01-14T10:44:45Z</time>
      </trkpt>
      <trkpt lat="46.51205" lon="0.30769">
        <ele>132.4</ele>
        <time>2024-01-14T10:44:50Z</time>
      </trkpt>
      <trkpt lat="46.51195" lon="0.30795">
        <ele>131.8</ele>
        <time>2024-01-14T10:44:53Z</time>
      </trkpt>
      <trkpt lat="46.51185" lon="0.3082">
        <ele>131</ele>
        <time>2024-01-14T10:44:56Z</time>
      </trkpt>
      <trkpt lat="46.51179" lon="0.30836">
        <ele>130.6</ele>
        <time>2024-01-14T10:44:58Z</time>
      </trkpt>
      <trkpt lat="46.51178" lon="0.30846">
        <ele>130.2</ele>
        <time>2024-01-14T10:44:59Z</time>
      </trkpt>
      <trkpt lat="46.51178" lon="0.30854">
        <ele>130</ele>
        <time>2024-01-14T10:45:00Z</time>
      </trkpt>
      <trkpt lat="46.51181" lon="0.3088">
        <ele>129.2</ele>
        <time>2024-01-14T10:45:03Z</time>
      </trkpt>
      <trkpt lat="46.51182" lon="0.30889">
        <ele>129</ele>
        <time>2024-01-14T10:45:04Z</time>
      </trkpt>
      <trkpt lat="46.51194" lon="0.30932">
        <ele>128</ele>
        <time>2024-01-14T10:45:09Z</time>
      </trkpt>
      <trkpt lat="46.512" lon="0.30949">
        <ele>128</ele>
        <time>2024-01-14T10:45:11Z</time>
      </trkpt>
      <trkpt lat="46.51205" lon="0.30972">
        <ele>127.6</ele>
        <time>2024-01-14T10:45:14Z</time>
      </trkpt>
      <trkpt lat="46.51207" lon="0.30987">
        <ele>127.6</ele>
        <time>2024-01-14T10:45:16Z</time>
      </trkpt>
      <trkpt lat="46.51207" lon="0.31013">
        <ele>126.8</ele>
        <time>2024-01-14T10:45:19Z</time>
      </trkpt>
      <trkpt lat="46.51207" lon="0.31031">
        <ele>126.8</ele>
        <time>2024-01-14T10:45:21Z</time>
      </trkpt>
      <trkpt lat="46.51203" lon="0.3105">
        <ele>126.8</ele>
        <time>2024-01-14T10:45:23Z</time>
      </trkpt>
      <trkpt lat="46.51198" lon="0.31068">
        <ele>126.8</ele>
        <time>2024-01-14T10:45:25Z</time>
      </trkpt>
      <trkpt lat="46.51197" lon="0.31077">
        <ele>126.6</ele>
        <time>2024-01-14T10:45:26Z</time>
      </trkpt>
      <trkpt lat="46.51199" lon="0.31094">
        <ele>126</ele>
        <time>2024-01-14T10:45:28Z</time>
      </trkpt>
      <trkpt lat="46.512" lon="0.31103">
        <ele>125.8</ele>
        <time>2024-01-14T10:45:29Z</time>
      </trkpt>
      <trkpt lat="46.51203" lon="0.31111">
        <ele>125.6</ele>
        <time>2024-01-14T10:45:30Z</time>
      </trkpt>
      <trkpt lat="46.51213" lon="0.31135">
        <ele>125</ele>
        <time>2024-01-14T10:45:33Z</time>
      </trkpt>
      <trkpt lat="46.51216" lon="0.31144">
        <ele>124.6</ele>
        <time>2024-01-14T10:45:34Z</time>
      </trkpt>
      <trkpt lat="46.51233" lon="0.31185">
        <ele>123.6</ele>
        <time>2024-01-14T10:45:39Z</time>
      </trkpt>
      <trkpt lat="46.51244" lon="0.31209">
        <ele>122</ele>
        <time>2024-01-14T10:45:42Z</time>
      </trkpt>
      <trkpt lat="46.51248" lon="0.31217">
        <ele>121</ele>
        <time>2024-01-14T10:45:44Z</time>
      </trkpt>
      <trkpt lat="46.5126" lon="0.3124">
        <ele>120.2</ele>
        <time>2024-01-14T10:45:46Z</time>
      </trkpt>
      <trkpt lat="46.51263" lon="0.31248">
        <ele>120</ele>
        <time>2024-01-14T10:45:47Z</time>
      </trkpt>
      <trkpt lat="46.51274" lon="0.31276">
        <ele>118.8</ele>
        <time>2024-01-14T10:45:51Z</time>
      </trkpt>
      <trkpt lat="46.51283" lon="0.31298">
        <ele>117.6</ele>
        <time>2024-01-14T10:45:54Z</time>
      </trkpt>
      <trkpt lat="46.51285" lon="0.31305">
        <ele>116.6</ele>
        <time>2024-01-14T10:45:55Z</time>
      </trkpt>
      <trkpt lat="46.51288" lon="0.31317">
        <ele>115.4</ele>
        <time>2024-01-14T10:45:57Z</time>
      </trkpt>
      <trkpt lat="46.5129" lon="0.31326">
        <ele>114</ele>
        <time>2024-01-14T10:45:59Z</time>
      </trkpt>
      <trkpt lat="46.51289" lon="0.31334">
        <ele>112.4</ele>
        <time>2024-01-14T10:46:01Z</time>
      </trkpt>
      <trkpt lat="46.51286" lon="0.31345">
        <ele>111.2</ele>
        <time>2024-01-14T10:46:04Z</time>
      </trkpt>
      <trkpt lat="46.51285" lon="0.31355">
        <ele>109.8</ele>
        <time>2024-01-14T10:46:06Z</time>
      </trkpt>
      <trkpt lat="46.51284" lon="0.31361">
        <ele>109</ele>
        <time>2024-01-14T10:46:07Z</time>
      </trkpt>
      <trkpt lat="46.51283" lon="0.31368">
        <ele>108.2</ele>
        <time>2024-01-14T10:46:08Z</time>
      </trkpt>
      <trkpt lat="46.51281" lon="0.31382">
        <ele>107</ele>
        <time>2024-01-14T10:46:10Z</time>
      </trkpt>
      <trkpt lat="46.5128" lon="0.31389">
        <ele>106</ele>
        <time>2024-01-14T10:46:11Z</time>
      </trkpt>
      <trkpt lat="46.5128" lon="0.31399">
        <ele>105.2</ele>
        <time>2024-01-14T10:46:12Z</time>
      </trkpt>
      <trkpt lat="46.51279" lon="0.3141">
        <ele>104.6</ele>
        <time>2024-01-14T10:46:13Z</time>
      </trkpt>
      <trkpt lat="46.51279" lon="0.3142">
        <ele>103.8</ele>
        <time>2024-01-14T10:46:14Z</time>
      </trkpt>
      <trkpt lat="46.51281" lon="0.31442">
        <ele>103</ele>
        <time>2024-01-14T10:46:16Z</time>
      </trkpt>
      <trkpt lat="46.51282" lon="0.31454">
        <ele>102.8</ele>
        <time>2024-01-14T10:46:17Z</time>
      </trkpt>
      <trkpt lat="46.51283" lon="0.31463">
        <ele>102.6</ele>
        <time>2024-01-14T10:46:18Z</time>
      </trkpt>
      <trkpt lat="46.51286" lon="0.3152">
        <ele>101.8</ele>
        <time>2024-01-14T10:46:24Z</time>
      </trkpt>
      <trkpt lat="46.51286" lon="0.31542">
        <ele>102.2</ele>
        <time>2024-01-14T10:46:27Z</time>
      </trkpt>
      <trkpt lat="46.51287" lon="0.31551">
        <ele>102.8</ele>
        <time>2024-01-14T10:46:29Z</time>
      </trkpt>
      <trkpt lat="46.51286" lon="0.31563">
        <ele>104</ele>
        <time>2024-01-14T10:46:32Z</time>
      </trkpt>
      <trkpt lat="46.51287" lon="0.31578">
        <ele>105.2</ele>
        <time>2024-01-14T10:46:36Z</time>
      </trkpt>
      <trkpt lat="46.51286" lon="0.31593">
        <ele>106.2</ele>
        <time>2024-01-14T10:46:41Z</time>
      </trkpt>
      <trkpt lat="46.51288" lon="0.31601">
        <ele>107.4</ele>
        <time>2024-01-14T10:46:44Z</time>
      </trkpt>
      <trkpt lat="46.51289" lon="0.31609">
        <ele>108.6</ele>
        <time>2024-01-14T10:46:47Z</time>
      </trkpt>
      <trkpt lat="46.51292" lon="0.31619">
        <ele>109.6</ele>
        <time>2024-01-14T10:46:51Z</time>
      </trkpt>
      <trkpt lat="46.51295" lon="0.31632">
        <ele>111</ele>
        <time>2024-01-14T10:46:55Z</time>
      </trkpt>
      <trkpt lat="46.51297" lon="0.31641">
        <ele>111.4</ele>
        <time>2024-01-14T10:46:58Z</time>
      </trkpt>
      <trkpt lat="46.51301" lon="0.31656">
        <ele>112.4</ele>
        <time>2024-01-14T10:47:03Z</time>
      </trkpt>
      <trkpt lat="46.51303" lon="0.31664">
        <ele>113</ele>
        <time>2024-01-14T10:47:06Z</time>
      </trkpt>
      <trkpt lat="46.51305" lon="0.31669">
        <ele>113.4</ele>
        <time>2024-01-14T10:47:08Z</time>
      </trkpt>
      <trkpt lat="46.51308" lon="0.31682">
        <ele>114.4</ele>
        <time>2024-01-14T10:47:12Z</time>
      </trkpt>
      <trkpt lat="46.51308" lon="0.31685">
        <ele>114.6</ele>
        <time>2024-01-14T10:47:13Z</time>
      </trkpt>
      <trkpt lat="46.51312" lon="0.31704">
        <ele>115.4</ele>
        <time>2024-01-14T10:47:19Z</time>
      </trkpt>
      <trkpt lat="46.51313" lon="0.31708">
        <ele>115.6</ele>
        <time>2024-01-14T10:47:20Z</time>
      </trkpt>
      <trkpt lat="46.51316" lon="0.31725">
        <ele>116.8</ele>
        <time>2024-01-14T10:47:26Z</time>
      </trkpt>
      <trkpt lat="46.51316" lon="0.31728">
        <ele>116.8</ele>
        <time>2024-01-14T10:47:27Z</time>
      </trkpt>
      <trkpt lat="46.5132" lon="0.31747">
        <ele>117.6</ele>
        <time>2024-01-14T10:47:33Z</time>
      </trkpt>
      <trkpt lat="46.51322" lon="0.31757">
        <ele>117.8</ele>
        <time>2024-01-14T10:47:36Z</time>
      </trkpt>
      <trkpt lat="46.51325" lon="0.31773">
        <ele>118.2</ele>
        <time>2024-01-14T10:47:40Z</time>
      </trkpt>
      <trkpt lat="46.51327" lon="0.31806">
        <ele>118.6</ele>
        <time>2024-01-14T10:47:47Z</time>
      </trkpt>
      <trkpt lat="46.51331" lon="0.31861">
        <ele>118.4</ele>
        <time>2024-01-14T10:47:56Z</time>
      </trkpt>
      <trkpt lat="46.51334" lon="0.3188">
        <ele>118.8</ele>
        <time>2024-01-14T10:47:59Z</time>
      </trkpt>
      <trkpt lat="46.51338" lon="0.31891">
        <ele>118.8</ele>
        <time>2024-01-14T10:48:01Z</time>
      </trkpt>
      <trkpt lat="46.5134" lon="0.31902">
        <ele>118.8</ele>
        <time>2024-01-14T10:48:03Z</time>
      </trkpt>
      <trkpt lat="46.51344" lon="0.31913">
        <ele>119</ele>
        <time>2024-01-14T10:48:05Z</time>
      </trkpt>
      <trkpt lat="46.51355" lon="0.3194">
        <ele>119.6</ele>
        <time>2024-01-14T10:48:10Z</time>
      </trkpt>
      <trkpt lat="46.51362" lon="0.31957">
        <ele>119.8</ele>
        <time>2024-01-14T10:48:13Z</time>
      </trkpt>
      <trkpt lat="46.51373" lon="0.31987">
        <ele>120.4</ele>
        <time>2024-01-14T10:48:18Z</time>
      </trkpt>
      <trkpt lat="46.51393" lon="0.32038">
        <ele>120.4</ele>
        <time>2024-01-14T10:48:26Z</time>
      </trkpt>
      <trkpt lat="46.51409" lon="0.32088">
        <ele>120.2</ele>
        <time>2024-01-14T10:48:34Z</time>
      </trkpt>
      <trkpt lat="46.51415" lon="0.32108">
        <ele>120.2</ele>
        <time>2024-01-14T10:48:37Z</time>
      </trkpt>
      <trkpt lat="46.51419" lon="0.32129">
        <ele>120</ele>
        <time>2024-01-14T10:48:40Z</time>
      </trkpt>
      <trkpt lat="46.5143" lon="0.32194">
        <ele>119.8</ele>
        <time>2024-01-14T10:48:48Z</time>
      </trkpt>
      <trkpt lat="46.51439" lon="0.32252">
        <ele>119.2</ele>
        <time>2024-01-14T10:48:55Z</time>
      </trkpt>
      <trkpt lat="46.51447" lon="0.3229">
        <ele>119.2</ele>
        <time>2024-01-14T10:49:00Z</time>
      </trkpt>
      <trkpt lat="46.5145" lon="0.32296">
        <ele>119.2</ele>
        <time>2024-01-14T10:49:01Z</time>
      </trkpt>
      <trkpt lat="46.5147" lon="0.32334">
        <ele>119.2</ele>
        <time>2024-01-14T10:49:08Z</time>
      </trkpt>
      <trkpt lat="46.51483" lon="0.32361">
        <ele>118.6</ele>
        <time>2024-01-14T10:49:12Z</time>
      </trkpt>
      <trkpt lat="46.51485" lon="0.32369">
        <ele>118.2</ele>
        <time>2024-01-14T10:49:13Z</time>
      </trkpt>
      <trkpt lat="46.51495" lon="0.32402">
        <ele>117.6</ele>
        <time>2024-01-14T10:49:17Z</time>
      </trkpt>
      <trkpt lat="46.51499" lon="0.32417">
        <ele>117.2</ele>
        <time>2024-01-14T10:49:19Z</time>
      </trkpt>
      <trkpt lat="46.51505" lon="0.32434">
        <ele>116.4</ele>
        <time>2024-01-14T10:49:22Z</time>
      </trkpt>
      <trkpt lat="46.51512" lon="0.32452">
        <ele>115.6</ele>
        <time>2024-01-14T10:49:25Z</time>
      </trkpt>
      <trkpt lat="46.51514" lon="0.32458">
        <ele>115.2</ele>
        <time>2024-01-14T10:49:26Z</time>
      </trkpt>
      <trkpt lat="46.51519" lon="0.32469">
        <ele>114.8</ele>
        <time>2024-01-14T10:49:28Z</time>
      </trkpt>
      <trkpt lat="46.51529" lon="0.32489">
        <ele>114.6</ele>
        <time>2024-01-14T10:49:31Z</time>
      </trkpt>
      <trkpt lat="46.51538" lon="0.3251">
        <ele>113.8</ele>
        <time>2024-01-14T10:49:34Z</time>
      </trkpt>
      <trkpt lat="46.51553" lon="0.32538">
        <ele>112.4</ele>
        <time>2024-01-14T10:49:38Z</time>
      </trkpt>
      <trkpt lat="46.51556" lon="0.32544">
        <ele>112</ele>
        <time>2024-01-14T10:49:39Z</time>
      </trkpt>
      <trkpt lat="46.51559" lon="0.32547">
        <ele>111.4</ele>
        <time>2024-01-14T10:49:40Z</time>
      </trkpt>
      <trkpt lat="46.51562" lon="0.32548">
        <ele>110.8</ele>
        <time>2024-01-14T10:49:41Z</time>
      </trkpt>
      <trkpt lat="46.51565" lon="0.32548">
        <ele>110.4</ele>
        <time>2024-01-14T10:49:42Z</time>
      </trkpt>
      <trkpt lat="46.51577" lon="0.32542">
        <ele>109.6</ele>
        <time>2024-01-14T10:49:46Z</time>
      </trkpt>
      <trkpt lat="46.51584" lon="0.32523">
        <ele>109.8</ele>
        <time>2024-01-14T10:49:52Z</time>
      </trkpt>
      <trkpt lat="46.51591" lon="0.32514">
        <ele>110.6</ele>
        <time>2024-01-14T10:49:56Z</time>
      </trkpt>
      <trkpt lat="46.51595" lon="0.32513">
        <ele>110.8</ele>
        <time>2024-01-14T10:49:57Z</time>
      </trkpt>
      <trkpt lat="46.51619" lon="0.32509">
        <ele>111.6</ele>
        <time>2024-01-14T10:50:04Z</time>
      </trkpt>
      <trkpt lat="46.51635" lon="0.32508">
        <ele>112.8</ele>
        <time>2024-01-14T10:50:10Z</time>
      </trkpt>
      <trkpt lat="46.51645" lon="0.32508">
        <ele>113.2</ele>
        <time>2024-01-14T10:50:13Z</time>
      </trkpt>
      <trkpt lat="46.51651" lon="0.32508">
        <ele>114.2</ele>
        <time>2024-01-14T10:50:15Z</time>
      </trkpt>
      <trkpt lat="46.51656" lon="0.32508">
        <ele>114.8</ele>
        <time>2024-01-14T10:50:17Z</time>
      </trkpt>
      <trkpt lat="46.51663" lon="0.32508">
        <ele>115.4</ele>
        <time>2024-01-14T10:50:20Z</time>
      </trkpt>
      <trkpt lat="46.51671" lon="0.32508">
        <ele>116.6</ele>
        <time>2024-01-14T10:50:24Z</time>
      </trkpt>
      <trkpt lat="46.51679" lon="0.32508">
        <ele>117.8</ele>
        <time>2024-01-14T10:50:28Z</time>
      </trkpt>
      <trkpt lat="46.51686" lon="0.32508">
        <ele>118.4</ele>
        <time>2024-01-14T10:50:31Z</time>
      </trkpt>
      <trkpt lat="46.51693" lon="0.32508">
        <ele>119</ele>
        <time>2024-01-14T10:50:34Z</time>
      </trkpt>
      <trkpt lat="46.51706" lon="0.32508">
        <ele>120.2</ele>
        <time>2024-01-14T10:50:40Z</time>
      </trkpt>
      <trkpt lat="46.51708" lon="0.32508">
        <ele>120.2</ele>
        <time>2024-01-14T10:50:41Z</time>
      </trkpt>
      <trkpt lat="46.5172" lon="0.32508">
        <ele>121.2</ele>
        <time>2024-01-14T10:50:46Z</time>
      </trkpt>
      <trkpt lat="46.51726" lon="0.32508">
        <ele>121.6</ele>
        <time>2024-01-14T10:50:48Z</time>
      </trkpt>
      <trkpt lat="46.51744" lon="0.3251">
        <ele>122.4</ele>
        <time>2024-01-14T10:50:55Z</time>
      </trkpt>
      <trkpt lat="46.51746" lon="0.32511">
        <ele>122.6</ele>
        <time>2024-01-14T10:50:56Z</time>
      </trkpt>
      <trkpt lat="46.51767" lon="0.32514">
        <ele>123.6</ele>
        <time>2024-01-14T10:51:05Z</time>
      </trkpt>
      <trkpt lat="46.51781" lon="0.32516">
        <ele>124.6</ele>
        <time>2024-01-14T10:51:11Z</time>
      </trkpt>
      <trkpt lat="46.51787" lon="0.32517">
        <ele>124.6</ele>
        <time>2024-01-14T10:51:14Z</time>
      </trkpt>
      <trkpt lat="46.51793" lon="0.32518">
        <ele>125.2</ele>
        <time>2024-01-14T10:51:18Z</time>
      </trkpt>
      <trkpt lat="46.51795" lon="0.32517">
        <ele>125.4</ele>
        <time>2024-01-14T10:51:20Z</time>
      </trkpt>
      <trkpt lat="46.51798" lon="0.32523">
        <ele>125.4</ele>
        <time>2024-01-14T10:51:23Z</time>
      </trkpt>
      <trkpt lat="46.51798" lon="0.32526">
        <ele>125.4</ele>
        <time>2024-01-14T10:51:24Z</time>
      </trkpt>
      <trkpt lat="46.5179" lon="0.32545">
        <ele>125.2</ele>
        <time>2024-01-14T10:51:29Z</time>
      </trkpt>
      <trkpt lat="46.51783" lon="0.32572">
        <ele>125</ele>
        <time>2024-01-14T10:51:34Z</time>
      </trkpt>
      <trkpt lat="46.5178" lon="0.32607">
        <ele>123.2</ele>
        <time>2024-01-14T10:51:39Z</time>
      </trkpt>
      <trkpt lat="46.51779" lon="0.32614">
        <ele>123</ele>
        <time>2024-01-14T10:51:40Z</time>
      </trkpt>
      <trkpt lat="46.51777" lon="0.32626">
        <ele>122.6</ele>
        <time>2024-01-14T10:51:42Z</time>
      </trkpt>
      <trkpt lat="46.51777" lon="0.32626">
        <ele>121.6</ele>
        <time>2024-01-14T10:51:43Z</time>
      </trkpt>
      <trkpt lat="46.5177" lon="0.32629">
        <ele>121.6</ele>
        <time>2024-01-14T10:51:44Z</time>
      </trkpt>
      <trkpt lat="46.51764" lon="0.32632">
        <ele>121.2</ele>
        <time>2024-01-14T10:51:46Z</time>
      </trkpt>
      <trkpt lat="46.51761" lon="0.32637">
        <ele>120.6</ele>
        <time>2024-01-14T10:51:47Z</time>
      </trkpt>
      <trkpt lat="46.51758" lon="0.32642">
        <ele>120.2</ele>
        <time>2024-01-14T10:51:48Z</time>
      </trkpt>
      <trkpt lat="46.51747" lon="0.32663">
        <ele>119</ele>
        <time>2024-01-14T10:51:51Z</time>
      </trkpt>
      <trkpt lat="46.51744" lon="0.32681">
        <ele>117.6</ele>
        <time>2024-01-14T10:51:53Z</time>
      </trkpt>
      <trkpt lat="46.51745" lon="0.32691">
        <ele>117</ele>
        <time>2024-01-14T10:51:54Z</time>
      </trkpt>
      <trkpt lat="46.51746" lon="0.32711">
        <ele>115.8</ele>
        <time>2024-01-14T10:51:56Z</time>
      </trkpt>
      <trkpt lat="46.51747" lon="0.32732">
        <ele>114.4</ele>
        <time>2024-01-14T10:51:58Z</time>
      </trkpt>
      <trkpt lat="46.51748" lon="0.32742">
        <ele>113.6</ele>
        <time>2024-01-14T10:51:59Z</time>
      </trkpt>
      <trkpt lat="46.51748" lon="0.32751">
        <ele>112.4</ele>
        <time>2024-01-14T10:52:00Z</time>
      </trkpt>
      <trkpt lat="46.51749" lon="0.32758">
        <ele>110.8</ele>
        <time>2024-01-14T10:52:01Z</time>
      </trkpt>
      <trkpt lat="46.5175" lon="0.32765">
        <ele>109.6</ele>
        <time>2024-01-14T10:52:02Z</time>
      </trkpt>
      <trkpt lat="46.5175" lon="0.3277">
        <ele>108.4</ele>
        <time>2024-01-14T10:52:03Z</time>
      </trkpt>
      <trkpt lat="46.51751" lon="0.32775">
        <ele>107.2</ele>
        <time>2024-01-14T10:52:04Z</time>
      </trkpt>
      <trkpt lat="46.51751" lon="0.32779">
        <ele>105.4</ele>
        <time>2024-01-14T10:52:05Z</time>
      </trkpt>
      <trkpt lat="46.5175" lon="0.32782">
        <ele>104.6</ele>
        <time>2024-01-14T10:52:06Z</time>
      </trkpt>
      <trkpt lat="46.51749" lon="0.32784">
        <ele>103.8</ele>
        <time>2024-01-14T10:52:07Z</time>
      </trkpt>
      <trkpt lat="46.51748" lon="0.32786">
        <ele>103.2</ele>
        <time>2024-01-14T10:52:08Z</time>
      </trkpt>
      <trkpt lat="46.51747" lon="0.32788">
        <ele>102.4</ele>
        <time>2024-01-14T10:52:09Z</time>
      </trkpt>
      <trkpt lat="46.51744" lon="0.32801">
        <ele>101.4</ele>
        <time>2024-01-14T10:52:12Z</time>
      </trkpt>
      <trkpt lat="46.5175" lon="0.32823">
        <ele>100.2</ele>
        <time>2024-01-14T10:52:15Z</time>
      </trkpt>
      <trkpt lat="46.51753" lon="0.32841">
        <ele>99</ele>
        <time>2024-01-14T10:52:17Z</time>
      </trkpt>
      <trkpt lat="46.51757" lon="0.32855">
        <ele>98</ele>
        <time>2024-01-14T10:52:19Z</time>
      </trkpt>
      <trkpt lat="46.51757" lon="0.32859">
        <ele>96.8</ele>
        <time>2024-01-14T10:52:20Z</time>
      </trkpt>
      <trkpt lat="46.51756" lon="0.32861">
        <ele>96</ele>
        <time>2024-01-14T10:52:21Z</time>
      </trkpt>
      <trkpt lat="46.51755" lon="0.32861">
        <ele>95.2</ele>
        <time>2024-01-14T10:52:22Z</time>
      </trkpt>
      <trkpt lat="46.51749" lon="0.32857">
        <ele>94.2</ele>
        <time>2024-01-14T10:52:25Z</time>
      </trkpt>
      <trkpt lat="46.51736" lon="0.32847">
        <ele>93.2</ele>
        <time>2024-01-14T10:52:28Z</time>
      </trkpt>
      <trkpt lat="46.51731" lon="0.32844">
        <ele>93</ele>
        <time>2024-01-14T10:52:29Z</time>
      </trkpt>
      <trkpt lat="46.51702" lon="0.32825">
        <ele>92</ele>
        <time>2024-01-14T10:52:34Z</time>
      </trkpt>
      <trkpt lat="46.51696" lon="0.32821">
        <ele>91.6</ele>
        <time>2024-01-14T10:52:35Z</time>
      </trkpt>
      <trkpt lat="46.51683" lon="0.32815">
        <ele>91</ele>
        <time>2024-01-14T10:52:38Z</time>
      </trkpt>
      <trkpt lat="46.5168" lon="0.32823">
        <ele>90.4</ele>
        <time>2024-01-14T10:52:40Z</time>
      </trkpt>
      <trkpt lat="46.5168" lon="0.32829">
        <ele>90.2</ele>
        <time>2024-01-14T10:52:41Z</time>
      </trkpt>
      <trkpt lat="46.51678" lon="0.32852">
        <ele>89</ele>
        <time>2024-01-14T10:52:44Z</time>
      </trkpt>
      <trkpt lat="46.51676" lon="0.3287">
        <ele>88.2</ele>
        <time>2024-01-14T10:52:46Z</time>
      </trkpt>
      <trkpt lat="46.51674" lon="0.3288">
        <ele>87.8</ele>
        <time>2024-01-14T10:52:47Z</time>
      </trkpt>
      <trkpt lat="46.5167" lon="0.32913">
        <ele>86.6</ele>
        <time>2024-01-14T10:52:50Z</time>
      </trkpt>
      <trkpt lat="46.51671" lon="0.32924">
        <ele>86.2</ele>
        <time>2024-01-14T10:52:51Z</time>
      </trkpt>
      <trkpt lat="46.51675" lon="0.32935">
        <ele>85.2</ele>
        <time>2024-01-14T10:52:52Z</time>
      </trkpt>
      <trkpt lat="46.51684" lon="0.32954">
        <ele>84.2</ele>
        <time>2024-01-14T10:52:54Z</time>
      </trkpt>
      <trkpt lat="46.51687" lon="0.32963">
        <ele>84</ele>
        <time>2024-01-14T10:52:55Z</time>
      </trkpt>
      <trkpt lat="46.51689" lon="0.32978">
        <ele>82.8</ele>
        <time>2024-01-14T10:52:57Z</time>
      </trkpt>
      <trkpt lat="46.51689" lon="0.32985">
        <ele>81.8</ele>
        <time>2024-01-14T10:52:59Z</time>
      </trkpt>
      <trkpt lat="46.51689" lon="0.32987">
        <ele>81.2</ele>
        <time>2024-01-14T10:53:00Z</time>
      </trkpt>
      <trkpt lat="46.51689" lon="0.3299">
        <ele>80.8</ele>
        <time>2024-01-14T10:53:02Z</time>
      </trkpt>
      <trkpt lat="46.51693" lon="0.32994">
        <ele>80.6</ele>
        <time>2024-01-14T10:53:04Z</time>
      </trkpt>
      <trkpt lat="46.51715" lon="0.33002">
        <ele>81.4</ele>
        <time>2024-01-14T10:53:10Z</time>
      </trkpt>
      <trkpt lat="46.51743" lon="0.33011">
        <ele>81</ele>
        <time>2024-01-14T10:53:16Z</time>
      </trkpt>
      <trkpt lat="46.51754" lon="0.33015">
        <ele>81</ele>
        <time>2024-01-14T10:53:18Z</time>
      </trkpt>
      <trkpt lat="46.51768" lon="0.33021">
        <ele>80.8</ele>
        <time>2024-01-14T10:53:21Z</time>
      </trkpt>
      <trkpt lat="46.51778" lon="0.33028">
        <ele>80.8</ele>
        <time>2024-01-14T10:53:23Z</time>
      </trkpt>
      <trkpt lat="46.51785" lon="0.33038">
        <ele>80.4</ele>
        <time>2024-01-14T10:53:25Z</time>
      </trkpt>
      <trkpt lat="46.518" lon="0.33071">
        <ele>79.8</ele>
        <time>2024-01-14T10:53:30Z</time>
      </trkpt>
      <trkpt lat="46.51801" lon="0.33079">
        <ele>79.8</ele>
        <time>2024-01-14T10:53:31Z</time>
      </trkpt>
      <trkpt lat="46.51803" lon="0.33129">
        <ele>79</ele>
        <time>2024-01-14T10:53:36Z</time>
      </trkpt>
      <trkpt lat="46.51806" lon="0.33149">
        <ele>78.6</ele>
        <time>2024-01-14T10:53:38Z</time>
      </trkpt>
      <trkpt lat="46.51814" lon="0.33189">
        <ele>78.2</ele>
        <time>2024-01-14T10:53:42Z</time>
      </trkpt>
      <trkpt lat="46.51817" lon="0.33197">
        <ele>78.2</ele>
        <time>2024-01-14T10:53:43Z</time>
      </trkpt>
      <trkpt lat="46.51833" lon="0.33212">
        <ele>77.8</ele>
        <time>2024-01-14T10:53:46Z</time>
      </trkpt>
      <trkpt lat="46.51845" lon="0.33217">
        <ele>77.6</ele>
        <time>2024-01-14T10:53:48Z</time>
      </trkpt>
      <trkpt lat="46.51864" lon="0.33222">
        <ele>77</ele>
        <time>2024-01-14T10:53:51Z</time>
      </trkpt>
      <trkpt lat="46.5188" lon="0.33226">
        <ele>76.6</ele>
        <time>2024-01-14T10:53:54Z</time>
      </trkpt>
      <trkpt lat="46.51888" lon="0.3323">
        <ele>76.2</ele>
        <time>2024-01-14T10:53:56Z</time>
      </trkpt>
      <trkpt lat="46.51895" lon="0.33246">
        <ele>75.8</ele>
        <time>2024-01-14T10:54:00Z</time>
      </trkpt>
      <trkpt lat="46.51896" lon="0.3325">
        <ele>75.8</ele>
        <time>2024-01-14T10:54:01Z</time>
      </trkpt>
      <trkpt lat="46.51896" lon="0.3326">
        <ele>75.6</ele>
        <time>2024-01-14T10:54:03Z</time>
      </trkpt>
      <trkpt lat="46.51895" lon="0.33265">
        <ele>75.6</ele>
        <time>2024-01-14T10:54:04Z</time>
      </trkpt>
      <trkpt lat="46.51891" lon="0.33285">
        <ele>75.2</ele>
        <time>2024-01-14T10:54:08Z</time>
      </trkpt>
      <trkpt lat="46.5189" lon="0.33298">
        <ele>75</ele>
        <time>2024-01-14T10:54:10Z</time>
      </trkpt>
      <trkpt lat="46.51886" lon="0.33321">
        <ele>75</ele>
        <time>2024-01-14T10:54:13Z</time>
      </trkpt>
      <trkpt lat="46.5188" lon="0.33335">
        <ele>75.2</ele>
        <time>2024-01-14T10:54:15Z</time>
      </trkpt>
      <trkpt lat="46.51861" lon="0.3337">
        <ele>75.8</ele>
        <time>2024-01-14T10:54:21Z</time>
      </trkpt>
      <trkpt lat="46.51836" lon="0.33408">
        <ele>75.8</ele>
        <time>2024-01-14T10:54:28Z</time>
      </trkpt>
      <trkpt lat="46.51826" lon="0.33415">
        <ele>75.6</ele>
        <time>2024-01-14T10:54:30Z</time>
      </trkpt>
      <trkpt lat="46.51816" lon="0.33419">
        <ele>75.6</ele>
        <time>2024-01-14T10:54:32Z</time>
      </trkpt>
      <trkpt lat="46.5178" lon="0.33428">
        <ele>75.2</ele>
        <time>2024-01-14T10:54:39Z</time>
      </trkpt>
      <trkpt lat="46.51762" lon="0.33435">
        <ele>75.2</ele>
        <time>2024-01-14T10:54:43Z</time>
      </trkpt>
      <trkpt lat="46.51756" lon="0.33436">
        <ele>75.2</ele>
        <time>2024-01-14T10:54:45Z</time>
      </trkpt>
      <trkpt lat="46.51753" lon="0.33437">
        <ele>75.2</ele>
        <time>2024-01-14T10:54:46Z</time>
      </trkpt>
      <trkpt lat="46.51744" lon="0.33445">
        <ele>75</ele>
        <time>2024-01-14T10:54:49Z</time>
      </trkpt>
      <trkpt lat="46.51713" lon="0.33475">
        <ele>74.8</ele>
        <time>2024-01-14T10:54:56Z</time>
      </trkpt>
      <trkpt lat="46.51698" lon="0.33489">
        <ele>75</ele>
        <time>2024-01-14T10:54:59Z</time>
      </trkpt>
      <trkpt lat="46.51684" lon="0.33503">
        <ele>75.2</ele>
        <time>2024-01-14T10:55:02Z</time>
      </trkpt>
      <trkpt lat="46.51655" lon="0.3353">
        <ele>75.2</ele>
        <time>2024-01-14T10:55:09Z</time>
      </trkpt>
      <trkpt lat="46.51627" lon="0.33557">
        <ele>75.6</ele>
        <time>2024-01-14T10:55:16Z</time>
      </trkpt>
      <trkpt lat="46.51612" lon="0.33573">
        <ele>75.4</ele>
        <time>2024-01-14T10:55:20Z</time>
      </trkpt>
      <trkpt lat="46.51607" lon="0.3358">
        <ele>75.4</ele>
        <time>2024-01-14T10:55:22Z</time>
      </trkpt>
      <trkpt lat="46.51603" lon="0.33596">
        <ele>75.6</ele>
        <time>2024-01-14T10:55:26Z</time>
      </trkpt>
      <trkpt lat="46.51602" lon="0.33619">
        <ele>75.2</ele>
        <time>2024-01-14T10:55:32Z</time>
      </trkpt>
      <trkpt lat="46.51604" lon="0.33621">
        <ele>75</ele>
        <time>2024-01-14T10:55:36Z</time>
      </trkpt>
      <trkpt lat="46.51603" lon="0.33619">
        <ele>74.8</ele>
        <time>2024-01-14T10:55:37Z</time>
      </trkpt>
      <trkpt lat="46.51596" lon="0.33612">
        <ele>74.8</ele>
        <time>2024-01-14T10:55:41Z</time>
      </trkpt>
      <trkpt lat="46.51591" lon="0.33616">
        <ele>75</ele>
        <time>2024-01-14T10:55:43Z</time>
      </trkpt>
      <trkpt lat="46.51588" lon="0.33622">
        <ele>75</ele>
        <time>2024-01-14T10:55:45Z</time>
      </trkpt>
      <trkpt lat="46.51588" lon="0.33626">
        <ele>74.8</ele>
        <time>2024-01-14T10:55:46Z</time>
      </trkpt>
      <trkpt lat="46.5159" lon="0.33632">
        <ele>74.6</ele>
        <time>2024-01-14T10:55:48Z</time>
      </trkpt>
      <trkpt lat="46.51593" lon="0.3364">
        <ele>74.4</ele>
        <time>2024-01-14T10:55:50Z</time>
      </trkpt>
      <trkpt lat="46.51596" lon="0.33655">
        <ele>74.2</ele>
        <time>2024-01-14T10:55:53Z</time>
      </trkpt>
      <trkpt lat="46.51603" lon="0.33687">
        <ele>74</ele>
        <time>2024-01-14T10:55:59Z</time>
      </trkpt>
      <trkpt lat="46.51604" lon="0.33692">
        <ele>74</ele>
        <time>2024-01-14T10:56:00Z</time>
      </trkpt>
      <trkpt lat="46.51608" lon="0.33701">
        <ele>74</ele>
        <time>2024-01-14T10:56:02Z</time>
      </trkpt>
      <trkpt lat="46.51613" lon="0.3371">
        <ele>74.2</ele>
        <time>2024-01-14T10:56:04Z</time>
      </trkpt>
      <trkpt lat="46.51628" lon="0.33735">
        <ele>74.8</ele>
        <time>2024-01-14T10:56:10Z</time>
      </trkpt>
      <trkpt lat="46.51631" lon="0.33739">
        <ele>74.8</ele>
        <time>2024-01-14T10:56:11Z</time>
      </trkpt>
      <trkpt lat="46.51633" lon="0.33746">
        <ele>75</ele>
        <time>2024-01-14T10:56:12Z</time>
      </trkpt>
      <trkpt lat="46.51643" lon="0.33772">
        <ele>75</ele>
        <time>2024-01-14T10:56:16Z</time>
      </trkpt>
      <trkpt lat="46.51648" lon="0.33786">
        <ele>75</ele>
        <time>2024-01-14T10:56:18Z</time>
      </trkpt>
      <trkpt lat="46.51655" lon="0.33816">
        <ele>75</ele>
        <time>2024-01-14T10:56:22Z</time>
      </trkpt>
      <trkpt lat="46.51673" lon="0.33879">
        <ele>74.8</ele>
        <time>2024-01-14T10:56:30Z</time>
      </trkpt>
      <trkpt lat="46.51682" lon="0.33912">
        <ele>74.6</ele>
        <time>2024-01-14T10:56:34Z</time>
      </trkpt>
      <trkpt lat="46.51685" lon="0.33929">
        <ele>74.6</ele>
        <time>2024-01-14T10:56:36Z</time>
      </trkpt>
      <trkpt lat="46.51702" lon="0.34008">
        <ele>74.2</ele>
        <time>2024-01-14T10:56:46Z</time>
      </trkpt>
      <trkpt lat="46.51704" lon="0.34015">
        <ele>74</ele>
        <time>2024-01-14T10:56:47Z</time>
      </trkpt>
      <trkpt lat="46.51712" lon="0.34039">
        <ele>74</ele>
        <time>2024-01-14T10:56:51Z</time>
      </trkpt>
      <trkpt lat="46.51715" lon="0.3405">
        <ele>74.2</ele>
        <time>2024-01-14T10:56:53Z</time>
      </trkpt>
      <trkpt lat="46.51715" lon="0.34063">
        <ele>74.2</ele>
        <time>2024-01-14T10:56:55Z</time>
      </trkpt>
      <trkpt lat="46.51716" lon="0.34069">
        <ele>74.2</ele>
        <time>2024-01-14T10:56:56Z</time>
      </trkpt>
      <trkpt lat="46.5172" lon="0.34083">
        <ele>74.2</ele>
        <time>2024-01-14T10:56:59Z</time>
      </trkpt>
      <trkpt lat="46.51719" lon="0.34103">
        <ele>74.8</ele>
        <time>2024-01-14T10:57:03Z</time>
      </trkpt>
      <trkpt lat="46.5171" lon="0.34137">
        <ele>75.6</ele>
        <time>2024-01-14T10:57:10Z</time>
      </trkpt>
      <trkpt lat="46.51709" lon="0.34141">
        <ele>75.6</ele>
        <time>2024-01-14T10:57:11Z</time>
      </trkpt>
      <trkpt lat="46.51707" lon="0.34145">
        <ele>75.8</ele>
        <time>2024-01-14T10:57:12Z</time>
      </trkpt>
      <trkpt lat="46.51695" lon="0.34179">
        <ele>76.6</ele>
        <time>2024-01-14T10:57:19Z</time>
      </trkpt>
      <trkpt lat="46.51693" lon="0.34184">
        <ele>76.8</ele>
        <time>2024-01-14T10:57:20Z</time>
      </trkpt>
      <trkpt lat="46.51684" lon="0.3421">
        <ele>77.6</ele>
        <time>2024-01-14T10:57:27Z</time>
      </trkpt>
      <trkpt lat="46.51682" lon="0.34225">
        <ele>78.8</ele>
        <time>2024-01-14T10:57:32Z</time>
      </trkpt>
      <trkpt lat="46.51682" lon="0.34237">
        <ele>79.8</ele>
        <time>2024-01-14T10:57:36Z</time>
      </trkpt>
      <trkpt lat="46.51682" lon="0.3424">
        <ele>80</ele>
        <time>2024-01-14T10:57:37Z</time>
      </trkpt>
      <trkpt lat="46.51682" lon="0.34252">
        <ele>81</ele>
        <time>2024-01-14T10:57:42Z</time>
      </trkpt>
      <trkpt lat="46.51682" lon="0.34255">
        <ele>81.2</ele>
        <time>2024-01-14T10:57:43Z</time>
      </trkpt>
      <trkpt lat="46.51681" lon="0.34265">
        <ele>82.4</ele>
        <time>2024-01-14T10:57:47Z</time>
      </trkpt>
      <trkpt lat="46.51682" lon="0.34271">
        <ele>82.8</ele>
        <time>2024-01-14T10:57:49Z</time>
      </trkpt>
      <trkpt lat="46.51687" lon="0.34283">
        <ele>83.6</ele>
        <time>2024-01-14T10:57:53Z</time>
      </trkpt>
      <trkpt lat="46.51691" lon="0.34288">
        <ele>84.2</ele>
        <time>2024-01-14T10:57:55Z</time>
      </trkpt>
      <trkpt lat="46.51698" lon="0.34293">
        <ele>84.8</ele>
        <time>2024-01-14T10:57:58Z</time>
      </trkpt>
      <trkpt lat="46.5171" lon="0.34297">
        <ele>85</ele>
        <time>2024-01-14T10:58:02Z</time>
      </trkpt>
      <trkpt lat="46.51733" lon="0.34302">
        <ele>85.6</ele>
        <time>2024-01-14T10:58:09Z</time>
      </trkpt>
      <trkpt lat="46.51751" lon="0.34308">
        <ele>85</ele>
        <time>2024-01-14T10:58:13Z</time>
      </trkpt>
      <trkpt lat="46.51773" lon="0.34314">
        <ele>83.6</ele>
        <time>2024-01-14T10:58:17Z</time>
      </trkpt>
      <trkpt lat="46.51785" lon="0.34318">
        <ele>82.6</ele>
        <time>2024-01-14T10:58:19Z</time>
      </trkpt>
      <trkpt lat="46.51792" lon="0.34319">
        <ele>82.4</ele>
        <time>2024-01-14T10:58:20Z</time>
      </trkpt>
      <trkpt lat="46.51799" lon="0.34319">
        <ele>82.2</ele>
        <time>2024-01-14T10:58:21Z</time>
      </trkpt>
      <trkpt lat="46.51814" lon="0.34316">
        <ele>81.4</ele>
        <time>2024-01-14T10:58:23Z</time>
      </trkpt>
      <trkpt lat="46.51821" lon="0.34313">
        <ele>81</ele>
        <time>2024-01-14T10:58:24Z</time>
      </trkpt>
      <trkpt lat="46.51849" lon="0.34297">
        <ele>80</ele>
        <time>2024-01-14T10:58:28Z</time>
      </trkpt>
      <trkpt lat="46.51889" lon="0.34268">
        <ele>79</ele>
        <time>2024-01-14T10:58:34Z</time>
      </trkpt>
      <trkpt lat="46.51925" lon="0.34256">
        <ele>78</ele>
        <time>2024-01-14T10:58:39Z</time>
      </trkpt>
      <trkpt lat="46.51932" lon="0.34255">
        <ele>77.8</ele>
        <time>2024-01-14T10:58:40Z</time>
      </trkpt>
      <trkpt lat="46.51964" lon="0.34254">
        <ele>77</ele>
        <time>2024-01-14T10:58:45Z</time>
      </trkpt>
      <trkpt lat="46.51975" lon="0.34254">
        <ele>76.8</ele>
        <time>2024-01-14T10:58:47Z</time>
      </trkpt>
      <trkpt lat="46.5198" lon="0.34254">
        <ele>76.6</ele>
        <time>2024-01-14T10:58:48Z</time>
      </trkpt>
      <trkpt lat="46.51986" lon="0.34259">
        <ele>76.8</ele>
        <time>2024-01-14T10:58:50Z</time>
      </trkpt>
      <trkpt lat="46.51986" lon="0.3427">
        <ele>77.6</ele>
        <time>2024-01-14T10:58:53Z</time>
      </trkpt>
      <trkpt lat="46.51986" lon="0.34272">
        <ele>77.8</ele>
        <time>2024-01-14T10:58:54Z</time>
      </trkpt>
      <trkpt lat="46.5199" lon="0.34283">
        <ele>79</ele>
        <time>2024-01-14T10:58:58Z</time>
      </trkpt>
      <trkpt lat="46.51992" lon="0.34285">
        <ele>79.4</ele>
        <time>2024-01-14T10:58:59Z</time>
      </trkpt>
      <trkpt lat="46.51994" lon="0.3429">
        <ele>80.2</ele>
        <time>2024-01-14T10:59:01Z</time>
      </trkpt>
      <trkpt lat="46.51997" lon="0.34295">
        <ele>81.4</ele>
        <time>2024-01-14T10:59:03Z</time>
      </trkpt>
      <trkpt lat="46.52" lon="0.34303">
        <ele>82.4</ele>
        <time>2024-01-14T10:59:06Z</time>
      </trkpt>
      <trkpt lat="46.52002" lon="0.34307">
        <ele>83</ele>
        <time>2024-01-14T10:59:08Z</time>
      </trkpt>
      <trkpt lat="46.52003" lon="0.34311">
        <ele>83.8</ele>
        <time>2024-01-14T10:59:10Z</time>
      </trkpt>
      <trkpt lat="46.52006" lon="0.34318">
        <ele>85</ele>
        <time>2024-01-14T10:59:14Z</time>
      </trkpt>
      <trkpt lat="46.52009" lon="0.34321">
        <ele>85.6</ele>
        <time>2024-01-14T10:59:16Z</time>
      </trkpt>
      <trkpt lat="46.52014" lon="0.34326">
        <ele>86.2</ele>
        <time>2024-01-14T10:59:19Z</time>
      </trkpt>
      <trkpt lat="46.52019" lon="0.34327">
        <ele>86.2</ele>
        <time>2024-01-14T10:59:21Z</time>
      </trkpt>
      <trkpt lat="46.52037" lon="0.34325">
        <ele>86.6</ele>
        <time>2024-01-14T10:59:27Z</time>
      </trkpt>
      <trkpt lat="46.52046" lon="0.34322">
        <ele>87.2</ele>
        <time>2024-01-14T10:59:31Z</time>
      </trkpt>
      <trkpt lat="46.5205" lon="0.34322">
        <ele>87.6</ele>
        <time>2024-01-14T10:59:33Z</time>
      </trkpt>
      <trkpt lat="46.52054" lon="0.34322">
        <ele>88.2</ele>
        <time>2024-01-14T10:59:35Z</time>
      </trkpt>
      <trkpt lat="46.52067" lon="0.3432">
        <ele>89.4</ele>
        <time>2024-01-14T10:59:41Z</time>
      </trkpt>
      <trkpt lat="46.52069" lon="0.34319">
        <ele>89.6</ele>
        <time>2024-01-14T10:59:42Z</time>
      </trkpt>
      <trkpt lat="46.52081" lon="0.34317">
        <ele>90.6</ele>
        <time>2024-01-14T10:59:48Z</time>
      </trkpt>
      <trkpt lat="46.52084" lon="0.34315">
        <ele>91</ele>
        <time>2024-01-14T10:59:50Z</time>
      </trkpt>
      <trkpt lat="46.52092" lon="0.3431">
        <ele>91.6</ele>
        <time>2024-01-14T10:59:55Z</time>
      </trkpt>
      <trkpt lat="46.52094" lon="0.3431">
        <ele>92</ele>
        <time>2024-01-14T10:59:57Z</time>
      </trkpt>
      <trkpt lat="46.52106" lon="0.34311">
        <ele>92.4</ele>
        <time>2024-01-14T11:00:03Z</time>
      </trkpt>
      <trkpt lat="46.52114" lon="0.34309">
        <ele>92.2</ele>
        <time>2024-01-14T11:00:07Z</time>
      </trkpt>
      <trkpt lat="46.52116" lon="0.34307">
        <ele>92.2</ele>
        <time>2024-01-14T11:00:08Z</time>
      </trkpt>
      <trkpt lat="46.52119" lon="0.34306">
        <ele>91</ele>
        <time>2024-01-14T11:00:09Z</time>
      </trkpt>
      <trkpt lat="46.52126" lon="0.34306">
        <ele>90.4</ele>
        <time>2024-01-14T11:00:11Z</time>
      </trkpt>
      <trkpt lat="46.52131" lon="0.34307">
        <ele>89.4</ele>
        <time>2024-01-14T11:00:12Z</time>
      </trkpt>
      <trkpt lat="46.52135" lon="0.34308">
        <ele>88.8</ele>
        <time>2024-01-14T11:00:13Z</time>
      </trkpt>
      <trkpt lat="46.52148" lon="0.34314">
        <ele>88</ele>
        <time>2024-01-14T11:00:17Z</time>
      </trkpt>
      <trkpt lat="46.52158" lon="0.3432">
        <ele>89.4</ele>
        <time>2024-01-14T11:00:22Z</time>
      </trkpt>
      <trkpt lat="46.52163" lon="0.34322">
        <ele>89.8</ele>
        <time>2024-01-14T11:00:24Z</time>
      </trkpt>
      <trkpt lat="46.52182" lon="0.34324">
        <ele>90.2</ele>
        <time>2024-01-14T11:00:29Z</time>
      </trkpt>
      <trkpt lat="46.52185" lon="0.34324">
        <ele>90.2</ele>
        <time>2024-01-14T11:00:30Z</time>
      </trkpt>
      <trkpt lat="46.52193" lon="0.34325">
        <ele>89.8</ele>
        <time>2024-01-14T11:00:32Z</time>
      </trkpt>
      <trkpt lat="46.522" lon="0.34325">
        <ele>89.8</ele>
        <time>2024-01-14T11:00:34Z</time>
      </trkpt>
      <trkpt lat="46.52218" lon="0.3433">
        <ele>90.4</ele>
        <time>2024-01-14T11:00:39Z</time>
      </trkpt>
      <trkpt lat="46.52227" lon="0.34333">
        <ele>91</ele>
        <time>2024-01-14T11:00:41Z</time>
      </trkpt>
      <trkpt lat="46.52241" lon="0.34335">
        <ele>91.4</ele>
        <time>2024-01-14T11:00:45Z</time>
      </trkpt>
      <trkpt lat="46.52256" lon="0.34333">
        <ele>92</ele>
        <time>2024-01-14T11:00:50Z</time>
      </trkpt>
      <trkpt lat="46.52259" lon="0.34332">
        <ele>92.2</ele>
        <time>2024-01-14T11:00:51Z</time>
      </trkpt>
      <trkpt lat="46.52272" lon="0.34329">
        <ele>92.6</ele>
        <time>2024-01-14T11:00:57Z</time>
      </trkpt>
      <trkpt lat="46.5228" lon="0.34324">
        <ele>93</ele>
        <time>2024-01-14T11:01:01Z</time>
      </trkpt>
      <trkpt lat="46.52287" lon="0.3432">
        <ele>93.6</ele>
        <time>2024-01-14T11:01:04Z</time>
      </trkpt>
      <trkpt lat="46.5229" lon="0.34317">
        <ele>94.2</ele>
        <time>2024-01-14T11:01:06Z</time>
      </trkpt>
      <trkpt lat="46.52291" lon="0.34316">
        <ele>94.6</ele>
        <time>2024-01-14T11:01:07Z</time>
      </trkpt>
      <trkpt lat="46.52294" lon="0.34312">
        <ele>95.4</ele>
        <time>2024-01-14T11:01:09Z</time>
      </trkpt>
      <trkpt lat="46.52295" lon="0.3431">
        <ele>95.8</ele>
        <time>2024-01-14T11:01:11Z</time>
      </trkpt>
      <trkpt lat="46.52299" lon="0.34306">
        <ele>96.8</ele>
        <time>2024-01-14T11:01:15Z</time>
      </trkpt>
      <trkpt lat="46.52305" lon="0.34302">
        <ele>97.8</ele>
        <time>2024-01-14T11:01:23Z</time>
      </trkpt>
      <trkpt lat="46.52312" lon="0.34302">
        <ele>97.8</ele>
        <time>2024-01-14T11:01:27Z</time>
      </trkpt>
      <trkpt lat="46.52319" lon="0.34302">
        <ele>98.2</ele>
        <time>2024-01-14T11:01:30Z</time>
      </trkpt>
      <trkpt lat="46.52328" lon="0.34303">
        <ele>98.8</ele>
        <time>2024-01-14T11:01:36Z</time>
      </trkpt>
      <trkpt lat="46.52333" lon="0.34303">
        <ele>99.2</ele>
        <time>2024-01-14T11:01:39Z</time>
      </trkpt>
      <trkpt lat="46.52338" lon="0.34303">
        <ele>99.8</ele>
        <time>2024-01-14T11:01:42Z</time>
      </trkpt>
      <trkpt lat="46.5234" lon="0.34302">
        <ele>100</ele>
        <time>2024-01-14T11:01:43Z</time>
      </trkpt>
      <trkpt lat="46.52351" lon="0.34299">
        <ele>101</ele>
        <time>2024-01-14T11:01:49Z</time>
      </trkpt>
      <trkpt lat="46.52366" lon="0.3429">
        <ele>102</ele>
        <time>2024-01-14T11:01:58Z</time>
      </trkpt>
      <trkpt lat="46.52369" lon="0.34289">
        <ele>102.2</ele>
        <time>2024-01-14T11:02:00Z</time>
      </trkpt>
      <trkpt lat="46.52376" lon="0.34287">
        <ele>103</ele>
        <time>2024-01-14T11:02:04Z</time>
      </trkpt>
      <trkpt lat="46.52377" lon="0.34287">
        <ele>103.2</ele>
        <time>2024-01-14T11:02:05Z</time>
      </trkpt>
      <trkpt lat="46.52381" lon="0.34284">
        <ele>104.6</ele>
        <time>2024-01-14T11:02:08Z</time>
      </trkpt>
      <trkpt lat="46.52386" lon="0.34282">
        <ele>105.2</ele>
        <time>2024-01-14T11:02:12Z</time>
      </trkpt>
      <trkpt lat="46.5239" lon="0.3428">
        <ele>105.6</ele>
        <time>2024-01-14T11:02:15Z</time>
      </trkpt>
      <trkpt lat="46.52395" lon="0.34279">
        <ele>106.2</ele>
        <time>2024-01-14T11:02:18Z</time>
      </trkpt>
      <trkpt lat="46.52396" lon="0.34278">
        <ele>106.4</ele>
        <time>2024-01-14T11:02:19Z</time>
      </trkpt>
      <trkpt lat="46.52399" lon="0.34276">
        <ele>106.8</ele>
        <time>2024-01-14T11:02:21Z</time>
      </trkpt>
      <trkpt lat="46.52406" lon="0.34272">
        <ele>108</ele>
        <time>2024-01-14T11:02:27Z</time>
      </trkpt>
      <trkpt lat="46.52409" lon="0.34271">
        <ele>108.2</ele>
        <time>2024-01-14T11:02:29Z</time>
      </trkpt>
      <trkpt lat="46.52414" lon="0.3427">
        <ele>109</ele>
        <time>2024-01-14T11:02:32Z</time>
      </trkpt>
      <trkpt lat="46.52419" lon="0.34267">
        <ele>110</ele>
        <time>2024-01-14T11:02:35Z</time>
      </trkpt>
      <trkpt lat="46.5242" lon="0.34266">
        <ele>110.4</ele>
        <time>2024-01-14T11:02:36Z</time>
      </trkpt>
      <trkpt lat="46.52421" lon="0.34264">
        <ele>110.4</ele>
        <time>2024-01-14T11:02:37Z</time>
      </trkpt>
      <trkpt lat="46.52428" lon="0.34245">
        <ele>110</ele>
        <time>2024-01-14T11:02:44Z</time>
      </trkpt>
      <trkpt lat="46.52433" lon="0.34224">
        <ele>109.8</ele>
        <time>2024-01-14T11:02:51Z</time>
      </trkpt>
      <trkpt lat="46.52437" lon="0.34208">
        <ele>109</ele>
        <time>2024-01-14T11:02:55Z</time>
      </trkpt>
      <trkpt lat="46.52438" lon="0.34203">
        <ele>108.6</ele>
        <time>2024-01-14T11:02:56Z</time>
      </trkpt>
      <trkpt lat="46.52448" lon="0.34186">
        <ele>108</ele>
        <time>2024-01-14T11:03:00Z</time>
      </trkpt>
      <trkpt lat="46.52451" lon="0.34181">
        <ele>108</ele>
        <time>2024-01-14T11:03:01Z</time>
      </trkpt>
      <trkpt lat="46.52458" lon="0.34169">
        <ele>107.4</ele>
        <time>2024-01-14T11:03:03Z</time>
      </trkpt>
      <trkpt lat="46.52462" lon="0.34162">
        <ele>106.6</ele>
        <time>2024-01-14T11:03:04Z</time>
      </trkpt>
      <trkpt lat="46.52466" lon="0.34154">
        <ele>106.2</ele>
        <time>2024-01-14T11:03:05Z</time>
      </trkpt>
      <trkpt lat="46.52474" lon="0.34137">
        <ele>105.4</ele>
        <time>2024-01-14T11:03:07Z</time>
      </trkpt>
      <trkpt lat="46.52483" lon="0.34117">
        <ele>103.8</ele>
        <time>2024-01-14T11:03:09Z</time>
      </trkpt>
      <trkpt lat="46.52488" lon="0.34106">
        <ele>102.4</ele>
        <time>2024-01-14T11:03:10Z</time>
      </trkpt>
      <trkpt lat="46.52488" lon="0.34106">
        <ele>101.2</ele>
        <time>2024-01-14T11:03:11Z</time>
      </trkpt>
      <trkpt lat="46.525" lon="0.34077">
        <ele>100.6</ele>
        <time>2024-01-14T11:03:13Z</time>
      </trkpt>
      <trkpt lat="46.52505" lon="0.3407">
        <ele>100</ele>
        <time>2024-01-14T11:03:14Z</time>
      </trkpt>
      <trkpt lat="46.5251" lon="0.34065">
        <ele>98.4</ele>
        <time>2024-01-14T11:03:15Z</time>
      </trkpt>
      <trkpt lat="46.52518" lon="0.34058">
        <ele>97</ele>
        <time>2024-01-14T11:03:17Z</time>
      </trkpt>
      <trkpt lat="46.52525" lon="0.34055">
        <ele>95.8</ele>
        <time>2024-01-14T11:03:19Z</time>
      </trkpt>
      <trkpt lat="46.52532" lon="0.34052">
        <ele>94.8</ele>
        <time>2024-01-14T11:03:21Z</time>
      </trkpt>
      <trkpt lat="46.52539" lon="0.34049">
        <ele>93.6</ele>
        <time>2024-01-14T11:03:23Z</time>
      </trkpt>
      <trkpt lat="46.52545" lon="0.34046">
        <ele>93.2</ele>
        <time>2024-01-14T11:03:25Z</time>
      </trkpt>
      <trkpt lat="46.52548" lon="0.34045">
        <ele>92.6</ele>
        <time>2024-01-14T11:03:26Z</time>
      </trkpt>
      <trkpt lat="46.52553" lon="0.34044">
        <ele>92</ele>
        <time>2024-01-14T11:03:27Z</time>
      </trkpt>
      <trkpt lat="46.52557" lon="0.34044">
        <ele>91.2</ele>
        <time>2024-01-14T11:03:28Z</time>
      </trkpt>
      <trkpt lat="46.52568" lon="0.34042">
        <ele>90.6</ele>
        <time>2024-01-14T11:03:30Z</time>
      </trkpt>
      <trkpt lat="46.52574" lon="0.34041">
        <ele>90.6</ele>
        <time>2024-01-14T11:03:31Z</time>
      </trkpt>
      <trkpt lat="46.5259" lon="0.3404">
        <ele>90.2</ele>
        <time>2024-01-14T11:03:34Z</time>
      </trkpt>
      <trkpt lat="46.52598" lon="0.34039">
        <ele>89.6</ele>
        <time>2024-01-14T11:03:35Z</time>
      </trkpt>
      <trkpt lat="46.52606" lon="0.34038">
        <ele>89</ele>
        <time>2024-01-14T11:03:36Z</time>
      </trkpt>
      <trkpt lat="46.52627" lon="0.34038">
        <ele>87.8</ele>
        <time>2024-01-14T11:03:39Z</time>
      </trkpt>
      <trkpt lat="46.52638" lon="0.34038">
        <ele>87.6</ele>
        <time>2024-01-14T11:03:41Z</time>
      </trkpt>
      <trkpt lat="46.52662" lon="0.34039">
        <ele>86.6</ele>
        <time>2024-01-14T11:03:45Z</time>
      </trkpt>
      <trkpt lat="46.52668" lon="0.34039">
        <ele>86.6</ele>
        <time>2024-01-14T11:03:46Z</time>
      </trkpt>
      <trkpt lat="46.52702" lon="0.3404">
        <ele>86.2</ele>
        <time>2024-01-14T11:03:52Z</time>
      </trkpt>
      <trkpt lat="46.52728" lon="0.34035">
        <ele>85.6</ele>
        <time>2024-01-14T11:03:57Z</time>
      </trkpt>
      <trkpt lat="46.52732" lon="0.34034">
        <ele>85.4</ele>
        <time>2024-01-14T11:03:58Z</time>
      </trkpt>
      <trkpt lat="46.5274" lon="0.34032">
        <ele>83.4</ele>
        <time>2024-01-14T11:04:01Z</time>
      </trkpt>
      <trkpt lat="46.52744" lon="0.34031">
        <ele>82.8</ele>
        <time>2024-01-14T11:04:02Z</time>
      </trkpt>
      <trkpt lat="46.52747" lon="0.34028">
        <ele>82.2</ele>
        <time>2024-01-14T11:04:03Z</time>
      </trkpt>
      <trkpt lat="46.52755" lon="0.34017">
        <ele>81.8</ele>
        <time>2024-01-14T11:04:05Z</time>
      </trkpt>
      <trkpt lat="46.52762" lon="0.33999">
        <ele>80.8</ele>
        <time>2024-01-14T11:04:07Z</time>
      </trkpt>
      <trkpt lat="46.52767" lon="0.33979">
        <ele>79.6</ele>
        <time>2024-01-14T11:04:09Z</time>
      </trkpt>
      <trkpt lat="46.52771" lon="0.33957">
        <ele>78</ele>
        <time>2024-01-14T11:04:11Z</time>
      </trkpt>
      <trkpt lat="46.52775" lon="0.33939">
        <ele>77.2</ele>
        <time>2024-01-14T11:04:13Z</time>
      </trkpt>
      <trkpt lat="46.52778" lon="0.33933">
        <ele>76.8</ele>
        <time>2024-01-14T11:04:14Z</time>
      </trkpt>
      <trkpt lat="46.52781" lon="0.33928">
        <ele>76.6</ele>
        <time>2024-01-14T11:04:15Z</time>
      </trkpt>
      <trkpt lat="46.52788" lon="0.33925">
        <ele>76</ele>
        <time>2024-01-14T11:04:17Z</time>
      </trkpt>
      <trkpt lat="46.5282" lon="0.33919">
        <ele>76</ele>
        <time>2024-01-14T11:04:23Z</time>
      </trkpt>
      <trkpt lat="46.52855" lon="0.33911">
        <ele>76.4</ele>
        <time>2024-01-14T11:04:29Z</time>
      </trkpt>
      <trkpt lat="46.52909" lon="0.3391">
        <ele>76.2</ele>
        <time>2024-01-14T11:04:38Z</time>
      </trkpt>
      <trkpt lat="46.52924" lon="0.33918">
        <ele>76</ele>
        <time>2024-01-14T11:04:41Z</time>
      </trkpt>
      <trkpt lat="46.52928" lon="0.33921">
        <ele>76</ele>
        <time>2024-01-14T11:04:42Z</time>
      </trkpt>
      <trkpt lat="46.52932" lon="0.33926">
        <ele>76</ele>
        <time>2024-01-14T11:04:43Z</time>
      </trkpt>
      <trkpt lat="46.52936" lon="0.33937">
        <ele>76.2</ele>
        <time>2024-01-14T11:04:45Z</time>
      </trkpt>
      <trkpt lat="46.52938" lon="0.33943">
        <ele>76.2</ele>
        <time>2024-01-14T11:04:46Z</time>
      </trkpt>
      <trkpt lat="46.52942" lon="0.33968">
        <ele>76.8</ele>
        <time>2024-01-14T11:04:50Z</time>
      </trkpt>
      <trkpt lat="46.52942" lon="0.33974">
        <ele>77</ele>
        <time>2024-01-14T11:04:51Z</time>
      </trkpt>
      <trkpt lat="46.52944" lon="0.34012">
        <ele>77.8</ele>
        <time>2024-01-14T11:04:57Z</time>
      </trkpt>
      <trkpt lat="46.52945" lon="0.34023">
        <ele>78.2</ele>
        <time>2024-01-14T11:04:59Z</time>
      </trkpt>
      <trkpt lat="46.52952" lon="0.34044">
        <ele>79</ele>
        <time>2024-01-14T11:05:04Z</time>
      </trkpt>
      <trkpt lat="46.52961" lon="0.34052">
        <ele>80.2</ele>
        <time>2024-01-14T11:05:09Z</time>
      </trkpt>
      <trkpt lat="46.52964" lon="0.34053">
        <ele>80.4</ele>
        <time>2024-01-14T11:05:10Z</time>
      </trkpt>
      <trkpt lat="46.52982" lon="0.34058">
        <ele>81.2</ele>
        <time>2024-01-14T11:05:15Z</time>
      </trkpt>
      <trkpt lat="46.52985" lon="0.34057">
        <ele>81.4</ele>
        <time>2024-01-14T11:05:16Z</time>
      </trkpt>
      <trkpt lat="46.53006" lon="0.34057">
        <ele>82</ele>
        <time>2024-01-14T11:05:22Z</time>
      </trkpt>
      <trkpt lat="46.53021" lon="0.34057">
        <ele>82.2</ele>
        <time>2024-01-14T11:05:26Z</time>
      </trkpt>
      <trkpt lat="46.53029" lon="0.34057">
        <ele>82.4</ele>
        <time>2024-01-14T11:05:28Z</time>
      </trkpt>
      <trkpt lat="46.53047" lon="0.34061">
        <ele>83.2</ele>
        <time>2024-01-14T11:05:33Z</time>
      </trkpt>
      <trkpt lat="46.53051" lon="0.34064">
        <ele>83.2</ele>
        <time>2024-01-14T11:05:34Z</time>
      </trkpt>
      <trkpt lat="46.53074" lon="0.34076">
        <ele>84.2</ele>
        <time>2024-01-14T11:05:40Z</time>
      </trkpt>
      <trkpt lat="46.53077" lon="0.34078">
        <ele>84.6</ele>
        <time>2024-01-14T11:05:41Z</time>
      </trkpt>
      <trkpt lat="46.53091" lon="0.34085">
        <ele>85.6</ele>
        <time>2024-01-14T11:05:45Z</time>
      </trkpt>
      <trkpt lat="46.53108" lon="0.34095">
        <ele>86.2</ele>
        <time>2024-01-14T11:05:50Z</time>
      </trkpt>
      <trkpt lat="46.53115" lon="0.34099">
        <ele>86.6</ele>
        <time>2024-01-14T11:05:52Z</time>
      </trkpt>
      <trkpt lat="46.53129" lon="0.34107">
        <ele>87</ele>
        <time>2024-01-14T11:05:56Z</time>
      </trkpt>
      <trkpt lat="46.53146" lon="0.34115">
        <ele>87.6</ele>
        <time>2024-01-14T11:06:01Z</time>
      </trkpt>
      <trkpt lat="46.53156" lon="0.34123">
        <ele>87.8</ele>
        <time>2024-01-14T11:06:04Z</time>
      </trkpt>
      <trkpt lat="46.53165" lon="0.34133">
        <ele>88.2</ele>
        <time>2024-01-14T11:06:07Z</time>
      </trkpt>
      <trkpt lat="46.53173" lon="0.34145">
        <ele>88.2</ele>
        <time>2024-01-14T11:06:10Z</time>
      </trkpt>
      <trkpt lat="46.53187" lon="0.34165">
        <ele>88.4</ele>
        <time>2024-01-14T11:06:15Z</time>
      </trkpt>
      <trkpt lat="46.53193" lon="0.34174">
        <ele>88.4</ele>
        <time>2024-01-14T11:06:17Z</time>
      </trkpt>
      <trkpt lat="46.53197" lon="0.34179">
        <ele>88.6</ele>
        <time>2024-01-14T11:06:18Z</time>
      </trkpt>
      <trkpt lat="46.53204" lon="0.34186">
        <ele>88.8</ele>
        <time>2024-01-14T11:06:20Z</time>
      </trkpt>
      <trkpt lat="46.5321" lon="0.34194">
        <ele>89</ele>
        <time>2024-01-14T11:06:22Z</time>
      </trkpt>
      <trkpt lat="46.53235" lon="0.34218">
        <ele>89.4</ele>
        <time>2024-01-14T11:06:28Z</time>
      </trkpt>
      <trkpt lat="46.53259" lon="0.34238">
        <ele>89</ele>
        <time>2024-01-14T11:06:34Z</time>
      </trkpt>
      <trkpt lat="46.53274" lon="0.34249">
        <ele>88.8</ele>
        <time>2024-01-14T11:06:38Z</time>
      </trkpt>
      <trkpt lat="46.53283" lon="0.34254">
        <ele>88.8</ele>
        <time>2024-01-14T11:06:40Z</time>
      </trkpt>
      <trkpt lat="46.53307" lon="0.34269">
        <ele>88.6</ele>
        <time>2024-01-14T11:06:45Z</time>
      </trkpt>
      <trkpt lat="46.53317" lon="0.34276">
        <ele>88.6</ele>
        <time>2024-01-14T11:06:47Z</time>
      </trkpt>
      <trkpt lat="46.53321" lon="0.34279">
        <ele>88.6</ele>
        <time>2024-01-14T11:06:48Z</time>
      </trkpt>
      <trkpt lat="46.53337" lon="0.34296">
        <ele>87.8</ele>
        <time>2024-01-14T11:06:52Z</time>
      </trkpt>
      <trkpt lat="46.53366" lon="0.34323">
        <ele>88</ele>
        <time>2024-01-14T11:06:59Z</time>
      </trkpt>
      <trkpt lat="46.53374" lon="0.34329">
        <ele>88</ele>
        <time>2024-01-14T11:07:01Z</time>
      </trkpt>
      <trkpt lat="46.53383" lon="0.34333">
        <ele>87.8</ele>
        <time>2024-01-14T11:07:03Z</time>
      </trkpt>
      <trkpt lat="46.53394" lon="0.34338">
        <ele>88.2</ele>
        <time>2024-01-14T11:07:05Z</time>
      </trkpt>
      <trkpt lat="46.5342" lon="0.34343">
        <ele>88.8</ele>
        <time>2024-01-14T11:07:10Z</time>
      </trkpt>
      <trkpt lat="46.53425" lon="0.34343">
        <ele>88.8</ele>
        <time>2024-01-14T11:07:11Z</time>
      </trkpt>
      <trkpt lat="46.53457" lon="0.34345">
        <ele>88.8</ele>
        <time>2024-01-14T11:07:17Z</time>
      </trkpt>
      <trkpt lat="46.53488" lon="0.34359">
        <ele>88.2</ele>
        <time>2024-01-14T11:07:23Z</time>
      </trkpt>
      <trkpt lat="46.53513" lon="0.34368">
        <ele>87.8</ele>
        <time>2024-01-14T11:07:27Z</time>
      </trkpt>
      <trkpt lat="46.53527" lon="0.34375">
        <ele>87.6</ele>
        <time>2024-01-14T11:07:29Z</time>
      </trkpt>
      <trkpt lat="46.53558" lon="0.34397">
        <ele>86.6</ele>
        <time>2024-01-14T11:07:34Z</time>
      </trkpt>
      <trkpt lat="46.53563" lon="0.34402">
        <ele>86.2</ele>
        <time>2024-01-14T11:07:35Z</time>
      </trkpt>
      <trkpt lat="46.53574" lon="0.34411">
        <ele>85.6</ele>
        <time>2024-01-14T11:07:37Z</time>
      </trkpt>
      <trkpt lat="46.5358" lon="0.34414">
        <ele>85.6</ele>
        <time>2024-01-14T11:07:38Z</time>
      </trkpt>
      <trkpt lat="46.53585" lon="0.34416">
        <ele>85.4</ele>
        <time>2024-01-14T11:07:39Z</time>
      </trkpt>
      <trkpt lat="46.53591" lon="0.34416">
        <ele>85.2</ele>
        <time>2024-01-14T11:07:40Z</time>
      </trkpt>
      <trkpt lat="46.53622" lon="0.34414">
        <ele>85</ele>
        <time>2024-01-14T11:07:46Z</time>
      </trkpt>
      <trkpt lat="46.53647" lon="0.3442">
        <ele>85.6</ele>
        <time>2024-01-14T11:07:51Z</time>
      </trkpt>
      <trkpt lat="46.53683" lon="0.34436">
        <ele>86.6</ele>
        <time>2024-01-14T11:07:59Z</time>
      </trkpt>
      <trkpt lat="46.53688" lon="0.34438">
        <ele>86.8</ele>
        <time>2024-01-14T11:08:00Z</time>
      </trkpt>
      <trkpt lat="46.53723" lon="0.34457">
        <ele>87.6</ele>
        <time>2024-01-14T11:08:08Z</time>
      </trkpt>
      <trkpt lat="46.53726" lon="0.34459">
        <ele>87.6</ele>
        <time>2024-01-14T11:08:09Z</time>
      </trkpt>
      <trkpt lat="46.53739" lon="0.34462">
        <ele>88</ele>
        <time>2024-01-14T11:08:13Z</time>
      </trkpt>
      <trkpt lat="46.5376" lon="0.3447">
        <ele>88</ele>
        <time>2024-01-14T11:08:19Z</time>
      </trkpt>
      <trkpt lat="46.53763" lon="0.34471">
        <ele>88</ele>
        <time>2024-01-14T11:08:20Z</time>
      </trkpt>
      <trkpt lat="46.5377" lon="0.34473">
        <ele>88</ele>
        <time>2024-01-14T11:08:22Z</time>
      </trkpt>
      <trkpt lat="46.53778" lon="0.34477">
        <ele>88.4</ele>
        <time>2024-01-14T11:08:24Z</time>
      </trkpt>
      <trkpt lat="46.5381" lon="0.34488">
        <ele>88.2</ele>
        <time>2024-01-14T11:08:31Z</time>
      </trkpt>
      <trkpt lat="46.53841" lon="0.345">
        <ele>88.8</ele>
        <time>2024-01-14T11:08:37Z</time>
      </trkpt>
      <trkpt lat="46.53846" lon="0.34501">
        <ele>89</ele>
        <time>2024-01-14T11:08:38Z</time>
      </trkpt>
      <trkpt lat="46.53878" lon="0.34502">
        <ele>88.6</ele>
        <time>2024-01-14T11:08:44Z</time>
      </trkpt>
      <trkpt lat="46.53913" lon="0.34494">
        <ele>88</ele>
        <time>2024-01-14T11:08:50Z</time>
      </trkpt>
      <trkpt lat="46.53921" lon="0.34486">
        <ele>87.8</ele>
        <time>2024-01-14T11:08:52Z</time>
      </trkpt>
      <trkpt lat="46.53923" lon="0.3448">
        <ele>88</ele>
        <time>2024-01-14T11:08:53Z</time>
      </trkpt>
      <trkpt lat="46.53925" lon="0.34475">
        <ele>88</ele>
        <time>2024-01-14T11:08:54Z</time>
      </trkpt>
      <trkpt lat="46.53927" lon="0.34465">
        <ele>88</ele>
        <time>2024-01-14T11:08:56Z</time>
      </trkpt>
      <trkpt lat="46.53928" lon="0.34461">
        <ele>88.2</ele>
        <time>2024-01-14T11:08:57Z</time>
      </trkpt>
      <trkpt lat="46.53929" lon="0.34449">
        <ele>89.4</ele>
        <time>2024-01-14T11:09:01Z</time>
      </trkpt>
      <trkpt lat="46.53932" lon="0.34443">
        <ele>90</ele>
        <time>2024-01-14T11:09:03Z</time>
      </trkpt>
      <trkpt lat="46.53935" lon="0.34437">
        <ele>90.6</ele>
        <time>2024-01-14T11:09:06Z</time>
      </trkpt>
      <trkpt lat="46.53938" lon="0.34434">
        <ele>91</ele>
        <time>2024-01-14T11:09:08Z</time>
      </trkpt>
      <trkpt lat="46.53943" lon="0.34429">
        <ele>92</ele>
        <time>2024-01-14T11:09:12Z</time>
      </trkpt>
      <trkpt lat="46.53952" lon="0.34422">
        <ele>93.4</ele>
        <time>2024-01-14T11:09:18Z</time>
      </trkpt>
      <trkpt lat="46.53958" lon="0.34418">
        <ele>94.6</ele>
        <time>2024-01-14T11:09:23Z</time>
      </trkpt>
      <trkpt lat="46.53963" lon="0.34414">
        <ele>95</ele>
        <time>2024-01-14T11:09:26Z</time>
      </trkpt>
      <trkpt lat="46.53967" lon="0.34412">
        <ele>95.6</ele>
        <time>2024-01-14T11:09:28Z</time>
      </trkpt>
      <trkpt lat="46.53977" lon="0.34407">
        <ele>96.6</ele>
        <time>2024-01-14T11:09:34Z</time>
      </trkpt>
      <trkpt lat="46.5398" lon="0.34406">
        <ele>97</ele>
        <time>2024-01-14T11:09:36Z</time>
      </trkpt>
      <trkpt lat="46.53988" lon="0.34403">
        <ele>98</ele>
        <time>2024-01-14T11:09:41Z</time>
      </trkpt>
      <trkpt lat="46.53993" lon="0.34401">
        <ele>98.6</ele>
        <time>2024-01-14T11:09:44Z</time>
      </trkpt>
      <trkpt lat="46.53999" lon="0.34399">
        <ele>99.2</ele>
        <time>2024-01-14T11:09:47Z</time>
      </trkpt>
      <trkpt lat="46.54002" lon="0.34397">
        <ele>99.6</ele>
        <time>2024-01-14T11:09:49Z</time>
      </trkpt>
      <trkpt lat="46.54005" lon="0.34397">
        <ele>100</ele>
        <time>2024-01-14T11:09:51Z</time>
      </trkpt>
      <trkpt lat="46.54007" lon="0.34398">
        <ele>100.4</ele>
        <time>2024-01-14T11:09:52Z</time>
      </trkpt>
      <trkpt lat="46.54008" lon="0.34398">
        <ele>100.6</ele>
        <time>2024-01-14T11:09:53Z</time>
      </trkpt>
      <trkpt lat="46.5402" lon="0.34399">
        <ele>100.8</ele>
        <time>2024-01-14T11:09:59Z</time>
      </trkpt>
      <trkpt lat="46.54021" lon="0.34398">
        <ele>100.8</ele>
        <time>2024-01-14T11:10:00Z</time>
      </trkpt>
      <trkpt lat="46.54029" lon="0.34391">
        <ele>100.8</ele>
        <time>2024-01-14T11:10:05Z</time>
      </trkpt>
      <trkpt lat="46.54034" lon="0.34384">
        <ele>101</ele>
        <time>2024-01-14T11:10:10Z</time>
      </trkpt>
      <trkpt lat="46.54035" lon="0.34381">
        <ele>101</ele>
        <time>2024-01-14T11:10:11Z</time>
      </trkpt>
      <trkpt lat="46.54037" lon="0.34378">
        <ele>101</ele>
        <time>2024-01-14T11:10:12Z</time>
      </trkpt>
      <trkpt lat="46.54044" lon="0.34369">
        <ele>99.8</ele>
        <time>2024-01-14T11:10:16Z</time>
      </trkpt>
      <trkpt lat="46.5405" lon="0.3436">
        <ele>100.8</ele>
        <time>2024-01-14T11:10:22Z</time>
      </trkpt>
      <trkpt lat="46.54051" lon="0.34359">
        <ele>101</ele>
        <time>2024-01-14T11:10:23Z</time>
      </trkpt>
      <trkpt lat="46.54056" lon="0.34353">
        <ele>101.6</ele>
        <time>2024-01-14T11:10:27Z</time>
      </trkpt>
      <trkpt lat="46.54057" lon="0.3435">
        <ele>102.2</ele>
        <time>2024-01-14T11:10:29Z</time>
      </trkpt>
      <trkpt lat="46.54059" lon="0.34345">
        <ele>102.6</ele>
        <time>2024-01-14T11:10:33Z</time>
      </trkpt>
      <trkpt lat="46.54059" lon="0.34341">
        <ele>103</ele>
        <time>2024-01-14T11:10:36Z</time>
      </trkpt>
      <trkpt lat="46.54061" lon="0.34337">
        <ele>103.8</ele>
        <time>2024-01-14T11:10:39Z</time>
      </trkpt>
      <trkpt lat="46.54063" lon="0.34333">
        <ele>104</ele>
        <time>2024-01-14T11:10:41Z</time>
      </trkpt>
      <trkpt lat="46.54064" lon="0.34332">
        <ele>104.2</ele>
        <time>2024-01-14T11:10:42Z</time>
      </trkpt>
      <trkpt lat="46.54066" lon="0.3433">
        <ele>105</ele>
        <time>2024-01-14T11:10:44Z</time>
      </trkpt>
      <trkpt lat="46.54066" lon="0.34329">
        <ele>105.2</ele>
        <time>2024-01-14T11:10:45Z</time>
      </trkpt>
      <trkpt lat="46.54069" lon="0.34325">
        <ele>106</ele>
        <time>2024-01-14T11:10:48Z</time>
      </trkpt>
      <trkpt lat="46.54073" lon="0.34321">
        <ele>106.8</ele>
        <time>2024-01-14T11:10:52Z</time>
      </trkpt>
      <trkpt lat="46.54073" lon="0.3432">
        <ele>107.2</ele>
        <time>2024-01-14T11:10:53Z</time>
      </trkpt>
      <trkpt lat="46.54074" lon="0.34319">
        <ele>107.4</ele>
        <time>2024-01-14T11:10:54Z</time>
      </trkpt>
      <trkpt lat="46.54076" lon="0.34317">
        <ele>108</ele>
        <time>2024-01-14T11:10:56Z</time>
      </trkpt>
      <trkpt lat="46.54077" lon="0.34316">
        <ele>108.2</ele>
        <time>2024-01-14T11:10:57Z</time>
      </trkpt>
      <trkpt lat="46.54078" lon="0.34315">
        <ele>108.6</ele>
        <time>2024-01-14T11:10:58Z</time>
      </trkpt>
      <trkpt lat="46.5408" lon="0.34313">
        <ele>109.4</ele>
        <time>2024-01-14T11:11:00Z</time>
      </trkpt>
      <trkpt lat="46.54081" lon="0.34312">
        <ele>109.6</ele>
        <time>2024-01-14T11:11:01Z</time>
      </trkpt>
      <trkpt lat="46.54083" lon="0.34309">
        <ele>110.2</ele>
        <time>2024-01-14T11:11:04Z</time>
      </trkpt>
      <trkpt lat="46.54084" lon="0.34307">
        <ele>110.4</ele>
        <time>2024-01-14T11:11:05Z</time>
      </trkpt>
      <trkpt lat="46.54084" lon="0.34305">
        <ele>110.6</ele>
        <time>2024-01-14T11:11:06Z</time>
      </trkpt>
      <trkpt lat="46.54085" lon="0.34302">
        <ele>110.8</ele>
        <time>2024-01-14T11:11:08Z</time>
      </trkpt>
      <trkpt lat="46.54085" lon="0.34298">
        <ele>111</ele>
        <time>2024-01-14T11:11:10Z</time>
      </trkpt>
      <trkpt lat="46.54088" lon="0.34292">
        <ele>111</ele>
        <time>2024-01-14T11:11:13Z</time>
      </trkpt>
      <trkpt lat="46.54089" lon="0.34291">
        <ele>111.2</ele>
        <time>2024-01-14T11:11:14Z</time>
      </trkpt>
      <trkpt lat="46.54091" lon="0.34288">
        <ele>111.6</ele>
        <time>2024-01-14T11:11:16Z</time>
      </trkpt>
      <trkpt lat="46.54093" lon="0.34286">
        <ele>112</ele>
        <time>2024-01-14T11:11:18Z</time>
      </trkpt>
      <trkpt lat="46.54096" lon="0.34283">
        <ele>112.6</ele>
        <time>2024-01-14T11:11:21Z</time>
      </trkpt>
      <trkpt lat="46.54097" lon="0.34281">
        <ele>112.8</ele>
        <time>2024-01-14T11:11:22Z</time>
      </trkpt>
      <trkpt lat="46.54098" lon="0.34277">
        <ele>113.4</ele>
        <time>2024-01-14T11:11:24Z</time>
      </trkpt>
      <trkpt lat="46.54102" lon="0.34268">
        <ele>114</ele>
        <time>2024-01-14T11:11:29Z</time>
      </trkpt>
      <trkpt lat="46.54104" lon="0.34266">
        <ele>114.2</ele>
        <time>2024-01-14T11:11:30Z</time>
      </trkpt>
      <trkpt lat="46.54106" lon="0.3426">
        <ele>115</ele>
        <time>2024-01-14T11:11:34Z</time>
      </trkpt>
      <trkpt lat="46.54109" lon="0.34256">
        <ele>115.2</ele>
        <time>2024-01-14T11:11:36Z</time>
      </trkpt>
      <trkpt lat="46.54114" lon="0.34241">
        <ele>115.8</ele>
        <time>2024-01-14T11:11:43Z</time>
      </trkpt>
      <trkpt lat="46.54119" lon="0.34221">
        <ele>114.2</ele>
        <time>2024-01-14T11:11:48Z</time>
      </trkpt>
      <trkpt lat="46.54122" lon="0.34204">
        <ele>114.2</ele>
        <time>2024-01-14T11:11:53Z</time>
      </trkpt>
      <trkpt lat="46.54124" lon="0.342">
        <ele>114.2</ele>
        <time>2024-01-14T11:11:54Z</time>
      </trkpt>
      <trkpt lat="46.5413" lon="0.34184">
        <ele>114.8</ele>
        <time>2024-01-14T11:11:59Z</time>
      </trkpt>
      <trkpt lat="46.54135" lon="0.34172">
        <ele>115.2</ele>
        <time>2024-01-14T11:12:03Z</time>
      </trkpt>
      <trkpt lat="46.54138" lon="0.34167">
        <ele>115.8</ele>
        <time>2024-01-14T11:12:05Z</time>
      </trkpt>
      <trkpt lat="46.5414" lon="0.34161">
        <ele>116.4</ele>
        <time>2024-01-14T11:12:07Z</time>
      </trkpt>
      <trkpt lat="46.54148" lon="0.34149">
        <ele>117.6</ele>
        <time>2024-01-14T11:12:11Z</time>
      </trkpt>
      <trkpt lat="46.54149" lon="0.34146">
        <ele>117.6</ele>
        <time>2024-01-14T11:12:12Z</time>
      </trkpt>
      <trkpt lat="46.54157" lon="0.3413">
        <ele>117.2</ele>
        <time>2024-01-14T11:12:18Z</time>
      </trkpt>
      <trkpt lat="46.54161" lon="0.3412">
        <ele>117.4</ele>
        <time>2024-01-14T11:12:22Z</time>
      </trkpt>
      <trkpt lat="46.54162" lon="0.34118">
        <ele>117.4</ele>
        <time>2024-01-14T11:12:23Z</time>
      </trkpt>
      <trkpt lat="46.5417" lon="0.34098">
        <ele>117.2</ele>
        <time>2024-01-14T11:12:29Z</time>
      </trkpt>
      <trkpt lat="46.54173" lon="0.34087">
        <ele>116.6</ele>
        <time>2024-01-14T11:12:32Z</time>
      </trkpt>
      <trkpt lat="46.54174" lon="0.3408">
        <ele>116.4</ele>
        <time>2024-01-14T11:12:34Z</time>
      </trkpt>
      <trkpt lat="46.54175" lon="0.34076">
        <ele>116.4</ele>
        <time>2024-01-14T11:12:35Z</time>
      </trkpt>
      <trkpt lat="46.5418" lon="0.34066">
        <ele>116.6</ele>
        <time>2024-01-14T11:12:38Z</time>
      </trkpt>
      <trkpt lat="46.54184" lon="0.34066">
        <ele>117</ele>
        <time>2024-01-14T11:12:41Z</time>
      </trkpt>
      <trkpt lat="46.54187" lon="0.34069">
        <ele>117.2</ele>
        <time>2024-01-14T11:12:44Z</time>
      </trkpt>
      <trkpt lat="46.54191" lon="0.34078">
        <ele>117.8</ele>
        <time>2024-01-14T11:12:49Z</time>
      </trkpt>
      <trkpt lat="46.54194" lon="0.34084">
        <ele>118.6</ele>
        <time>2024-01-14T11:12:52Z</time>
      </trkpt>
      <trkpt lat="46.54195" lon="0.34086">
        <ele>119</ele>
        <time>2024-01-14T11:12:53Z</time>
      </trkpt>
      <trkpt lat="46.54195" lon="0.34087">
        <ele>119.2</ele>
        <time>2024-01-14T11:12:54Z</time>
      </trkpt>
      <trkpt lat="46.54198" lon="0.34088">
        <ele>119.2</ele>
        <time>2024-01-14T11:12:56Z</time>
      </trkpt>
      <trkpt lat="46.542" lon="0.34089">
        <ele>119.2</ele>
        <time>2024-01-14T11:12:58Z</time>
      </trkpt>
      <trkpt lat="46.54204" lon="0.34091">
        <ele>119.4</ele>
        <time>2024-01-14T11:13:01Z</time>
      </trkpt>
      <trkpt lat="46.54207" lon="0.34094">
        <ele>120</ele>
        <time>2024-01-14T11:13:03Z</time>
      </trkpt>
      <trkpt lat="46.54216" lon="0.34104">
        <ele>120</ele>
        <time>2024-01-14T11:13:08Z</time>
      </trkpt>
      <trkpt lat="46.54226" lon="0.34117">
        <ele>120.2</ele>
        <time>2024-01-14T11:13:14Z</time>
      </trkpt>
      <trkpt lat="46.54229" lon="0.34125">
        <ele>120.4</ele>
        <time>2024-01-14T11:13:17Z</time>
      </trkpt>
      <trkpt lat="46.5423" lon="0.3413">
        <ele>120.2</ele>
        <time>2024-01-14T11:13:19Z</time>
      </trkpt>
      <trkpt lat="46.5423" lon="0.34151">
        <ele>120.6</ele>
        <time>2024-01-14T11:13:26Z</time>
      </trkpt>
      <trkpt lat="46.5423" lon="0.34154">
        <ele>120.6</ele>
        <time>2024-01-14T11:13:27Z</time>
      </trkpt>
      <trkpt lat="46.54232" lon="0.34161">
        <ele>120.6</ele>
        <time>2024-01-14T11:13:30Z</time>
      </trkpt>
      <trkpt lat="46.54232" lon="0.34162">
        <ele>120.6</ele>
        <time>2024-01-14T11:13:31Z</time>
      </trkpt>
      <trkpt lat="46.54239" lon="0.34177">
        <ele>120.6</ele>
        <time>2024-01-14T11:13:37Z</time>
      </trkpt>
      <trkpt lat="46.54248" lon="0.34193">
        <ele>120</ele>
        <time>2024-01-14T11:13:45Z</time>
      </trkpt>
      <trkpt lat="46.54249" lon="0.34198">
        <ele>120.2</ele>
        <time>2024-01-14T11:13:47Z</time>
      </trkpt>
      <trkpt lat="46.54255" lon="0.34209">
        <ele>120.4</ele>
        <time>2024-01-14T11:13:51Z</time>
      </trkpt>
      <trkpt lat="46.54262" lon="0.34223">
        <ele>120.2</ele>
        <time>2024-01-14T11:13:57Z</time>
      </trkpt>
      <trkpt lat="46.54264" lon="0.34233">
        <ele>120.4</ele>
        <time>2024-01-14T11:14:01Z</time>
      </trkpt>
      <trkpt lat="46.54268" lon="0.34249">
        <ele>120.2</ele>
        <time>2024-01-14T11:14:09Z</time>
      </trkpt>
      <trkpt lat="46.54274" lon="0.34268">
        <ele>120.6</ele>
        <time>2024-01-14T11:14:15Z</time>
      </trkpt>
      <trkpt lat="46.54278" lon="0.3427">
        <ele>120.6</ele>
        <time>2024-01-14T11:14:16Z</time>
      </trkpt>
      <trkpt lat="46.54295" lon="0.34283">
        <ele>120.6</ele>
        <time>2024-01-14T11:14:21Z</time>
      </trkpt>
      <trkpt lat="46.54308" lon="0.34289">
        <ele>120.4</ele>
        <time>2024-01-14T11:14:24Z</time>
      </trkpt>
      <trkpt lat="46.54316" lon="0.34294">
        <ele>120.2</ele>
        <time>2024-01-14T11:14:26Z</time>
      </trkpt>
      <trkpt lat="46.54324" lon="0.34302">
        <ele>120</ele>
        <time>2024-01-14T11:14:28Z</time>
      </trkpt>
      <trkpt lat="46.54331" lon="0.34306">
        <ele>119.8</ele>
        <time>2024-01-14T11:14:30Z</time>
      </trkpt>
      <trkpt lat="46.54334" lon="0.34307">
        <ele>119.8</ele>
        <time>2024-01-14T11:14:31Z</time>
      </trkpt>
      <trkpt lat="46.54338" lon="0.34305">
        <ele>119.2</ele>
        <time>2024-01-14T11:14:34Z</time>
      </trkpt>
      <trkpt lat="46.54337" lon="0.34308">
        <ele>119</ele>
        <time>2024-01-14T11:14:36Z</time>
      </trkpt>
      <trkpt lat="46.54336" lon="0.34311">
        <ele>119</ele>
        <time>2024-01-14T11:14:37Z</time>
      </trkpt>
      <trkpt lat="46.5434" lon="0.34325">
        <ele>119.4</ele>
        <time>2024-01-14T11:14:40Z</time>
      </trkpt>
      <trkpt lat="46.54343" lon="0.34336">
        <ele>119.6</ele>
        <time>2024-01-14T11:14:42Z</time>
      </trkpt>
      <trkpt lat="46.54353" lon="0.34352">
        <ele>119.8</ele>
        <time>2024-01-14T11:14:45Z</time>
      </trkpt>
      <trkpt lat="46.5437" lon="0.3439">
        <ele>120</ele>
        <time>2024-01-14T11:14:50Z</time>
      </trkpt>
      <trkpt lat="46.54402" lon="0.34461">
        <ele>120.4</ele>
        <time>2024-01-14T11:14:59Z</time>
      </trkpt>
      <trkpt lat="46.5441" lon="0.34483">
        <ele>120.4</ele>
        <time>2024-01-14T11:15:02Z</time>
      </trkpt>
      <trkpt lat="46.54411" lon="0.34497">
        <ele>120.6</ele>
        <time>2024-01-14T11:15:04Z</time>
      </trkpt>
      <trkpt lat="46.54407" lon="0.34513">
        <ele>120.6</ele>
        <time>2024-01-14T11:15:06Z</time>
      </trkpt>
      <trkpt lat="46.544" lon="0.34524">
        <ele>120.8</ele>
        <time>2024-01-14T11:15:08Z</time>
      </trkpt>
      <trkpt lat="46.54393" lon="0.34533">
        <ele>120.8</ele>
        <time>2024-01-14T11:15:10Z</time>
      </trkpt>
      <trkpt lat="46.54389" lon="0.34542">
        <ele>121</ele>
        <time>2024-01-14T11:15:12Z</time>
      </trkpt>
      <trkpt lat="46.54388" lon="0.34546">
        <ele>121.2</ele>
        <time>2024-01-14T11:15:13Z</time>
      </trkpt>
      <trkpt lat="46.54388" lon="0.34551">
        <ele>121.2</ele>
        <time>2024-01-14T11:15:14Z</time>
      </trkpt>
      <trkpt lat="46.54389" lon="0.34559">
        <ele>121.4</ele>
        <time>2024-01-14T11:15:16Z</time>
      </trkpt>
      <trkpt lat="46.54389" lon="0.34564">
        <ele>121.4</ele>
        <time>2024-01-14T11:15:17Z</time>
      </trkpt>
      <trkpt lat="46.54388" lon="0.34568">
        <ele>121.4</ele>
        <time>2024-01-14T11:15:18Z</time>
      </trkpt>
      <trkpt lat="46.54383" lon="0.34575">
        <ele>121.4</ele>
        <time>2024-01-14T11:15:20Z</time>
      </trkpt>
      <trkpt lat="46.54372" lon="0.34584">
        <ele>121.4</ele>
        <time>2024-01-14T11:15:24Z</time>
      </trkpt>
      <trkpt lat="46.54369" lon="0.34585">
        <ele>121.4</ele>
        <time>2024-01-14T11:15:25Z</time>
      </trkpt>
      <trkpt lat="46.54359" lon="0.3459">
        <ele>121.4</ele>
        <time>2024-01-14T11:15:29Z</time>
      </trkpt>
      <trkpt lat="46.54355" lon="0.34596">
        <ele>121.4</ele>
        <time>2024-01-14T11:15:31Z</time>
      </trkpt>
      <trkpt lat="46.54351" lon="0.34603">
        <ele>121.2</ele>
        <time>2024-01-14T11:15:33Z</time>
      </trkpt>
      <trkpt lat="46.54347" lon="0.34607">
        <ele>121.2</ele>
        <time>2024-01-14T11:15:34Z</time>
      </trkpt>
      <trkpt lat="46.54336" lon="0.34616">
        <ele>121</ele>
        <time>2024-01-14T11:15:37Z</time>
      </trkpt>
      <trkpt lat="46.54326" lon="0.34627">
        <ele>120.6</ele>
        <time>2024-01-14T11:15:40Z</time>
      </trkpt>
      <trkpt lat="46.5432" lon="0.34633">
        <ele>120.6</ele>
        <time>2024-01-14T11:15:42Z</time>
      </trkpt>
      <trkpt lat="46.54314" lon="0.34641">
        <ele>120.6</ele>
        <time>2024-01-14T11:15:44Z</time>
      </trkpt>
      <trkpt lat="46.54311" lon="0.34644">
        <ele>120.6</ele>
        <time>2024-01-14T11:15:45Z</time>
      </trkpt>
      <trkpt lat="46.54308" lon="0.34648">
        <ele>120.6</ele>
        <time>2024-01-14T11:15:46Z</time>
      </trkpt>
      <trkpt lat="46.54301" lon="0.34658">
        <ele>120.6</ele>
        <time>2024-01-14T11:15:49Z</time>
      </trkpt>
      <trkpt lat="46.54292" lon="0.3467">
        <ele>120.4</ele>
        <time>2024-01-14T11:15:53Z</time>
      </trkpt>
      <trkpt lat="46.5429" lon="0.34672">
        <ele>120.4</ele>
        <time>2024-01-14T11:15:54Z</time>
      </trkpt>
      <trkpt lat="46.54273" lon="0.34681">
        <ele>120.8</ele>
        <time>2024-01-14T11:15:59Z</time>
      </trkpt>
      <trkpt lat="46.5427" lon="0.34683">
        <ele>121</ele>
        <time>2024-01-14T11:16:00Z</time>
      </trkpt>
      <trkpt lat="46.54268" lon="0.34689">
        <ele>121.2</ele>
        <time>2024-01-14T11:16:02Z</time>
      </trkpt>
      <trkpt lat="46.54265" lon="0.34706">
        <ele>121.6</ele>
        <time>2024-01-14T11:16:08Z</time>
      </trkpt>
      <trkpt lat="46.54267" lon="0.3472">
        <ele>121.8</ele>
        <time>2024-01-14T11:16:13Z</time>
      </trkpt>
      <trkpt lat="46.54268" lon="0.34725">
        <ele>121.8</ele>
        <time>2024-01-14T11:16:15Z</time>
      </trkpt>
      <trkpt lat="46.54267" lon="0.34732">
        <ele>121.8</ele>
        <time>2024-01-14T11:16:18Z</time>
      </trkpt>
      <trkpt lat="46.54266" lon="0.34754">
        <ele>122</ele>
        <time>2024-01-14T11:16:24Z</time>
      </trkpt>
      <trkpt lat="46.54265" lon="0.34757">
        <ele>122.2</ele>
        <time>2024-01-14T11:16:25Z</time>
      </trkpt>
      <trkpt lat="46.54264" lon="0.3476">
        <ele>122.2</ele>
        <time>2024-01-14T11:16:26Z</time>
      </trkpt>
      <trkpt lat="46.5426" lon="0.34777">
        <ele>122.2</ele>
        <time>2024-01-14T11:16:31Z</time>
      </trkpt>
      <trkpt lat="46.54254" lon="0.348">
        <ele>122.4</ele>
        <time>2024-01-14T11:16:36Z</time>
      </trkpt>
      <trkpt lat="46.54254" lon="0.34811">
        <ele>122.4</ele>
        <time>2024-01-14T11:16:38Z</time>
      </trkpt>
      <trkpt lat="46.54255" lon="0.3482">
        <ele>122.4</ele>
        <time>2024-01-14T11:16:40Z</time>
      </trkpt>
      <trkpt lat="46.54256" lon="0.34832">
        <ele>122.4</ele>
        <time>2024-01-14T11:16:42Z</time>
      </trkpt>
      <trkpt lat="46.5426" lon="0.34851">
        <ele>122.2</ele>
        <time>2024-01-14T11:16:45Z</time>
      </trkpt>
      <trkpt lat="46.54263" lon="0.34859">
        <ele>122.2</ele>
        <time>2024-01-14T11:16:47Z</time>
      </trkpt>
      <trkpt lat="46.54265" lon="0.34866">
        <ele>121.8</ele>
        <time>2024-01-14T11:16:49Z</time>
      </trkpt>
      <trkpt lat="46.5427" lon="0.34877">
        <ele>121.8</ele>
        <time>2024-01-14T11:16:52Z</time>
      </trkpt>
      <trkpt lat="46.54275" lon="0.34892">
        <ele>121.4</ele>
        <time>2024-01-14T11:16:55Z</time>
      </trkpt>
      <trkpt lat="46.54281" lon="0.349">
        <ele>121.4</ele>
        <time>2024-01-14T11:16:57Z</time>
      </trkpt>
      <trkpt lat="46.54287" lon="0.34909">
        <ele>121.2</ele>
        <time>2024-01-14T11:16:59Z</time>
      </trkpt>
      <trkpt lat="46.5429" lon="0.34913">
        <ele>121.2</ele>
        <time>2024-01-14T11:17:00Z</time>
      </trkpt>
      <trkpt lat="46.54292" lon="0.34919">
        <ele>121.4</ele>
        <time>2024-01-14T11:17:01Z</time>
      </trkpt>
      <trkpt lat="46.54296" lon="0.34927">
        <ele>121.4</ele>
        <time>2024-01-14T11:17:03Z</time>
      </trkpt>
      <trkpt lat="46.54299" lon="0.34935">
        <ele>121.4</ele>
        <time>2024-01-14T11:17:05Z</time>
      </trkpt>
      <trkpt lat="46.543" lon="0.34935">
        <ele>121.4</ele>
        <time>2024-01-14T11:17:06Z</time>
      </trkpt>
      <trkpt lat="46.54303" lon="0.3494">
        <ele>121.4</ele>
        <time>2024-01-14T11:17:09Z</time>
      </trkpt>
      <trkpt lat="46.54305" lon="0.34943">
        <ele>121.4</ele>
        <time>2024-01-14T11:17:10Z</time>
      </trkpt>
      <trkpt lat="46.54306" lon="0.34946">
        <ele>121.6</ele>
        <time>2024-01-14T11:17:11Z</time>
      </trkpt>
      <trkpt lat="46.54325" lon="0.34957">
        <ele>121.6</ele>
        <time>2024-01-14T11:17:19Z</time>
      </trkpt>
      <trkpt lat="46.5434" lon="0.34961">
        <ele>121.4</ele>
        <time>2024-01-14T11:17:25Z</time>
      </trkpt>
      <trkpt lat="46.54352" lon="0.34966">
        <ele>122</ele>
        <time>2024-01-14T11:17:31Z</time>
      </trkpt>
      <trkpt lat="46.54358" lon="0.34968">
        <ele>122.8</ele>
        <time>2024-01-14T11:17:34Z</time>
      </trkpt>
      <trkpt lat="46.54363" lon="0.34967">
        <ele>123.2</ele>
        <time>2024-01-14T11:17:36Z</time>
      </trkpt>
      <trkpt lat="46.54375" lon="0.34956">
        <ele>123.2</ele>
        <time>2024-01-14T11:17:42Z</time>
      </trkpt>
      <trkpt lat="46.5438" lon="0.34949">
        <ele>123.2</ele>
        <time>2024-01-14T11:17:44Z</time>
      </trkpt>
      <trkpt lat="46.54383" lon="0.34939">
        <ele>123</ele>
        <time>2024-01-14T11:17:47Z</time>
      </trkpt>
      <trkpt lat="46.54387" lon="0.34932">
        <ele>123</ele>
        <time>2024-01-14T11:17:49Z</time>
      </trkpt>
      <trkpt lat="46.54392" lon="0.34928">
        <ele>122.8</ele>
        <time>2024-01-14T11:17:51Z</time>
      </trkpt>
      <trkpt lat="46.54396" lon="0.34926">
        <ele>122.8</ele>
        <time>2024-01-14T11:17:52Z</time>
      </trkpt>
      <trkpt lat="46.54416" lon="0.34919">
        <ele>123</ele>
        <time>2024-01-14T11:17:59Z</time>
      </trkpt>
      <trkpt lat="46.5442" lon="0.34919">
        <ele>123</ele>
        <time>2024-01-14T11:18:00Z</time>
      </trkpt>
      <trkpt lat="46.54425" lon="0.34919">
        <ele>123</ele>
        <time>2024-01-14T11:18:02Z</time>
      </trkpt>
      <trkpt lat="46.54428" lon="0.34921">
        <ele>123</ele>
        <time>2024-01-14T11:18:03Z</time>
      </trkpt>
      <trkpt lat="46.54431" lon="0.34925">
        <ele>123.2</ele>
        <time>2024-01-14T11:18:05Z</time>
      </trkpt>
      <trkpt lat="46.5444" lon="0.34931">
        <ele>123.2</ele>
        <time>2024-01-14T11:18:08Z</time>
      </trkpt>
      <trkpt lat="46.54443" lon="0.34934">
        <ele>123.2</ele>
        <time>2024-01-14T11:18:09Z</time>
      </trkpt>
      <trkpt lat="46.54451" lon="0.34944">
        <ele>123.4</ele>
        <time>2024-01-14T11:18:13Z</time>
      </trkpt>
      <trkpt lat="46.54454" lon="0.34947">
        <ele>123.4</ele>
        <time>2024-01-14T11:18:14Z</time>
      </trkpt>
      <trkpt lat="46.54461" lon="0.34962">
        <ele>123.6</ele>
        <time>2024-01-14T11:18:18Z</time>
      </trkpt>
      <trkpt lat="46.54463" lon="0.34972">
        <ele>123.6</ele>
        <time>2024-01-14T11:18:20Z</time>
      </trkpt>
      <trkpt lat="46.54468" lon="0.34985">
        <ele>123.4</ele>
        <time>2024-01-14T11:18:23Z</time>
      </trkpt>
      <trkpt lat="46.54474" lon="0.34999">
        <ele>123.2</ele>
        <time>2024-01-14T11:18:26Z</time>
      </trkpt>
      <trkpt lat="46.54476" lon="0.35004">
        <ele>123.2</ele>
        <time>2024-01-14T11:18:27Z</time>
      </trkpt>
      <trkpt lat="46.54482" lon="0.35012">
        <ele>123</ele>
        <time>2024-01-14T11:18:29Z</time>
      </trkpt>
      <trkpt lat="46.54491" lon="0.35021">
        <ele>123</ele>
        <time>2024-01-14T11:18:31Z</time>
      </trkpt>
      <trkpt lat="46.54505" lon="0.35029">
        <ele>122.8</ele>
        <time>2024-01-14T11:18:34Z</time>
      </trkpt>
      <trkpt lat="46.54523" lon="0.35036">
        <ele>122.8</ele>
        <time>2024-01-14T11:18:37Z</time>
      </trkpt>
      <trkpt lat="46.54552" lon="0.35049">
        <ele>122.8</ele>
        <time>2024-01-14T11:18:42Z</time>
      </trkpt>
      <trkpt lat="46.54557" lon="0.35051">
        <ele>122.8</ele>
        <time>2024-01-14T11:18:43Z</time>
      </trkpt>
      <trkpt lat="46.54566" lon="0.35053">
        <ele>122.6</ele>
        <time>2024-01-14T11:18:44Z</time>
      </trkpt>
      <trkpt lat="46.54586" lon="0.35059">
        <ele>122.8</ele>
        <time>2024-01-14T11:18:47Z</time>
      </trkpt>
      <trkpt lat="46.54596" lon="0.35064">
        <ele>122.8</ele>
        <time>2024-01-14T11:18:49Z</time>
      </trkpt>
      <trkpt lat="46.54601" lon="0.35065">
        <ele>122.8</ele>
        <time>2024-01-14T11:18:50Z</time>
      </trkpt>
      <trkpt lat="46.54608" lon="0.35065">
        <ele>122.8</ele>
        <time>2024-01-14T11:18:52Z</time>
      </trkpt>
      <trkpt lat="46.54611" lon="0.35064">
        <ele>122.8</ele>
        <time>2024-01-14T11:18:53Z</time>
      </trkpt>
      <trkpt lat="46.54626" lon="0.35048">
        <ele>122.8</ele>
        <time>2024-01-14T11:18:58Z</time>
      </trkpt>
      <trkpt lat="46.54629" lon="0.35045">
        <ele>122.8</ele>
        <time>2024-01-14T11:18:59Z</time>
      </trkpt>
      <trkpt lat="46.54642" lon="0.35038">
        <ele>123.8</ele>
        <time>2024-01-14T11:19:03Z</time>
      </trkpt>
      <trkpt lat="46.54655" lon="0.35037">
        <ele>124.4</ele>
        <time>2024-01-14T11:19:06Z</time>
      </trkpt>
      <trkpt lat="46.5466" lon="0.35036">
        <ele>124.4</ele>
        <time>2024-01-14T11:19:07Z</time>
      </trkpt>
      <trkpt lat="46.5468" lon="0.3503">
        <ele>124.4</ele>
        <time>2024-01-14T11:19:11Z</time>
      </trkpt>
      <trkpt lat="46.54715" lon="0.35015">
        <ele>124.2</ele>
        <time>2024-01-14T11:19:18Z</time>
      </trkpt>
      <trkpt lat="46.54738" lon="0.35003">
        <ele>124.8</ele>
        <time>2024-01-14T11:19:24Z</time>
      </trkpt>
      <trkpt lat="46.54752" lon="0.34996">
        <ele>124.8</ele>
        <time>2024-01-14T11:19:27Z</time>
      </trkpt>
      <trkpt lat="46.54766" lon="0.34989">
        <ele>124.6</ele>
        <time>2024-01-14T11:19:30Z</time>
      </trkpt>
      <trkpt lat="46.548" lon="0.34969">
        <ele>124.8</ele>
        <time>2024-01-14T11:19:36Z</time>
      </trkpt>
      <trkpt lat="46.54836" lon="0.34949">
        <ele>125.2</ele>
        <time>2024-01-14T11:19:42Z</time>
      </trkpt>
      <trkpt lat="46.54876" lon="0.34925">
        <ele>125.2</ele>
        <time>2024-01-14T11:19:49Z</time>
      </trkpt>
      <trkpt lat="46.54919" lon="0.349">
        <ele>125.4</ele>
        <time>2024-01-14T11:19:56Z</time>
      </trkpt>
      <trkpt lat="46.54924" lon="0.34897">
        <ele>125.4</ele>
        <time>2024-01-14T11:19:57Z</time>
      </trkpt>
      <trkpt lat="46.54952" lon="0.34874">
        <ele>125.2</ele>
        <time>2024-01-14T11:20:03Z</time>
      </trkpt>
      <trkpt lat="46.54984" lon="0.34859">
        <ele>124.8</ele>
        <time>2024-01-14T11:20:09Z</time>
      </trkpt>
      <trkpt lat="46.5501" lon="0.34842">
        <ele>124.2</ele>
        <time>2024-01-14T11:20:14Z</time>
      </trkpt>
      <trkpt lat="46.55046" lon="0.34813">
        <ele>123.4</ele>
        <time>2024-01-14T11:20:20Z</time>
      </trkpt>
      <trkpt lat="46.55051" lon="0.34808">
        <ele>123</ele>
        <time>2024-01-14T11:20:21Z</time>
      </trkpt>
      <trkpt lat="46.55079" lon="0.34779">
        <ele>122</ele>
        <time>2024-01-14T11:20:26Z</time>
      </trkpt>
      <trkpt lat="46.55084" lon="0.34769">
        <ele>121.6</ele>
        <time>2024-01-14T11:20:28Z</time>
      </trkpt>
      <trkpt lat="46.55085" lon="0.34765">
        <ele>121.4</ele>
        <time>2024-01-14T11:20:29Z</time>
      </trkpt>
      <trkpt lat="46.55084" lon="0.34755">
        <ele>120.8</ele>
        <time>2024-01-14T11:20:33Z</time>
      </trkpt>
      <trkpt lat="46.55083" lon="0.34745">
        <ele>120.6</ele>
        <time>2024-01-14T11:20:36Z</time>
      </trkpt>
      <trkpt lat="46.55081" lon="0.34732">
        <ele>120.4</ele>
        <time>2024-01-14T11:20:39Z</time>
      </trkpt>
      <trkpt lat="46.5508" lon="0.34727">
        <ele>120.4</ele>
        <time>2024-01-14T11:20:40Z</time>
      </trkpt>
      <trkpt lat="46.55076" lon="0.34715">
        <ele>120.2</ele>
        <time>2024-01-14T11:20:42Z</time>
      </trkpt>
      <trkpt lat="46.55075" lon="0.34706">
        <ele>120</ele>
        <time>2024-01-14T11:20:44Z</time>
      </trkpt>
      <trkpt lat="46.55075" lon="0.34706">
        <ele>118.6</ele>
        <time>2024-01-14T11:20:45Z</time>
      </trkpt>
      <trkpt lat="46.55076" lon="0.34688">
        <ele>117.6</ele>
        <time>2024-01-14T11:20:48Z</time>
      </trkpt>
      <trkpt lat="46.55077" lon="0.34683">
        <ele>117.2</ele>
        <time>2024-01-14T11:20:49Z</time>
      </trkpt>
      <trkpt lat="46.55078" lon="0.34678">
        <ele>117</ele>
        <time>2024-01-14T11:20:50Z</time>
      </trkpt>
      <trkpt lat="46.55082" lon="0.34668">
        <ele>115.8</ele>
        <time>2024-01-14T11:20:52Z</time>
      </trkpt>
      <trkpt lat="46.55088" lon="0.34657">
        <ele>114.2</ele>
        <time>2024-01-14T11:20:55Z</time>
      </trkpt>
      <trkpt lat="46.55092" lon="0.3465">
        <ele>113.8</ele>
        <time>2024-01-14T11:20:57Z</time>
      </trkpt>
      <trkpt lat="46.55093" lon="0.34643">
        <ele>113.4</ele>
        <time>2024-01-14T11:20:59Z</time>
      </trkpt>
      <trkpt lat="46.55094" lon="0.34639">
        <ele>112.6</ele>
        <time>2024-01-14T11:21:00Z</time>
      </trkpt>
      <trkpt lat="46.55096" lon="0.34634">
        <ele>112.2</ele>
        <time>2024-01-14T11:21:01Z</time>
      </trkpt>
      <trkpt lat="46.55095" lon="0.34629">
        <ele>110.8</ele>
        <time>2024-01-14T11:21:02Z</time>
      </trkpt>
      <trkpt lat="46.55094" lon="0.34624">
        <ele>110.8</ele>
        <time>2024-01-14T11:21:03Z</time>
      </trkpt>
      <trkpt lat="46.55091" lon="0.34615">
        <ele>108.8</ele>
        <time>2024-01-14T11:21:05Z</time>
      </trkpt>
      <trkpt lat="46.55089" lon="0.3461">
        <ele>107.4</ele>
        <time>2024-01-14T11:21:06Z</time>
      </trkpt>
      <trkpt lat="46.55079" lon="0.34596">
        <ele>105</ele>
        <time>2024-01-14T11:21:08Z</time>
      </trkpt>
      <trkpt lat="46.55074" lon="0.34589">
        <ele>103.4</ele>
        <time>2024-01-14T11:21:09Z</time>
      </trkpt>
      <trkpt lat="46.55066" lon="0.34578">
        <ele>102.2</ele>
        <time>2024-01-14T11:21:10Z</time>
      </trkpt>
      <trkpt lat="46.55058" lon="0.34569">
        <ele>100.8</ele>
        <time>2024-01-14T11:21:11Z</time>
      </trkpt>
      <trkpt lat="46.5505" lon="0.3456">
        <ele>99.4</ele>
        <time>2024-01-14T11:21:12Z</time>
      </trkpt>
      <trkpt lat="46.55044" lon="0.34552">
        <ele>97.8</ele>
        <time>2024-01-14T11:21:13Z</time>
      </trkpt>
      <trkpt lat="46.55034" lon="0.3454">
        <ele>96.2</ele>
        <time>2024-01-14T11:21:15Z</time>
      </trkpt>
      <trkpt lat="46.55032" lon="0.34535">
        <ele>94.6</ele>
        <time>2024-01-14T11:21:16Z</time>
      </trkpt>
      <trkpt lat="46.55027" lon="0.34526">
        <ele>93</ele>
        <time>2024-01-14T11:21:18Z</time>
      </trkpt>
      <trkpt lat="46.55023" lon="0.3452">
        <ele>91.6</ele>
        <time>2024-01-14T11:21:20Z</time>
      </trkpt>
      <trkpt lat="46.55013" lon="0.34506">
        <ele>90.6</ele>
        <time>2024-01-14T11:21:24Z</time>
      </trkpt>
      <trkpt lat="46.55011" lon="0.34501">
        <ele>90.4</ele>
        <time>2024-01-14T11:21:25Z</time>
      </trkpt>
      <trkpt lat="46.55011" lon="0.34498">
        <ele>90.2</ele>
        <time>2024-01-14T11:21:26Z</time>
      </trkpt>
      <trkpt lat="46.55011" lon="0.34491">
        <ele>90</ele>
        <time>2024-01-14T11:21:28Z</time>
      </trkpt>
      <trkpt lat="46.55013" lon="0.34491">
        <ele>89.2</ele>
        <time>2024-01-14T11:21:29Z</time>
      </trkpt>
      <trkpt lat="46.55018" lon="0.34484">
        <ele>88.2</ele>
        <time>2024-01-14T11:21:31Z</time>
      </trkpt>
      <trkpt lat="46.55023" lon="0.34481">
        <ele>87.8</ele>
        <time>2024-01-14T11:21:32Z</time>
      </trkpt>
      <trkpt lat="46.55029" lon="0.34478">
        <ele>86.6</ele>
        <time>2024-01-14T11:21:33Z</time>
      </trkpt>
      <trkpt lat="46.55034" lon="0.34475">
        <ele>85.2</ele>
        <time>2024-01-14T11:21:34Z</time>
      </trkpt>
      <trkpt lat="46.55041" lon="0.34464">
        <ele>83</ele>
        <time>2024-01-14T11:21:36Z</time>
      </trkpt>
      <trkpt lat="46.55043" lon="0.3446">
        <ele>82.2</ele>
        <time>2024-01-14T11:21:37Z</time>
      </trkpt>
      <trkpt lat="46.55044" lon="0.34454">
        <ele>81.4</ele>
        <time>2024-01-14T11:21:38Z</time>
      </trkpt>
      <trkpt lat="46.55048" lon="0.3444">
        <ele>80.6</ele>
        <time>2024-01-14T11:21:40Z</time>
      </trkpt>
      <trkpt lat="46.5505" lon="0.34432">
        <ele>80</ele>
        <time>2024-01-14T11:21:41Z</time>
      </trkpt>
      <trkpt lat="46.5505" lon="0.34418">
        <ele>79.2</ele>
        <time>2024-01-14T11:21:43Z</time>
      </trkpt>
      <trkpt lat="46.5505" lon="0.3441">
        <ele>78.8</ele>
        <time>2024-01-14T11:21:44Z</time>
      </trkpt>
      <trkpt lat="46.55048" lon="0.344">
        <ele>78.6</ele>
        <time>2024-01-14T11:21:47Z</time>
      </trkpt>
      <trkpt lat="46.55046" lon="0.34395">
        <ele>78.6</ele>
        <time>2024-01-14T11:21:50Z</time>
      </trkpt>
      <trkpt lat="46.55049" lon="0.34387">
        <ele>78.8</ele>
        <time>2024-01-14T11:21:53Z</time>
      </trkpt>
      <trkpt lat="46.5505" lon="0.34378">
        <ele>79</ele>
        <time>2024-01-14T11:21:56Z</time>
      </trkpt>
      <trkpt lat="46.55047" lon="0.34371">
        <ele>79.2</ele>
        <time>2024-01-14T11:21:58Z</time>
      </trkpt>
      <trkpt lat="46.5504" lon="0.34358">
        <ele>79.8</ele>
        <time>2024-01-14T11:22:02Z</time>
      </trkpt>
      <trkpt lat="46.55041" lon="0.34355">
        <ele>80</ele>
        <time>2024-01-14T11:22:03Z</time>
      </trkpt>
      <trkpt lat="46.55042" lon="0.34355">
        <ele>80.2</ele>
        <time>2024-01-14T11:22:04Z</time>
      </trkpt>
      <trkpt lat="46.55049" lon="0.34355">
        <ele>81</ele>
        <time>2024-01-14T11:22:07Z</time>
      </trkpt>
      <trkpt lat="46.55068" lon="0.34356">
        <ele>81.8</ele>
        <time>2024-01-14T11:22:13Z</time>
      </trkpt>
      <trkpt lat="46.55073" lon="0.34357">
        <ele>82</ele>
        <time>2024-01-14T11:22:15Z</time>
      </trkpt>
      <trkpt lat="46.55082" lon="0.34361">
        <ele>82.6</ele>
        <time>2024-01-14T11:22:19Z</time>
      </trkpt>
      <trkpt lat="46.55095" lon="0.34365">
        <ele>83</ele>
        <time>2024-01-14T11:22:22Z</time>
      </trkpt>
      <trkpt lat="46.55104" lon="0.34368">
        <ele>83.2</ele>
        <time>2024-01-14T11:22:24Z</time>
      </trkpt>
      <trkpt lat="46.55109" lon="0.34369">
        <ele>83.2</ele>
        <time>2024-01-14T11:22:25Z</time>
      </trkpt>
      <trkpt lat="46.55127" lon="0.34377">
        <ele>83.4</ele>
        <time>2024-01-14T11:22:29Z</time>
      </trkpt>
      <trkpt lat="46.55131" lon="0.34379">
        <ele>83.2</ele>
        <time>2024-01-14T11:22:30Z</time>
      </trkpt>
      <trkpt lat="46.55146" lon="0.34387">
        <ele>83.2</ele>
        <time>2024-01-14T11:22:34Z</time>
      </trkpt>
      <trkpt lat="46.55157" lon="0.3439">
        <ele>83</ele>
        <time>2024-01-14T11:22:37Z</time>
      </trkpt>
      <trkpt lat="46.55163" lon="0.34392">
        <ele>83</ele>
        <time>2024-01-14T11:22:39Z</time>
      </trkpt>
      <trkpt lat="46.55165" lon="0.34393">
        <ele>83</ele>
        <time>2024-01-14T11:22:40Z</time>
      </trkpt>
      <trkpt lat="46.55166" lon="0.34391">
        <ele>83</ele>
        <time>2024-01-14T11:22:41Z</time>
      </trkpt>
      <trkpt lat="46.55164" lon="0.34387">
        <ele>83.4</ele>
        <time>2024-01-14T11:22:45Z</time>
      </trkpt>
      <trkpt lat="46.55161" lon="0.34386">
        <ele>84.2</ele>
        <time>2024-01-14T11:22:47Z</time>
      </trkpt>
      <trkpt lat="46.55154" lon="0.34383">
        <ele>85</ele>
        <time>2024-01-14T11:22:51Z</time>
      </trkpt>
      <trkpt lat="46.55151" lon="0.34381">
        <ele>85.4</ele>
        <time>2024-01-14T11:22:54Z</time>
      </trkpt>
      <trkpt lat="46.55147" lon="0.3438">
        <ele>86.2</ele>
        <time>2024-01-14T11:22:57Z</time>
      </trkpt>
      <trkpt lat="46.55146" lon="0.3438">
        <ele>86.6</ele>
        <time>2024-01-14T11:22:58Z</time>
      </trkpt>
      <trkpt lat="46.55139" lon="0.34376">
        <ele>87.6</ele>
        <time>2024-01-14T11:23:02Z</time>
      </trkpt>
      <trkpt lat="46.55137" lon="0.34375">
        <ele>87.6</ele>
        <time>2024-01-14T11:23:03Z</time>
      </trkpt>
      <trkpt lat="46.55125" lon="0.34366">
        <ele>88.4</ele>
        <time>2024-01-14T11:23:10Z</time>
      </trkpt>
      <trkpt lat="46.55123" lon="0.34361">
        <ele>88.6</ele>
        <time>2024-01-14T11:23:12Z</time>
      </trkpt>
      <trkpt lat="46.5512" lon="0.34356">
        <ele>88.8</ele>
        <time>2024-01-14T11:23:14Z</time>
      </trkpt>
      <trkpt lat="46.55117" lon="0.34353">
        <ele>89.2</ele>
        <time>2024-01-14T11:23:16Z</time>
      </trkpt>
      <trkpt lat="46.55114" lon="0.3435">
        <ele>89.6</ele>
        <time>2024-01-14T11:23:18Z</time>
      </trkpt>
      <trkpt lat="46.55106" lon="0.34343">
        <ele>90.2</ele>
        <time>2024-01-14T11:23:23Z</time>
      </trkpt>
      <trkpt lat="46.551" lon="0.3434">
        <ele>90.8</ele>
        <time>2024-01-14T11:23:26Z</time>
      </trkpt>
      <trkpt lat="46.55095" lon="0.34334">
        <ele>91.4</ele>
        <time>2024-01-14T11:23:30Z</time>
      </trkpt>
      <trkpt lat="46.55095" lon="0.34332">
        <ele>91.8</ele>
        <time>2024-01-14T11:23:32Z</time>
      </trkpt>
      <trkpt lat="46.55096" lon="0.34331">
        <ele>91.8</ele>
        <time>2024-01-14T11:23:33Z</time>
      </trkpt>
      <trkpt lat="46.55095" lon="0.34329">
        <ele>92.2</ele>
        <time>2024-01-14T11:23:36Z</time>
      </trkpt>
      <trkpt lat="46.55094" lon="0.34329">
        <ele>92.8</ele>
        <time>2024-01-14T11:23:38Z</time>
      </trkpt>
      <trkpt lat="46.55095" lon="0.34327">
        <ele>94</ele>
        <time>2024-01-14T11:23:42Z</time>
      </trkpt>
      <trkpt lat="46.55098" lon="0.34327">
        <ele>95</ele>
        <time>2024-01-14T11:23:46Z</time>
      </trkpt>
      <trkpt lat="46.55098" lon="0.34327">
        <ele>95.4</ele>
        <time>2024-01-14T11:23:47Z</time>
      </trkpt>
      <trkpt lat="46.55101" lon="0.34327">
        <ele>96.4</ele>
        <time>2024-01-14T11:23:51Z</time>
      </trkpt>
      <trkpt lat="46.55107" lon="0.34325">
        <ele>97.4</ele>
        <time>2024-01-14T11:23:57Z</time>
      </trkpt>
      <trkpt lat="46.55108" lon="0.34325">
        <ele>97.8</ele>
        <time>2024-01-14T11:23:58Z</time>
      </trkpt>
      <trkpt lat="46.55109" lon="0.34325">
        <ele>98.4</ele>
        <time>2024-01-14T11:24:00Z</time>
      </trkpt>
      <trkpt lat="46.55111" lon="0.34324">
        <ele>99.4</ele>
        <time>2024-01-14T11:24:04Z</time>
      </trkpt>
      <trkpt lat="46.55113" lon="0.34323">
        <ele>99.6</ele>
        <time>2024-01-14T11:24:06Z</time>
      </trkpt>
      <trkpt lat="46.55114" lon="0.34322">
        <ele>99.8</ele>
        <time>2024-01-14T11:24:07Z</time>
      </trkpt>
      <trkpt lat="46.55115" lon="0.34322">
        <ele>100.2</ele>
        <time>2024-01-14T11:24:09Z</time>
      </trkpt>
      <trkpt lat="46.55117" lon="0.34321">
        <ele>100.4</ele>
        <time>2024-01-14T11:24:11Z</time>
      </trkpt>
      <trkpt lat="46.55118" lon="0.3432">
        <ele>100.6</ele>
        <time>2024-01-14T11:24:12Z</time>
      </trkpt>
      <trkpt lat="46.55118" lon="0.34319">
        <ele>101</ele>
        <time>2024-01-14T11:24:14Z</time>
      </trkpt>
      <trkpt lat="46.5512" lon="0.34318">
        <ele>101.4</ele>
        <time>2024-01-14T11:24:16Z</time>
      </trkpt>
      <trkpt lat="46.55121" lon="0.34317">
        <ele>101.8</ele>
        <time>2024-01-14T11:24:18Z</time>
      </trkpt>
      <trkpt lat="46.55124" lon="0.34315">
        <ele>102.6</ele>
        <time>2024-01-14T11:24:22Z</time>
      </trkpt>
      <trkpt lat="46.55125" lon="0.34315">
        <ele>102.8</ele>
        <time>2024-01-14T11:24:23Z</time>
      </trkpt>
      <trkpt lat="46.5513" lon="0.34313">
        <ele>103.4</ele>
        <time>2024-01-14T11:24:26Z</time>
      </trkpt>
      <trkpt lat="46.55136" lon="0.34313">
        <ele>104</ele>
        <time>2024-01-14T11:24:29Z</time>
      </trkpt>
      <trkpt lat="46.5514" lon="0.34314">
        <ele>104</ele>
        <time>2024-01-14T11:24:31Z</time>
      </trkpt>
      <trkpt lat="46.5515" lon="0.34322">
        <ele>103.8</ele>
        <time>2024-01-14T11:24:38Z</time>
      </trkpt>
      <trkpt lat="46.55167" lon="0.34329">
        <ele>104</ele>
        <time>2024-01-14T11:24:45Z</time>
      </trkpt>
      <trkpt lat="46.55181" lon="0.34331">
        <ele>104.4</ele>
        <time>2024-01-14T11:24:50Z</time>
      </trkpt>
      <trkpt lat="46.55198" lon="0.34333">
        <ele>104.8</ele>
        <time>2024-01-14T11:24:56Z</time>
      </trkpt>
      <trkpt lat="46.55203" lon="0.34334">
        <ele>105.2</ele>
        <time>2024-01-14T11:24:58Z</time>
      </trkpt>
      <trkpt lat="46.55211" lon="0.34337">
        <ele>105.6</ele>
        <time>2024-01-14T11:25:02Z</time>
      </trkpt>
      <trkpt lat="46.55226" lon="0.34339">
        <ele>106.2</ele>
        <time>2024-01-14T11:25:07Z</time>
      </trkpt>
      <trkpt lat="46.55235" lon="0.34338">
        <ele>106.4</ele>
        <time>2024-01-14T11:25:09Z</time>
      </trkpt>
      <trkpt lat="46.55241" lon="0.34343">
        <ele>106.6</ele>
        <time>2024-01-14T11:25:11Z</time>
      </trkpt>
      <trkpt lat="46.55255" lon="0.34345">
        <ele>107.2</ele>
        <time>2024-01-14T11:25:15Z</time>
      </trkpt>
      <trkpt lat="46.55258" lon="0.34344">
        <ele>107.4</ele>
        <time>2024-01-14T11:25:16Z</time>
      </trkpt>
      <trkpt lat="46.5527" lon="0.34346">
        <ele>108.2</ele>
        <time>2024-01-14T11:25:20Z</time>
      </trkpt>
      <trkpt lat="46.55275" lon="0.34346">
        <ele>108.8</ele>
        <time>2024-01-14T11:25:22Z</time>
      </trkpt>
      <trkpt lat="46.55278" lon="0.34347">
        <ele>109.2</ele>
        <time>2024-01-14T11:25:24Z</time>
      </trkpt>
      <trkpt lat="46.55291" lon="0.34345">
        <ele>110.6</ele>
        <time>2024-01-14T11:25:29Z</time>
      </trkpt>
      <trkpt lat="46.55293" lon="0.34344">
        <ele>110.6</ele>
        <time>2024-01-14T11:25:30Z</time>
      </trkpt>
      <trkpt lat="46.55303" lon="0.34344">
        <ele>111.6</ele>
        <time>2024-01-14T11:25:34Z</time>
      </trkpt>
      <trkpt lat="46.55314" lon="0.34345">
        <ele>112.6</ele>
        <time>2024-01-14T11:25:38Z</time>
      </trkpt>
      <trkpt lat="46.55314" lon="0.34345">
        <ele>112.6</ele>
        <time>2024-01-14T11:25:39Z</time>
      </trkpt>
      <trkpt lat="46.55323" lon="0.34348">
        <ele>113.8</ele>
        <time>2024-01-14T11:25:44Z</time>
      </trkpt>
      <trkpt lat="46.55327" lon="0.34348">
        <ele>114</ele>
        <time>2024-01-14T11:25:46Z</time>
      </trkpt>
      <trkpt lat="46.55343" lon="0.3435">
        <ele>114.6</ele>
        <time>2024-01-14T11:25:53Z</time>
      </trkpt>
      <trkpt lat="46.55358" lon="0.34351">
        <ele>114</ele>
        <time>2024-01-14T11:25:59Z</time>
      </trkpt>
      <trkpt lat="46.55361" lon="0.3435">
        <ele>113.8</ele>
        <time>2024-01-14T11:26:00Z</time>
      </trkpt>
      <trkpt lat="46.55366" lon="0.34348">
        <ele>113.4</ele>
        <time>2024-01-14T11:26:02Z</time>
      </trkpt>
      <trkpt lat="46.5537" lon="0.34344">
        <ele>113.2</ele>
        <time>2024-01-14T11:26:04Z</time>
      </trkpt>
      <trkpt lat="46.55387" lon="0.34337">
        <ele>114</ele>
        <time>2024-01-14T11:26:11Z</time>
      </trkpt>
      <trkpt lat="46.55394" lon="0.34334">
        <ele>115</ele>
        <time>2024-01-14T11:26:15Z</time>
      </trkpt>
      <trkpt lat="46.55398" lon="0.34333">
        <ele>115.4</ele>
        <time>2024-01-14T11:26:17Z</time>
      </trkpt>
      <trkpt lat="46.55414" lon="0.34328">
        <ele>116</ele>
        <time>2024-01-14T11:26:23Z</time>
      </trkpt>
      <trkpt lat="46.55418" lon="0.34326">
        <ele>116.2</ele>
        <time>2024-01-14T11:26:24Z</time>
      </trkpt>
      <trkpt lat="46.55425" lon="0.34325">
        <ele>116.4</ele>
        <time>2024-01-14T11:26:28Z</time>
      </trkpt>
      <trkpt lat="46.55426" lon="0.34325">
        <ele>116.4</ele>
        <time>2024-01-14T11:26:30Z</time>
      </trkpt>
      <trkpt lat="46.5544" lon="0.34322">
        <ele>116.2</ele>
        <time>2024-01-14T11:26:35Z</time>
      </trkpt>
      <trkpt lat="46.55458" lon="0.34322">
        <ele>117</ele>
        <time>2024-01-14T11:26:41Z</time>
      </trkpt>
      <trkpt lat="46.55464" lon="0.34322">
        <ele>117</ele>
        <time>2024-01-14T11:26:43Z</time>
      </trkpt>
      <trkpt lat="46.55476" lon="0.34324">
        <ele>117.8</ele>
        <time>2024-01-14T11:26:48Z</time>
      </trkpt>
      <trkpt lat="46.55477" lon="0.34323">
        <ele>118</ele>
        <time>2024-01-14T11:26:49Z</time>
      </trkpt>
      <trkpt lat="46.55476" lon="0.34318">
        <ele>118.6</ele>
        <time>2024-01-14T11:26:51Z</time>
      </trkpt>
      <trkpt lat="46.55477" lon="0.34311">
        <ele>119.2</ele>
        <time>2024-01-14T11:26:54Z</time>
      </trkpt>
      <trkpt lat="46.55475" lon="0.34302">
        <ele>119.8</ele>
        <time>2024-01-14T11:26:58Z</time>
      </trkpt>
      <trkpt lat="46.55474" lon="0.34296">
        <ele>120.2</ele>
        <time>2024-01-14T11:27:00Z</time>
      </trkpt>
      <trkpt lat="46.55468" lon="0.34283">
        <ele>121.4</ele>
        <time>2024-01-14T11:27:06Z</time>
      </trkpt>
      <trkpt lat="46.55465" lon="0.34273">
        <ele>122.6</ele>
        <time>2024-01-14T11:27:10Z</time>
      </trkpt>
      <trkpt lat="46.55463" lon="0.34265">
        <ele>123</ele>
        <time>2024-01-14T11:27:13Z</time>
      </trkpt>
      <trkpt lat="46.55459" lon="0.34253">
        <ele>123.6</ele>
        <time>2024-01-14T11:27:18Z</time>
      </trkpt>
      <trkpt lat="46.55458" lon="0.34248">
        <ele>123.8</ele>
        <time>2024-01-14T11:27:20Z</time>
      </trkpt>
      <trkpt lat="46.55458" lon="0.34246">
        <ele>123.8</ele>
        <time>2024-01-14T11:27:21Z</time>
      </trkpt>
      <trkpt lat="46.55461" lon="0.34241">
        <ele>123.8</ele>
        <time>2024-01-14T11:27:23Z</time>
      </trkpt>
      <trkpt lat="46.55463" lon="0.3424">
        <ele>124</ele>
        <time>2024-01-14T11:27:24Z</time>
      </trkpt>
      <trkpt lat="46.55474" lon="0.34238">
        <ele>124.6</ele>
        <time>2024-01-14T11:27:29Z</time>
      </trkpt>
      <trkpt lat="46.55477" lon="0.34238">
        <ele>124.8</ele>
        <time>2024-01-14T11:27:30Z</time>
      </trkpt>
      <trkpt lat="46.55494" lon="0.34234">
        <ele>125.2</ele>
        <time>2024-01-14T11:27:36Z</time>
      </trkpt>
      <trkpt lat="46.55509" lon="0.3423">
        <ele>125.6</ele>
        <time>2024-01-14T11:27:40Z</time>
      </trkpt>
      <trkpt lat="46.5552" lon="0.34229">
        <ele>125.8</ele>
        <time>2024-01-14T11:27:43Z</time>
      </trkpt>
      <trkpt lat="46.5555" lon="0.34223">
        <ele>126.2</ele>
        <time>2024-01-14T11:27:51Z</time>
      </trkpt>
      <trkpt lat="46.55567" lon="0.34221">
        <ele>126.4</ele>
        <time>2024-01-14T11:27:57Z</time>
      </trkpt>
      <trkpt lat="46.55582" lon="0.34221">
        <ele>126.2</ele>
        <time>2024-01-14T11:28:01Z</time>
      </trkpt>
      <trkpt lat="46.55595" lon="0.34217">
        <ele>126.2</ele>
        <time>2024-01-14T11:28:04Z</time>
      </trkpt>
      <trkpt lat="46.55611" lon="0.34217">
        <ele>126.4</ele>
        <time>2024-01-14T11:28:07Z</time>
      </trkpt>
      <trkpt lat="46.55625" lon="0.3422">
        <ele>126.6</ele>
        <time>2024-01-14T11:28:10Z</time>
      </trkpt>
      <trkpt lat="46.55649" lon="0.34225">
        <ele>126.6</ele>
        <time>2024-01-14T11:28:15Z</time>
      </trkpt>
      <trkpt lat="46.55662" lon="0.3423">
        <ele>126.8</ele>
        <time>2024-01-14T11:28:18Z</time>
      </trkpt>
      <trkpt lat="46.5567" lon="0.34236">
        <ele>126.8</ele>
        <time>2024-01-14T11:28:20Z</time>
      </trkpt>
      <trkpt lat="46.55677" lon="0.34245">
        <ele>126.8</ele>
        <time>2024-01-14T11:28:22Z</time>
      </trkpt>
      <trkpt lat="46.55683" lon="0.34255">
        <ele>127</ele>
        <time>2024-01-14T11:28:24Z</time>
      </trkpt>
      <trkpt lat="46.55686" lon="0.34258">
        <ele>127</ele>
        <time>2024-01-14T11:28:25Z</time>
      </trkpt>
      <trkpt lat="46.5569" lon="0.34261">
        <ele>127</ele>
        <time>2024-01-14T11:28:26Z</time>
      </trkpt>
      <trkpt lat="46.55699" lon="0.34262">
        <ele>127.4</ele>
        <time>2024-01-14T11:28:28Z</time>
      </trkpt>
      <trkpt lat="46.55709" lon="0.34261">
        <ele>127.4</ele>
        <time>2024-01-14T11:28:30Z</time>
      </trkpt>
      <trkpt lat="46.55718" lon="0.34264">
        <ele>127.6</ele>
        <time>2024-01-14T11:28:32Z</time>
      </trkpt>
      <trkpt lat="46.55721" lon="0.34266">
        <ele>127.6</ele>
        <time>2024-01-14T11:28:33Z</time>
      </trkpt>
      <trkpt lat="46.5574" lon="0.34276">
        <ele>127.8</ele>
        <time>2024-01-14T11:28:38Z</time>
      </trkpt>
      <trkpt lat="46.5576" lon="0.34293">
        <ele>127.6</ele>
        <time>2024-01-14T11:28:43Z</time>
      </trkpt>
      <trkpt lat="46.55765" lon="0.34295">
        <ele>127.6</ele>
        <time>2024-01-14T11:28:44Z</time>
      </trkpt>
      <trkpt lat="46.55784" lon="0.34302">
        <ele>128</ele>
        <time>2024-01-14T11:28:48Z</time>
      </trkpt>
      <trkpt lat="46.55789" lon="0.34303">
        <ele>128</ele>
        <time>2024-01-14T11:28:49Z</time>
      </trkpt>
      <trkpt lat="46.55797" lon="0.34305">
        <ele>128</ele>
        <time>2024-01-14T11:28:51Z</time>
      </trkpt>
      <trkpt lat="46.5581" lon="0.34306">
        <ele>128</ele>
        <time>2024-01-14T11:28:54Z</time>
      </trkpt>
      <trkpt lat="46.55815" lon="0.34313">
        <ele>128</ele>
        <time>2024-01-14T11:28:56Z</time>
      </trkpt>
      <trkpt lat="46.55817" lon="0.34321">
        <ele>127.8</ele>
        <time>2024-01-14T11:28:58Z</time>
      </trkpt>
      <trkpt lat="46.55819" lon="0.34348">
        <ele>127.6</ele>
        <time>2024-01-14T11:29:04Z</time>
      </trkpt>
      <trkpt lat="46.55817" lon="0.34355">
        <ele>127.6</ele>
        <time>2024-01-14T11:29:06Z</time>
      </trkpt>
      <trkpt lat="46.55816" lon="0.34355">
        <ele>127.8</ele>
        <time>2024-01-14T11:29:07Z</time>
      </trkpt>
      <trkpt lat="46.55816" lon="0.34343">
        <ele>127.8</ele>
        <time>2024-01-14T11:29:11Z</time>
      </trkpt>
      <trkpt lat="46.55816" lon="0.34338">
        <ele>127.8</ele>
        <time>2024-01-14T11:29:13Z</time>
      </trkpt>
      <trkpt lat="46.55818" lon="0.34338">
        <ele>127.8</ele>
        <time>2024-01-14T11:29:15Z</time>
      </trkpt>
      <trkpt lat="46.55823" lon="0.3434">
        <ele>127.6</ele>
        <time>2024-01-14T11:29:19Z</time>
      </trkpt>
      <trkpt lat="46.55823" lon="0.3434">
        <ele>127.6</ele>
        <time>2024-01-14T11:29:20Z</time>
      </trkpt>
      <trkpt lat="46.55826" lon="0.34339">
        <ele>127.6</ele>
        <time>2024-01-14T11:29:29Z</time>
      </trkpt>
      <trkpt lat="46.55827" lon="0.34339">
        <ele>127.6</ele>
        <time>2024-01-14T11:29:43Z</time>
      </trkpt>
      <trkpt lat="46.55825" lon="0.3434">
        <ele>127.4</ele>
        <time>2024-01-14T11:29:56Z</time>
      </trkpt>
      <trkpt lat="46.55823" lon="0.34354">
        <ele>127.6</ele>
        <time>2024-01-14T11:30:01Z</time>
      </trkpt>
      <trkpt lat="46.55815" lon="0.34371">
        <ele>127.6</ele>
        <time>2024-01-14T11:30:05Z</time>
      </trkpt>
      <trkpt lat="46.55814" lon="0.34377">
        <ele>127.4</ele>
        <time>2024-01-14T11:30:06Z</time>
      </trkpt>
      <trkpt lat="46.55814" lon="0.3439">
        <ele>127.4</ele>
        <time>2024-01-14T11:30:08Z</time>
      </trkpt>
      <trkpt lat="46.55816" lon="0.34396">
        <ele>127.6</ele>
        <time>2024-01-14T11:30:09Z</time>
      </trkpt>
      <trkpt lat="46.55818" lon="0.34402">
        <ele>127.6</ele>
        <time>2024-01-14T11:30:10Z</time>
      </trkpt>
      <trkpt lat="46.55826" lon="0.34408">
        <ele>127.8</ele>
        <time>2024-01-14T11:30:12Z</time>
      </trkpt>
      <trkpt lat="46.55831" lon="0.3441">
        <ele>127.6</ele>
        <time>2024-01-14T11:30:13Z</time>
      </trkpt>
      <trkpt lat="46.55851" lon="0.34413">
        <ele>127.6</ele>
        <time>2024-01-14T11:30:17Z</time>
      </trkpt>
      <trkpt lat="46.55861" lon="0.34415">
        <ele>127.8</ele>
        <time>2024-01-14T11:30:19Z</time>
      </trkpt>
      <trkpt lat="46.55869" lon="0.3442">
        <ele>127.8</ele>
        <time>2024-01-14T11:30:21Z</time>
      </trkpt>
      <trkpt lat="46.55873" lon="0.34416">
        <ele>128</ele>
        <time>2024-01-14T11:30:23Z</time>
      </trkpt>
      <trkpt lat="46.55874" lon="0.34414">
        <ele>127.8</ele>
        <time>2024-01-14T11:30:26Z</time>
      </trkpt>
    </trkseg>
  </trk>
</gpx>